<?xml version="1.0" encoding="UTF-8" standalone="no" ?>
<gpx xmlns="http://www.topografix.com/GPX/1/1" xmlns:xsi="http://www.w3.org/2001/XMLSchema-instance" xsi:schemaLocation="http://www.topografix.com/GPX/1/1 http://www.topografix.com/GPX/1/1/gpx.xsd" version="1.1" creator="VisuGPX - https://www.visugpx.com">
  <metadata>
    <name>vivy-moulin bleu</name>
  </metadata>
  <wpt lat="47.30024" lon="0.16398">
    <ele>107</ele>
    <name><![CDATA[RAVITO]]></name>
  </wpt>
  <trk>
    <name><![CDATA[vivy-moulin bleu_1]]></name>
    <trkseg>
      <trkpt lat="47.32614" lon="-0.03664">
        <ele>33.3</ele>
      </trkpt>
      <trkpt lat="47.32573" lon="-0.03655">
        <ele>32.8</ele>
      </trkpt>
      <trkpt lat="47.3258" lon="-0.03603">
        <ele>32.2</ele>
      </trkpt>
      <trkpt lat="47.32611" lon="-0.0341">
        <ele>36</ele>
      </trkpt>
      <trkpt lat="47.32669" lon="-0.03365">
        <ele>36.6</ele>
      </trkpt>
      <trkpt lat="47.32795" lon="-0.03382">
        <ele>35.7</ele>
      </trkpt>
      <trkpt lat="47.32891" lon="-0.03263">
        <ele>36.8</ele>
      </trkpt>
      <trkpt lat="47.33194" lon="-0.02872">
        <ele>40.8</ele>
      </trkpt>
      <trkpt lat="47.33352" lon="-0.02651">
        <ele>43</ele>
      </trkpt>
      <trkpt lat="47.33532" lon="-0.02493">
        <ele>43.7</ele>
      </trkpt>
      <trkpt lat="47.33563" lon="-0.02368">
        <ele>44.5</ele>
      </trkpt>
      <trkpt lat="47.33701" lon="-0.02232">
        <ele>45.9</ele>
      </trkpt>
      <trkpt lat="47.33855" lon="-0.02153">
        <ele>48.4</ele>
      </trkpt>
      <trkpt lat="47.34023" lon="-0.02125">
        <ele>45.5</ele>
      </trkpt>
      <trkpt lat="47.34196" lon="-0.02028">
        <ele>47.8</ele>
      </trkpt>
      <trkpt lat="47.34292" lon="-0.01926">
        <ele>49.4</ele>
      </trkpt>
      <trkpt lat="47.34411" lon="-0.01785">
        <ele>51.4</ele>
      </trkpt>
      <trkpt lat="47.34603" lon="-0.01471">
        <ele>53</ele>
      </trkpt>
      <trkpt lat="47.34952" lon="-0.00774">
        <ele>56.2</ele>
      </trkpt>
      <trkpt lat="47.34954" lon="-0.00718">
        <ele>56.3</ele>
      </trkpt>
      <trkpt lat="47.35047" lon="-0.00614">
        <ele>60.058594</ele>
        <time>2011-03-20T10:02:59Z</time>
      </trkpt>
      <trkpt lat="47.35052" lon="-0.00576">
        <ele>59.730469</ele>
        <time>2011-03-20T10:02:59Z</time>
      </trkpt>
      <trkpt lat="47.35125" lon="-0.00497">
        <ele>61.351562</ele>
        <time>2011-03-20T10:02:59Z</time>
      </trkpt>
      <trkpt lat="47.35184" lon="-0.00418">
        <ele>63.488281</ele>
        <time>2011-03-20T10:02:59Z</time>
      </trkpt>
      <trkpt lat="47.35241" lon="-0.00362">
        <ele>66.5</ele>
        <time>2011-03-20T10:02:59Z</time>
      </trkpt>
      <trkpt lat="47.35286" lon="-0.00323">
        <ele>69.464844</ele>
        <time>2011-03-20T10:02:59Z</time>
      </trkpt>
      <trkpt lat="47.35356" lon="-0.00237">
        <ele>74.398438</ele>
        <time>2011-03-20T10:02:59Z</time>
      </trkpt>
      <trkpt lat="47.35378" lon="-0.00155">
        <ele>74.953125</ele>
        <time>2011-03-20T10:02:59Z</time>
      </trkpt>
      <trkpt lat="47.35413" lon="-0.00086">
        <ele>76.738281</ele>
        <time>2011-03-20T10:02:59Z</time>
      </trkpt>
      <trkpt lat="47.35472" lon="-1.0E-5">
        <ele>76.035156</ele>
        <time>2011-03-20T10:02:59Z</time>
      </trkpt>
      <trkpt lat="47.35564" lon="0.00124">
        <ele>75.691406</ele>
        <time>2011-03-20T10:02:59Z</time>
      </trkpt>
      <trkpt lat="47.3565" lon="0.0022">
        <ele>76.382812</ele>
        <time>2011-03-20T10:02:59Z</time>
      </trkpt>
      <trkpt lat="47.35688" lon="0.00296">
        <ele>77.28125</ele>
        <time>2011-03-20T10:02:59Z</time>
      </trkpt>
      <trkpt lat="47.35214" lon="0.00805">
        <ele>73.46875</ele>
        <time>2011-03-20T10:02:59Z</time>
      </trkpt>
      <trkpt lat="47.35191" lon="0.00818">
        <ele>67.91</ele>
        <time>2011-03-20T10:02:59Z</time>
      </trkpt>
      <trkpt lat="47.35191" lon="0.00827">
        <ele>67.91</ele>
        <time>2011-03-20T10:02:58Z</time>
      </trkpt>
      <trkpt lat="47.35189" lon="0.00837">
        <ele>67.91</ele>
        <time>2011-03-20T10:02:57Z</time>
      </trkpt>
      <trkpt lat="47.35187" lon="0.00846">
        <ele>67.43</ele>
        <time>2011-03-20T10:02:56Z</time>
      </trkpt>
      <trkpt lat="47.35182" lon="0.00854">
        <ele>68.87</ele>
        <time>2011-03-20T10:02:55Z</time>
      </trkpt>
      <trkpt lat="47.35176" lon="0.00861">
        <ele>70.31</ele>
        <time>2011-03-20T10:02:54Z</time>
      </trkpt>
      <trkpt lat="47.35169" lon="0.00866">
        <ele>70.31</ele>
        <time>2011-03-20T10:02:53Z</time>
      </trkpt>
      <trkpt lat="47.35153" lon="0.00887">
        <ele>71.76</ele>
        <time>2011-03-20T10:02:50Z</time>
      </trkpt>
      <trkpt lat="47.35144" lon="0.009">
        <ele>73.2</ele>
        <time>2011-03-20T10:02:48Z</time>
      </trkpt>
      <trkpt lat="47.3513" lon="0.00925">
        <ele>75.12</ele>
        <time>2011-03-20T10:02:45Z</time>
      </trkpt>
      <trkpt lat="47.35118" lon="0.00941">
        <ele>78</ele>
        <time>2011-03-20T10:02:43Z</time>
      </trkpt>
      <trkpt lat="47.35104" lon="0.00956">
        <ele>79.93</ele>
        <time>2011-03-20T10:02:41Z</time>
      </trkpt>
      <trkpt lat="47.35087" lon="0.00984">
        <ele>83.77</ele>
        <time>2011-03-20T10:02:37Z</time>
      </trkpt>
      <trkpt lat="47.35084" lon="0.00989">
        <ele>83.77</ele>
        <time>2011-03-20T10:02:36Z</time>
      </trkpt>
      <trkpt lat="47.35055" lon="0.01019">
        <ele>84.73</ele>
        <time>2011-03-20T10:02:30Z</time>
      </trkpt>
      <trkpt lat="47.35046" lon="0.01035">
        <ele>86.18</ele>
        <time>2011-03-20T10:02:27Z</time>
      </trkpt>
      <trkpt lat="47.3504" lon="0.01044">
        <ele>86.66</ele>
        <time>2011-03-20T10:02:25Z</time>
      </trkpt>
      <trkpt lat="47.3503" lon="0.01069">
        <ele>87.62</ele>
        <time>2011-03-20T10:02:21Z</time>
      </trkpt>
      <trkpt lat="47.35024" lon="0.01082">
        <ele>88.1</ele>
        <time>2011-03-20T10:02:19Z</time>
      </trkpt>
      <trkpt lat="47.3501" lon="0.01103">
        <ele>89.06</ele>
        <time>2011-03-20T10:02:16Z</time>
      </trkpt>
      <trkpt lat="47.35" lon="0.01122">
        <ele>89.54</ele>
        <time>2011-03-20T10:02:12Z</time>
      </trkpt>
      <trkpt lat="47.34971" lon="0.01149">
        <ele>91.46</ele>
        <time>2011-03-20T10:02:05Z</time>
      </trkpt>
      <trkpt lat="47.34963" lon="0.01163">
        <ele>91.94</ele>
        <time>2011-03-20T10:02:00Z</time>
      </trkpt>
      <trkpt lat="47.34942" lon="0.01189">
        <ele>91.46</ele>
        <time>2011-03-20T10:01:52Z</time>
      </trkpt>
      <trkpt lat="47.34928" lon="0.01202">
        <ele>90.98</ele>
        <time>2011-03-20T10:01:46Z</time>
      </trkpt>
      <trkpt lat="47.3492" lon="0.01206">
        <ele>90.02</ele>
        <time>2011-03-20T10:01:43Z</time>
      </trkpt>
      <trkpt lat="47.3491" lon="0.01223">
        <ele>94.972656</ele>
        <time>2012-08-15T10:18:14Z</time>
      </trkpt>
      <trkpt lat="47.3491" lon="0.01227">
        <ele>94.925781</ele>
        <time>2012-08-15T10:18:14Z</time>
      </trkpt>
      <trkpt lat="47.3491" lon="0.01235">
        <ele>94.8125</ele>
        <time>2012-08-15T10:18:14Z</time>
      </trkpt>
      <trkpt lat="47.34916" lon="0.01241">
        <ele>94.882812</ele>
        <time>2012-08-15T10:18:14Z</time>
      </trkpt>
      <trkpt lat="47.34929" lon="0.01254">
        <ele>94.816406</ele>
        <time>2012-08-15T10:18:14Z</time>
      </trkpt>
      <trkpt lat="47.34939" lon="0.01264">
        <ele>67.43</ele>
        <time>2012-08-15T10:18:14Z</time>
      </trkpt>
      <trkpt lat="47.34948" lon="0.01275">
        <ele>67.91</ele>
        <time>2012-08-15T10:18:07Z</time>
      </trkpt>
      <trkpt lat="47.34959" lon="0.0128">
        <ele>67.43</ele>
        <time>2012-08-15T10:18:02Z</time>
      </trkpt>
      <trkpt lat="47.34974" lon="0.01294">
        <ele>66.47</ele>
        <time>2012-08-15T10:17:55Z</time>
      </trkpt>
      <trkpt lat="47.34979" lon="0.01304">
        <ele>66.47</ele>
        <time>2012-08-15T10:17:50Z</time>
      </trkpt>
      <trkpt lat="47.34983" lon="0.01321">
        <ele>65.99</ele>
        <time>2012-08-15T10:17:43Z</time>
      </trkpt>
      <trkpt lat="47.34984" lon="0.01324">
        <ele>66.47</ele>
        <time>2012-08-15T10:17:42Z</time>
      </trkpt>
      <trkpt lat="47.34988" lon="0.01343">
        <ele>65.03</ele>
        <time>2012-08-15T10:17:36Z</time>
      </trkpt>
      <trkpt lat="47.35001" lon="0.01362">
        <ele>64.07</ele>
        <time>2012-08-15T10:17:29Z</time>
      </trkpt>
      <trkpt lat="47.35006" lon="0.0138">
        <ele>63.58</ele>
        <time>2012-08-15T10:17:23Z</time>
      </trkpt>
      <trkpt lat="47.35014" lon="0.01396">
        <ele>63.1</ele>
        <time>2012-08-15T10:17:17Z</time>
      </trkpt>
      <trkpt lat="47.35019" lon="0.01413">
        <ele>62.62</ele>
        <time>2012-08-15T10:17:11Z</time>
      </trkpt>
      <trkpt lat="47.3503" lon="0.01433">
        <ele>61.18</ele>
        <time>2012-08-15T10:17:02Z</time>
      </trkpt>
      <trkpt lat="47.35032" lon="0.01436">
        <ele>61.18</ele>
        <time>2012-08-15T10:17:01Z</time>
      </trkpt>
      <trkpt lat="47.35042" lon="0.0145">
        <ele>61.18</ele>
        <time>2012-08-15T10:16:55Z</time>
      </trkpt>
      <trkpt lat="47.35049" lon="0.01451">
        <ele>60.7</ele>
        <time>2012-08-15T10:16:51Z</time>
      </trkpt>
      <trkpt lat="47.35056" lon="0.01445">
        <ele>61.66</ele>
        <time>2012-08-15T10:16:47Z</time>
      </trkpt>
      <trkpt lat="47.35057" lon="0.01444">
        <ele>61.18</ele>
        <time>2012-08-15T10:16:46Z</time>
      </trkpt>
      <trkpt lat="47.35072" lon="0.01446">
        <ele>61.18</ele>
        <time>2012-08-15T10:16:39Z</time>
      </trkpt>
      <trkpt lat="47.3508" lon="0.01454">
        <ele>60.22</ele>
        <time>2012-08-15T10:16:33Z</time>
      </trkpt>
      <trkpt lat="47.35085" lon="0.01467">
        <ele>58.78</ele>
        <time>2012-08-15T10:16:27Z</time>
      </trkpt>
      <trkpt lat="47.35083" lon="0.01476">
        <ele>57.82</ele>
        <time>2012-08-15T10:16:23Z</time>
      </trkpt>
      <trkpt lat="47.3508" lon="0.01491">
        <ele>57.82</ele>
        <time>2012-08-15T10:16:17Z</time>
      </trkpt>
      <trkpt lat="47.35081" lon="0.01516">
        <ele>56.37</ele>
        <time>2012-08-15T10:16:09Z</time>
      </trkpt>
      <trkpt lat="47.35089" lon="0.01537">
        <ele>55.89</ele>
        <time>2012-08-15T10:16:03Z</time>
      </trkpt>
      <trkpt lat="47.35091" lon="0.01544">
        <ele>54.45</ele>
        <time>2012-08-15T10:16:00Z</time>
      </trkpt>
      <trkpt lat="47.35099" lon="0.01564">
        <ele>53.49</ele>
        <time>2012-08-15T10:15:52Z</time>
      </trkpt>
      <trkpt lat="47.35107" lon="0.01577">
        <ele>53.01</ele>
        <time>2012-08-15T10:15:46Z</time>
      </trkpt>
      <trkpt lat="47.3511" lon="0.01587">
        <ele>52.05</ele>
        <time>2012-08-15T10:15:40Z</time>
      </trkpt>
      <trkpt lat="47.35112" lon="0.01591">
        <ele>52.53</ele>
        <time>2012-08-15T10:15:33Z</time>
      </trkpt>
      <trkpt lat="47.35112" lon="0.01591">
        <ele>53.49</ele>
        <time>2012-08-15T10:15:21Z</time>
      </trkpt>
      <trkpt lat="47.35109" lon="0.01597">
        <ele>53.01</ele>
        <time>2012-08-15T10:15:15Z</time>
      </trkpt>
      <trkpt lat="47.35106" lon="0.01602">
        <ele>53.49</ele>
        <time>2012-08-15T10:15:06Z</time>
      </trkpt>
      <trkpt lat="47.35106" lon="0.01604">
        <ele>53.49</ele>
        <time>2012-08-15T10:14:58Z</time>
      </trkpt>
      <trkpt lat="47.35109" lon="0.01612">
        <ele>53.01</ele>
        <time>2012-08-15T10:14:46Z</time>
      </trkpt>
      <trkpt lat="47.35111" lon="0.01625">
        <ele>53.97</ele>
        <time>2012-08-15T10:14:39Z</time>
      </trkpt>
      <trkpt lat="47.35109" lon="0.01634">
        <ele>53.49</ele>
        <time>2012-08-15T10:14:37Z</time>
      </trkpt>
      <trkpt lat="47.35107" lon="0.01644">
        <ele>53.01</ele>
        <time>2012-08-15T10:14:35Z</time>
      </trkpt>
      <trkpt lat="47.35107" lon="0.0165">
        <ele>54.45</ele>
        <time>2012-08-15T10:14:34Z</time>
      </trkpt>
      <trkpt lat="47.35107" lon="0.01656">
        <ele>53.97</ele>
        <time>2012-08-15T10:14:33Z</time>
      </trkpt>
      <trkpt lat="47.35109" lon="0.01663">
        <ele>53.97</ele>
        <time>2012-08-15T10:14:32Z</time>
      </trkpt>
      <trkpt lat="47.35135" lon="0.01701">
        <ele>53.01</ele>
        <time>2012-08-15T10:14:25Z</time>
      </trkpt>
      <trkpt lat="47.35138" lon="0.01706">
        <ele>53.01</ele>
        <time>2012-08-15T10:14:24Z</time>
      </trkpt>
      <trkpt lat="47.35141" lon="0.01711">
        <ele>53.01</ele>
        <time>2012-08-15T10:14:23Z</time>
      </trkpt>
      <trkpt lat="47.35124" lon="0.01714">
        <ele>70.31</ele>
        <time>2011-03-20T09:59:02Z</time>
      </trkpt>
      <trkpt lat="47.35126" lon="0.01718">
        <ele>70.31</ele>
        <time>2011-03-20T09:59:01Z</time>
      </trkpt>
      <trkpt lat="47.35126" lon="0.01718">
        <ele>70.31</ele>
        <time>2011-03-20T09:59:01Z</time>
      </trkpt>
      <trkpt lat="47.35126" lon="0.01722">
        <ele>70.31</ele>
        <time>2011-03-20T09:59:00Z</time>
      </trkpt>
      <trkpt lat="47.35113" lon="0.01741">
        <ele>70.79</ele>
        <time>2011-03-20T09:58:55Z</time>
      </trkpt>
      <trkpt lat="47.35109" lon="0.01745">
        <ele>71.27</ele>
        <time>2011-03-20T09:58:54Z</time>
      </trkpt>
      <trkpt lat="47.35087" lon="0.01784">
        <ele>71.76</ele>
        <time>2011-03-20T09:58:47Z</time>
      </trkpt>
      <trkpt lat="47.35057" lon="0.01825">
        <ele>72.72</ele>
        <time>2011-03-20T09:58:40Z</time>
      </trkpt>
      <trkpt lat="47.35053" lon="0.01831">
        <ele>73.2</ele>
        <time>2011-03-20T09:58:39Z</time>
      </trkpt>
      <trkpt lat="47.35043" lon="0.01844">
        <ele>72.72</ele>
        <time>2011-03-20T09:58:37Z</time>
      </trkpt>
      <trkpt lat="47.35034" lon="0.01858">
        <ele>72.72</ele>
        <time>2011-03-20T09:58:35Z</time>
      </trkpt>
      <trkpt lat="47.35" lon="0.01904">
        <ele>74.64</ele>
        <time>2011-03-20T09:58:28Z</time>
      </trkpt>
      <trkpt lat="47.34995" lon="0.0191">
        <ele>75.12</ele>
        <time>2011-03-20T09:58:27Z</time>
      </trkpt>
      <trkpt lat="47.3499" lon="0.01915">
        <ele>75.12</ele>
        <time>2011-03-20T09:58:26Z</time>
      </trkpt>
      <trkpt lat="47.34974" lon="0.01931">
        <ele>76.08</ele>
        <time>2011-03-20T09:58:23Z</time>
      </trkpt>
      <trkpt lat="47.34929" lon="0.01975">
        <ele>77.04</ele>
        <time>2011-03-20T09:58:15Z</time>
      </trkpt>
      <trkpt lat="47.34923" lon="0.0198">
        <ele>77.04</ele>
        <time>2011-03-20T09:58:14Z</time>
      </trkpt>
      <trkpt lat="47.3488" lon="0.02007">
        <ele>78.97</ele>
        <time>2011-03-20T09:58:07Z</time>
      </trkpt>
      <trkpt lat="47.34844" lon="0.02033">
        <ele>78.97</ele>
        <time>2011-03-20T09:58:01Z</time>
      </trkpt>
      <trkpt lat="47.34837" lon="0.02037">
        <ele>78.48</ele>
        <time>2011-03-20T09:58:00Z</time>
      </trkpt>
      <trkpt lat="47.34805" lon="0.02056">
        <ele>80.89</ele>
        <time>2011-03-20T09:57:55Z</time>
      </trkpt>
      <trkpt lat="47.34766" lon="0.02078">
        <ele>81.37</ele>
        <time>2011-03-20T09:57:49Z</time>
      </trkpt>
      <trkpt lat="47.34759" lon="0.02081">
        <ele>81.85</ele>
        <time>2011-03-20T09:57:48Z</time>
      </trkpt>
      <trkpt lat="47.34735" lon="0.02099">
        <ele>83.29</ele>
        <time>2011-03-20T09:57:44Z</time>
      </trkpt>
      <trkpt lat="47.34699" lon="0.02128">
        <ele>85.69</ele>
        <time>2011-03-20T09:57:38Z</time>
      </trkpt>
      <trkpt lat="47.34674" lon="0.02145">
        <ele>87.62</ele>
        <time>2011-03-20T09:57:34Z</time>
      </trkpt>
      <trkpt lat="47.34668" lon="0.02148">
        <ele>86.66</ele>
        <time>2011-03-20T09:57:33Z</time>
      </trkpt>
      <trkpt lat="47.34662" lon="0.0215">
        <ele>88.1</ele>
        <time>2011-03-20T09:57:32Z</time>
      </trkpt>
      <trkpt lat="47.34656" lon="0.02152">
        <ele>87.62</ele>
        <time>2011-03-20T09:57:31Z</time>
      </trkpt>
      <trkpt lat="47.3465" lon="0.02155">
        <ele>88.58</ele>
        <time>2011-03-20T09:57:30Z</time>
      </trkpt>
      <trkpt lat="47.34646" lon="0.02159">
        <ele>88.58</ele>
        <time>2011-03-20T09:57:29Z</time>
      </trkpt>
      <trkpt lat="47.34642" lon="0.02164">
        <ele>88.58</ele>
        <time>2011-03-20T09:57:28Z</time>
      </trkpt>
      <trkpt lat="47.34645" lon="0.02159">
        <ele>108</ele>
        <time>2008-10-19T08:00:36Z</time>
      </trkpt>
      <trkpt lat="47.34643" lon="0.02172">
        <ele>108</ele>
        <time>2008-10-19T08:00:39Z</time>
      </trkpt>
      <trkpt lat="47.34639" lon="0.02185">
        <ele>108</ele>
        <time>2008-10-19T08:00:41Z</time>
      </trkpt>
      <trkpt lat="47.34634" lon="0.02202">
        <ele>108</ele>
        <time>2008-10-19T08:00:44Z</time>
      </trkpt>
      <trkpt lat="47.34631" lon="0.02214">
        <ele>108</ele>
        <time>2008-10-19T08:00:46Z</time>
      </trkpt>
      <trkpt lat="47.34628" lon="0.02228">
        <ele>102</ele>
        <time>2008-10-19T08:00:48Z</time>
      </trkpt>
      <trkpt lat="47.34623" lon="0.02245">
        <ele>102</ele>
        <time>2008-10-19T08:00:51Z</time>
      </trkpt>
      <trkpt lat="47.34617" lon="0.02259">
        <ele>102</ele>
        <time>2008-10-19T08:00:54Z</time>
      </trkpt>
      <trkpt lat="47.34611" lon="0.02274">
        <ele>102</ele>
        <time>2008-10-19T08:00:57Z</time>
      </trkpt>
      <trkpt lat="47.34608" lon="0.02291">
        <ele>102</ele>
        <time>2008-10-19T08:01:00Z</time>
      </trkpt>
      <trkpt lat="47.34604" lon="0.02309">
        <ele>102</ele>
        <time>2008-10-19T08:01:03Z</time>
      </trkpt>
      <trkpt lat="47.346" lon="0.02321">
        <ele>102</ele>
        <time>2008-10-19T08:01:05Z</time>
      </trkpt>
      <trkpt lat="47.34595" lon="0.02334">
        <ele>102</ele>
        <time>2008-10-19T08:01:07Z</time>
      </trkpt>
      <trkpt lat="47.3459" lon="0.02345">
        <ele>102</ele>
        <time>2008-10-19T08:01:09Z</time>
      </trkpt>
      <trkpt lat="47.34581" lon="0.02373">
        <ele>102</ele>
        <time>2008-10-19T08:01:15Z</time>
      </trkpt>
      <trkpt lat="47.34574" lon="0.02388">
        <ele>102</ele>
        <time>2008-10-19T08:01:18Z</time>
      </trkpt>
      <trkpt lat="47.34564" lon="0.02421">
        <ele>102</ele>
        <time>2008-10-19T08:01:24Z</time>
      </trkpt>
      <trkpt lat="47.34564" lon="0.0244">
        <ele>102</ele>
        <time>2008-10-19T08:01:27Z</time>
      </trkpt>
      <trkpt lat="47.34565" lon="0.02454">
        <ele>102</ele>
        <time>2008-10-19T08:01:29Z</time>
      </trkpt>
      <trkpt lat="47.34564" lon="0.02469">
        <ele>102</ele>
        <time>2008-10-19T08:01:31Z</time>
      </trkpt>
      <trkpt lat="47.34564" lon="0.02485">
        <ele>107</ele>
        <time>2008-10-19T08:01:33Z</time>
      </trkpt>
      <trkpt lat="47.34564" lon="0.02499">
        <ele>107</ele>
        <time>2008-10-19T08:01:35Z</time>
      </trkpt>
      <trkpt lat="47.34565" lon="0.02513">
        <ele>107</ele>
        <time>2008-10-19T08:01:37Z</time>
      </trkpt>
      <trkpt lat="47.34567" lon="0.02529">
        <ele>107</ele>
        <time>2008-10-19T08:01:39Z</time>
      </trkpt>
      <trkpt lat="47.3457" lon="0.02541">
        <ele>107</ele>
        <time>2008-10-19T08:01:41Z</time>
      </trkpt>
      <trkpt lat="47.34571" lon="0.02556">
        <ele>107</ele>
        <time>2008-10-19T08:01:43Z</time>
      </trkpt>
      <trkpt lat="47.34572" lon="0.02573">
        <ele>107</ele>
        <time>2008-10-19T08:01:46Z</time>
      </trkpt>
      <trkpt lat="47.34573" lon="0.02586">
        <ele>107</ele>
        <time>2008-10-19T08:01:48Z</time>
      </trkpt>
      <trkpt lat="47.34571" lon="0.02601">
        <ele>107</ele>
        <time>2008-10-19T08:01:51Z</time>
      </trkpt>
      <trkpt lat="47.34568" lon="0.02616">
        <ele>107</ele>
        <time>2008-10-19T08:01:56Z</time>
      </trkpt>
      <trkpt lat="47.34567" lon="0.02631">
        <ele>113</ele>
        <time>2008-10-19T08:02:06Z</time>
      </trkpt>
      <trkpt lat="47.34565" lon="0.02645">
        <ele>113</ele>
        <time>2008-10-19T08:02:11Z</time>
      </trkpt>
      <trkpt lat="47.34565" lon="0.02645">
        <ele>113</ele>
        <time>2008-10-19T08:02:11Z</time>
      </trkpt>
      <trkpt lat="47.34563" lon="0.02659">
        <ele>113</ele>
        <time>2008-10-19T08:02:15Z</time>
      </trkpt>
      <trkpt lat="47.34556" lon="0.02671">
        <ele>113</ele>
        <time>2008-10-19T08:02:19Z</time>
      </trkpt>
      <trkpt lat="47.34548" lon="0.02685">
        <ele>113</ele>
        <time>2008-10-19T08:02:22Z</time>
      </trkpt>
      <trkpt lat="47.34513" lon="0.02647">
        <ele>99.589844</ele>
        <time>2011-03-20T09:49:46Z</time>
      </trkpt>
      <trkpt lat="47.34481" lon="0.02638">
        <ele>99.136719</ele>
        <time>2011-03-20T09:49:46Z</time>
      </trkpt>
      <trkpt lat="47.3447" lon="0.02634">
        <ele>99.191406</ele>
        <time>2011-03-20T09:49:46Z</time>
      </trkpt>
      <trkpt lat="47.34457" lon="0.02628">
        <ele>99.441406</ele>
        <time>2011-03-20T09:49:46Z</time>
      </trkpt>
      <trkpt lat="47.34386" lon="0.02595">
        <ele>99.820312</ele>
        <time>2011-03-20T09:49:46Z</time>
      </trkpt>
      <trkpt lat="47.34378" lon="0.02591">
        <ele>99.765625</ele>
        <time>2011-03-20T09:49:46Z</time>
      </trkpt>
      <trkpt lat="47.34316" lon="0.02565">
        <ele>99.121094</ele>
        <time>2011-03-20T09:49:46Z</time>
      </trkpt>
      <trkpt lat="47.34308" lon="0.02562">
        <ele>99.035156</ele>
        <time>2011-03-20T09:49:46Z</time>
      </trkpt>
      <trkpt lat="47.34241" lon="0.02536">
        <ele>95.875</ele>
        <time>2011-03-20T09:49:46Z</time>
      </trkpt>
      <trkpt lat="47.34236" lon="0.02532">
        <ele>95.53125</ele>
        <time>2011-03-20T09:49:46Z</time>
      </trkpt>
      <trkpt lat="47.34138" lon="0.02496">
        <ele>86.566406</ele>
        <time>2011-03-20T09:49:46Z</time>
      </trkpt>
      <trkpt lat="47.34098" lon="0.02496">
        <ele>82.199219</ele>
        <time>2011-03-20T09:49:46Z</time>
      </trkpt>
      <trkpt lat="47.34039" lon="0.02549">
        <ele>74.894531</ele>
        <time>2011-03-20T09:49:46Z</time>
      </trkpt>
      <trkpt lat="47.34004" lon="0.02605">
        <ele>70.121094</ele>
        <time>2011-03-20T09:49:46Z</time>
      </trkpt>
      <trkpt lat="47.33953" lon="0.02674">
        <ele>63.816406</ele>
        <time>2011-03-20T09:49:46Z</time>
      </trkpt>
      <trkpt lat="47.33922" lon="0.02691">
        <ele>56.86</ele>
        <time>2011-03-20T09:49:46Z</time>
      </trkpt>
      <trkpt lat="47.33921" lon="0.02693">
        <ele>56.37</ele>
        <time>2011-03-20T09:49:45Z</time>
      </trkpt>
      <trkpt lat="47.33919" lon="0.02693">
        <ele>56.37</ele>
        <time>2011-03-20T09:49:44Z</time>
      </trkpt>
      <trkpt lat="47.33914" lon="0.0269">
        <ele>56.86</ele>
        <time>2011-03-20T09:49:42Z</time>
      </trkpt>
      <trkpt lat="47.33901" lon="0.02671">
        <ele>56.86</ele>
        <time>2011-03-20T09:49:37Z</time>
      </trkpt>
      <trkpt lat="47.33885" lon="0.02641">
        <ele>57.82</ele>
        <time>2011-03-20T09:49:31Z</time>
      </trkpt>
      <trkpt lat="47.33869" lon="0.0261">
        <ele>57.82</ele>
        <time>2011-03-20T09:49:25Z</time>
      </trkpt>
      <trkpt lat="47.33849" lon="0.02576">
        <ele>57.34</ele>
        <time>2011-03-20T09:49:18Z</time>
      </trkpt>
      <trkpt lat="47.3383" lon="0.02555">
        <ele>56.37</ele>
        <time>2011-03-20T09:49:12Z</time>
      </trkpt>
      <trkpt lat="47.33817" lon="0.02536">
        <ele>55.89</ele>
        <time>2011-03-20T09:49:07Z</time>
      </trkpt>
      <trkpt lat="47.33799" lon="0.02511">
        <ele>54.93</ele>
        <time>2011-03-20T09:49:01Z</time>
      </trkpt>
      <trkpt lat="47.33784" lon="0.0249">
        <ele>53.97</ele>
        <time>2011-03-20T09:48:56Z</time>
      </trkpt>
      <trkpt lat="47.33771" lon="0.02471">
        <ele>54.45</ele>
        <time>2011-03-20T09:48:51Z</time>
      </trkpt>
      <trkpt lat="47.33767" lon="0.02467">
        <ele>54.93</ele>
        <time>2011-03-20T09:48:50Z</time>
      </trkpt>
      <trkpt lat="47.33764" lon="0.02463">
        <ele>53.97</ele>
        <time>2011-03-20T09:48:49Z</time>
      </trkpt>
      <trkpt lat="47.33763" lon="0.02458">
        <ele>53.49</ele>
        <time>2011-03-20T09:48:48Z</time>
      </trkpt>
      <trkpt lat="47.33761" lon="0.02456">
        <ele>53.49</ele>
        <time>2011-03-20T09:48:47Z</time>
      </trkpt>
      <trkpt lat="47.3375" lon="0.0244">
        <ele>53.49</ele>
        <time>2011-03-20T09:48:43Z</time>
      </trkpt>
      <trkpt lat="47.33735" lon="0.02418">
        <ele>58.296875</ele>
        <time>2014-09-14T10:23:52Z</time>
      </trkpt>
      <trkpt lat="47.33659" lon="0.02522">
        <ele>55.078125</ele>
        <time>2014-09-14T10:23:52Z</time>
      </trkpt>
      <trkpt lat="47.33587" lon="0.02665">
        <ele>52.957031</ele>
        <time>2014-09-14T10:23:52Z</time>
      </trkpt>
      <trkpt lat="47.33515" lon="0.02786">
        <ele>49.027344</ele>
        <time>2014-09-14T10:23:52Z</time>
      </trkpt>
      <trkpt lat="47.3347" lon="0.02868">
        <ele>46.824219</ele>
        <time>2014-09-14T10:23:52Z</time>
      </trkpt>
      <trkpt lat="47.33407" lon="0.02742">
        <ele>45.484375</ele>
        <time>2014-09-14T10:23:52Z</time>
      </trkpt>
      <trkpt lat="47.33358" lon="0.02818">
        <ele>47.449219</ele>
        <time>2014-09-14T10:23:52Z</time>
      </trkpt>
      <trkpt lat="47.33286" lon="0.02895">
        <ele>50</ele>
        <time>2014-09-14T10:23:52Z</time>
      </trkpt>
      <trkpt lat="47.33237" lon="0.02857">
        <ele>51.664062</ele>
        <time>2014-09-14T10:23:52Z</time>
      </trkpt>
      <trkpt lat="47.33169" lon="0.0295">
        <ele>53</ele>
        <time>2014-09-14T10:23:52Z</time>
      </trkpt>
      <trkpt lat="47.33192" lon="0.03016">
        <ele>53</ele>
        <time>2014-09-14T10:23:52Z</time>
      </trkpt>
      <trkpt lat="47.33263" lon="0.0312">
        <ele>54</ele>
        <time>2014-09-14T10:23:52Z</time>
      </trkpt>
      <trkpt lat="47.33295" lon="0.03202">
        <ele>55.351562</ele>
        <time>2014-09-14T10:23:52Z</time>
      </trkpt>
      <trkpt lat="47.33241" lon="0.03274">
        <ele>55.960938</ele>
        <time>2014-09-14T10:23:52Z</time>
      </trkpt>
      <trkpt lat="47.33196" lon="0.03334">
        <ele>56.089844</ele>
        <time>2014-09-14T10:23:52Z</time>
      </trkpt>
      <trkpt lat="47.33156" lon="0.034">
        <ele>57.773438</ele>
        <time>2014-09-14T10:23:52Z</time>
      </trkpt>
      <trkpt lat="47.33093" lon="0.03515">
        <ele>62.449219</ele>
        <time>2014-09-14T10:23:52Z</time>
      </trkpt>
      <trkpt lat="47.33079" lon="0.03575">
        <ele>67.144531</ele>
        <time>2014-09-14T10:23:52Z</time>
      </trkpt>
      <trkpt lat="47.33075" lon="0.03619">
        <ele>71.878906</ele>
        <time>2014-09-14T10:23:52Z</time>
      </trkpt>
      <trkpt lat="47.33052" lon="0.03723">
        <ele>83.527344</ele>
        <time>2014-09-14T10:23:52Z</time>
      </trkpt>
      <trkpt lat="47.3303" lon="0.03805">
        <ele>90.078125</ele>
        <time>2014-09-14T10:23:52Z</time>
      </trkpt>
      <trkpt lat="47.32998" lon="0.03789">
        <ele>88.492188</ele>
        <time>2014-09-14T10:23:52Z</time>
      </trkpt>
      <trkpt lat="47.32958" lon="0.03778">
        <ele>85.421875</ele>
        <time>2014-09-14T10:23:52Z</time>
      </trkpt>
      <trkpt lat="47.32913" lon="0.03778">
        <ele>81.527344</ele>
        <time>2014-09-14T10:23:52Z</time>
      </trkpt>
      <trkpt lat="47.32841" lon="0.03734">
        <ele>72.710938</ele>
        <time>2014-09-14T10:23:52Z</time>
      </trkpt>
      <trkpt lat="47.32841" lon="0.03729">
        <ele>72.472656</ele>
        <time>2014-09-14T10:23:52Z</time>
      </trkpt>
      <trkpt lat="47.3281" lon="0.03789">
        <ele>75.453125</ele>
        <time>2014-09-14T10:23:52Z</time>
      </trkpt>
      <trkpt lat="47.3272" lon="0.03899">
        <ele>78.285156</ele>
        <time>2014-09-14T10:23:52Z</time>
      </trkpt>
      <trkpt lat="47.32684" lon="0.03882">
        <ele>76.191406</ele>
        <time>2014-09-14T10:23:52Z</time>
      </trkpt>
      <trkpt lat="47.32617" lon="0.03844">
        <ele>71.464844</ele>
        <time>2014-09-14T10:23:52Z</time>
      </trkpt>
      <trkpt lat="47.32549" lon="0.03789">
        <ele>69.269531</ele>
        <time>2014-09-14T10:23:52Z</time>
      </trkpt>
      <trkpt lat="47.32491" lon="0.03745">
        <ele>65.382812</ele>
        <time>2014-09-14T10:23:52Z</time>
      </trkpt>
      <trkpt lat="47.32491" lon="0.03816">
        <ele>68.953125</ele>
        <time>2014-09-14T10:23:52Z</time>
      </trkpt>
      <trkpt lat="47.32491" lon="0.0391">
        <ele>71.390625</ele>
        <time>2014-09-14T10:23:52Z</time>
      </trkpt>
      <trkpt lat="47.32473" lon="0.03981">
        <ele>72.730469</ele>
        <time>2014-09-14T10:23:52Z</time>
      </trkpt>
      <trkpt lat="47.32455" lon="0.0403">
        <ele>73.394531</ele>
        <time>2014-09-14T10:23:52Z</time>
      </trkpt>
      <trkpt lat="47.32433" lon="0.04101">
        <ele>75.238281</ele>
        <time>2014-09-14T10:23:52Z</time>
      </trkpt>
      <trkpt lat="47.32392" lon="0.04195">
        <ele>76.757812</ele>
        <time>2014-09-14T10:23:52Z</time>
      </trkpt>
      <trkpt lat="47.32374" lon="0.04304">
        <ele>76.867188</ele>
        <time>2014-09-14T10:23:52Z</time>
      </trkpt>
      <trkpt lat="47.32334" lon="0.04436">
        <ele>74.816406</ele>
        <time>2014-09-14T10:23:52Z</time>
      </trkpt>
      <trkpt lat="47.32325" lon="0.04535">
        <ele>75.835938</ele>
        <time>2014-09-14T10:23:52Z</time>
      </trkpt>
      <trkpt lat="47.32311" lon="0.04633">
        <ele>77.015625</ele>
        <time>2014-09-14T10:23:52Z</time>
      </trkpt>
      <trkpt lat="47.3228" lon="0.04776">
        <ele>76.753906</ele>
        <time>2014-09-14T10:23:52Z</time>
      </trkpt>
      <trkpt lat="47.32271" lon="0.04897">
        <ele>78.761719</ele>
        <time>2014-09-14T10:23:52Z</time>
      </trkpt>
      <trkpt lat="47.32235" lon="0.04973">
        <ele>78.660156</ele>
        <time>2014-09-14T10:23:52Z</time>
      </trkpt>
      <trkpt lat="47.32208" lon="0.05078">
        <ele>79.570312</ele>
        <time>2014-09-14T10:23:52Z</time>
      </trkpt>
      <trkpt lat="47.32163" lon="0.05176">
        <ele>78.125</ele>
        <time>2014-09-14T10:23:52Z</time>
      </trkpt>
      <trkpt lat="47.32136" lon="0.05253">
        <ele>77.851562</ele>
        <time>2014-09-14T10:23:52Z</time>
      </trkpt>
      <trkpt lat="47.32123" lon="0.05341">
        <ele>78.082031</ele>
        <time>2014-09-14T10:23:52Z</time>
      </trkpt>
      <trkpt lat="47.32132" lon="0.05439">
        <ele>79.972656</ele>
        <time>2014-09-14T10:23:52Z</time>
      </trkpt>
      <trkpt lat="47.32087" lon="0.05533">
        <ele>84.296875</ele>
        <time>2014-09-14T10:23:52Z</time>
      </trkpt>
      <trkpt lat="47.32059" lon="0.05544">
        <ele>80</ele>
        <time>2014-09-14T10:23:52Z</time>
      </trkpt>
      <trkpt lat="47.32043" lon="0.05529">
        <ele>80</ele>
        <time>2014-09-14T10:23:55Z</time>
      </trkpt>
      <trkpt lat="47.32023" lon="0.05509">
        <ele>80</ele>
        <time>2014-09-14T10:23:59Z</time>
      </trkpt>
      <trkpt lat="47.32006" lon="0.05497">
        <ele>80</ele>
        <time>2014-09-14T10:24:02Z</time>
      </trkpt>
      <trkpt lat="47.31981" lon="0.05477">
        <ele>80</ele>
        <time>2014-09-14T10:24:07Z</time>
      </trkpt>
      <trkpt lat="47.31971" lon="0.05468">
        <ele>80</ele>
        <time>2014-09-14T10:24:09Z</time>
      </trkpt>
      <trkpt lat="47.31961" lon="0.0546">
        <ele>80</ele>
        <time>2014-09-14T10:24:11Z</time>
      </trkpt>
      <trkpt lat="47.31937" lon="0.0544">
        <ele>81</ele>
        <time>2014-09-14T10:24:16Z</time>
      </trkpt>
      <trkpt lat="47.31931" lon="0.05437">
        <ele>82</ele>
        <time>2014-09-14T10:24:17Z</time>
      </trkpt>
      <trkpt lat="47.31927" lon="0.05433">
        <ele>82</ele>
        <time>2014-09-14T10:24:18Z</time>
      </trkpt>
      <trkpt lat="47.31923" lon="0.05431">
        <ele>83</ele>
        <time>2014-09-14T10:24:19Z</time>
      </trkpt>
      <trkpt lat="47.31906" lon="0.0542">
        <ele>83</ele>
        <time>2014-09-14T10:24:23Z</time>
      </trkpt>
      <trkpt lat="47.31874" lon="0.05404">
        <ele>83</ele>
        <time>2014-09-14T10:24:30Z</time>
      </trkpt>
      <trkpt lat="47.31859" lon="0.05399">
        <ele>83</ele>
        <time>2014-09-14T10:24:34Z</time>
      </trkpt>
      <trkpt lat="47.31857" lon="0.05401">
        <ele>83</ele>
        <time>2014-09-14T10:24:35Z</time>
      </trkpt>
      <trkpt lat="47.31847" lon="0.05414">
        <ele>83</ele>
        <time>2014-09-14T10:24:40Z</time>
      </trkpt>
      <trkpt lat="47.31845" lon="0.05418">
        <ele>83</ele>
        <time>2014-09-14T10:24:41Z</time>
      </trkpt>
      <trkpt lat="47.31843" lon="0.0542">
        <ele>84</ele>
        <time>2014-09-14T10:24:42Z</time>
      </trkpt>
      <trkpt lat="47.31841" lon="0.05423">
        <ele>85</ele>
        <time>2014-09-14T10:24:43Z</time>
      </trkpt>
      <trkpt lat="47.31838" lon="0.05428">
        <ele>85</ele>
        <time>2014-09-14T10:24:46Z</time>
      </trkpt>
      <trkpt lat="47.31837" lon="0.0543">
        <ele>86</ele>
        <time>2014-09-14T10:24:47Z</time>
      </trkpt>
      <trkpt lat="47.31836" lon="0.05432">
        <ele>86</ele>
        <time>2014-09-14T10:24:48Z</time>
      </trkpt>
      <trkpt lat="47.31835" lon="0.05433">
        <ele>86</ele>
        <time>2014-09-14T10:24:49Z</time>
      </trkpt>
      <trkpt lat="47.31835" lon="0.05435">
        <ele>87</ele>
        <time>2014-09-14T10:24:50Z</time>
      </trkpt>
      <trkpt lat="47.31832" lon="0.05442">
        <ele>87</ele>
        <time>2014-09-14T10:24:53Z</time>
      </trkpt>
      <trkpt lat="47.31826" lon="0.05457">
        <ele>87</ele>
        <time>2014-09-14T10:24:59Z</time>
      </trkpt>
      <trkpt lat="47.31822" lon="0.05464">
        <ele>87</ele>
        <time>2014-09-14T10:25:02Z</time>
      </trkpt>
      <trkpt lat="47.31822" lon="0.05465">
        <ele>88</ele>
        <time>2014-09-14T10:25:03Z</time>
      </trkpt>
      <trkpt lat="47.31821" lon="0.05467">
        <ele>88</ele>
        <time>2014-09-14T10:25:04Z</time>
      </trkpt>
      <trkpt lat="47.3182" lon="0.05468">
        <ele>88</ele>
        <time>2014-09-14T10:25:05Z</time>
      </trkpt>
      <trkpt lat="47.31819" lon="0.0547">
        <ele>89</ele>
        <time>2014-09-14T10:25:06Z</time>
      </trkpt>
      <trkpt lat="47.31815" lon="0.05477">
        <ele>89</ele>
        <time>2014-09-14T10:25:09Z</time>
      </trkpt>
      <trkpt lat="47.31811" lon="0.05483">
        <ele>89</ele>
        <time>2014-09-14T10:25:11Z</time>
      </trkpt>
      <trkpt lat="47.31809" lon="0.05486">
        <ele>89</ele>
        <time>2014-09-14T10:25:12Z</time>
      </trkpt>
      <trkpt lat="47.31807" lon="0.05488">
        <ele>90</ele>
        <time>2014-09-14T10:25:13Z</time>
      </trkpt>
      <trkpt lat="47.31806" lon="0.0549">
        <ele>90</ele>
        <time>2014-09-14T10:25:14Z</time>
      </trkpt>
      <trkpt lat="47.31804" lon="0.05493">
        <ele>91</ele>
        <time>2014-09-14T10:25:15Z</time>
      </trkpt>
      <trkpt lat="47.31802" lon="0.05496">
        <ele>91</ele>
        <time>2014-09-14T10:25:16Z</time>
      </trkpt>
      <trkpt lat="47.31794" lon="0.05507">
        <ele>91</ele>
        <time>2014-09-14T10:25:21Z</time>
      </trkpt>
      <trkpt lat="47.31786" lon="0.05518">
        <ele>91</ele>
        <time>2014-09-14T10:25:26Z</time>
      </trkpt>
      <trkpt lat="47.31784" lon="0.05519">
        <ele>92</ele>
        <time>2014-09-14T10:25:27Z</time>
      </trkpt>
      <trkpt lat="47.31783" lon="0.05521">
        <ele>92</ele>
        <time>2014-09-14T10:25:28Z</time>
      </trkpt>
      <trkpt lat="47.31781" lon="0.05523">
        <ele>93</ele>
        <time>2014-09-14T10:25:29Z</time>
      </trkpt>
      <trkpt lat="47.31779" lon="0.05525">
        <ele>93</ele>
        <time>2014-09-14T10:25:30Z</time>
      </trkpt>
      <trkpt lat="47.31774" lon="0.0553">
        <ele>93</ele>
        <time>2014-09-14T10:25:33Z</time>
      </trkpt>
      <trkpt lat="47.31763" lon="0.05543">
        <ele>93</ele>
        <time>2014-09-14T10:25:38Z</time>
      </trkpt>
      <trkpt lat="47.31757" lon="0.05557">
        <ele>94</ele>
        <time>2014-09-14T10:25:42Z</time>
      </trkpt>
      <trkpt lat="47.31755" lon="0.05559">
        <ele>94</ele>
        <time>2014-09-14T10:25:43Z</time>
      </trkpt>
      <trkpt lat="47.31754" lon="0.05562">
        <ele>94</ele>
        <time>2014-09-14T10:25:44Z</time>
      </trkpt>
      <trkpt lat="47.31752" lon="0.05563">
        <ele>95</ele>
        <time>2014-09-14T10:25:45Z</time>
      </trkpt>
      <trkpt lat="47.3175" lon="0.05565">
        <ele>95</ele>
        <time>2014-09-14T10:25:46Z</time>
      </trkpt>
      <trkpt lat="47.31744" lon="0.05577">
        <ele>95</ele>
        <time>2014-09-14T10:25:50Z</time>
      </trkpt>
      <trkpt lat="47.31737" lon="0.05592">
        <ele>95</ele>
        <time>2014-09-14T10:25:56Z</time>
      </trkpt>
      <trkpt lat="47.31734" lon="0.05597">
        <ele>95</ele>
        <time>2014-09-14T10:26:00Z</time>
      </trkpt>
      <trkpt lat="47.31731" lon="0.05603">
        <ele>96</ele>
        <time>2014-09-14T10:26:02Z</time>
      </trkpt>
      <trkpt lat="47.31728" lon="0.05606">
        <ele>96</ele>
        <time>2014-09-14T10:26:03Z</time>
      </trkpt>
      <trkpt lat="47.31726" lon="0.05609">
        <ele>96</ele>
        <time>2014-09-14T10:26:04Z</time>
      </trkpt>
      <trkpt lat="47.31724" lon="0.05612">
        <ele>97</ele>
        <time>2014-09-14T10:26:05Z</time>
      </trkpt>
      <trkpt lat="47.31721" lon="0.05615">
        <ele>97</ele>
        <time>2014-09-14T10:26:06Z</time>
      </trkpt>
      <trkpt lat="47.31716" lon="0.05621">
        <ele>97</ele>
        <time>2014-09-14T10:26:08Z</time>
      </trkpt>
      <trkpt lat="47.31714" lon="0.05624">
        <ele>97</ele>
        <time>2014-09-14T10:26:09Z</time>
      </trkpt>
      <trkpt lat="47.31703" lon="0.05629">
        <ele>97</ele>
        <time>2014-09-14T10:26:14Z</time>
      </trkpt>
      <trkpt lat="47.31692" lon="0.05621">
        <ele>97</ele>
        <time>2014-09-14T10:26:17Z</time>
      </trkpt>
      <trkpt lat="47.31671" lon="0.05608">
        <ele>97</ele>
        <time>2014-09-14T10:26:21Z</time>
      </trkpt>
      <trkpt lat="47.31668" lon="0.05602">
        <ele>97</ele>
        <time>2014-09-14T10:26:22Z</time>
      </trkpt>
      <trkpt lat="47.31666" lon="0.05596">
        <ele>97</ele>
        <time>2014-09-14T10:26:23Z</time>
      </trkpt>
      <trkpt lat="47.31666" lon="0.05583">
        <ele>97</ele>
        <time>2014-09-14T10:26:25Z</time>
      </trkpt>
      <trkpt lat="47.31674" lon="0.0556">
        <ele>97</ele>
        <time>2014-09-14T10:26:29Z</time>
      </trkpt>
      <trkpt lat="47.31676" lon="0.05554">
        <ele>97</ele>
        <time>2014-09-14T10:26:30Z</time>
      </trkpt>
      <trkpt lat="47.31685" lon="0.05541">
        <ele>97</ele>
        <time>2014-09-14T10:26:33Z</time>
      </trkpt>
      <trkpt lat="47.31693" lon="0.05533">
        <ele>97</ele>
        <time>2014-09-14T10:26:35Z</time>
      </trkpt>
      <trkpt lat="47.31702" lon="0.05517">
        <ele>97</ele>
        <time>2014-09-14T10:26:38Z</time>
      </trkpt>
      <trkpt lat="47.31703" lon="0.05512">
        <ele>97</ele>
        <time>2014-09-14T10:26:39Z</time>
      </trkpt>
      <trkpt lat="47.31701" lon="0.05485">
        <ele>97</ele>
        <time>2014-09-14T10:26:43Z</time>
      </trkpt>
      <trkpt lat="47.31701" lon="0.05479">
        <ele>97</ele>
        <time>2014-09-14T10:26:44Z</time>
      </trkpt>
      <trkpt lat="47.31691" lon="0.05462">
        <ele>97</ele>
        <time>2014-09-14T10:26:48Z</time>
      </trkpt>
      <trkpt lat="47.31683" lon="0.05453">
        <ele>97</ele>
        <time>2014-09-14T10:26:50Z</time>
      </trkpt>
      <trkpt lat="47.31671" lon="0.05439">
        <ele>97</ele>
        <time>2014-09-14T10:26:53Z</time>
      </trkpt>
      <trkpt lat="47.31649" lon="0.05415">
        <ele>97</ele>
        <time>2014-09-14T10:26:58Z</time>
      </trkpt>
      <trkpt lat="47.31645" lon="0.0541">
        <ele>97</ele>
        <time>2014-09-14T10:26:59Z</time>
      </trkpt>
      <trkpt lat="47.31643" lon="0.05405">
        <ele>96</ele>
        <time>2014-09-14T10:27:00Z</time>
      </trkpt>
      <trkpt lat="47.3164" lon="0.054">
        <ele>96</ele>
        <time>2014-09-14T10:27:01Z</time>
      </trkpt>
      <trkpt lat="47.31636" lon="0.05396">
        <ele>96</ele>
        <time>2014-09-14T10:27:02Z</time>
      </trkpt>
      <trkpt lat="47.31633" lon="0.05391">
        <ele>95</ele>
        <time>2014-09-14T10:27:03Z</time>
      </trkpt>
      <trkpt lat="47.31625" lon="0.05381">
        <ele>95</ele>
        <time>2014-09-14T10:27:05Z</time>
      </trkpt>
      <trkpt lat="47.31608" lon="0.05362">
        <ele>95</ele>
        <time>2014-09-14T10:27:09Z</time>
      </trkpt>
      <trkpt lat="47.31605" lon="0.05357">
        <ele>95</ele>
        <time>2014-09-14T10:27:10Z</time>
      </trkpt>
      <trkpt lat="47.31601" lon="0.05352">
        <ele>95</ele>
        <time>2014-09-14T10:27:11Z</time>
      </trkpt>
      <trkpt lat="47.31597" lon="0.05347">
        <ele>95</ele>
        <time>2014-09-14T10:27:12Z</time>
      </trkpt>
      <trkpt lat="47.31591" lon="0.05342">
        <ele>94</ele>
        <time>2014-09-14T10:27:13Z</time>
      </trkpt>
      <trkpt lat="47.31586" lon="0.05336">
        <ele>94</ele>
        <time>2014-09-14T10:27:14Z</time>
      </trkpt>
      <trkpt lat="47.31582" lon="0.05331">
        <ele>93</ele>
        <time>2014-09-14T10:27:15Z</time>
      </trkpt>
      <trkpt lat="47.31577" lon="0.05325">
        <ele>93</ele>
        <time>2014-09-14T10:27:16Z</time>
      </trkpt>
      <trkpt lat="47.3157" lon="0.05316">
        <ele>93</ele>
        <time>2014-09-14T10:27:18Z</time>
      </trkpt>
      <trkpt lat="47.31548" lon="0.05286">
        <ele>93</ele>
        <time>2014-09-14T10:27:24Z</time>
      </trkpt>
      <trkpt lat="47.31544" lon="0.05282">
        <ele>93</ele>
        <time>2014-09-14T10:27:25Z</time>
      </trkpt>
      <trkpt lat="47.3154" lon="0.05277">
        <ele>92</ele>
        <time>2014-09-14T10:27:26Z</time>
      </trkpt>
      <trkpt lat="47.31537" lon="0.05273">
        <ele>92</ele>
        <time>2014-09-14T10:27:27Z</time>
      </trkpt>
      <trkpt lat="47.31532" lon="0.05268">
        <ele>91</ele>
        <time>2014-09-14T10:27:28Z</time>
      </trkpt>
      <trkpt lat="47.31528" lon="0.05264">
        <ele>91</ele>
        <time>2014-09-14T10:27:29Z</time>
      </trkpt>
      <trkpt lat="47.3152" lon="0.05258">
        <ele>91</ele>
        <time>2014-09-14T10:27:31Z</time>
      </trkpt>
      <trkpt lat="47.3151" lon="0.05242">
        <ele>91</ele>
        <time>2014-09-14T10:27:36Z</time>
      </trkpt>
      <trkpt lat="47.31514" lon="0.05226">
        <ele>91</ele>
        <time>2014-09-14T10:27:39Z</time>
      </trkpt>
      <trkpt lat="47.31515" lon="0.05222">
        <ele>91</ele>
        <time>2014-09-14T10:27:40Z</time>
      </trkpt>
      <trkpt lat="47.31518" lon="0.05213">
        <ele>91</ele>
        <time>2014-09-14T10:27:42Z</time>
      </trkpt>
      <trkpt lat="47.3152" lon="0.05209">
        <ele>91</ele>
        <time>2014-09-14T10:27:43Z</time>
      </trkpt>
      <trkpt lat="47.31522" lon="0.05205">
        <ele>92</ele>
        <time>2014-09-14T10:27:44Z</time>
      </trkpt>
      <trkpt lat="47.31524" lon="0.05202">
        <ele>92</ele>
        <time>2014-09-14T10:27:45Z</time>
      </trkpt>
      <trkpt lat="47.31527" lon="0.05197">
        <ele>93</ele>
        <time>2014-09-14T10:27:46Z</time>
      </trkpt>
      <trkpt lat="47.3153" lon="0.05193">
        <ele>93</ele>
        <time>2014-09-14T10:27:47Z</time>
      </trkpt>
      <trkpt lat="47.31536" lon="0.05184">
        <ele>93</ele>
        <time>2014-09-14T10:27:49Z</time>
      </trkpt>
      <trkpt lat="47.31542" lon="0.05176">
        <ele>93</ele>
        <time>2014-09-14T10:27:51Z</time>
      </trkpt>
      <trkpt lat="47.31552" lon="0.05165">
        <ele>93</ele>
        <time>2014-09-14T10:27:54Z</time>
      </trkpt>
      <trkpt lat="47.31559" lon="0.05158">
        <ele>94</ele>
        <time>2014-09-14T10:27:56Z</time>
      </trkpt>
      <trkpt lat="47.31562" lon="0.05154">
        <ele>94</ele>
        <time>2014-09-14T10:27:57Z</time>
      </trkpt>
      <trkpt lat="47.31565" lon="0.0515">
        <ele>94</ele>
        <time>2014-09-14T10:27:58Z</time>
      </trkpt>
      <trkpt lat="47.31569" lon="0.05147">
        <ele>95</ele>
        <time>2014-09-14T10:27:59Z</time>
      </trkpt>
      <trkpt lat="47.31585" lon="0.05132">
        <ele>95</ele>
        <time>2014-09-14T10:28:04Z</time>
      </trkpt>
      <trkpt lat="47.31608" lon="0.0512">
        <ele>95</ele>
        <time>2014-09-14T10:28:10Z</time>
      </trkpt>
      <trkpt lat="47.31612" lon="0.05118">
        <ele>95</ele>
        <time>2014-09-14T10:28:11Z</time>
      </trkpt>
      <trkpt lat="47.31624" lon="0.05107">
        <ele>95</ele>
        <time>2014-09-14T10:28:14Z</time>
      </trkpt>
      <trkpt lat="47.31627" lon="0.05103">
        <ele>95</ele>
        <time>2014-09-14T10:28:15Z</time>
      </trkpt>
      <trkpt lat="47.3163" lon="0.051">
        <ele>95</ele>
        <time>2014-09-14T10:28:16Z</time>
      </trkpt>
      <trkpt lat="47.31633" lon="0.05097">
        <ele>94</ele>
        <time>2014-09-14T10:28:17Z</time>
      </trkpt>
      <trkpt lat="47.31636" lon="0.05095">
        <ele>94</ele>
        <time>2014-09-14T10:28:18Z</time>
      </trkpt>
      <trkpt lat="47.31638" lon="0.05095">
        <ele>93</ele>
        <time>2014-09-14T10:28:19Z</time>
      </trkpt>
      <trkpt lat="47.31641" lon="0.05093">
        <ele>93</ele>
        <time>2014-09-14T10:28:20Z</time>
      </trkpt>
      <trkpt lat="47.31651" lon="0.05087">
        <ele>92</ele>
        <time>2014-09-14T10:28:24Z</time>
      </trkpt>
      <trkpt lat="47.31652" lon="0.05086">
        <ele>92</ele>
        <time>2014-09-14T10:28:25Z</time>
      </trkpt>
      <trkpt lat="47.31652" lon="0.05085">
        <ele>91</ele>
        <time>2014-09-14T10:28:26Z</time>
      </trkpt>
      <trkpt lat="47.31651" lon="0.05082">
        <ele>91</ele>
        <time>2014-09-14T10:28:27Z</time>
      </trkpt>
      <trkpt lat="47.31649" lon="0.05079">
        <ele>91</ele>
        <time>2014-09-14T10:28:28Z</time>
      </trkpt>
      <trkpt lat="47.31638" lon="0.05059">
        <ele>91</ele>
        <time>2014-09-14T10:28:32Z</time>
      </trkpt>
      <trkpt lat="47.31628" lon="0.05043">
        <ele>91</ele>
        <time>2014-09-14T10:28:35Z</time>
      </trkpt>
      <trkpt lat="47.3162" lon="0.05026">
        <ele>91</ele>
        <time>2014-09-14T10:28:38Z</time>
      </trkpt>
      <trkpt lat="47.31617" lon="0.0502">
        <ele>91</ele>
        <time>2014-09-14T10:28:39Z</time>
      </trkpt>
      <trkpt lat="47.31615" lon="0.05015">
        <ele>92</ele>
        <time>2014-09-14T10:28:40Z</time>
      </trkpt>
      <trkpt lat="47.31612" lon="0.05009">
        <ele>92</ele>
        <time>2014-09-14T10:28:41Z</time>
      </trkpt>
      <trkpt lat="47.3161" lon="0.05004">
        <ele>93</ele>
        <time>2014-09-14T10:28:42Z</time>
      </trkpt>
      <trkpt lat="47.31604" lon="0.04994">
        <ele>93</ele>
        <time>2014-09-14T10:28:44Z</time>
      </trkpt>
      <trkpt lat="47.31601" lon="0.04989">
        <ele>93</ele>
        <time>2014-09-14T10:28:45Z</time>
      </trkpt>
      <trkpt lat="47.31598" lon="0.04984">
        <ele>93</ele>
        <time>2014-09-14T10:28:46Z</time>
      </trkpt>
      <trkpt lat="47.31595" lon="0.04979">
        <ele>94</ele>
        <time>2014-09-14T10:28:47Z</time>
      </trkpt>
      <trkpt lat="47.31592" lon="0.04974">
        <ele>94</ele>
        <time>2014-09-14T10:28:48Z</time>
      </trkpt>
      <trkpt lat="47.31589" lon="0.04969">
        <ele>95</ele>
        <time>2014-09-14T10:28:49Z</time>
      </trkpt>
      <trkpt lat="47.31583" lon="0.04959">
        <ele>95</ele>
        <time>2014-09-14T10:28:51Z</time>
      </trkpt>
      <trkpt lat="47.3158" lon="0.04954">
        <ele>95</ele>
        <time>2014-09-14T10:28:52Z</time>
      </trkpt>
      <trkpt lat="47.31572" lon="0.04939">
        <ele>95</ele>
        <time>2014-09-14T10:28:55Z</time>
      </trkpt>
      <trkpt lat="47.31564" lon="0.04926">
        <ele>95</ele>
        <time>2014-09-14T10:28:58Z</time>
      </trkpt>
      <trkpt lat="47.31562" lon="0.04922">
        <ele>95</ele>
        <time>2014-09-14T10:28:59Z</time>
      </trkpt>
      <trkpt lat="47.31559" lon="0.04918">
        <ele>96</ele>
        <time>2014-09-14T10:29:00Z</time>
      </trkpt>
      <trkpt lat="47.31557" lon="0.04914">
        <ele>96</ele>
        <time>2014-09-14T10:29:01Z</time>
      </trkpt>
      <trkpt lat="47.31554" lon="0.0491">
        <ele>96</ele>
        <time>2014-09-14T10:29:02Z</time>
      </trkpt>
      <trkpt lat="47.31551" lon="0.04906">
        <ele>97</ele>
        <time>2014-09-14T10:29:03Z</time>
      </trkpt>
      <trkpt lat="47.31548" lon="0.04898">
        <ele>97</ele>
        <time>2014-09-14T10:29:05Z</time>
      </trkpt>
      <trkpt lat="47.31543" lon="0.04895">
        <ele>97</ele>
        <time>2014-09-14T10:29:08Z</time>
      </trkpt>
      <trkpt lat="47.31541" lon="0.04898">
        <ele>97</ele>
        <time>2014-09-14T10:29:10Z</time>
      </trkpt>
      <trkpt lat="47.31534" lon="0.04907">
        <ele>97</ele>
        <time>2014-09-14T10:29:14Z</time>
      </trkpt>
      <trkpt lat="47.31524" lon="0.04896">
        <ele>97</ele>
        <time>2014-09-14T10:29:18Z</time>
      </trkpt>
      <trkpt lat="47.31521" lon="0.04893">
        <ele>97</ele>
        <time>2014-09-14T10:29:19Z</time>
      </trkpt>
      <trkpt lat="47.31502" lon="0.04876">
        <ele>97</ele>
        <time>2014-09-14T10:29:25Z</time>
      </trkpt>
      <trkpt lat="47.31485" lon="0.04872">
        <ele>97</ele>
        <time>2014-09-14T10:29:30Z</time>
      </trkpt>
      <trkpt lat="47.31473" lon="0.04878">
        <ele>97</ele>
        <time>2014-09-14T10:29:35Z</time>
      </trkpt>
      <trkpt lat="47.31471" lon="0.04879">
        <ele>97</ele>
        <time>2014-09-14T10:29:36Z</time>
      </trkpt>
      <trkpt lat="47.31469" lon="0.04879">
        <ele>97</ele>
        <time>2014-09-14T10:29:38Z</time>
      </trkpt>
      <trkpt lat="47.31468" lon="0.04877">
        <ele>97</ele>
        <time>2014-09-14T10:29:40Z</time>
      </trkpt>
      <trkpt lat="47.31467" lon="0.04874">
        <ele>97</ele>
        <time>2014-09-14T10:29:41Z</time>
      </trkpt>
      <trkpt lat="47.31461" lon="0.04865">
        <ele>97</ele>
        <time>2014-09-14T10:29:45Z</time>
      </trkpt>
      <trkpt lat="47.3146" lon="0.04863">
        <ele>97</ele>
        <time>2014-09-14T10:29:46Z</time>
      </trkpt>
      <trkpt lat="47.31461" lon="0.04861">
        <ele>97</ele>
        <time>2014-09-14T10:29:47Z</time>
      </trkpt>
      <trkpt lat="47.31463" lon="0.04856">
        <ele>97</ele>
        <time>2014-09-14T10:29:49Z</time>
      </trkpt>
      <trkpt lat="47.31463" lon="0.04847">
        <ele>97</ele>
        <time>2014-09-14T10:29:51Z</time>
      </trkpt>
      <trkpt lat="47.31464" lon="0.04842">
        <ele>96</ele>
        <time>2014-09-14T10:29:52Z</time>
      </trkpt>
      <trkpt lat="47.31464" lon="0.04838">
        <ele>96</ele>
        <time>2014-09-14T10:29:53Z</time>
      </trkpt>
      <trkpt lat="47.31463" lon="0.04831">
        <ele>95</ele>
        <time>2014-09-14T10:29:54Z</time>
      </trkpt>
      <trkpt lat="47.31462" lon="0.04825">
        <ele>94</ele>
        <time>2014-09-14T10:29:55Z</time>
      </trkpt>
      <trkpt lat="47.31461" lon="0.04819">
        <ele>94</ele>
        <time>2014-09-14T10:29:56Z</time>
      </trkpt>
      <trkpt lat="47.31461" lon="0.04814">
        <ele>93</ele>
        <time>2014-09-14T10:29:57Z</time>
      </trkpt>
      <trkpt lat="47.31459" lon="0.0481">
        <ele>92</ele>
        <time>2014-09-14T10:29:58Z</time>
      </trkpt>
      <trkpt lat="47.31457" lon="0.04806">
        <ele>92</ele>
        <time>2014-09-14T10:29:59Z</time>
      </trkpt>
      <trkpt lat="47.31455" lon="0.04802">
        <ele>91</ele>
        <time>2014-09-14T10:30:00Z</time>
      </trkpt>
      <trkpt lat="47.31454" lon="0.04799">
        <ele>90</ele>
        <time>2014-09-14T10:30:01Z</time>
      </trkpt>
      <trkpt lat="47.31453" lon="0.04796">
        <ele>90</ele>
        <time>2014-09-14T10:30:02Z</time>
      </trkpt>
      <trkpt lat="47.31452" lon="0.04793">
        <ele>89</ele>
        <time>2014-09-14T10:30:03Z</time>
      </trkpt>
      <trkpt lat="47.3145" lon="0.04789">
        <ele>87</ele>
        <time>2014-09-14T10:30:04Z</time>
      </trkpt>
      <trkpt lat="47.31448" lon="0.04788">
        <ele>87</ele>
        <time>2014-09-14T10:30:05Z</time>
      </trkpt>
      <trkpt lat="47.31445" lon="0.04787">
        <ele>86</ele>
        <time>2014-09-14T10:30:06Z</time>
      </trkpt>
      <trkpt lat="47.31443" lon="0.04784">
        <ele>86</ele>
        <time>2014-09-14T10:30:07Z</time>
      </trkpt>
      <trkpt lat="47.31442" lon="0.04782">
        <ele>86</ele>
        <time>2014-09-14T10:30:08Z</time>
      </trkpt>
      <trkpt lat="47.31441" lon="0.0478">
        <ele>85</ele>
        <time>2014-09-14T10:30:09Z</time>
      </trkpt>
      <trkpt lat="47.31438" lon="0.0478">
        <ele>85</ele>
        <time>2014-09-14T10:30:10Z</time>
      </trkpt>
      <trkpt lat="47.31435" lon="0.0478">
        <ele>85</ele>
        <time>2014-09-14T10:30:11Z</time>
      </trkpt>
      <trkpt lat="47.31431" lon="0.04789">
        <ele>85</ele>
        <time>2014-09-14T10:30:14Z</time>
      </trkpt>
      <trkpt lat="47.3142" lon="0.04802">
        <ele>85</ele>
        <time>2014-09-14T10:30:18Z</time>
      </trkpt>
      <trkpt lat="47.31414" lon="0.04808">
        <ele>85</ele>
        <time>2014-09-14T10:30:21Z</time>
      </trkpt>
      <trkpt lat="47.31414" lon="0.04812">
        <ele>85</ele>
        <time>2014-09-14T10:30:23Z</time>
      </trkpt>
      <trkpt lat="47.31411" lon="0.04816">
        <ele>85</ele>
        <time>2014-09-14T10:30:27Z</time>
      </trkpt>
      <trkpt lat="47.31411" lon="0.04818">
        <ele>85</ele>
        <time>2014-09-14T10:30:28Z</time>
      </trkpt>
      <trkpt lat="47.3141" lon="0.04821">
        <ele>85</ele>
        <time>2014-09-14T10:30:29Z</time>
      </trkpt>
      <trkpt lat="47.3141" lon="0.04823">
        <ele>86</ele>
        <time>2014-09-14T10:30:30Z</time>
      </trkpt>
      <trkpt lat="47.3141" lon="0.04826">
        <ele>86</ele>
        <time>2014-09-14T10:30:31Z</time>
      </trkpt>
      <trkpt lat="47.3141" lon="0.0483">
        <ele>86</ele>
        <time>2014-09-14T10:30:32Z</time>
      </trkpt>
      <trkpt lat="47.31409" lon="0.04832">
        <ele>87</ele>
        <time>2014-09-14T10:30:33Z</time>
      </trkpt>
      <trkpt lat="47.31409" lon="0.04834">
        <ele>87</ele>
        <time>2014-09-14T10:30:34Z</time>
      </trkpt>
      <trkpt lat="47.31407" lon="0.04834">
        <ele>87</ele>
        <time>2014-09-14T10:30:35Z</time>
      </trkpt>
      <trkpt lat="47.31393" lon="0.04831">
        <ele>87</ele>
        <time>2014-09-14T10:30:41Z</time>
      </trkpt>
      <trkpt lat="47.31392" lon="0.04829">
        <ele>87</ele>
        <time>2014-09-14T10:30:42Z</time>
      </trkpt>
      <trkpt lat="47.31388" lon="0.04822">
        <ele>87</ele>
        <time>2014-09-14T10:30:45Z</time>
      </trkpt>
      <trkpt lat="47.31389" lon="0.04819">
        <ele>87</ele>
        <time>2014-09-14T10:30:46Z</time>
      </trkpt>
      <trkpt lat="47.31386" lon="0.04808">
        <ele>87</ele>
        <time>2014-09-14T10:30:50Z</time>
      </trkpt>
      <trkpt lat="47.31376" lon="0.04796">
        <ele>86</ele>
        <time>2014-09-14T10:30:54Z</time>
      </trkpt>
      <trkpt lat="47.31375" lon="0.04791">
        <ele>86</ele>
        <time>2014-09-14T10:30:55Z</time>
      </trkpt>
      <trkpt lat="47.31374" lon="0.04787">
        <ele>86</ele>
        <time>2014-09-14T10:30:56Z</time>
      </trkpt>
      <trkpt lat="47.31372" lon="0.04782">
        <ele>85</ele>
        <time>2014-09-14T10:30:57Z</time>
      </trkpt>
      <trkpt lat="47.31369" lon="0.04778">
        <ele>85</ele>
        <time>2014-09-14T10:30:58Z</time>
      </trkpt>
      <trkpt lat="47.31366" lon="0.04774">
        <ele>84</ele>
        <time>2014-09-14T10:30:59Z</time>
      </trkpt>
      <trkpt lat="47.31367" lon="0.0477">
        <ele>84</ele>
        <time>2014-09-14T10:31:00Z</time>
      </trkpt>
      <trkpt lat="47.31367" lon="0.04765">
        <ele>83</ele>
        <time>2014-09-14T10:31:01Z</time>
      </trkpt>
      <trkpt lat="47.31368" lon="0.04761">
        <ele>83</ele>
        <time>2014-09-14T10:31:02Z</time>
      </trkpt>
      <trkpt lat="47.31368" lon="0.04757">
        <ele>82</ele>
        <time>2014-09-14T10:31:03Z</time>
      </trkpt>
      <trkpt lat="47.31368" lon="0.04752">
        <ele>82</ele>
        <time>2014-09-14T10:31:04Z</time>
      </trkpt>
      <trkpt lat="47.31368" lon="0.04747">
        <ele>81</ele>
        <time>2014-09-14T10:31:05Z</time>
      </trkpt>
      <trkpt lat="47.31368" lon="0.04741">
        <ele>81</ele>
        <time>2014-09-14T10:31:06Z</time>
      </trkpt>
      <trkpt lat="47.31366" lon="0.04736">
        <ele>80</ele>
        <time>2014-09-14T10:31:07Z</time>
      </trkpt>
      <trkpt lat="47.31367" lon="0.04732">
        <ele>80</ele>
        <time>2014-09-14T10:31:08Z</time>
      </trkpt>
      <trkpt lat="47.31367" lon="0.0473">
        <ele>79</ele>
        <time>2014-09-14T10:31:09Z</time>
      </trkpt>
      <trkpt lat="47.31367" lon="0.04728">
        <ele>79</ele>
        <time>2014-09-14T10:31:10Z</time>
      </trkpt>
      <trkpt lat="47.31367" lon="0.04725">
        <ele>79</ele>
        <time>2014-09-14T10:31:11Z</time>
      </trkpt>
      <trkpt lat="47.31367" lon="0.04722">
        <ele>78</ele>
        <time>2014-09-14T10:31:12Z</time>
      </trkpt>
      <trkpt lat="47.31369" lon="0.04704">
        <ele>78</ele>
        <time>2014-09-14T10:31:15Z</time>
      </trkpt>
      <trkpt lat="47.31369" lon="0.04695">
        <ele>78</ele>
        <time>2014-09-14T10:31:17Z</time>
      </trkpt>
      <trkpt lat="47.31368" lon="0.04691">
        <ele>77</ele>
        <time>2014-09-14T10:31:18Z</time>
      </trkpt>
      <trkpt lat="47.31367" lon="0.04686">
        <ele>77</ele>
        <time>2014-09-14T10:31:19Z</time>
      </trkpt>
      <trkpt lat="47.31368" lon="0.04681">
        <ele>76</ele>
        <time>2014-09-14T10:31:20Z</time>
      </trkpt>
      <trkpt lat="47.31365" lon="0.04674">
        <ele>76</ele>
        <time>2014-09-14T10:31:22Z</time>
      </trkpt>
      <trkpt lat="47.31361" lon="0.04659">
        <ele>76</ele>
        <time>2014-09-14T10:31:25Z</time>
      </trkpt>
      <trkpt lat="47.31358" lon="0.04651">
        <ele>76</ele>
        <time>2014-09-14T10:31:28Z</time>
      </trkpt>
      <trkpt lat="47.31356" lon="0.04644">
        <ele>76</ele>
        <time>2014-09-14T10:31:30Z</time>
      </trkpt>
      <trkpt lat="47.31339" lon="0.04609">
        <ele>76</ele>
        <time>2014-09-14T10:31:35Z</time>
      </trkpt>
      <trkpt lat="47.31319" lon="0.04571">
        <ele>76</ele>
        <time>2014-09-14T10:31:40Z</time>
      </trkpt>
      <trkpt lat="47.3131" lon="0.04561">
        <ele>76</ele>
        <time>2014-09-14T10:31:42Z</time>
      </trkpt>
      <trkpt lat="47.31301" lon="0.04552">
        <ele>76</ele>
        <time>2014-09-14T10:31:44Z</time>
      </trkpt>
      <trkpt lat="47.31286" lon="0.04539">
        <ele>76</ele>
        <time>2014-09-14T10:31:47Z</time>
      </trkpt>
      <trkpt lat="47.31275" lon="0.04529">
        <ele>76</ele>
        <time>2014-09-14T10:31:50Z</time>
      </trkpt>
      <trkpt lat="47.31261" lon="0.04512">
        <ele>76</ele>
        <time>2014-09-14T10:31:56Z</time>
      </trkpt>
      <trkpt lat="47.31246" lon="0.0448">
        <ele>76</ele>
        <time>2014-09-14T10:32:01Z</time>
      </trkpt>
      <trkpt lat="47.31236" lon="0.04453">
        <ele>76</ele>
        <time>2014-09-14T10:32:05Z</time>
      </trkpt>
      <trkpt lat="47.31214" lon="0.044">
        <ele>76</ele>
        <time>2014-09-14T10:32:11Z</time>
      </trkpt>
      <trkpt lat="47.31212" lon="0.04392">
        <ele>76</ele>
        <time>2014-09-14T10:32:12Z</time>
      </trkpt>
      <trkpt lat="47.31203" lon="0.04358">
        <ele>76</ele>
        <time>2014-09-14T10:32:17Z</time>
      </trkpt>
      <trkpt lat="47.31201" lon="0.04352">
        <ele>76</ele>
        <time>2014-09-14T10:32:18Z</time>
      </trkpt>
      <trkpt lat="47.31193" lon="0.04326">
        <ele>75</ele>
        <time>2014-09-14T10:32:22Z</time>
      </trkpt>
      <trkpt lat="47.3119" lon="0.04319">
        <ele>75</ele>
        <time>2014-09-14T10:32:23Z</time>
      </trkpt>
      <trkpt lat="47.31188" lon="0.04312">
        <ele>75</ele>
        <time>2014-09-14T10:32:24Z</time>
      </trkpt>
      <trkpt lat="47.31186" lon="0.04304">
        <ele>74</ele>
        <time>2014-09-14T10:32:25Z</time>
      </trkpt>
      <trkpt lat="47.31183" lon="0.04296">
        <ele>74</ele>
        <time>2014-09-14T10:32:26Z</time>
      </trkpt>
      <trkpt lat="47.3118" lon="0.0429">
        <ele>74</ele>
        <time>2014-09-14T10:32:27Z</time>
      </trkpt>
      <trkpt lat="47.31177" lon="0.04282">
        <ele>74</ele>
        <time>2014-09-14T10:32:28Z</time>
      </trkpt>
      <trkpt lat="47.31167" lon="0.04259">
        <ele>74</ele>
        <time>2014-09-14T10:32:31Z</time>
      </trkpt>
      <trkpt lat="47.31164" lon="0.04252">
        <ele>73</ele>
        <time>2014-09-14T10:32:32Z</time>
      </trkpt>
      <trkpt lat="47.3116" lon="0.04245">
        <ele>72</ele>
        <time>2014-09-14T10:32:33Z</time>
      </trkpt>
      <trkpt lat="47.31157" lon="0.04239">
        <ele>72</ele>
        <time>2014-09-14T10:32:34Z</time>
      </trkpt>
      <trkpt lat="47.31154" lon="0.04235">
        <ele>71</ele>
        <time>2014-09-14T10:32:35Z</time>
      </trkpt>
      <trkpt lat="47.3115" lon="0.04231">
        <ele>71</ele>
        <time>2014-09-14T10:32:36Z</time>
      </trkpt>
      <trkpt lat="47.31141" lon="0.04228">
        <ele>71</ele>
        <time>2014-09-14T10:32:38Z</time>
      </trkpt>
      <trkpt lat="47.31138" lon="0.0423">
        <ele>71</ele>
        <time>2014-09-14T10:32:39Z</time>
      </trkpt>
      <trkpt lat="47.31136" lon="0.04233">
        <ele>71</ele>
        <time>2014-09-14T10:32:40Z</time>
      </trkpt>
      <trkpt lat="47.31135" lon="0.04236">
        <ele>71</ele>
        <time>2014-09-14T10:32:41Z</time>
      </trkpt>
      <trkpt lat="47.31133" lon="0.04239">
        <ele>70</ele>
        <time>2014-09-14T10:32:42Z</time>
      </trkpt>
      <trkpt lat="47.31131" lon="0.04243">
        <ele>70</ele>
        <time>2014-09-14T10:32:43Z</time>
      </trkpt>
      <trkpt lat="47.31128" lon="0.04247">
        <ele>69</ele>
        <time>2014-09-14T10:32:44Z</time>
      </trkpt>
      <trkpt lat="47.31125" lon="0.0425">
        <ele>69</ele>
        <time>2014-09-14T10:32:45Z</time>
      </trkpt>
      <trkpt lat="47.31118" lon="0.04261">
        <ele>69</ele>
        <time>2014-09-14T10:32:47Z</time>
      </trkpt>
      <trkpt lat="47.31114" lon="0.04266">
        <ele>69</ele>
        <time>2014-09-14T10:32:48Z</time>
      </trkpt>
      <trkpt lat="47.31111" lon="0.0427">
        <ele>69</ele>
        <time>2014-09-14T10:32:49Z</time>
      </trkpt>
      <trkpt lat="47.31108" lon="0.04275">
        <ele>68</ele>
        <time>2014-09-14T10:32:50Z</time>
      </trkpt>
      <trkpt lat="47.31103" lon="0.04282">
        <ele>68</ele>
        <time>2014-09-14T10:32:51Z</time>
      </trkpt>
      <trkpt lat="47.31099" lon="0.04288">
        <ele>67</ele>
        <time>2014-09-14T10:32:52Z</time>
      </trkpt>
      <trkpt lat="47.31094" lon="0.04295">
        <ele>67</ele>
        <time>2014-09-14T10:32:53Z</time>
      </trkpt>
      <trkpt lat="47.31088" lon="0.04301">
        <ele>67</ele>
        <time>2014-09-14T10:32:54Z</time>
      </trkpt>
      <trkpt lat="47.31067" lon="0.04313">
        <ele>67</ele>
        <time>2014-09-14T10:32:57Z</time>
      </trkpt>
      <trkpt lat="47.31058" lon="0.04313">
        <ele>67</ele>
        <time>2014-09-14T10:32:58Z</time>
      </trkpt>
      <trkpt lat="47.31053" lon="0.04311">
        <ele>67</ele>
        <time>2014-09-14T10:32:59Z</time>
      </trkpt>
      <trkpt lat="47.3105" lon="0.04309">
        <ele>66</ele>
        <time>2014-09-14T10:33:00Z</time>
      </trkpt>
      <trkpt lat="47.31049" lon="0.04305">
        <ele>66</ele>
        <time>2014-09-14T10:33:01Z</time>
      </trkpt>
      <trkpt lat="47.31049" lon="0.04299">
        <ele>65</ele>
        <time>2014-09-14T10:33:02Z</time>
      </trkpt>
      <trkpt lat="47.31049" lon="0.04294">
        <ele>65</ele>
        <time>2014-09-14T10:33:03Z</time>
      </trkpt>
      <trkpt lat="47.31047" lon="0.04277">
        <ele>65</ele>
        <time>2014-09-14T10:33:06Z</time>
      </trkpt>
      <trkpt lat="47.31044" lon="0.04268">
        <ele>65</ele>
        <time>2014-09-14T10:33:08Z</time>
      </trkpt>
      <trkpt lat="47.31032" lon="0.04245">
        <ele>65</ele>
        <time>2014-09-14T10:33:12Z</time>
      </trkpt>
      <trkpt lat="47.31028" lon="0.04238">
        <ele>65</ele>
        <time>2014-09-14T10:33:13Z</time>
      </trkpt>
      <trkpt lat="47.3102" lon="0.04227">
        <ele>65</ele>
        <time>2014-09-14T10:33:15Z</time>
      </trkpt>
      <trkpt lat="47.31005" lon="0.04213">
        <ele>65</ele>
        <time>2014-09-14T10:33:18Z</time>
      </trkpt>
      <trkpt lat="47.30999" lon="0.042">
        <ele>65</ele>
        <time>2014-09-14T10:33:20Z</time>
      </trkpt>
      <trkpt lat="47.30995" lon="0.04195">
        <ele>64</ele>
        <time>2014-09-14T10:33:21Z</time>
      </trkpt>
      <trkpt lat="47.30991" lon="0.04191">
        <ele>64</ele>
        <time>2014-09-14T10:33:22Z</time>
      </trkpt>
      <trkpt lat="47.30987" lon="0.04187">
        <ele>63</ele>
        <time>2014-09-14T10:33:23Z</time>
      </trkpt>
      <trkpt lat="47.30977" lon="0.04183">
        <ele>63</ele>
        <time>2014-09-14T10:33:25Z</time>
      </trkpt>
      <trkpt lat="47.30971" lon="0.04181">
        <ele>63</ele>
        <time>2014-09-14T10:33:26Z</time>
      </trkpt>
      <trkpt lat="47.30955" lon="0.04176">
        <ele>63</ele>
        <time>2014-09-14T10:33:29Z</time>
      </trkpt>
      <trkpt lat="47.30943" lon="0.04179">
        <ele>63</ele>
        <time>2014-09-14T10:33:31Z</time>
      </trkpt>
      <trkpt lat="47.30936" lon="0.0418">
        <ele>62</ele>
        <time>2014-09-14T10:33:32Z</time>
      </trkpt>
      <trkpt lat="47.3093" lon="0.04181">
        <ele>62</ele>
        <time>2014-09-14T10:33:33Z</time>
      </trkpt>
      <trkpt lat="47.30923" lon="0.04182">
        <ele>62</ele>
        <time>2014-09-14T10:33:34Z</time>
      </trkpt>
      <trkpt lat="47.30918" lon="0.04181">
        <ele>61</ele>
        <time>2014-09-14T10:33:35Z</time>
      </trkpt>
      <trkpt lat="47.30907" lon="0.04178">
        <ele>61</ele>
        <time>2014-09-14T10:33:37Z</time>
      </trkpt>
      <trkpt lat="47.30907" lon="0.0417">
        <ele>61</ele>
        <time>2014-09-14T10:33:39Z</time>
      </trkpt>
      <trkpt lat="47.30913" lon="0.04155">
        <ele>61</ele>
        <time>2014-09-14T10:33:42Z</time>
      </trkpt>
      <trkpt lat="47.30916" lon="0.04149">
        <ele>61</ele>
        <time>2014-09-14T10:33:43Z</time>
      </trkpt>
      <trkpt lat="47.30922" lon="0.0413">
        <ele>61</ele>
        <time>2014-09-14T10:33:46Z</time>
      </trkpt>
      <trkpt lat="47.30922" lon="0.04121">
        <ele>61</ele>
        <time>2014-09-14T10:33:48Z</time>
      </trkpt>
      <trkpt lat="47.30921" lon="0.04118">
        <ele>61</ele>
        <time>2014-09-14T10:33:49Z</time>
      </trkpt>
      <trkpt lat="47.30918" lon="0.04113">
        <ele>61</ele>
        <time>2014-09-14T10:33:51Z</time>
      </trkpt>
      <trkpt lat="47.30916" lon="0.04107">
        <ele>61</ele>
        <time>2014-09-14T10:33:53Z</time>
      </trkpt>
      <trkpt lat="47.30914" lon="0.04103">
        <ele>60</ele>
        <time>2014-09-14T10:33:54Z</time>
      </trkpt>
      <trkpt lat="47.3091" lon="0.04099">
        <ele>60</ele>
        <time>2014-09-14T10:33:55Z</time>
      </trkpt>
      <trkpt lat="47.30907" lon="0.04097">
        <ele>60</ele>
        <time>2014-09-14T10:33:56Z</time>
      </trkpt>
      <trkpt lat="47.30902" lon="0.04092">
        <ele>59</ele>
        <time>2014-09-14T10:33:57Z</time>
      </trkpt>
      <trkpt lat="47.30887" lon="0.0408">
        <ele>59</ele>
        <time>2014-09-14T10:34:00Z</time>
      </trkpt>
      <trkpt lat="47.30871" lon="0.0407">
        <ele>59</ele>
        <time>2014-09-14T10:34:03Z</time>
      </trkpt>
      <trkpt lat="47.30859" lon="0.04062">
        <ele>59</ele>
        <time>2014-09-14T10:34:05Z</time>
      </trkpt>
      <trkpt lat="47.30853" lon="0.04059">
        <ele>58</ele>
        <time>2014-09-14T10:34:06Z</time>
      </trkpt>
      <trkpt lat="47.30848" lon="0.04056">
        <ele>58</ele>
        <time>2014-09-14T10:34:07Z</time>
      </trkpt>
      <trkpt lat="47.30842" lon="0.04053">
        <ele>57</ele>
        <time>2014-09-14T10:34:08Z</time>
      </trkpt>
      <trkpt lat="47.30837" lon="0.04054">
        <ele>57</ele>
        <time>2014-09-14T10:34:09Z</time>
      </trkpt>
      <trkpt lat="47.30834" lon="0.04055">
        <ele>57</ele>
        <time>2014-09-14T10:34:10Z</time>
      </trkpt>
      <trkpt lat="47.30826" lon="0.04065">
        <ele>57</ele>
        <time>2014-09-14T10:34:14Z</time>
      </trkpt>
      <trkpt lat="47.30826" lon="0.04069">
        <ele>57</ele>
        <time>2014-09-14T10:34:15Z</time>
      </trkpt>
      <trkpt lat="47.30823" lon="0.04083">
        <ele>57</ele>
        <time>2014-09-14T10:34:18Z</time>
      </trkpt>
      <trkpt lat="47.30823" lon="0.04096">
        <ele>57</ele>
        <time>2014-09-14T10:34:20Z</time>
      </trkpt>
      <trkpt lat="47.30822" lon="0.04117">
        <ele>57</ele>
        <time>2014-09-14T10:34:23Z</time>
      </trkpt>
      <trkpt lat="47.30821" lon="0.04124">
        <ele>57</ele>
        <time>2014-09-14T10:34:24Z</time>
      </trkpt>
      <trkpt lat="47.30816" lon="0.04151">
        <ele>57</ele>
        <time>2014-09-14T10:34:28Z</time>
      </trkpt>
      <trkpt lat="47.30815" lon="0.04158">
        <ele>57</ele>
        <time>2014-09-14T10:34:29Z</time>
      </trkpt>
      <trkpt lat="47.30809" lon="0.04182">
        <ele>57</ele>
        <time>2014-09-14T10:34:33Z</time>
      </trkpt>
      <trkpt lat="47.30802" lon="0.04214">
        <ele>57</ele>
        <time>2014-09-14T10:34:38Z</time>
      </trkpt>
      <trkpt lat="47.30793" lon="0.04234">
        <ele>57</ele>
        <time>2014-09-14T10:34:42Z</time>
      </trkpt>
      <trkpt lat="47.30779" lon="0.04232">
        <ele>57</ele>
        <time>2014-09-14T10:34:46Z</time>
      </trkpt>
      <trkpt lat="47.30774" lon="0.0423">
        <ele>57</ele>
        <time>2014-09-14T10:34:47Z</time>
      </trkpt>
      <trkpt lat="47.30768" lon="0.04228">
        <ele>56</ele>
        <time>2014-09-14T10:34:48Z</time>
      </trkpt>
      <trkpt lat="47.30763" lon="0.04226">
        <ele>56</ele>
        <time>2014-09-14T10:34:49Z</time>
      </trkpt>
      <trkpt lat="47.30758" lon="0.04223">
        <ele>55</ele>
        <time>2014-09-14T10:34:50Z</time>
      </trkpt>
      <trkpt lat="47.30751" lon="0.04219">
        <ele>55</ele>
        <time>2014-09-14T10:34:51Z</time>
      </trkpt>
      <trkpt lat="47.30729" lon="0.0421">
        <ele>55</ele>
        <time>2014-09-14T10:34:55Z</time>
      </trkpt>
      <trkpt lat="47.30721" lon="0.04211">
        <ele>55</ele>
        <time>2014-09-14T10:34:57Z</time>
      </trkpt>
      <trkpt lat="47.30713" lon="0.04227">
        <ele>55</ele>
        <time>2014-09-14T10:35:00Z</time>
      </trkpt>
      <trkpt lat="47.30707" lon="0.04253">
        <ele>55</ele>
        <time>2014-09-14T10:35:03Z</time>
      </trkpt>
      <trkpt lat="47.30705" lon="0.04262">
        <ele>55</ele>
        <time>2014-09-14T10:35:04Z</time>
      </trkpt>
      <trkpt lat="47.30703" lon="0.04271">
        <ele>55</ele>
        <time>2014-09-14T10:35:05Z</time>
      </trkpt>
      <trkpt lat="47.30701" lon="0.04297">
        <ele>55</ele>
        <time>2014-09-14T10:35:08Z</time>
      </trkpt>
      <trkpt lat="47.30703" lon="0.0431">
        <ele>55</ele>
        <time>2014-09-14T10:35:10Z</time>
      </trkpt>
      <trkpt lat="47.30706" lon="0.04321">
        <ele>55</ele>
        <time>2014-09-14T10:35:12Z</time>
      </trkpt>
      <trkpt lat="47.30714" lon="0.04344">
        <ele>55</ele>
        <time>2014-09-14T10:35:16Z</time>
      </trkpt>
      <trkpt lat="47.30718" lon="0.04356">
        <ele>55</ele>
        <time>2014-09-14T10:35:18Z</time>
      </trkpt>
      <trkpt lat="47.3072" lon="0.04363">
        <ele>55</ele>
        <time>2014-09-14T10:35:19Z</time>
      </trkpt>
      <trkpt lat="47.30727" lon="0.04381">
        <ele>55</ele>
        <time>2014-09-14T10:35:22Z</time>
      </trkpt>
      <trkpt lat="47.30729" lon="0.04387">
        <ele>55</ele>
        <time>2014-09-14T10:35:23Z</time>
      </trkpt>
      <trkpt lat="47.30737" lon="0.04418">
        <ele>55</ele>
        <time>2014-09-14T10:35:28Z</time>
      </trkpt>
      <trkpt lat="47.30736" lon="0.04439">
        <ele>55</ele>
        <time>2014-09-14T10:35:32Z</time>
      </trkpt>
      <trkpt lat="47.30736" lon="0.04441">
        <ele>54</ele>
        <time>2014-09-14T10:35:33Z</time>
      </trkpt>
      <trkpt lat="47.30735" lon="0.04442">
        <ele>54</ele>
        <time>2014-09-14T10:35:34Z</time>
      </trkpt>
      <trkpt lat="47.30732" lon="0.04438">
        <ele>54</ele>
        <time>2014-09-14T10:35:35Z</time>
      </trkpt>
      <trkpt lat="47.30728" lon="0.04436">
        <ele>53</ele>
        <time>2014-09-14T10:35:36Z</time>
      </trkpt>
      <trkpt lat="47.30724" lon="0.04434">
        <ele>53</ele>
        <time>2014-09-14T10:35:37Z</time>
      </trkpt>
      <trkpt lat="47.30706" lon="0.04423">
        <ele>53</ele>
        <time>2014-09-14T10:35:41Z</time>
      </trkpt>
      <trkpt lat="47.30694" lon="0.04432">
        <ele>53</ele>
        <time>2014-09-14T10:35:44Z</time>
      </trkpt>
      <trkpt lat="47.30687" lon="0.04456">
        <ele>53</ele>
        <time>2014-09-14T10:35:47Z</time>
      </trkpt>
      <trkpt lat="47.30683" lon="0.04472">
        <ele>53</ele>
        <time>2014-09-14T10:35:49Z</time>
      </trkpt>
      <trkpt lat="47.3068" lon="0.04488">
        <ele>53</ele>
        <time>2014-09-14T10:35:51Z</time>
      </trkpt>
      <trkpt lat="47.30679" lon="0.04496">
        <ele>53</ele>
        <time>2014-09-14T10:35:52Z</time>
      </trkpt>
      <trkpt lat="47.30672" lon="0.0454">
        <ele>53</ele>
        <time>2014-09-14T10:35:57Z</time>
      </trkpt>
      <trkpt lat="47.3067" lon="0.04549">
        <ele>53</ele>
        <time>2014-09-14T10:35:58Z</time>
      </trkpt>
      <trkpt lat="47.30661" lon="0.04591">
        <ele>53</ele>
        <time>2014-09-14T10:36:03Z</time>
      </trkpt>
      <trkpt lat="47.30652" lon="0.04638">
        <ele>53</ele>
        <time>2014-09-14T10:36:08Z</time>
      </trkpt>
      <trkpt lat="47.3065" lon="0.04646">
        <ele>53</ele>
        <time>2014-09-14T10:36:09Z</time>
      </trkpt>
      <trkpt lat="47.30644" lon="0.0467">
        <ele>53</ele>
        <time>2014-09-14T10:36:12Z</time>
      </trkpt>
      <trkpt lat="47.3064" lon="0.04687">
        <ele>53</ele>
        <time>2014-09-14T10:36:14Z</time>
      </trkpt>
      <trkpt lat="47.30638" lon="0.0471">
        <ele>53</ele>
        <time>2014-09-14T10:36:17Z</time>
      </trkpt>
      <trkpt lat="47.30637" lon="0.04732">
        <ele>53</ele>
        <time>2014-09-14T10:36:20Z</time>
      </trkpt>
      <trkpt lat="47.30637" lon="0.04741">
        <ele>53</ele>
        <time>2014-09-14T10:36:21Z</time>
      </trkpt>
      <trkpt lat="47.30637" lon="0.04748">
        <ele>53</ele>
        <time>2014-09-14T10:36:22Z</time>
      </trkpt>
      <trkpt lat="47.30637" lon="0.04772">
        <ele>53</ele>
        <time>2014-09-14T10:36:25Z</time>
      </trkpt>
      <trkpt lat="47.30635" lon="0.04798">
        <ele>53</ele>
        <time>2014-09-14T10:36:28Z</time>
      </trkpt>
      <trkpt lat="47.30632" lon="0.04853">
        <ele>53</ele>
        <time>2014-09-14T10:36:35Z</time>
      </trkpt>
      <trkpt lat="47.30631" lon="0.04885">
        <ele>53</ele>
        <time>2014-09-14T10:36:39Z</time>
      </trkpt>
      <trkpt lat="47.30629" lon="0.04903">
        <ele>53</ele>
        <time>2014-09-14T10:36:41Z</time>
      </trkpt>
      <trkpt lat="47.30623" lon="0.04964">
        <ele>53</ele>
        <time>2014-09-14T10:36:48Z</time>
      </trkpt>
      <trkpt lat="47.30619" lon="0.05021">
        <ele>53</ele>
        <time>2014-09-14T10:36:55Z</time>
      </trkpt>
      <trkpt lat="47.30614" lon="0.05088">
        <ele>53</ele>
        <time>2014-09-14T10:37:03Z</time>
      </trkpt>
      <trkpt lat="47.30613" lon="0.05141">
        <ele>53</ele>
        <time>2014-09-14T10:37:09Z</time>
      </trkpt>
      <trkpt lat="47.30618" lon="0.05172">
        <ele>53</ele>
        <time>2014-09-14T10:37:14Z</time>
      </trkpt>
      <trkpt lat="47.30626" lon="0.05176">
        <ele>53</ele>
        <time>2014-09-14T10:37:17Z</time>
      </trkpt>
      <trkpt lat="47.30641" lon="0.05179">
        <ele>53</ele>
        <time>2014-09-14T10:37:22Z</time>
      </trkpt>
      <trkpt lat="47.30646" lon="0.05182">
        <ele>53</ele>
        <time>2014-09-14T10:37:24Z</time>
      </trkpt>
      <trkpt lat="47.30649" lon="0.05184">
        <ele>54</ele>
        <time>2014-09-14T10:37:25Z</time>
      </trkpt>
      <trkpt lat="47.30651" lon="0.05185">
        <ele>54</ele>
        <time>2014-09-14T10:37:26Z</time>
      </trkpt>
      <trkpt lat="47.30654" lon="0.05186">
        <ele>55</ele>
        <time>2014-09-14T10:37:27Z</time>
      </trkpt>
      <trkpt lat="47.30657" lon="0.05187">
        <ele>55</ele>
        <time>2014-09-14T10:37:28Z</time>
      </trkpt>
      <trkpt lat="47.30671" lon="0.05193">
        <ele>55</ele>
        <time>2014-09-14T10:37:33Z</time>
      </trkpt>
      <trkpt lat="47.30674" lon="0.05194">
        <ele>55</ele>
        <time>2014-09-14T10:37:35Z</time>
      </trkpt>
      <trkpt lat="47.30677" lon="0.05194">
        <ele>56</ele>
        <time>2014-09-14T10:37:36Z</time>
      </trkpt>
      <trkpt lat="47.3068" lon="0.05195">
        <ele>56</ele>
        <time>2014-09-14T10:37:37Z</time>
      </trkpt>
      <trkpt lat="47.30682" lon="0.05196">
        <ele>56</ele>
        <time>2014-09-14T10:37:38Z</time>
      </trkpt>
      <trkpt lat="47.30684" lon="0.05197">
        <ele>57</ele>
        <time>2014-09-14T10:37:39Z</time>
      </trkpt>
      <trkpt lat="47.30693" lon="0.05203">
        <ele>57</ele>
        <time>2014-09-14T10:37:43Z</time>
      </trkpt>
      <trkpt lat="47.30698" lon="0.05205">
        <ele>57</ele>
        <time>2014-09-14T10:37:45Z</time>
      </trkpt>
      <trkpt lat="47.30701" lon="0.05207">
        <ele>58</ele>
        <time>2014-09-14T10:37:46Z</time>
      </trkpt>
      <trkpt lat="47.30703" lon="0.05208">
        <ele>58</ele>
        <time>2014-09-14T10:37:47Z</time>
      </trkpt>
      <trkpt lat="47.30705" lon="0.05208">
        <ele>59</ele>
        <time>2014-09-14T10:37:48Z</time>
      </trkpt>
      <trkpt lat="47.30707" lon="0.05208">
        <ele>59</ele>
        <time>2014-09-14T10:37:49Z</time>
      </trkpt>
      <trkpt lat="47.30711" lon="0.05208">
        <ele>59</ele>
        <time>2014-09-14T10:37:50Z</time>
      </trkpt>
      <trkpt lat="47.30721" lon="0.05206">
        <ele>59</ele>
        <time>2014-09-14T10:37:53Z</time>
      </trkpt>
      <trkpt lat="47.30727" lon="0.05208">
        <ele>60</ele>
        <time>2014-09-14T10:37:54Z</time>
      </trkpt>
      <trkpt lat="47.3073" lon="0.05209">
        <ele>60</ele>
        <time>2014-09-14T10:37:55Z</time>
      </trkpt>
      <trkpt lat="47.30733" lon="0.05209">
        <ele>61</ele>
        <time>2014-09-14T10:37:56Z</time>
      </trkpt>
      <trkpt lat="47.30737" lon="0.0521">
        <ele>61</ele>
        <time>2014-09-14T10:37:57Z</time>
      </trkpt>
      <trkpt lat="47.30747" lon="0.0521">
        <ele>62</ele>
        <time>2014-09-14T10:38:00Z</time>
      </trkpt>
      <trkpt lat="47.3075" lon="0.0521">
        <ele>62</ele>
        <time>2014-09-14T10:38:01Z</time>
      </trkpt>
      <trkpt lat="47.30753" lon="0.05208">
        <ele>62</ele>
        <time>2014-09-14T10:38:02Z</time>
      </trkpt>
      <trkpt lat="47.30756" lon="0.05208">
        <ele>63</ele>
        <time>2014-09-14T10:38:03Z</time>
      </trkpt>
      <trkpt lat="47.30759" lon="0.05207">
        <ele>63</ele>
        <time>2014-09-14T10:38:04Z</time>
      </trkpt>
      <trkpt lat="47.30767" lon="0.05205">
        <ele>64</ele>
        <time>2014-09-14T10:38:07Z</time>
      </trkpt>
      <trkpt lat="47.30769" lon="0.05205">
        <ele>64</ele>
        <time>2014-09-14T10:38:08Z</time>
      </trkpt>
      <trkpt lat="47.3077" lon="0.05203">
        <ele>65</ele>
        <time>2014-09-14T10:38:09Z</time>
      </trkpt>
      <trkpt lat="47.30773" lon="0.05202">
        <ele>65</ele>
        <time>2014-09-14T10:38:10Z</time>
      </trkpt>
      <trkpt lat="47.30776" lon="0.052">
        <ele>65</ele>
        <time>2014-09-14T10:38:11Z</time>
      </trkpt>
      <trkpt lat="47.30781" lon="0.05195">
        <ele>65</ele>
        <time>2014-09-14T10:38:13Z</time>
      </trkpt>
      <trkpt lat="47.30792" lon="0.05184">
        <ele>66</ele>
        <time>2014-09-14T10:38:17Z</time>
      </trkpt>
      <trkpt lat="47.30795" lon="0.05182">
        <ele>66</ele>
        <time>2014-09-14T10:38:18Z</time>
      </trkpt>
      <trkpt lat="47.30798" lon="0.05179">
        <ele>67</ele>
        <time>2014-09-14T10:38:19Z</time>
      </trkpt>
      <trkpt lat="47.308" lon="0.05177">
        <ele>67</ele>
        <time>2014-09-14T10:38:20Z</time>
      </trkpt>
      <trkpt lat="47.30801" lon="0.05172">
        <ele>67</ele>
        <time>2014-09-14T10:38:21Z</time>
      </trkpt>
      <trkpt lat="47.30806" lon="0.05164">
        <ele>67</ele>
        <time>2014-09-14T10:38:23Z</time>
      </trkpt>
      <trkpt lat="47.30806" lon="0.05147">
        <ele>67</ele>
        <time>2014-09-14T10:38:26Z</time>
      </trkpt>
      <trkpt lat="47.30798" lon="0.05119">
        <ele>67</ele>
        <time>2014-09-14T10:38:31Z</time>
      </trkpt>
      <trkpt lat="47.3078" lon="0.05081">
        <ele>67</ele>
        <time>2014-09-14T10:38:38Z</time>
      </trkpt>
      <trkpt lat="47.30772" lon="0.05057">
        <ele>67</ele>
        <time>2014-09-14T10:38:42Z</time>
      </trkpt>
      <trkpt lat="47.30764" lon="0.0504">
        <ele>67</ele>
        <time>2014-09-14T10:38:46Z</time>
      </trkpt>
      <trkpt lat="47.30761" lon="0.0504">
        <ele>67</ele>
        <time>2014-09-14T10:38:47Z</time>
      </trkpt>
      <trkpt lat="47.30759" lon="0.0504">
        <ele>67</ele>
        <time>2014-09-14T10:38:48Z</time>
      </trkpt>
      <trkpt lat="47.30754" lon="0.05038">
        <ele>67</ele>
        <time>2014-09-14T10:38:50Z</time>
      </trkpt>
      <trkpt lat="47.30752" lon="0.05036">
        <ele>67</ele>
        <time>2014-09-14T10:38:51Z</time>
      </trkpt>
      <trkpt lat="47.30749" lon="0.05034">
        <ele>67</ele>
        <time>2014-09-14T10:38:52Z</time>
      </trkpt>
      <trkpt lat="47.30747" lon="0.05032">
        <ele>66</ele>
        <time>2014-09-14T10:38:53Z</time>
      </trkpt>
      <trkpt lat="47.30744" lon="0.05029">
        <ele>66</ele>
        <time>2014-09-14T10:38:54Z</time>
      </trkpt>
      <trkpt lat="47.30746" lon="0.05022">
        <ele>65</ele>
        <time>2014-09-14T10:38:55Z</time>
      </trkpt>
      <trkpt lat="47.30748" lon="0.0501">
        <ele>65</ele>
        <time>2014-09-14T10:38:57Z</time>
      </trkpt>
      <trkpt lat="47.30751" lon="0.04975">
        <ele>65</ele>
        <time>2014-09-14T10:39:03Z</time>
      </trkpt>
      <trkpt lat="47.30755" lon="0.04939">
        <ele>65</ele>
        <time>2014-09-14T10:39:08Z</time>
      </trkpt>
      <trkpt lat="47.30756" lon="0.04931">
        <ele>66</ele>
        <time>2014-09-14T10:39:10Z</time>
      </trkpt>
      <trkpt lat="47.30757" lon="0.04926">
        <ele>66</ele>
        <time>2014-09-14T10:39:11Z</time>
      </trkpt>
      <trkpt lat="47.30758" lon="0.04924">
        <ele>66</ele>
        <time>2014-09-14T10:39:12Z</time>
      </trkpt>
      <trkpt lat="47.30759" lon="0.04921">
        <ele>67</ele>
        <time>2014-09-14T10:39:13Z</time>
      </trkpt>
      <trkpt lat="47.30761" lon="0.04917">
        <ele>67</ele>
        <time>2014-09-14T10:39:14Z</time>
      </trkpt>
      <trkpt lat="47.30762" lon="0.04914">
        <ele>68</ele>
        <time>2014-09-14T10:39:15Z</time>
      </trkpt>
      <trkpt lat="47.30763" lon="0.04911">
        <ele>68</ele>
        <time>2014-09-14T10:39:16Z</time>
      </trkpt>
      <trkpt lat="47.30764" lon="0.04908">
        <ele>69</ele>
        <time>2014-09-14T10:39:17Z</time>
      </trkpt>
      <trkpt lat="47.30765" lon="0.04906">
        <ele>69</ele>
        <time>2014-09-14T10:39:18Z</time>
      </trkpt>
      <trkpt lat="47.30766" lon="0.04904">
        <ele>69</ele>
        <time>2014-09-14T10:39:19Z</time>
      </trkpt>
      <trkpt lat="47.30766" lon="0.04898">
        <ele>69</ele>
        <time>2014-09-14T10:39:20Z</time>
      </trkpt>
      <trkpt lat="47.30765" lon="0.04883">
        <ele>69</ele>
        <time>2014-09-14T10:39:23Z</time>
      </trkpt>
      <trkpt lat="47.30766" lon="0.04875">
        <ele>69</ele>
        <time>2014-09-14T10:39:25Z</time>
      </trkpt>
      <trkpt lat="47.30768" lon="0.04868">
        <ele>69</ele>
        <time>2014-09-14T10:39:26Z</time>
      </trkpt>
      <trkpt lat="47.30769" lon="0.04859">
        <ele>69</ele>
        <time>2014-09-14T10:39:27Z</time>
      </trkpt>
      <trkpt lat="47.3077" lon="0.0485">
        <ele>69</ele>
        <time>2014-09-14T10:39:28Z</time>
      </trkpt>
      <trkpt lat="47.3077" lon="0.04842">
        <ele>68</ele>
        <time>2014-09-14T10:39:29Z</time>
      </trkpt>
      <trkpt lat="47.30771" lon="0.04833">
        <ele>67</ele>
        <time>2014-09-14T10:39:30Z</time>
      </trkpt>
      <trkpt lat="47.30771" lon="0.04824">
        <ele>66</ele>
        <time>2014-09-14T10:39:31Z</time>
      </trkpt>
      <trkpt lat="47.3077" lon="0.04816">
        <ele>66</ele>
        <time>2014-09-14T10:39:32Z</time>
      </trkpt>
      <trkpt lat="47.30769" lon="0.0481">
        <ele>65</ele>
        <time>2014-09-14T10:39:33Z</time>
      </trkpt>
      <trkpt lat="47.30768" lon="0.04805">
        <ele>64</ele>
        <time>2014-09-14T10:39:34Z</time>
      </trkpt>
      <trkpt lat="47.30766" lon="0.04802">
        <ele>63</ele>
        <time>2014-09-14T10:39:35Z</time>
      </trkpt>
      <trkpt lat="47.30764" lon="0.04799">
        <ele>63</ele>
        <time>2014-09-14T10:39:36Z</time>
      </trkpt>
      <trkpt lat="47.30761" lon="0.04797">
        <ele>62</ele>
        <time>2014-09-14T10:39:37Z</time>
      </trkpt>
      <trkpt lat="47.30759" lon="0.04796">
        <ele>61</ele>
        <time>2014-09-14T10:39:38Z</time>
      </trkpt>
      <trkpt lat="47.30757" lon="0.04795">
        <ele>60</ele>
        <time>2014-09-14T10:39:39Z</time>
      </trkpt>
      <trkpt lat="47.30751" lon="0.04794">
        <ele>60</ele>
        <time>2014-09-14T10:39:41Z</time>
      </trkpt>
      <trkpt lat="47.30742" lon="0.04784">
        <ele>60</ele>
        <time>2014-09-14T10:39:45Z</time>
      </trkpt>
      <trkpt lat="47.30737" lon="0.0478">
        <ele>59</ele>
        <time>2014-09-14T10:39:46Z</time>
      </trkpt>
      <trkpt lat="47.30735" lon="0.04777">
        <ele>59</ele>
        <time>2014-09-14T10:39:47Z</time>
      </trkpt>
      <trkpt lat="47.30734" lon="0.04771">
        <ele>58</ele>
        <time>2014-09-14T10:39:48Z</time>
      </trkpt>
      <trkpt lat="47.30733" lon="0.04768">
        <ele>58</ele>
        <time>2014-09-14T10:39:49Z</time>
      </trkpt>
      <trkpt lat="47.30728" lon="0.0476">
        <ele>58</ele>
        <time>2014-09-14T10:39:51Z</time>
      </trkpt>
      <trkpt lat="47.30722" lon="0.04752">
        <ele>58</ele>
        <time>2014-09-14T10:39:53Z</time>
      </trkpt>
      <trkpt lat="47.30719" lon="0.04746">
        <ele>57</ele>
        <time>2014-09-14T10:39:54Z</time>
      </trkpt>
      <trkpt lat="47.30716" lon="0.04741">
        <ele>56</ele>
        <time>2014-09-14T10:39:55Z</time>
      </trkpt>
      <trkpt lat="47.30714" lon="0.04738">
        <ele>56</ele>
        <time>2014-09-14T10:39:56Z</time>
      </trkpt>
      <trkpt lat="47.30712" lon="0.04722">
        <ele>56</ele>
        <time>2014-09-14T10:40:00Z</time>
      </trkpt>
      <trkpt lat="47.30718" lon="0.04705">
        <ele>56</ele>
        <time>2014-09-14T10:40:04Z</time>
      </trkpt>
      <trkpt lat="47.30722" lon="0.04706">
        <ele>56</ele>
        <time>2014-09-14T10:40:07Z</time>
      </trkpt>
      <trkpt lat="47.30725" lon="0.04715">
        <ele>56</ele>
        <time>2014-09-14T10:40:10Z</time>
      </trkpt>
      <trkpt lat="47.30728" lon="0.04719">
        <ele>56</ele>
        <time>2014-09-14T10:40:11Z</time>
      </trkpt>
      <trkpt lat="47.3074" lon="0.04737">
        <ele>56</ele>
        <time>2014-09-14T10:40:16Z</time>
      </trkpt>
      <trkpt lat="47.30742" lon="0.04741">
        <ele>56</ele>
        <time>2014-09-14T10:40:17Z</time>
      </trkpt>
      <trkpt lat="47.30751" lon="0.04753">
        <ele>57</ele>
        <time>2014-09-14T10:40:20Z</time>
      </trkpt>
      <trkpt lat="47.30753" lon="0.04758">
        <ele>57</ele>
        <time>2014-09-14T10:40:21Z</time>
      </trkpt>
      <trkpt lat="47.30757" lon="0.0476">
        <ele>57</ele>
        <time>2014-09-14T10:40:22Z</time>
      </trkpt>
      <trkpt lat="47.3076" lon="0.04763">
        <ele>58</ele>
        <time>2014-09-14T10:40:23Z</time>
      </trkpt>
      <trkpt lat="47.30768" lon="0.04776">
        <ele>58</ele>
        <time>2014-09-14T10:40:26Z</time>
      </trkpt>
      <trkpt lat="47.30782" lon="0.04793">
        <ele>58</ele>
        <time>2014-09-14T10:40:30Z</time>
      </trkpt>
      <trkpt lat="47.30787" lon="0.04791">
        <ele>59</ele>
        <time>2014-09-14T10:40:31Z</time>
      </trkpt>
      <trkpt lat="47.30793" lon="0.0479">
        <ele>59</ele>
        <time>2014-09-14T10:40:32Z</time>
      </trkpt>
      <trkpt lat="47.30799" lon="0.04787">
        <ele>59</ele>
        <time>2014-09-14T10:40:33Z</time>
      </trkpt>
      <trkpt lat="47.30806" lon="0.04785">
        <ele>60</ele>
        <time>2014-09-14T10:40:34Z</time>
      </trkpt>
      <trkpt lat="47.30834" lon="0.04771">
        <ele>60</ele>
        <time>2014-09-14T10:40:40Z</time>
      </trkpt>
      <trkpt lat="47.30842" lon="0.04769">
        <ele>60</ele>
        <time>2014-09-14T10:40:42Z</time>
      </trkpt>
      <trkpt lat="47.30857" lon="0.04761">
        <ele>60</ele>
        <time>2014-09-14T10:40:45Z</time>
      </trkpt>
      <trkpt lat="47.30883" lon="0.04749">
        <ele>60</ele>
        <time>2014-09-14T10:40:50Z</time>
      </trkpt>
      <trkpt lat="47.30901" lon="0.04739">
        <ele>60</ele>
        <time>2014-09-14T10:40:54Z</time>
      </trkpt>
      <trkpt lat="47.30911" lon="0.04736">
        <ele>60</ele>
        <time>2014-09-14T10:40:56Z</time>
      </trkpt>
      <trkpt lat="47.30932" lon="0.04725">
        <ele>60</ele>
        <time>2014-09-14T10:41:00Z</time>
      </trkpt>
      <trkpt lat="47.30937" lon="0.04723">
        <ele>60</ele>
        <time>2014-09-14T10:41:01Z</time>
      </trkpt>
      <trkpt lat="47.30961" lon="0.04712">
        <ele>60</ele>
        <time>2014-09-14T10:41:06Z</time>
      </trkpt>
      <trkpt lat="47.30969" lon="0.04708">
        <ele>60</ele>
        <time>2014-09-14T10:41:08Z</time>
      </trkpt>
      <trkpt lat="47.30977" lon="0.04703">
        <ele>60</ele>
        <time>2014-09-14T10:41:10Z</time>
      </trkpt>
      <trkpt lat="47.30985" lon="0.04699">
        <ele>60</ele>
        <time>2014-09-14T10:41:12Z</time>
      </trkpt>
      <trkpt lat="47.30988" lon="0.04697">
        <ele>61</ele>
        <time>2014-09-14T10:41:13Z</time>
      </trkpt>
      <trkpt lat="47.30993" lon="0.04695">
        <ele>61</ele>
        <time>2014-09-14T10:41:14Z</time>
      </trkpt>
      <trkpt lat="47.30996" lon="0.04694">
        <ele>62</ele>
        <time>2014-09-14T10:41:15Z</time>
      </trkpt>
      <trkpt lat="47.31" lon="0.04692">
        <ele>62</ele>
        <time>2014-09-14T10:41:16Z</time>
      </trkpt>
      <trkpt lat="47.3102" lon="0.04677">
        <ele>62</ele>
        <time>2014-09-14T10:41:22Z</time>
      </trkpt>
      <trkpt lat="47.31023" lon="0.04672">
        <ele>62</ele>
        <time>2014-09-14T10:41:23Z</time>
      </trkpt>
      <trkpt lat="47.31031" lon="0.04658">
        <ele>62</ele>
        <time>2014-09-14T10:41:26Z</time>
      </trkpt>
      <trkpt lat="47.31033" lon="0.04653">
        <ele>62</ele>
        <time>2014-09-14T10:41:27Z</time>
      </trkpt>
      <trkpt lat="47.31035" lon="0.04648">
        <ele>63</ele>
        <time>2014-09-14T10:41:28Z</time>
      </trkpt>
      <trkpt lat="47.31036" lon="0.04642">
        <ele>63</ele>
        <time>2014-09-14T10:41:29Z</time>
      </trkpt>
      <trkpt lat="47.31038" lon="0.04636">
        <ele>64</ele>
        <time>2014-09-14T10:41:30Z</time>
      </trkpt>
      <trkpt lat="47.31039" lon="0.0463">
        <ele>64</ele>
        <time>2014-09-14T10:41:31Z</time>
      </trkpt>
      <trkpt lat="47.31044" lon="0.04599">
        <ele>64</ele>
        <time>2014-09-14T10:41:36Z</time>
      </trkpt>
      <trkpt lat="47.31049" lon="0.04567">
        <ele>64</ele>
        <time>2014-09-14T10:41:42Z</time>
      </trkpt>
      <trkpt lat="47.31054" lon="0.04543">
        <ele>65</ele>
        <time>2014-09-14T10:41:47Z</time>
      </trkpt>
      <trkpt lat="47.31055" lon="0.04537">
        <ele>65</ele>
        <time>2014-09-14T10:41:48Z</time>
      </trkpt>
      <trkpt lat="47.31055" lon="0.04533">
        <ele>65</ele>
        <time>2014-09-14T10:41:49Z</time>
      </trkpt>
      <trkpt lat="47.31055" lon="0.04528">
        <ele>66</ele>
        <time>2014-09-14T10:41:50Z</time>
      </trkpt>
      <trkpt lat="47.31056" lon="0.04525">
        <ele>66</ele>
        <time>2014-09-14T10:41:51Z</time>
      </trkpt>
      <trkpt lat="47.31056" lon="0.04517">
        <ele>66</ele>
        <time>2014-09-14T10:41:56Z</time>
      </trkpt>
      <trkpt lat="47.31054" lon="0.04515">
        <ele>66</ele>
        <time>2014-09-14T10:41:58Z</time>
      </trkpt>
      <trkpt lat="47.31055" lon="0.04511">
        <ele>66</ele>
        <time>2014-09-14T10:42:35Z</time>
      </trkpt>
      <trkpt lat="47.31056" lon="0.04508">
        <ele>66</ele>
        <time>2014-09-14T10:42:36Z</time>
      </trkpt>
      <trkpt lat="47.31057" lon="0.04506">
        <ele>66</ele>
        <time>2014-09-14T10:42:37Z</time>
      </trkpt>
      <trkpt lat="47.31064" lon="0.04496">
        <ele>67</ele>
        <time>2014-09-14T10:42:42Z</time>
      </trkpt>
      <trkpt lat="47.31066" lon="0.04495">
        <ele>67</ele>
        <time>2014-09-14T10:42:43Z</time>
      </trkpt>
      <trkpt lat="47.31067" lon="0.04495">
        <ele>67</ele>
        <time>2014-09-14T10:42:44Z</time>
      </trkpt>
      <trkpt lat="47.31068" lon="0.04495">
        <ele>68</ele>
        <time>2014-09-14T10:42:45Z</time>
      </trkpt>
      <trkpt lat="47.31071" lon="0.04495">
        <ele>68</ele>
        <time>2014-09-14T10:42:46Z</time>
      </trkpt>
      <trkpt lat="47.31077" lon="0.04499">
        <ele>68</ele>
        <time>2014-09-14T10:42:48Z</time>
      </trkpt>
      <trkpt lat="47.31095" lon="0.04519">
        <ele>68</ele>
        <time>2014-09-14T10:42:52Z</time>
      </trkpt>
      <trkpt lat="47.31103" lon="0.04539">
        <ele>69</ele>
        <time>2014-09-14T10:42:56Z</time>
      </trkpt>
      <trkpt lat="47.31105" lon="0.04544">
        <ele>69</ele>
        <time>2014-09-14T10:42:57Z</time>
      </trkpt>
      <trkpt lat="47.31107" lon="0.04549">
        <ele>69</ele>
        <time>2014-09-14T10:42:58Z</time>
      </trkpt>
      <trkpt lat="47.31109" lon="0.04554">
        <ele>70</ele>
        <time>2014-09-14T10:42:59Z</time>
      </trkpt>
      <trkpt lat="47.3111" lon="0.0456">
        <ele>70</ele>
        <time>2014-09-14T10:43:00Z</time>
      </trkpt>
      <trkpt lat="47.31113" lon="0.04566">
        <ele>70</ele>
        <time>2014-09-14T10:43:02Z</time>
      </trkpt>
      <trkpt lat="47.31127" lon="0.04592">
        <ele>70</ele>
        <time>2014-09-14T10:43:08Z</time>
      </trkpt>
      <trkpt lat="47.31142" lon="0.04615">
        <ele>70</ele>
        <time>2014-09-14T10:43:13Z</time>
      </trkpt>
      <trkpt lat="47.31144" lon="0.0462">
        <ele>70</ele>
        <time>2014-09-14T10:43:14Z</time>
      </trkpt>
      <trkpt lat="47.31152" lon="0.04648">
        <ele>70</ele>
        <time>2014-09-14T10:43:19Z</time>
      </trkpt>
      <trkpt lat="47.31156" lon="0.04652">
        <ele>70</ele>
        <time>2014-09-14T10:43:20Z</time>
      </trkpt>
      <trkpt lat="47.31168" lon="0.04665">
        <ele>70</ele>
        <time>2014-09-14T10:43:23Z</time>
      </trkpt>
      <trkpt lat="47.31176" lon="0.04674">
        <ele>70</ele>
        <time>2014-09-14T10:43:25Z</time>
      </trkpt>
      <trkpt lat="47.31182" lon="0.04685">
        <ele>70</ele>
        <time>2014-09-14T10:43:27Z</time>
      </trkpt>
      <trkpt lat="47.31197" lon="0.04709">
        <ele>70</ele>
        <time>2014-09-14T10:43:32Z</time>
      </trkpt>
      <trkpt lat="47.31206" lon="0.0473">
        <ele>70</ele>
        <time>2014-09-14T10:43:36Z</time>
      </trkpt>
      <trkpt lat="47.31211" lon="0.04742">
        <ele>70</ele>
        <time>2014-09-14T10:43:38Z</time>
      </trkpt>
      <trkpt lat="47.31213" lon="0.04747">
        <ele>71</ele>
        <time>2014-09-14T10:43:39Z</time>
      </trkpt>
      <trkpt lat="47.31215" lon="0.04753">
        <ele>71</ele>
        <time>2014-09-14T10:43:40Z</time>
      </trkpt>
      <trkpt lat="47.31218" lon="0.0476">
        <ele>72</ele>
        <time>2014-09-14T10:43:41Z</time>
      </trkpt>
      <trkpt lat="47.3122" lon="0.04764">
        <ele>72</ele>
        <time>2014-09-14T10:43:42Z</time>
      </trkpt>
      <trkpt lat="47.31223" lon="0.04769">
        <ele>72</ele>
        <time>2014-09-14T10:43:43Z</time>
      </trkpt>
      <trkpt lat="47.3123" lon="0.04776">
        <ele>72</ele>
        <time>2014-09-14T10:43:45Z</time>
      </trkpt>
      <trkpt lat="47.31233" lon="0.04779">
        <ele>73</ele>
        <time>2014-09-14T10:43:46Z</time>
      </trkpt>
      <trkpt lat="47.31235" lon="0.04783">
        <ele>73</ele>
        <time>2014-09-14T10:43:47Z</time>
      </trkpt>
      <trkpt lat="47.31236" lon="0.04785">
        <ele>74</ele>
        <time>2014-09-14T10:43:48Z</time>
      </trkpt>
      <trkpt lat="47.31237" lon="0.04787">
        <ele>74</ele>
        <time>2014-09-14T10:43:49Z</time>
      </trkpt>
      <trkpt lat="47.31238" lon="0.0479">
        <ele>75</ele>
        <time>2014-09-14T10:43:50Z</time>
      </trkpt>
      <trkpt lat="47.31239" lon="0.04797">
        <ele>75</ele>
        <time>2014-09-14T10:43:53Z</time>
      </trkpt>
      <trkpt lat="47.31239" lon="0.048">
        <ele>75</ele>
        <time>2014-09-14T10:43:54Z</time>
      </trkpt>
      <trkpt lat="47.3124" lon="0.04803">
        <ele>76</ele>
        <time>2014-09-14T10:43:55Z</time>
      </trkpt>
      <trkpt lat="47.31241" lon="0.04805">
        <ele>76</ele>
        <time>2014-09-14T10:43:56Z</time>
      </trkpt>
      <trkpt lat="47.31242" lon="0.04806">
        <ele>77</ele>
        <time>2014-09-14T10:43:57Z</time>
      </trkpt>
      <trkpt lat="47.31249" lon="0.04817">
        <ele>78</ele>
        <time>2014-09-14T10:44:02Z</time>
      </trkpt>
      <trkpt lat="47.3125" lon="0.04819">
        <ele>78</ele>
        <time>2014-09-14T10:44:03Z</time>
      </trkpt>
      <trkpt lat="47.31251" lon="0.04821">
        <ele>79</ele>
        <time>2014-09-14T10:44:04Z</time>
      </trkpt>
      <trkpt lat="47.31252" lon="0.04822">
        <ele>79</ele>
        <time>2014-09-14T10:44:05Z</time>
      </trkpt>
      <trkpt lat="47.31253" lon="0.04826">
        <ele>79</ele>
        <time>2014-09-14T10:44:07Z</time>
      </trkpt>
      <trkpt lat="47.31254" lon="0.0483">
        <ele>79</ele>
        <time>2014-09-14T10:44:09Z</time>
      </trkpt>
      <trkpt lat="47.31257" lon="0.04833">
        <ele>80</ele>
        <time>2014-09-14T10:44:11Z</time>
      </trkpt>
      <trkpt lat="47.31258" lon="0.04835">
        <ele>80</ele>
        <time>2014-09-14T10:44:12Z</time>
      </trkpt>
      <trkpt lat="47.31259" lon="0.04837">
        <ele>80</ele>
        <time>2014-09-14T10:44:13Z</time>
      </trkpt>
      <trkpt lat="47.3126" lon="0.04839">
        <ele>81</ele>
        <time>2014-09-14T10:44:14Z</time>
      </trkpt>
      <trkpt lat="47.31262" lon="0.04842">
        <ele>81</ele>
        <time>2014-09-14T10:44:15Z</time>
      </trkpt>
      <trkpt lat="47.31266" lon="0.0485">
        <ele>82</ele>
        <time>2014-09-14T10:44:19Z</time>
      </trkpt>
      <trkpt lat="47.31267" lon="0.04851">
        <ele>82</ele>
        <time>2014-09-14T10:44:20Z</time>
      </trkpt>
      <trkpt lat="47.31268" lon="0.04853">
        <ele>82</ele>
        <time>2014-09-14T10:44:21Z</time>
      </trkpt>
      <trkpt lat="47.31269" lon="0.04854">
        <ele>83</ele>
        <time>2014-09-14T10:44:22Z</time>
      </trkpt>
      <trkpt lat="47.3127" lon="0.04856">
        <ele>83</ele>
        <time>2014-09-14T10:44:23Z</time>
      </trkpt>
      <trkpt lat="47.31274" lon="0.04864">
        <ele>84</ele>
        <time>2014-09-14T10:44:27Z</time>
      </trkpt>
      <trkpt lat="47.31275" lon="0.04865">
        <ele>85</ele>
        <time>2014-09-14T10:44:28Z</time>
      </trkpt>
      <trkpt lat="47.31276" lon="0.04866">
        <ele>85</ele>
        <time>2014-09-14T10:44:29Z</time>
      </trkpt>
      <trkpt lat="47.31276" lon="0.04866">
        <ele>85</ele>
        <time>2014-09-14T10:44:30Z</time>
      </trkpt>
      <trkpt lat="47.31278" lon="0.04872">
        <ele>85</ele>
        <time>2014-09-14T10:44:33Z</time>
      </trkpt>
      <trkpt lat="47.31278" lon="0.04874">
        <ele>85</ele>
        <time>2014-09-14T10:44:34Z</time>
      </trkpt>
      <trkpt lat="47.3128" lon="0.04878">
        <ele>86</ele>
        <time>2014-09-14T10:44:36Z</time>
      </trkpt>
      <trkpt lat="47.31281" lon="0.0488">
        <ele>86</ele>
        <time>2014-09-14T10:44:37Z</time>
      </trkpt>
      <trkpt lat="47.31283" lon="0.04882">
        <ele>87</ele>
        <time>2014-09-14T10:44:38Z</time>
      </trkpt>
      <trkpt lat="47.31285" lon="0.04886">
        <ele>87</ele>
        <time>2014-09-14T10:44:39Z</time>
      </trkpt>
      <trkpt lat="47.31287" lon="0.04888">
        <ele>88</ele>
        <time>2014-09-14T10:44:40Z</time>
      </trkpt>
      <trkpt lat="47.3129" lon="0.04893">
        <ele>88</ele>
        <time>2014-09-14T10:44:42Z</time>
      </trkpt>
      <trkpt lat="47.31296" lon="0.04902">
        <ele>88</ele>
        <time>2014-09-14T10:44:46Z</time>
      </trkpt>
      <trkpt lat="47.31298" lon="0.04905">
        <ele>88</ele>
        <time>2014-09-14T10:44:47Z</time>
      </trkpt>
      <trkpt lat="47.31299" lon="0.04907">
        <ele>89</ele>
        <time>2014-09-14T10:44:48Z</time>
      </trkpt>
      <trkpt lat="47.31301" lon="0.04909">
        <ele>89</ele>
        <time>2014-09-14T10:44:49Z</time>
      </trkpt>
      <trkpt lat="47.31302" lon="0.04911">
        <ele>90</ele>
        <time>2014-09-14T10:44:50Z</time>
      </trkpt>
      <trkpt lat="47.3131" lon="0.0492">
        <ele>90</ele>
        <time>2014-09-14T10:44:54Z</time>
      </trkpt>
      <trkpt lat="47.31312" lon="0.04923">
        <ele>90</ele>
        <time>2014-09-14T10:44:55Z</time>
      </trkpt>
      <trkpt lat="47.31313" lon="0.04924">
        <ele>91</ele>
        <time>2014-09-14T10:44:56Z</time>
      </trkpt>
      <trkpt lat="47.31317" lon="0.04927">
        <ele>91</ele>
        <time>2014-09-14T10:44:57Z</time>
      </trkpt>
      <trkpt lat="47.31319" lon="0.04929">
        <ele>92</ele>
        <time>2014-09-14T10:44:58Z</time>
      </trkpt>
      <trkpt lat="47.31326" lon="0.04939">
        <ele>92</ele>
        <time>2014-09-14T10:45:02Z</time>
      </trkpt>
      <trkpt lat="47.3133" lon="0.04944">
        <ele>92</ele>
        <time>2014-09-14T10:45:05Z</time>
      </trkpt>
      <trkpt lat="47.31331" lon="0.04946">
        <ele>92</ele>
        <time>2014-09-14T10:45:06Z</time>
      </trkpt>
      <trkpt lat="47.31333" lon="0.04947">
        <ele>92</ele>
        <time>2014-09-14T10:45:07Z</time>
      </trkpt>
      <trkpt lat="47.31334" lon="0.0495">
        <ele>93</ele>
        <time>2014-09-14T10:45:08Z</time>
      </trkpt>
      <trkpt lat="47.31335" lon="0.04952">
        <ele>93</ele>
        <time>2014-09-14T10:45:09Z</time>
      </trkpt>
      <trkpt lat="47.31337" lon="0.04954">
        <ele>94</ele>
        <time>2014-09-14T10:45:10Z</time>
      </trkpt>
      <trkpt lat="47.3134" lon="0.04963">
        <ele>94</ele>
        <time>2014-09-14T10:45:13Z</time>
      </trkpt>
      <trkpt lat="47.3134" lon="0.04966">
        <ele>95</ele>
        <time>2014-09-14T10:45:14Z</time>
      </trkpt>
      <trkpt lat="47.31341" lon="0.04969">
        <ele>95</ele>
        <time>2014-09-14T10:45:15Z</time>
      </trkpt>
      <trkpt lat="47.31342" lon="0.04971">
        <ele>95</ele>
        <time>2014-09-14T10:45:16Z</time>
      </trkpt>
      <trkpt lat="47.31343" lon="0.04973">
        <ele>96</ele>
        <time>2014-09-14T10:45:17Z</time>
      </trkpt>
      <trkpt lat="47.31345" lon="0.04978">
        <ele>96</ele>
        <time>2014-09-14T10:45:19Z</time>
      </trkpt>
      <trkpt lat="47.31346" lon="0.04981">
        <ele>97</ele>
        <time>2014-09-14T10:45:20Z</time>
      </trkpt>
      <trkpt lat="47.31347" lon="0.04982">
        <ele>97</ele>
        <time>2014-09-14T10:45:21Z</time>
      </trkpt>
      <trkpt lat="47.31348" lon="0.04983">
        <ele>97</ele>
        <time>2014-09-14T10:45:22Z</time>
      </trkpt>
      <trkpt lat="47.3135" lon="0.04985">
        <ele>98</ele>
        <time>2014-09-14T10:45:23Z</time>
      </trkpt>
      <trkpt lat="47.31352" lon="0.04987">
        <ele>98</ele>
        <time>2014-09-14T10:45:24Z</time>
      </trkpt>
      <trkpt lat="47.31359" lon="0.05001">
        <ele>98</ele>
        <time>2014-09-14T10:45:30Z</time>
      </trkpt>
      <trkpt lat="47.31359" lon="0.05004">
        <ele>99</ele>
        <time>2014-09-14T10:45:31Z</time>
      </trkpt>
      <trkpt lat="47.31361" lon="0.05006">
        <ele>99</ele>
        <time>2014-09-14T10:45:32Z</time>
      </trkpt>
      <trkpt lat="47.31362" lon="0.05009">
        <ele>100</ele>
        <time>2014-09-14T10:45:33Z</time>
      </trkpt>
      <trkpt lat="47.31363" lon="0.05011">
        <ele>100</ele>
        <time>2014-09-14T10:45:34Z</time>
      </trkpt>
      <trkpt lat="47.31366" lon="0.05015">
        <ele>100</ele>
        <time>2014-09-14T10:45:36Z</time>
      </trkpt>
      <trkpt lat="47.31367" lon="0.05016">
        <ele>100</ele>
        <time>2014-09-14T10:45:37Z</time>
      </trkpt>
      <trkpt lat="47.3137" lon="0.05019">
        <ele>100</ele>
        <time>2014-09-14T10:45:40Z</time>
      </trkpt>
      <trkpt lat="47.3137" lon="0.05019">
        <ele>100</ele>
        <time>2014-09-14T10:45:41Z</time>
      </trkpt>
      <trkpt lat="47.31372" lon="0.05021">
        <ele>100</ele>
        <time>2014-09-14T10:46:27Z</time>
      </trkpt>
      <trkpt lat="47.31373" lon="0.05024">
        <ele>100</ele>
        <time>2014-09-14T10:46:28Z</time>
      </trkpt>
      <trkpt lat="47.31375" lon="0.05027">
        <ele>100</ele>
        <time>2014-09-14T10:46:29Z</time>
      </trkpt>
      <trkpt lat="47.31378" lon="0.05032">
        <ele>100</ele>
        <time>2014-09-14T10:46:31Z</time>
      </trkpt>
      <trkpt lat="47.31383" lon="0.0504">
        <ele>100</ele>
        <time>2014-09-14T10:46:34Z</time>
      </trkpt>
      <trkpt lat="47.31388" lon="0.05047">
        <ele>100</ele>
        <time>2014-09-14T10:46:37Z</time>
      </trkpt>
      <trkpt lat="47.31389" lon="0.05049">
        <ele>101</ele>
        <time>2014-09-14T10:46:38Z</time>
      </trkpt>
      <trkpt lat="47.3139" lon="0.05052">
        <ele>101</ele>
        <time>2014-09-14T10:46:39Z</time>
      </trkpt>
      <trkpt lat="47.31392" lon="0.05055">
        <ele>102</ele>
        <time>2014-09-14T10:46:40Z</time>
      </trkpt>
      <trkpt lat="47.31394" lon="0.05058">
        <ele>102</ele>
        <time>2014-09-14T10:46:41Z</time>
      </trkpt>
      <trkpt lat="47.31402" lon="0.05072">
        <ele>102</ele>
        <time>2014-09-14T10:46:46Z</time>
      </trkpt>
      <trkpt lat="47.31406" lon="0.05086">
        <ele>102</ele>
        <time>2014-09-14T10:46:50Z</time>
      </trkpt>
      <trkpt lat="47.31406" lon="0.0509">
        <ele>102</ele>
        <time>2014-09-14T10:46:51Z</time>
      </trkpt>
      <trkpt lat="47.31405" lon="0.05095">
        <ele>102</ele>
        <time>2014-09-14T10:46:52Z</time>
      </trkpt>
      <trkpt lat="47.314" lon="0.05105">
        <ele>102</ele>
        <time>2014-09-14T10:46:55Z</time>
      </trkpt>
      <trkpt lat="47.31394" lon="0.05124">
        <ele>102</ele>
        <time>2014-09-14T10:47:00Z</time>
      </trkpt>
      <trkpt lat="47.31388" lon="0.05131">
        <ele>102</ele>
        <time>2014-09-14T10:47:03Z</time>
      </trkpt>
      <trkpt lat="47.31382" lon="0.05136">
        <ele>102</ele>
        <time>2014-09-14T10:47:05Z</time>
      </trkpt>
      <trkpt lat="47.3138" lon="0.05153">
        <ele>102</ele>
        <time>2014-09-14T10:47:08Z</time>
      </trkpt>
      <trkpt lat="47.3138" lon="0.05158">
        <ele>102</ele>
        <time>2014-09-14T10:47:09Z</time>
      </trkpt>
      <trkpt lat="47.31377" lon="0.05166">
        <ele>102</ele>
        <time>2014-09-14T10:47:12Z</time>
      </trkpt>
      <trkpt lat="47.31375" lon="0.05168">
        <ele>102</ele>
        <time>2014-09-14T10:47:13Z</time>
      </trkpt>
      <trkpt lat="47.31366" lon="0.05182">
        <ele>102</ele>
        <time>2014-09-14T10:47:17Z</time>
      </trkpt>
      <trkpt lat="47.31365" lon="0.05189">
        <ele>101</ele>
        <time>2014-09-14T10:47:18Z</time>
      </trkpt>
      <trkpt lat="47.31363" lon="0.05195">
        <ele>101</ele>
        <time>2014-09-14T10:47:19Z</time>
      </trkpt>
      <trkpt lat="47.31362" lon="0.05201">
        <ele>100</ele>
        <time>2014-09-14T10:47:20Z</time>
      </trkpt>
      <trkpt lat="47.31356" lon="0.05215">
        <ele>100</ele>
        <time>2014-09-14T10:47:23Z</time>
      </trkpt>
      <trkpt lat="47.31346" lon="0.05231">
        <ele>99</ele>
        <time>2014-09-14T10:47:27Z</time>
      </trkpt>
      <trkpt lat="47.31342" lon="0.05236">
        <ele>99</ele>
        <time>2014-09-14T10:47:28Z</time>
      </trkpt>
      <trkpt lat="47.31338" lon="0.0524">
        <ele>99</ele>
        <time>2014-09-14T10:47:29Z</time>
      </trkpt>
      <trkpt lat="47.31334" lon="0.05244">
        <ele>98</ele>
        <time>2014-09-14T10:47:30Z</time>
      </trkpt>
      <trkpt lat="47.3133" lon="0.0525">
        <ele>98</ele>
        <time>2014-09-14T10:47:31Z</time>
      </trkpt>
      <trkpt lat="47.31328" lon="0.05256">
        <ele>98</ele>
        <time>2014-09-14T10:47:32Z</time>
      </trkpt>
      <trkpt lat="47.31327" lon="0.05267">
        <ele>97</ele>
        <time>2014-09-14T10:47:34Z</time>
      </trkpt>
      <trkpt lat="47.31327" lon="0.05271">
        <ele>97</ele>
        <time>2014-09-14T10:47:35Z</time>
      </trkpt>
      <trkpt lat="47.31327" lon="0.05275">
        <ele>97</ele>
        <time>2014-09-14T10:47:36Z</time>
      </trkpt>
      <trkpt lat="47.31326" lon="0.05281">
        <ele>96</ele>
        <time>2014-09-14T10:47:37Z</time>
      </trkpt>
      <trkpt lat="47.31325" lon="0.05287">
        <ele>96</ele>
        <time>2014-09-14T10:47:38Z</time>
      </trkpt>
      <trkpt lat="47.31323" lon="0.05299">
        <ele>96</ele>
        <time>2014-09-14T10:47:40Z</time>
      </trkpt>
      <trkpt lat="47.3132" lon="0.05317">
        <ele>95</ele>
        <time>2014-09-14T10:47:43Z</time>
      </trkpt>
      <trkpt lat="47.31318" lon="0.0532">
        <ele>95</ele>
        <time>2014-09-14T10:47:44Z</time>
      </trkpt>
      <trkpt lat="47.31316" lon="0.05325">
        <ele>94</ele>
        <time>2014-09-14T10:47:45Z</time>
      </trkpt>
      <trkpt lat="47.31315" lon="0.0533">
        <ele>94</ele>
        <time>2014-09-14T10:47:46Z</time>
      </trkpt>
      <trkpt lat="47.31315" lon="0.0535">
        <ele>94</ele>
        <time>2014-09-14T10:47:50Z</time>
      </trkpt>
      <trkpt lat="47.31315" lon="0.05355">
        <ele>93</ele>
        <time>2014-09-14T10:47:51Z</time>
      </trkpt>
      <trkpt lat="47.31315" lon="0.05361">
        <ele>93</ele>
        <time>2014-09-14T10:47:52Z</time>
      </trkpt>
      <trkpt lat="47.31315" lon="0.05365">
        <ele>92</ele>
        <time>2014-09-14T10:47:53Z</time>
      </trkpt>
      <trkpt lat="47.31313" lon="0.05365">
        <ele>92</ele>
        <time>2014-09-14T10:47:54Z</time>
      </trkpt>
      <trkpt lat="47.31312" lon="0.05365">
        <ele>92</ele>
        <time>2014-09-14T10:47:55Z</time>
      </trkpt>
      <trkpt lat="47.31311" lon="0.05363">
        <ele>92</ele>
        <time>2014-09-14T10:47:56Z</time>
      </trkpt>
      <trkpt lat="47.31309" lon="0.05361">
        <ele>91</ele>
        <time>2014-09-14T10:47:57Z</time>
      </trkpt>
      <trkpt lat="47.31308" lon="0.05357">
        <ele>91</ele>
        <time>2014-09-14T10:47:58Z</time>
      </trkpt>
      <trkpt lat="47.31306" lon="0.05352">
        <ele>90</ele>
        <time>2014-09-14T10:47:59Z</time>
      </trkpt>
      <trkpt lat="47.31305" lon="0.05348">
        <ele>90</ele>
        <time>2014-09-14T10:48:00Z</time>
      </trkpt>
      <trkpt lat="47.31303" lon="0.05344">
        <ele>90</ele>
        <time>2014-09-14T10:48:01Z</time>
      </trkpt>
      <trkpt lat="47.313" lon="0.05338">
        <ele>90</ele>
        <time>2014-09-14T10:48:03Z</time>
      </trkpt>
      <trkpt lat="47.31298" lon="0.05333">
        <ele>89</ele>
        <time>2014-09-14T10:48:05Z</time>
      </trkpt>
      <trkpt lat="47.31295" lon="0.0533">
        <ele>89</ele>
        <time>2014-09-14T10:48:06Z</time>
      </trkpt>
      <trkpt lat="47.31292" lon="0.05329">
        <ele>88</ele>
        <time>2014-09-14T10:48:07Z</time>
      </trkpt>
      <trkpt lat="47.31289" lon="0.05327">
        <ele>88</ele>
        <time>2014-09-14T10:48:08Z</time>
      </trkpt>
      <trkpt lat="47.31285" lon="0.05325">
        <ele>87</ele>
        <time>2014-09-14T10:48:09Z</time>
      </trkpt>
      <trkpt lat="47.31283" lon="0.05323">
        <ele>86</ele>
        <time>2014-09-14T10:48:10Z</time>
      </trkpt>
      <trkpt lat="47.3128" lon="0.05321">
        <ele>86</ele>
        <time>2014-09-14T10:48:11Z</time>
      </trkpt>
      <trkpt lat="47.31277" lon="0.05317">
        <ele>85</ele>
        <time>2014-09-14T10:48:12Z</time>
      </trkpt>
      <trkpt lat="47.31275" lon="0.05313">
        <ele>84</ele>
        <time>2014-09-14T10:48:13Z</time>
      </trkpt>
      <trkpt lat="47.31273" lon="0.05308">
        <ele>84</ele>
        <time>2014-09-14T10:48:14Z</time>
      </trkpt>
      <trkpt lat="47.3127" lon="0.05302">
        <ele>83</ele>
        <time>2014-09-14T10:48:15Z</time>
      </trkpt>
      <trkpt lat="47.31266" lon="0.05281">
        <ele>83</ele>
        <time>2014-09-14T10:48:18Z</time>
      </trkpt>
      <trkpt lat="47.31266" lon="0.0526">
        <ele>83</ele>
        <time>2014-09-14T10:48:22Z</time>
      </trkpt>
      <trkpt lat="47.31266" lon="0.05244">
        <ele>83</ele>
        <time>2014-09-14T10:48:25Z</time>
      </trkpt>
      <trkpt lat="47.31266" lon="0.05234">
        <ele>83</ele>
        <time>2014-09-14T10:48:27Z</time>
      </trkpt>
      <trkpt lat="47.31263" lon="0.05215">
        <ele>83</ele>
        <time>2014-09-14T10:48:31Z</time>
      </trkpt>
      <trkpt lat="47.31256" lon="0.05204">
        <ele>83</ele>
        <time>2014-09-14T10:48:34Z</time>
      </trkpt>
      <trkpt lat="47.31254" lon="0.05204">
        <ele>83</ele>
        <time>2014-09-14T10:48:35Z</time>
      </trkpt>
      <trkpt lat="47.31249" lon="0.05212">
        <ele>83</ele>
        <time>2014-09-14T10:48:38Z</time>
      </trkpt>
      <trkpt lat="47.31246" lon="0.05216">
        <ele>82</ele>
        <time>2014-09-14T10:48:39Z</time>
      </trkpt>
      <trkpt lat="47.31243" lon="0.05221">
        <ele>82</ele>
        <time>2014-09-14T10:48:40Z</time>
      </trkpt>
      <trkpt lat="47.31241" lon="0.05226">
        <ele>81</ele>
        <time>2014-09-14T10:48:41Z</time>
      </trkpt>
      <trkpt lat="47.31239" lon="0.05232">
        <ele>81</ele>
        <time>2014-09-14T10:48:42Z</time>
      </trkpt>
      <trkpt lat="47.31235" lon="0.05245">
        <ele>81</ele>
        <time>2014-09-14T10:48:45Z</time>
      </trkpt>
      <trkpt lat="47.31237" lon="0.05272">
        <ele>81</ele>
        <time>2014-09-14T10:48:50Z</time>
      </trkpt>
      <trkpt lat="47.31239" lon="0.05306">
        <ele>81</ele>
        <time>2014-09-14T10:48:56Z</time>
      </trkpt>
      <trkpt lat="47.31238" lon="0.05338">
        <ele>81</ele>
        <time>2014-09-14T10:49:02Z</time>
      </trkpt>
      <trkpt lat="47.31238" lon="0.05342">
        <ele>80</ele>
        <time>2014-09-14T10:49:03Z</time>
      </trkpt>
      <trkpt lat="47.31237" lon="0.05347">
        <ele>80</ele>
        <time>2014-09-14T10:49:04Z</time>
      </trkpt>
      <trkpt lat="47.31236" lon="0.05352">
        <ele>79</ele>
        <time>2014-09-14T10:49:05Z</time>
      </trkpt>
      <trkpt lat="47.31235" lon="0.05355">
        <ele>79</ele>
        <time>2014-09-14T10:49:06Z</time>
      </trkpt>
      <trkpt lat="47.31232" lon="0.05356">
        <ele>79</ele>
        <time>2014-09-14T10:49:07Z</time>
      </trkpt>
      <trkpt lat="47.31231" lon="0.05359">
        <ele>79</ele>
        <time>2014-09-14T10:49:08Z</time>
      </trkpt>
      <trkpt lat="47.31226" lon="0.05359">
        <ele>78</ele>
        <time>2014-09-14T10:49:09Z</time>
      </trkpt>
      <trkpt lat="47.31224" lon="0.05358">
        <ele>78</ele>
        <time>2014-09-14T10:49:10Z</time>
      </trkpt>
      <trkpt lat="47.31221" lon="0.05356">
        <ele>78</ele>
        <time>2014-09-14T10:49:11Z</time>
      </trkpt>
      <trkpt lat="47.31219" lon="0.05352">
        <ele>77</ele>
        <time>2014-09-14T10:49:12Z</time>
      </trkpt>
      <trkpt lat="47.31217" lon="0.05348">
        <ele>77</ele>
        <time>2014-09-14T10:49:13Z</time>
      </trkpt>
      <trkpt lat="47.31212" lon="0.05343">
        <ele>77</ele>
        <time>2014-09-14T10:49:15Z</time>
      </trkpt>
      <trkpt lat="47.31212" lon="0.05339">
        <ele>77</ele>
        <time>2014-09-14T10:49:16Z</time>
      </trkpt>
      <trkpt lat="47.31209" lon="0.05314">
        <ele>77</ele>
        <time>2014-09-14T10:49:20Z</time>
      </trkpt>
      <trkpt lat="47.31215" lon="0.05291">
        <ele>77</ele>
        <time>2014-09-14T10:49:25Z</time>
      </trkpt>
      <trkpt lat="47.31222" lon="0.05273">
        <ele>77</ele>
        <time>2014-09-14T10:49:30Z</time>
      </trkpt>
      <trkpt lat="47.31226" lon="0.05266">
        <ele>77</ele>
        <time>2014-09-14T10:49:32Z</time>
      </trkpt>
      <trkpt lat="47.31227" lon="0.05241">
        <ele>77</ele>
        <time>2014-09-14T10:49:38Z</time>
      </trkpt>
      <trkpt lat="47.31224" lon="0.05238">
        <ele>77</ele>
        <time>2014-09-14T10:49:39Z</time>
      </trkpt>
      <trkpt lat="47.31215" lon="0.05234">
        <ele>77</ele>
        <time>2014-09-14T10:49:41Z</time>
      </trkpt>
      <trkpt lat="47.3121" lon="0.0524">
        <ele>77</ele>
        <time>2014-09-14T10:49:43Z</time>
      </trkpt>
      <trkpt lat="47.31206" lon="0.05252">
        <ele>77</ele>
        <time>2014-09-14T10:49:45Z</time>
      </trkpt>
      <trkpt lat="47.31197" lon="0.0528">
        <ele>77</ele>
        <time>2014-09-14T10:49:50Z</time>
      </trkpt>
      <trkpt lat="47.31193" lon="0.05313">
        <ele>76</ele>
        <time>2014-09-14T10:49:55Z</time>
      </trkpt>
      <trkpt lat="47.31193" lon="0.05319">
        <ele>76</ele>
        <time>2014-09-14T10:49:56Z</time>
      </trkpt>
      <trkpt lat="47.31194" lon="0.05325">
        <ele>75</ele>
        <time>2014-09-14T10:49:57Z</time>
      </trkpt>
      <trkpt lat="47.31195" lon="0.05332">
        <ele>75</ele>
        <time>2014-09-14T10:49:58Z</time>
      </trkpt>
      <trkpt lat="47.31195" lon="0.05338">
        <ele>75</ele>
        <time>2014-09-14T10:49:59Z</time>
      </trkpt>
      <trkpt lat="47.31199" lon="0.05356">
        <ele>75</ele>
        <time>2014-09-14T10:50:02Z</time>
      </trkpt>
      <trkpt lat="47.31204" lon="0.0538">
        <ele>75</ele>
        <time>2014-09-14T10:50:07Z</time>
      </trkpt>
      <trkpt lat="47.31198" lon="0.05375">
        <ele>75</ele>
        <time>2014-09-14T10:50:10Z</time>
      </trkpt>
      <trkpt lat="47.31194" lon="0.05366">
        <ele>74</ele>
        <time>2014-09-14T10:50:13Z</time>
      </trkpt>
      <trkpt lat="47.31192" lon="0.05363">
        <ele>74</ele>
        <time>2014-09-14T10:50:14Z</time>
      </trkpt>
      <trkpt lat="47.3119" lon="0.0536">
        <ele>73</ele>
        <time>2014-09-14T10:50:15Z</time>
      </trkpt>
      <trkpt lat="47.31187" lon="0.05358">
        <ele>73</ele>
        <time>2014-09-14T10:50:16Z</time>
      </trkpt>
      <trkpt lat="47.31183" lon="0.05356">
        <ele>72</ele>
        <time>2014-09-14T10:50:17Z</time>
      </trkpt>
      <trkpt lat="47.31168" lon="0.05352">
        <ele>72</ele>
        <time>2014-09-14T10:50:21Z</time>
      </trkpt>
      <trkpt lat="47.31166" lon="0.0535">
        <ele>72</ele>
        <time>2014-09-14T10:50:22Z</time>
      </trkpt>
      <trkpt lat="47.31164" lon="0.0535">
        <ele>72</ele>
        <time>2014-09-14T10:50:23Z</time>
      </trkpt>
      <trkpt lat="47.31162" lon="0.05352">
        <ele>71</ele>
        <time>2014-09-14T10:50:24Z</time>
      </trkpt>
      <trkpt lat="47.31159" lon="0.05355">
        <ele>71</ele>
        <time>2014-09-14T10:50:25Z</time>
      </trkpt>
      <trkpt lat="47.31155" lon="0.05361">
        <ele>70</ele>
        <time>2014-09-14T10:50:26Z</time>
      </trkpt>
      <trkpt lat="47.31153" lon="0.05364">
        <ele>70</ele>
        <time>2014-09-14T10:50:27Z</time>
      </trkpt>
      <trkpt lat="47.31151" lon="0.05369">
        <ele>70</ele>
        <time>2014-09-14T10:50:28Z</time>
      </trkpt>
      <trkpt lat="47.31149" lon="0.05374">
        <ele>70</ele>
        <time>2014-09-14T10:50:29Z</time>
      </trkpt>
      <trkpt lat="47.31144" lon="0.05378">
        <ele>69</ele>
        <time>2014-09-14T10:50:30Z</time>
      </trkpt>
      <trkpt lat="47.31142" lon="0.05381">
        <ele>69</ele>
        <time>2014-09-14T10:50:31Z</time>
      </trkpt>
      <trkpt lat="47.31141" lon="0.05384">
        <ele>68</ele>
        <time>2014-09-14T10:50:32Z</time>
      </trkpt>
      <trkpt lat="47.31138" lon="0.05386">
        <ele>68</ele>
        <time>2014-09-14T10:50:34Z</time>
      </trkpt>
      <trkpt lat="47.31135" lon="0.05386">
        <ele>68</ele>
        <time>2014-09-14T10:50:36Z</time>
      </trkpt>
      <trkpt lat="47.31135" lon="0.05385">
        <ele>68</ele>
        <time>2014-09-14T10:50:37Z</time>
      </trkpt>
      <trkpt lat="47.31131" lon="0.05386">
        <ele>67</ele>
        <time>2014-09-14T10:50:39Z</time>
      </trkpt>
      <trkpt lat="47.3113" lon="0.05387">
        <ele>67</ele>
        <time>2014-09-14T10:50:40Z</time>
      </trkpt>
      <trkpt lat="47.31126" lon="0.05383">
        <ele>66</ele>
        <time>2014-09-14T10:50:42Z</time>
      </trkpt>
      <trkpt lat="47.31121" lon="0.05381">
        <ele>66</ele>
        <time>2014-09-14T10:50:44Z</time>
      </trkpt>
      <trkpt lat="47.31118" lon="0.05383">
        <ele>65</ele>
        <time>2014-09-14T10:50:45Z</time>
      </trkpt>
      <trkpt lat="47.31116" lon="0.05387">
        <ele>65</ele>
        <time>2014-09-14T10:50:46Z</time>
      </trkpt>
      <trkpt lat="47.31113" lon="0.05391">
        <ele>65</ele>
        <time>2014-09-14T10:50:47Z</time>
      </trkpt>
      <trkpt lat="47.3111" lon="0.05394">
        <ele>64</ele>
        <time>2014-09-14T10:50:48Z</time>
      </trkpt>
      <trkpt lat="47.31106" lon="0.05397">
        <ele>64</ele>
        <time>2014-09-14T10:50:50Z</time>
      </trkpt>
      <trkpt lat="47.31097" lon="0.05398">
        <ele>64</ele>
        <time>2014-09-14T10:50:52Z</time>
      </trkpt>
      <trkpt lat="47.31097" lon="0.05401">
        <ele>64</ele>
        <time>2014-09-14T10:50:55Z</time>
      </trkpt>
      <trkpt lat="47.31099" lon="0.05406">
        <ele>64</ele>
        <time>2014-09-14T10:50:58Z</time>
      </trkpt>
      <trkpt lat="47.31101" lon="0.05407">
        <ele>64</ele>
        <time>2014-09-14T10:50:59Z</time>
      </trkpt>
      <trkpt lat="47.31104" lon="0.05408">
        <ele>64</ele>
        <time>2014-09-14T10:51:00Z</time>
      </trkpt>
      <trkpt lat="47.31112" lon="0.0541">
        <ele>64</ele>
        <time>2014-09-14T10:51:03Z</time>
      </trkpt>
      <trkpt lat="47.31115" lon="0.0541">
        <ele>64</ele>
        <time>2014-09-14T10:51:04Z</time>
      </trkpt>
      <trkpt lat="47.31117" lon="0.05411">
        <ele>65</ele>
        <time>2014-09-14T10:51:05Z</time>
      </trkpt>
      <trkpt lat="47.31119" lon="0.05412">
        <ele>65</ele>
        <time>2014-09-14T10:51:06Z</time>
      </trkpt>
      <trkpt lat="47.31121" lon="0.05413">
        <ele>65</ele>
        <time>2014-09-14T10:51:07Z</time>
      </trkpt>
      <trkpt lat="47.31123" lon="0.05415">
        <ele>66</ele>
        <time>2014-09-14T10:51:08Z</time>
      </trkpt>
      <trkpt lat="47.31126" lon="0.05417">
        <ele>66</ele>
        <time>2014-09-14T10:51:09Z</time>
      </trkpt>
      <trkpt lat="47.31129" lon="0.05419">
        <ele>66</ele>
        <time>2014-09-14T10:51:10Z</time>
      </trkpt>
      <trkpt lat="47.31142" lon="0.05427">
        <ele>66</ele>
        <time>2014-09-14T10:51:14Z</time>
      </trkpt>
      <trkpt lat="47.31146" lon="0.05429">
        <ele>67</ele>
        <time>2014-09-14T10:51:15Z</time>
      </trkpt>
      <trkpt lat="47.3115" lon="0.0543">
        <ele>67</ele>
        <time>2014-09-14T10:51:16Z</time>
      </trkpt>
      <trkpt lat="47.31154" lon="0.05431">
        <ele>67</ele>
        <time>2014-09-14T10:51:17Z</time>
      </trkpt>
      <trkpt lat="47.31157" lon="0.05432">
        <ele>68</ele>
        <time>2014-09-14T10:51:18Z</time>
      </trkpt>
      <trkpt lat="47.31161" lon="0.05433">
        <ele>68</ele>
        <time>2014-09-14T10:51:19Z</time>
      </trkpt>
      <trkpt lat="47.31178" lon="0.0544">
        <ele>68</ele>
        <time>2014-09-14T10:51:23Z</time>
      </trkpt>
      <trkpt lat="47.3119" lon="0.05446">
        <ele>69</ele>
        <time>2014-09-14T10:51:26Z</time>
      </trkpt>
      <trkpt lat="47.31194" lon="0.05448">
        <ele>69</ele>
        <time>2014-09-14T10:51:27Z</time>
      </trkpt>
      <trkpt lat="47.31199" lon="0.0545">
        <ele>70</ele>
        <time>2014-09-14T10:51:28Z</time>
      </trkpt>
      <trkpt lat="47.31205" lon="0.05452">
        <ele>70</ele>
        <time>2014-09-14T10:51:29Z</time>
      </trkpt>
      <trkpt lat="47.31218" lon="0.05462">
        <ele>70</ele>
        <time>2014-09-14T10:51:33Z</time>
      </trkpt>
      <trkpt lat="47.31221" lon="0.05463">
        <ele>70</ele>
        <time>2014-09-14T10:51:34Z</time>
      </trkpt>
      <trkpt lat="47.31223" lon="0.05465">
        <ele>71</ele>
        <time>2014-09-14T10:51:35Z</time>
      </trkpt>
      <trkpt lat="47.31225" lon="0.05467">
        <ele>71</ele>
        <time>2014-09-14T10:51:36Z</time>
      </trkpt>
      <trkpt lat="47.31227" lon="0.05468">
        <ele>72</ele>
        <time>2014-09-14T10:51:37Z</time>
      </trkpt>
      <trkpt lat="47.31229" lon="0.05469">
        <ele>72</ele>
        <time>2014-09-14T10:51:38Z</time>
      </trkpt>
      <trkpt lat="47.3123" lon="0.0547">
        <ele>72</ele>
        <time>2014-09-14T10:51:39Z</time>
      </trkpt>
      <trkpt lat="47.31243" lon="0.05477">
        <ele>73</ele>
        <time>2014-09-14T10:51:44Z</time>
      </trkpt>
      <trkpt lat="47.31247" lon="0.05479">
        <ele>73</ele>
        <time>2014-09-14T10:51:45Z</time>
      </trkpt>
      <trkpt lat="47.3125" lon="0.05481">
        <ele>74</ele>
        <time>2014-09-14T10:51:46Z</time>
      </trkpt>
      <trkpt lat="47.31254" lon="0.05483">
        <ele>74</ele>
        <time>2014-09-14T10:51:47Z</time>
      </trkpt>
      <trkpt lat="47.31258" lon="0.05485">
        <ele>74</ele>
        <time>2014-09-14T10:51:48Z</time>
      </trkpt>
      <trkpt lat="47.31271" lon="0.0549">
        <ele>74</ele>
        <time>2014-09-14T10:51:52Z</time>
      </trkpt>
      <trkpt lat="47.31284" lon="0.05494">
        <ele>75</ele>
        <time>2014-09-14T10:51:56Z</time>
      </trkpt>
      <trkpt lat="47.31286" lon="0.05496">
        <ele>75</ele>
        <time>2014-09-14T10:51:57Z</time>
      </trkpt>
      <trkpt lat="47.3129" lon="0.05498">
        <ele>76</ele>
        <time>2014-09-14T10:51:58Z</time>
      </trkpt>
      <trkpt lat="47.31293" lon="0.05499">
        <ele>76</ele>
        <time>2014-09-14T10:51:59Z</time>
      </trkpt>
      <trkpt lat="47.31297" lon="0.05501">
        <ele>77</ele>
        <time>2014-09-14T10:52:00Z</time>
      </trkpt>
      <trkpt lat="47.313" lon="0.05502">
        <ele>77</ele>
        <time>2014-09-14T10:52:01Z</time>
      </trkpt>
      <trkpt lat="47.3132" lon="0.05512">
        <ele>77</ele>
        <time>2014-09-14T10:52:06Z</time>
      </trkpt>
      <trkpt lat="47.31343" lon="0.05523">
        <ele>77</ele>
        <time>2014-09-14T10:52:12Z</time>
      </trkpt>
      <trkpt lat="47.3136" lon="0.05531">
        <ele>77</ele>
        <time>2014-09-14T10:52:17Z</time>
      </trkpt>
      <trkpt lat="47.31367" lon="0.05539">
        <ele>77</ele>
        <time>2014-09-14T10:52:21Z</time>
      </trkpt>
      <trkpt lat="47.31371" lon="0.05543">
        <ele>77</ele>
        <time>2014-09-14T10:52:23Z</time>
      </trkpt>
      <trkpt lat="47.31403" lon="0.05556">
        <ele>77</ele>
        <time>2014-09-14T10:52:30Z</time>
      </trkpt>
      <trkpt lat="47.31415" lon="0.05559">
        <ele>77</ele>
        <time>2014-09-14T10:52:35Z</time>
      </trkpt>
      <trkpt lat="47.31416" lon="0.0556">
        <ele>78</ele>
        <time>2014-09-14T10:52:36Z</time>
      </trkpt>
      <trkpt lat="47.31418" lon="0.05561">
        <ele>78</ele>
        <time>2014-09-14T10:52:37Z</time>
      </trkpt>
      <trkpt lat="47.31419" lon="0.05561">
        <ele>78</ele>
        <time>2014-09-14T10:52:38Z</time>
      </trkpt>
      <trkpt lat="47.3142" lon="0.05561">
        <ele>79</ele>
        <time>2014-09-14T10:52:39Z</time>
      </trkpt>
      <trkpt lat="47.31423" lon="0.05563">
        <ele>79</ele>
        <time>2014-09-14T10:52:42Z</time>
      </trkpt>
      <trkpt lat="47.31423" lon="0.05563">
        <ele>80</ele>
        <time>2014-09-14T10:52:43Z</time>
      </trkpt>
      <trkpt lat="47.31425" lon="0.05563">
        <ele>80</ele>
        <time>2014-09-14T10:52:44Z</time>
      </trkpt>
      <trkpt lat="47.31471" lon="0.05588">
        <ele>89</ele>
        <time>2014-09-14T10:53:18Z</time>
      </trkpt>
      <trkpt lat="47.31473" lon="0.05589">
        <ele>89</ele>
        <time>2014-09-14T10:53:19Z</time>
      </trkpt>
      <trkpt lat="47.31476" lon="0.0559">
        <ele>89</ele>
        <time>2014-09-14T10:53:21Z</time>
      </trkpt>
      <trkpt lat="47.31479" lon="0.05592">
        <ele>90</ele>
        <time>2014-09-14T10:53:23Z</time>
      </trkpt>
      <trkpt lat="47.31482" lon="0.05593">
        <ele>90</ele>
        <time>2014-09-14T10:53:24Z</time>
      </trkpt>
      <trkpt lat="47.31485" lon="0.05593">
        <ele>91</ele>
        <time>2014-09-14T10:53:25Z</time>
      </trkpt>
      <trkpt lat="47.31488" lon="0.05594">
        <ele>91</ele>
        <time>2014-09-14T10:53:26Z</time>
      </trkpt>
      <trkpt lat="47.3149" lon="0.05594">
        <ele>92</ele>
        <time>2014-09-14T10:53:27Z</time>
      </trkpt>
      <trkpt lat="47.31499" lon="0.05599">
        <ele>92</ele>
        <time>2014-09-14T10:53:30Z</time>
      </trkpt>
      <trkpt lat="47.31507" lon="0.05604">
        <ele>92</ele>
        <time>2014-09-14T10:53:33Z</time>
      </trkpt>
      <trkpt lat="47.31509" lon="0.05605">
        <ele>92</ele>
        <time>2014-09-14T10:53:34Z</time>
      </trkpt>
      <trkpt lat="47.31511" lon="0.05606">
        <ele>93</ele>
        <time>2014-09-14T10:53:35Z</time>
      </trkpt>
      <trkpt lat="47.31513" lon="0.05607">
        <ele>93</ele>
        <time>2014-09-14T10:53:36Z</time>
      </trkpt>
      <trkpt lat="47.31515" lon="0.05608">
        <ele>94</ele>
        <time>2014-09-14T10:53:37Z</time>
      </trkpt>
      <trkpt lat="47.31519" lon="0.0561">
        <ele>94</ele>
        <time>2014-09-14T10:53:39Z</time>
      </trkpt>
      <trkpt lat="47.31529" lon="0.05615">
        <ele>94</ele>
        <time>2014-09-14T10:53:44Z</time>
      </trkpt>
      <trkpt lat="47.3153" lon="0.05616">
        <ele>94</ele>
        <time>2014-09-14T10:53:45Z</time>
      </trkpt>
      <trkpt lat="47.31534" lon="0.05619">
        <ele>94</ele>
        <time>2014-09-14T10:53:47Z</time>
      </trkpt>
      <trkpt lat="47.31536" lon="0.0562">
        <ele>94</ele>
        <time>2014-09-14T10:53:48Z</time>
      </trkpt>
      <trkpt lat="47.31539" lon="0.05621">
        <ele>95</ele>
        <time>2014-09-14T10:53:49Z</time>
      </trkpt>
      <trkpt lat="47.31541" lon="0.05622">
        <ele>95</ele>
        <time>2014-09-14T10:53:50Z</time>
      </trkpt>
      <trkpt lat="47.31543" lon="0.05622">
        <ele>96</ele>
        <time>2014-09-14T10:53:51Z</time>
      </trkpt>
      <trkpt lat="47.31549" lon="0.05625">
        <ele>96</ele>
        <time>2014-09-14T10:53:54Z</time>
      </trkpt>
      <trkpt lat="47.31553" lon="0.05627">
        <ele>96</ele>
        <time>2014-09-14T10:53:56Z</time>
      </trkpt>
      <trkpt lat="47.31555" lon="0.05628">
        <ele>97</ele>
        <time>2014-09-14T10:53:57Z</time>
      </trkpt>
      <trkpt lat="47.31557" lon="0.05628">
        <ele>97</ele>
        <time>2014-09-14T10:53:58Z</time>
      </trkpt>
      <trkpt lat="47.31559" lon="0.05629">
        <ele>98</ele>
        <time>2014-09-14T10:53:59Z</time>
      </trkpt>
      <trkpt lat="47.31562" lon="0.05629">
        <ele>98</ele>
        <time>2014-09-14T10:54:00Z</time>
      </trkpt>
      <trkpt lat="47.3158" lon="0.05636">
        <ele>98</ele>
        <time>2014-09-14T10:54:06Z</time>
      </trkpt>
      <trkpt lat="47.31584" lon="0.0564">
        <ele>98</ele>
        <time>2014-09-14T10:54:08Z</time>
      </trkpt>
      <trkpt lat="47.31587" lon="0.05641">
        <ele>99</ele>
        <time>2014-09-14T10:54:09Z</time>
      </trkpt>
      <trkpt lat="47.31589" lon="0.05642">
        <ele>99</ele>
        <time>2014-09-14T10:54:10Z</time>
      </trkpt>
      <trkpt lat="47.31591" lon="0.05643">
        <ele>100</ele>
        <time>2014-09-14T10:54:11Z</time>
      </trkpt>
      <trkpt lat="47.31594" lon="0.05644">
        <ele>100</ele>
        <time>2014-09-14T10:54:12Z</time>
      </trkpt>
      <trkpt lat="47.31605" lon="0.05649">
        <ele>100</ele>
        <time>2014-09-14T10:54:16Z</time>
      </trkpt>
      <trkpt lat="47.31615" lon="0.05655">
        <ele>100</ele>
        <time>2014-09-14T10:54:20Z</time>
      </trkpt>
      <trkpt lat="47.31624" lon="0.05659">
        <ele>100</ele>
        <time>2014-09-14T10:54:24Z</time>
      </trkpt>
      <trkpt lat="47.31627" lon="0.05659">
        <ele>101</ele>
        <time>2014-09-14T10:54:25Z</time>
      </trkpt>
      <trkpt lat="47.31629" lon="0.0566">
        <ele>101</ele>
        <time>2014-09-14T10:54:26Z</time>
      </trkpt>
      <trkpt lat="47.31631" lon="0.05661">
        <ele>102</ele>
        <time>2014-09-14T10:54:27Z</time>
      </trkpt>
      <trkpt lat="47.31634" lon="0.05661">
        <ele>102</ele>
        <time>2014-09-14T10:54:28Z</time>
      </trkpt>
      <trkpt lat="47.31646" lon="0.05666">
        <ele>102</ele>
        <time>2014-09-14T10:54:32Z</time>
      </trkpt>
      <trkpt lat="47.31658" lon="0.05671">
        <ele>102</ele>
        <time>2014-09-14T10:54:38Z</time>
      </trkpt>
      <trkpt lat="47.31663" lon="0.05682">
        <ele>102</ele>
        <time>2014-09-14T10:54:43Z</time>
      </trkpt>
      <trkpt lat="47.31661" lon="0.05691">
        <ele>102</ele>
        <time>2014-09-14T10:54:47Z</time>
      </trkpt>
      <trkpt lat="47.31659" lon="0.05694">
        <ele>102</ele>
        <time>2014-09-14T10:54:48Z</time>
      </trkpt>
      <trkpt lat="47.3165" lon="0.05706">
        <ele>102</ele>
        <time>2014-09-14T10:54:52Z</time>
      </trkpt>
      <trkpt lat="47.31638" lon="0.0572">
        <ele>102</ele>
        <time>2014-09-14T10:54:55Z</time>
      </trkpt>
      <trkpt lat="47.31618" lon="0.05738">
        <ele>102</ele>
        <time>2014-09-14T10:55:00Z</time>
      </trkpt>
      <trkpt lat="47.31609" lon="0.05732">
        <ele>102</ele>
        <time>2014-09-14T10:55:03Z</time>
      </trkpt>
      <trkpt lat="47.31597" lon="0.05727">
        <ele>102</ele>
        <time>2014-09-14T10:55:08Z</time>
      </trkpt>
      <trkpt lat="47.31594" lon="0.05726">
        <ele>101</ele>
        <time>2014-09-14T10:55:09Z</time>
      </trkpt>
      <trkpt lat="47.3159" lon="0.05725">
        <ele>101</ele>
        <time>2014-09-14T10:55:10Z</time>
      </trkpt>
      <trkpt lat="47.31587" lon="0.05723">
        <ele>100</ele>
        <time>2014-09-14T10:55:11Z</time>
      </trkpt>
      <trkpt lat="47.31583" lon="0.05721">
        <ele>100</ele>
        <time>2014-09-14T10:55:12Z</time>
      </trkpt>
      <trkpt lat="47.3158" lon="0.0572">
        <ele>100</ele>
        <time>2014-09-14T10:55:13Z</time>
      </trkpt>
      <trkpt lat="47.31565" lon="0.05709">
        <ele>100</ele>
        <time>2014-09-14T10:55:17Z</time>
      </trkpt>
      <trkpt lat="47.31562" lon="0.05707">
        <ele>99</ele>
        <time>2014-09-14T10:55:18Z</time>
      </trkpt>
      <trkpt lat="47.3156" lon="0.05703">
        <ele>99</ele>
        <time>2014-09-14T10:55:19Z</time>
      </trkpt>
      <trkpt lat="47.31557" lon="0.05701">
        <ele>98</ele>
        <time>2014-09-14T10:55:20Z</time>
      </trkpt>
      <trkpt lat="47.31555" lon="0.05698">
        <ele>98</ele>
        <time>2014-09-14T10:55:21Z</time>
      </trkpt>
      <trkpt lat="47.31553" lon="0.05695">
        <ele>98</ele>
        <time>2014-09-14T10:55:22Z</time>
      </trkpt>
      <trkpt lat="47.31547" lon="0.05683">
        <ele>97</ele>
        <time>2014-09-14T10:55:25Z</time>
      </trkpt>
      <trkpt lat="47.31544" lon="0.05679">
        <ele>97</ele>
        <time>2014-09-14T10:55:26Z</time>
      </trkpt>
      <trkpt lat="47.31542" lon="0.05674">
        <ele>97</ele>
        <time>2014-09-14T10:55:27Z</time>
      </trkpt>
      <trkpt lat="47.31539" lon="0.0567">
        <ele>96</ele>
        <time>2014-09-14T10:55:28Z</time>
      </trkpt>
      <trkpt lat="47.31537" lon="0.05666">
        <ele>96</ele>
        <time>2014-09-14T10:55:29Z</time>
      </trkpt>
      <trkpt lat="47.31534" lon="0.05663">
        <ele>96</ele>
        <time>2014-09-14T10:55:30Z</time>
      </trkpt>
      <trkpt lat="47.31527" lon="0.0566">
        <ele>96</ele>
        <time>2014-09-14T10:55:32Z</time>
      </trkpt>
      <trkpt lat="47.31517" lon="0.05642">
        <ele>96</ele>
        <time>2014-09-14T10:55:36Z</time>
      </trkpt>
      <trkpt lat="47.31514" lon="0.05641">
        <ele>95</ele>
        <time>2014-09-14T10:55:37Z</time>
      </trkpt>
      <trkpt lat="47.31511" lon="0.05641">
        <ele>95</ele>
        <time>2014-09-14T10:55:38Z</time>
      </trkpt>
      <trkpt lat="47.31508" lon="0.05639">
        <ele>94</ele>
        <time>2014-09-14T10:55:39Z</time>
      </trkpt>
      <trkpt lat="47.31506" lon="0.05636">
        <ele>94</ele>
        <time>2014-09-14T10:55:40Z</time>
      </trkpt>
      <trkpt lat="47.31504" lon="0.05634">
        <ele>94</ele>
        <time>2014-09-14T10:55:41Z</time>
      </trkpt>
      <trkpt lat="47.315" lon="0.05635">
        <ele>94</ele>
        <time>2014-09-14T10:55:43Z</time>
      </trkpt>
      <trkpt lat="47.31488" lon="0.05643">
        <ele>93</ele>
        <time>2014-09-14T10:55:47Z</time>
      </trkpt>
      <trkpt lat="47.31484" lon="0.05644">
        <ele>93</ele>
        <time>2014-09-14T10:55:48Z</time>
      </trkpt>
      <trkpt lat="47.3148" lon="0.05645">
        <ele>92</ele>
        <time>2014-09-14T10:55:49Z</time>
      </trkpt>
      <trkpt lat="47.31476" lon="0.05644">
        <ele>92</ele>
        <time>2014-09-14T10:55:50Z</time>
      </trkpt>
      <trkpt lat="47.31471" lon="0.05643">
        <ele>91</ele>
        <time>2014-09-14T10:55:51Z</time>
      </trkpt>
      <trkpt lat="47.31466" lon="0.05643">
        <ele>90</ele>
        <time>2014-09-14T10:55:52Z</time>
      </trkpt>
      <trkpt lat="47.31462" lon="0.05642">
        <ele>89</ele>
        <time>2014-09-14T10:55:53Z</time>
      </trkpt>
      <trkpt lat="47.31458" lon="0.05643">
        <ele>88</ele>
        <time>2014-09-14T10:55:54Z</time>
      </trkpt>
      <trkpt lat="47.31454" lon="0.05645">
        <ele>88</ele>
        <time>2014-09-14T10:55:55Z</time>
      </trkpt>
      <trkpt lat="47.31451" lon="0.05648">
        <ele>87</ele>
        <time>2014-09-14T10:55:56Z</time>
      </trkpt>
      <trkpt lat="47.31448" lon="0.05653">
        <ele>86</ele>
        <time>2014-09-14T10:55:57Z</time>
      </trkpt>
      <trkpt lat="47.31444" lon="0.05658">
        <ele>85</ele>
        <time>2014-09-14T10:55:58Z</time>
      </trkpt>
      <trkpt lat="47.31442" lon="0.05662">
        <ele>84</ele>
        <time>2014-09-14T10:55:59Z</time>
      </trkpt>
      <trkpt lat="47.31439" lon="0.05664">
        <ele>83</ele>
        <time>2014-09-14T10:56:00Z</time>
      </trkpt>
      <trkpt lat="47.31435" lon="0.05665">
        <ele>82</ele>
        <time>2014-09-14T10:56:01Z</time>
      </trkpt>
      <trkpt lat="47.31431" lon="0.05666">
        <ele>82</ele>
        <time>2014-09-14T10:56:02Z</time>
      </trkpt>
      <trkpt lat="47.31427" lon="0.05669">
        <ele>81</ele>
        <time>2014-09-14T10:56:03Z</time>
      </trkpt>
      <trkpt lat="47.31424" lon="0.05674">
        <ele>80</ele>
        <time>2014-09-14T10:56:04Z</time>
      </trkpt>
      <trkpt lat="47.31421" lon="0.05678">
        <ele>80</ele>
        <time>2014-09-14T10:56:05Z</time>
      </trkpt>
      <trkpt lat="47.31413" lon="0.05688">
        <ele>79</ele>
        <time>2014-09-14T10:56:07Z</time>
      </trkpt>
      <trkpt lat="47.31409" lon="0.05693">
        <ele>79</ele>
        <time>2014-09-14T10:56:08Z</time>
      </trkpt>
      <trkpt lat="47.31406" lon="0.057">
        <ele>79</ele>
        <time>2014-09-14T10:56:09Z</time>
      </trkpt>
      <trkpt lat="47.31404" lon="0.05707">
        <ele>78</ele>
        <time>2014-09-14T10:56:10Z</time>
      </trkpt>
      <trkpt lat="47.31401" lon="0.05715">
        <ele>78</ele>
        <time>2014-09-14T10:56:11Z</time>
      </trkpt>
      <trkpt lat="47.31394" lon="0.05763">
        <ele>78</ele>
        <time>2014-09-14T10:56:16Z</time>
      </trkpt>
      <trkpt lat="47.31392" lon="0.05774">
        <ele>77</ele>
        <time>2014-09-14T10:56:17Z</time>
      </trkpt>
      <trkpt lat="47.31391" lon="0.05784">
        <ele>77</ele>
        <time>2014-09-14T10:56:18Z</time>
      </trkpt>
      <trkpt lat="47.3139" lon="0.05795">
        <ele>76</ele>
        <time>2014-09-14T10:56:19Z</time>
      </trkpt>
      <trkpt lat="47.31389" lon="0.05805">
        <ele>76</ele>
        <time>2014-09-14T10:56:20Z</time>
      </trkpt>
      <trkpt lat="47.31389" lon="0.05815">
        <ele>76</ele>
        <time>2014-09-14T10:56:21Z</time>
      </trkpt>
      <trkpt lat="47.31388" lon="0.05825">
        <ele>76</ele>
        <time>2014-09-14T10:56:22Z</time>
      </trkpt>
      <trkpt lat="47.31387" lon="0.05872">
        <ele>76</ele>
        <time>2014-09-14T10:56:27Z</time>
      </trkpt>
      <trkpt lat="47.3139" lon="0.05907">
        <ele>76</ele>
        <time>2014-09-14T10:56:31Z</time>
      </trkpt>
      <trkpt lat="47.31392" lon="0.05914">
        <ele>76</ele>
        <time>2014-09-14T10:56:32Z</time>
      </trkpt>
      <trkpt lat="47.31395" lon="0.05936">
        <ele>76</ele>
        <time>2014-09-14T10:56:36Z</time>
      </trkpt>
      <trkpt lat="47.31386" lon="0.05945">
        <ele>76</ele>
        <time>2014-09-14T10:56:39Z</time>
      </trkpt>
      <trkpt lat="47.31382" lon="0.05947">
        <ele>76</ele>
        <time>2014-09-14T10:56:40Z</time>
      </trkpt>
      <trkpt lat="47.31372" lon="0.0595">
        <ele>76</ele>
        <time>2014-09-14T10:56:42Z</time>
      </trkpt>
      <trkpt lat="47.31362" lon="0.05954">
        <ele>76</ele>
        <time>2014-09-14T10:56:44Z</time>
      </trkpt>
      <trkpt lat="47.31353" lon="0.05952">
        <ele>76</ele>
        <time>2014-09-14T10:56:46Z</time>
      </trkpt>
      <trkpt lat="47.31349" lon="0.05948">
        <ele>75</ele>
        <time>2014-09-14T10:56:47Z</time>
      </trkpt>
      <trkpt lat="47.31345" lon="0.05945">
        <ele>75</ele>
        <time>2014-09-14T10:56:48Z</time>
      </trkpt>
      <trkpt lat="47.3134" lon="0.05944">
        <ele>74</ele>
        <time>2014-09-14T10:56:49Z</time>
      </trkpt>
      <trkpt lat="47.31335" lon="0.05945">
        <ele>74</ele>
        <time>2014-09-14T10:56:50Z</time>
      </trkpt>
      <trkpt lat="47.31329" lon="0.05946">
        <ele>74</ele>
        <time>2014-09-14T10:56:51Z</time>
      </trkpt>
      <trkpt lat="47.31318" lon="0.0595">
        <ele>74</ele>
        <time>2014-09-14T10:56:53Z</time>
      </trkpt>
      <trkpt lat="47.31308" lon="0.05949">
        <ele>74</ele>
        <time>2014-09-14T10:56:55Z</time>
      </trkpt>
      <trkpt lat="47.31296" lon="0.05944">
        <ele>73</ele>
        <time>2014-09-14T10:56:57Z</time>
      </trkpt>
      <trkpt lat="47.3129" lon="0.0594">
        <ele>73</ele>
        <time>2014-09-14T10:56:58Z</time>
      </trkpt>
      <trkpt lat="47.31285" lon="0.05936">
        <ele>72</ele>
        <time>2014-09-14T10:56:59Z</time>
      </trkpt>
      <trkpt lat="47.3128" lon="0.05932">
        <ele>72</ele>
        <time>2014-09-14T10:57:00Z</time>
      </trkpt>
      <trkpt lat="47.31275" lon="0.0593">
        <ele>72</ele>
        <time>2014-09-14T10:57:01Z</time>
      </trkpt>
      <trkpt lat="47.3127" lon="0.05929">
        <ele>72</ele>
        <time>2014-09-14T10:57:02Z</time>
      </trkpt>
      <trkpt lat="47.31265" lon="0.05929">
        <ele>72</ele>
        <time>2014-09-14T10:57:03Z</time>
      </trkpt>
      <trkpt lat="47.31247" lon="0.0593">
        <ele>72</ele>
        <time>2014-09-14T10:57:06Z</time>
      </trkpt>
      <trkpt lat="47.3124" lon="0.05929">
        <ele>71</ele>
        <time>2014-09-14T10:57:07Z</time>
      </trkpt>
      <trkpt lat="47.31234" lon="0.05927">
        <ele>71</ele>
        <time>2014-09-14T10:57:08Z</time>
      </trkpt>
      <trkpt lat="47.31228" lon="0.05927">
        <ele>70</ele>
        <time>2014-09-14T10:57:09Z</time>
      </trkpt>
      <trkpt lat="47.31221" lon="0.05929">
        <ele>70</ele>
        <time>2014-09-14T10:57:10Z</time>
      </trkpt>
      <trkpt lat="47.31215" lon="0.05932">
        <ele>69</ele>
        <time>2014-09-14T10:57:11Z</time>
      </trkpt>
      <trkpt lat="47.31203" lon="0.05938">
        <ele>69</ele>
        <time>2014-09-14T10:57:13Z</time>
      </trkpt>
      <trkpt lat="47.31198" lon="0.05942">
        <ele>68</ele>
        <time>2014-09-14T10:57:14Z</time>
      </trkpt>
      <trkpt lat="47.31195" lon="0.05947">
        <ele>68</ele>
        <time>2014-09-14T10:57:15Z</time>
      </trkpt>
      <trkpt lat="47.31191" lon="0.05953">
        <ele>67</ele>
        <time>2014-09-14T10:57:16Z</time>
      </trkpt>
      <trkpt lat="47.31188" lon="0.05959">
        <ele>67</ele>
        <time>2014-09-14T10:57:17Z</time>
      </trkpt>
      <trkpt lat="47.3118" lon="0.05982">
        <ele>67</ele>
        <time>2014-09-14T10:57:20Z</time>
      </trkpt>
      <trkpt lat="47.31177" lon="0.06004">
        <ele>67</ele>
        <time>2014-09-14T10:57:23Z</time>
      </trkpt>
      <trkpt lat="47.31177" lon="0.0601">
        <ele>67</ele>
        <time>2014-09-14T10:57:24Z</time>
      </trkpt>
      <trkpt lat="47.3123" lon="0.06049">
        <ele>67</ele>
        <time>2014-09-14T10:57:28Z</time>
      </trkpt>
      <trkpt lat="47.31234" lon="0.06078">
        <ele>67</ele>
        <time>2014-09-14T10:57:34Z</time>
      </trkpt>
      <trkpt lat="47.31241" lon="0.06105">
        <ele>67</ele>
        <time>2014-09-14T10:57:38Z</time>
      </trkpt>
      <trkpt lat="47.31241" lon="0.06125">
        <ele>67</ele>
        <time>2014-09-14T10:57:42Z</time>
      </trkpt>
      <trkpt lat="47.31231" lon="0.06157">
        <ele>67</ele>
        <time>2014-09-14T10:57:48Z</time>
      </trkpt>
      <trkpt lat="47.31225" lon="0.06182">
        <ele>67</ele>
        <time>2014-09-14T10:57:52Z</time>
      </trkpt>
      <trkpt lat="47.31222" lon="0.06196">
        <ele>67</ele>
        <time>2014-09-14T10:57:54Z</time>
      </trkpt>
      <trkpt lat="47.31213" lon="0.06237">
        <ele>67</ele>
        <time>2014-09-14T10:58:00Z</time>
      </trkpt>
      <trkpt lat="47.31203" lon="0.0628">
        <ele>67</ele>
        <time>2014-09-14T10:58:07Z</time>
      </trkpt>
      <trkpt lat="47.312" lon="0.06296">
        <ele>67</ele>
        <time>2014-09-14T10:58:10Z</time>
      </trkpt>
      <trkpt lat="47.31204" lon="0.06302">
        <ele>67</ele>
        <time>2014-09-14T10:58:12Z</time>
      </trkpt>
      <trkpt lat="47.31216" lon="0.06305">
        <ele>67</ele>
        <time>2014-09-14T10:58:15Z</time>
      </trkpt>
      <trkpt lat="47.31224" lon="0.06308">
        <ele>67</ele>
        <time>2014-09-14T10:58:17Z</time>
      </trkpt>
      <trkpt lat="47.31251" lon="0.06315">
        <ele>67</ele>
        <time>2014-09-14T10:58:24Z</time>
      </trkpt>
      <trkpt lat="47.31266" lon="0.06319">
        <ele>67</ele>
        <time>2014-09-14T10:58:29Z</time>
      </trkpt>
      <trkpt lat="47.31271" lon="0.0632">
        <ele>67</ele>
        <time>2014-09-14T10:58:31Z</time>
      </trkpt>
      <trkpt lat="47.31274" lon="0.06321">
        <ele>68</ele>
        <time>2014-09-14T10:58:32Z</time>
      </trkpt>
      <trkpt lat="47.31278" lon="0.06321">
        <ele>68</ele>
        <time>2014-09-14T10:58:33Z</time>
      </trkpt>
      <trkpt lat="47.31281" lon="0.06321">
        <ele>69</ele>
        <time>2014-09-14T10:58:34Z</time>
      </trkpt>
      <trkpt lat="47.31285" lon="0.0632">
        <ele>69</ele>
        <time>2014-09-14T10:58:35Z</time>
      </trkpt>
      <trkpt lat="47.31299" lon="0.06319">
        <ele>66.855469</ele>
        <time>2008-10-12T08:03:13Z</time>
      </trkpt>
      <trkpt lat="47.31308" lon="0.06317">
        <ele>67.355469</ele>
        <time>2008-10-12T08:03:13Z</time>
      </trkpt>
      <trkpt lat="47.31317" lon="0.06317">
        <ele>67.863281</ele>
        <time>2008-10-12T08:03:13Z</time>
      </trkpt>
      <trkpt lat="47.31333" lon="0.06323">
        <ele>68.71875</ele>
        <time>2008-10-12T08:03:13Z</time>
      </trkpt>
      <trkpt lat="47.31333" lon="0.06322">
        <ele>68.730469</ele>
        <time>2008-10-12T08:03:13Z</time>
      </trkpt>
      <trkpt lat="47.3136" lon="0.06345">
        <ele>70.078125</ele>
        <time>2008-10-12T08:03:13Z</time>
      </trkpt>
      <trkpt lat="47.31366" lon="0.06375">
        <ele>69.308594</ele>
        <time>2008-10-12T08:03:13Z</time>
      </trkpt>
      <trkpt lat="47.31377" lon="0.06408">
        <ele>69.675781</ele>
        <time>2008-10-12T08:03:13Z</time>
      </trkpt>
      <trkpt lat="47.31385" lon="0.06428">
        <ele>69.722656</ele>
        <time>2008-10-12T08:03:13Z</time>
      </trkpt>
      <trkpt lat="47.31385" lon="0.06431">
        <ele>69.605469</ele>
        <time>2008-10-12T08:03:13Z</time>
      </trkpt>
      <trkpt lat="47.31398" lon="0.06464">
        <ele>69.390625</ele>
        <time>2008-10-12T08:03:13Z</time>
      </trkpt>
      <trkpt lat="47.31401" lon="0.06467">
        <ele>69.464844</ele>
        <time>2008-10-12T08:03:13Z</time>
      </trkpt>
      <trkpt lat="47.31412" lon="0.06507">
        <ele>71.960938</ele>
        <time>2008-10-12T08:03:13Z</time>
      </trkpt>
      <trkpt lat="47.31444" lon="0.06539">
        <ele>76.925781</ele>
        <time>2008-10-12T08:03:13Z</time>
      </trkpt>
      <trkpt lat="47.31447" lon="0.06539">
        <ele>77.007812</ele>
        <time>2008-10-12T08:03:13Z</time>
      </trkpt>
      <trkpt lat="47.31482" lon="0.06553">
        <ele>78.117188</ele>
        <time>2008-10-12T08:03:13Z</time>
      </trkpt>
      <trkpt lat="47.31538" lon="0.06563">
        <ele>81.445312</ele>
        <time>2008-10-12T08:03:13Z</time>
      </trkpt>
      <trkpt lat="47.316" lon="0.06569">
        <ele>86.054688</ele>
        <time>2008-10-12T08:03:13Z</time>
      </trkpt>
      <trkpt lat="47.3166" lon="0.06589">
        <ele>92.089844</ele>
        <time>2008-10-12T08:03:13Z</time>
      </trkpt>
      <trkpt lat="47.31705" lon="0.06579">
        <ele>95.347656</ele>
        <time>2008-10-12T08:03:13Z</time>
      </trkpt>
      <trkpt lat="47.31746" lon="0.06572">
        <ele>97.546875</ele>
        <time>2008-10-12T08:03:13Z</time>
      </trkpt>
      <trkpt lat="47.31775" lon="0.06586">
        <ele>99.699219</ele>
        <time>2008-10-12T08:03:13Z</time>
      </trkpt>
      <trkpt lat="47.31778" lon="0.06586">
        <ele>99.871094</ele>
        <time>2008-10-12T08:03:13Z</time>
      </trkpt>
      <trkpt lat="47.31835" lon="0.06599">
        <ele>102.792969</ele>
        <time>2008-10-12T08:03:13Z</time>
      </trkpt>
      <trkpt lat="47.3184" lon="0.06599">
        <ele>103.035156</ele>
        <time>2008-10-12T08:03:13Z</time>
      </trkpt>
      <trkpt lat="47.31905" lon="0.06632">
        <ele>105.363281</ele>
        <time>2008-10-12T08:03:13Z</time>
      </trkpt>
      <trkpt lat="47.31994" lon="0.06655">
        <ele>106.570312</ele>
        <time>2008-10-12T08:03:13Z</time>
      </trkpt>
      <trkpt lat="47.32045" lon="0.06678">
        <ele>106.683594</ele>
        <time>2008-10-12T08:03:13Z</time>
      </trkpt>
      <trkpt lat="47.32045" lon="0.06681">
        <ele>106.613281</ele>
        <time>2008-10-12T08:03:13Z</time>
      </trkpt>
      <trkpt lat="47.32069" lon="0.06697">
        <ele>107</ele>
        <time>2008-10-12T08:03:13Z</time>
      </trkpt>
      <trkpt lat="47.32112" lon="0.0673">
        <ele>106.089844</ele>
        <time>2008-10-12T08:03:13Z</time>
      </trkpt>
      <trkpt lat="47.3214" lon="0.0674">
        <ele>117</ele>
        <time>2008-10-12T08:03:13Z</time>
      </trkpt>
      <trkpt lat="47.32137" lon="0.06755">
        <ele>117</ele>
        <time>2008-10-12T08:03:15Z</time>
      </trkpt>
      <trkpt lat="47.32134" lon="0.0677">
        <ele>117</ele>
        <time>2008-10-12T08:03:17Z</time>
      </trkpt>
      <trkpt lat="47.32131" lon="0.06788">
        <ele>117</ele>
        <time>2008-10-12T08:03:19Z</time>
      </trkpt>
      <trkpt lat="47.32128" lon="0.06806">
        <ele>117</ele>
        <time>2008-10-12T08:03:21Z</time>
      </trkpt>
      <trkpt lat="47.32125" lon="0.06825">
        <ele>117</ele>
        <time>2008-10-12T08:03:23Z</time>
      </trkpt>
      <trkpt lat="47.32123" lon="0.06843">
        <ele>117</ele>
        <time>2008-10-12T08:03:25Z</time>
      </trkpt>
      <trkpt lat="47.32121" lon="0.06862">
        <ele>117</ele>
        <time>2008-10-12T08:03:27Z</time>
      </trkpt>
      <trkpt lat="47.3212" lon="0.06883">
        <ele>117</ele>
        <time>2008-10-12T08:03:29Z</time>
      </trkpt>
      <trkpt lat="47.32121" lon="0.06902">
        <ele>117</ele>
        <time>2008-10-12T08:03:31Z</time>
      </trkpt>
      <trkpt lat="47.32123" lon="0.0692">
        <ele>117</ele>
        <time>2008-10-12T08:03:33Z</time>
      </trkpt>
      <trkpt lat="47.32124" lon="0.0694">
        <ele>111</ele>
        <time>2008-10-12T08:03:35Z</time>
      </trkpt>
      <trkpt lat="47.32126" lon="0.06962">
        <ele>111</ele>
        <time>2008-10-12T08:03:37Z</time>
      </trkpt>
      <trkpt lat="47.32127" lon="0.06983">
        <ele>111</ele>
        <time>2008-10-12T08:03:39Z</time>
      </trkpt>
      <trkpt lat="47.32124" lon="0.07004">
        <ele>105</ele>
        <time>2008-10-12T08:03:41Z</time>
      </trkpt>
      <trkpt lat="47.32121" lon="0.07027">
        <ele>105</ele>
        <time>2008-10-12T08:03:43Z</time>
      </trkpt>
      <trkpt lat="47.32116" lon="0.07052">
        <ele>99</ele>
        <time>2008-10-12T08:03:45Z</time>
      </trkpt>
      <trkpt lat="47.3211" lon="0.07076">
        <ele>99</ele>
        <time>2008-10-12T08:03:47Z</time>
      </trkpt>
      <trkpt lat="47.32107" lon="0.07089">
        <ele>99</ele>
        <time>2008-10-12T08:03:48Z</time>
      </trkpt>
      <trkpt lat="47.32103" lon="0.07102">
        <ele>99</ele>
        <time>2008-10-12T08:03:49Z</time>
      </trkpt>
      <trkpt lat="47.32101" lon="0.07115">
        <ele>93</ele>
        <time>2008-10-12T08:03:50Z</time>
      </trkpt>
      <trkpt lat="47.32097" lon="0.07127">
        <ele>93</ele>
        <time>2008-10-12T08:03:51Z</time>
      </trkpt>
      <trkpt lat="47.32093" lon="0.0715">
        <ele>93</ele>
        <time>2008-10-12T08:03:53Z</time>
      </trkpt>
      <trkpt lat="47.32087" lon="0.07174">
        <ele>88</ele>
        <time>2008-10-12T08:03:55Z</time>
      </trkpt>
      <trkpt lat="47.32081" lon="0.07198">
        <ele>88</ele>
        <time>2008-10-12T08:03:57Z</time>
      </trkpt>
      <trkpt lat="47.32079" lon="0.07211">
        <ele>88</ele>
        <time>2008-10-12T08:03:58Z</time>
      </trkpt>
      <trkpt lat="47.32074" lon="0.07234">
        <ele>88</ele>
        <time>2008-10-12T08:04:00Z</time>
      </trkpt>
      <trkpt lat="47.32069" lon="0.07257">
        <ele>82</ele>
        <time>2008-10-12T08:04:02Z</time>
      </trkpt>
      <trkpt lat="47.32063" lon="0.07281">
        <ele>82</ele>
        <time>2008-10-12T08:04:04Z</time>
      </trkpt>
      <trkpt lat="47.32057" lon="0.07304">
        <ele>82</ele>
        <time>2008-10-12T08:04:06Z</time>
      </trkpt>
      <trkpt lat="47.3205" lon="0.07328">
        <ele>82</ele>
        <time>2008-10-12T08:04:08Z</time>
      </trkpt>
      <trkpt lat="47.32043" lon="0.07348">
        <ele>82</ele>
        <time>2008-10-12T08:04:10Z</time>
      </trkpt>
      <trkpt lat="47.32038" lon="0.07371">
        <ele>82</ele>
        <time>2008-10-12T08:04:12Z</time>
      </trkpt>
      <trkpt lat="47.32036" lon="0.07395">
        <ele>82</ele>
        <time>2008-10-12T08:04:14Z</time>
      </trkpt>
      <trkpt lat="47.32032" lon="0.07417">
        <ele>77</ele>
        <time>2008-10-12T08:04:16Z</time>
      </trkpt>
      <trkpt lat="47.32024" lon="0.07439">
        <ele>77</ele>
        <time>2008-10-12T08:04:18Z</time>
      </trkpt>
      <trkpt lat="47.32016" lon="0.0746">
        <ele>77</ele>
        <time>2008-10-12T08:04:20Z</time>
      </trkpt>
      <trkpt lat="47.32008" lon="0.07483">
        <ele>77</ele>
        <time>2008-10-12T08:04:22Z</time>
      </trkpt>
      <trkpt lat="47.32" lon="0.07505">
        <ele>77</ele>
        <time>2008-10-12T08:04:24Z</time>
      </trkpt>
      <trkpt lat="47.31992" lon="0.07527">
        <ele>71</ele>
        <time>2008-10-12T08:04:26Z</time>
      </trkpt>
      <trkpt lat="47.31984" lon="0.07548">
        <ele>71</ele>
        <time>2008-10-12T08:04:28Z</time>
      </trkpt>
      <trkpt lat="47.31976" lon="0.07567">
        <ele>71</ele>
        <time>2008-10-12T08:04:30Z</time>
      </trkpt>
      <trkpt lat="47.31968" lon="0.07582">
        <ele>71</ele>
        <time>2008-10-12T08:04:32Z</time>
      </trkpt>
      <trkpt lat="47.31962" lon="0.07593">
        <ele>71</ele>
        <time>2008-10-12T08:04:34Z</time>
      </trkpt>
      <trkpt lat="47.31962" lon="0.07607">
        <ele>71</ele>
        <time>2008-10-12T08:04:39Z</time>
      </trkpt>
      <trkpt lat="47.31949" lon="0.07615">
        <ele>65.644531</ele>
        <time>2008-10-12T08:05:55Z</time>
      </trkpt>
      <trkpt lat="47.31933" lon="0.07635">
        <ele>64.351562</ele>
        <time>2008-10-12T08:05:55Z</time>
      </trkpt>
      <trkpt lat="47.31911" lon="0.07663">
        <ele>62.582031</ele>
        <time>2008-10-12T08:05:55Z</time>
      </trkpt>
      <trkpt lat="47.31886" lon="0.07691">
        <ele>61.636719</ele>
        <time>2008-10-12T08:05:55Z</time>
      </trkpt>
      <trkpt lat="47.31867" lon="0.07726">
        <ele>60</ele>
        <time>2008-10-12T08:05:55Z</time>
      </trkpt>
      <trkpt lat="47.31855" lon="0.07772">
        <ele>59.03125</ele>
        <time>2008-10-12T08:05:55Z</time>
      </trkpt>
      <trkpt lat="47.31874" lon="0.07775">
        <ele>59.230469</ele>
        <time>2008-10-12T08:05:55Z</time>
      </trkpt>
      <trkpt lat="47.31901" lon="0.07783">
        <ele>59.714844</ele>
        <time>2008-10-12T08:05:55Z</time>
      </trkpt>
      <trkpt lat="47.31937" lon="0.07781">
        <ele>60.894531</ele>
        <time>2008-10-12T08:05:55Z</time>
      </trkpt>
      <trkpt lat="47.31975" lon="0.0778">
        <ele>61.972656</ele>
        <time>2008-10-12T08:05:55Z</time>
      </trkpt>
      <trkpt lat="47.3201" lon="0.07775">
        <ele>62.136719</ele>
        <time>2008-10-12T08:05:55Z</time>
      </trkpt>
      <trkpt lat="47.32025" lon="0.07773">
        <ele>62</ele>
        <time>2008-10-12T08:05:55Z</time>
      </trkpt>
      <trkpt lat="47.32024" lon="0.07787">
        <ele>62</ele>
        <time>2008-10-12T08:06:03Z</time>
      </trkpt>
      <trkpt lat="47.32021" lon="0.07805">
        <ele>62</ele>
        <time>2008-10-12T08:06:06Z</time>
      </trkpt>
      <trkpt lat="47.32016" lon="0.07818">
        <ele>62</ele>
        <time>2008-10-12T08:06:08Z</time>
      </trkpt>
      <trkpt lat="47.32013" lon="0.07834">
        <ele>62</ele>
        <time>2008-10-12T08:06:10Z</time>
      </trkpt>
      <trkpt lat="47.32008" lon="0.07854">
        <ele>62</ele>
        <time>2008-10-12T08:06:12Z</time>
      </trkpt>
      <trkpt lat="47.32004" lon="0.07874">
        <ele>62</ele>
        <time>2008-10-12T08:06:14Z</time>
      </trkpt>
      <trkpt lat="47.32" lon="0.07892">
        <ele>62</ele>
        <time>2008-10-12T08:06:16Z</time>
      </trkpt>
      <trkpt lat="47.31995" lon="0.07911">
        <ele>62</ele>
        <time>2008-10-12T08:06:18Z</time>
      </trkpt>
      <trkpt lat="47.31992" lon="0.07929">
        <ele>62</ele>
        <time>2008-10-12T08:06:20Z</time>
      </trkpt>
      <trkpt lat="47.31989" lon="0.07948">
        <ele>62</ele>
        <time>2008-10-12T08:06:22Z</time>
      </trkpt>
      <trkpt lat="47.31985" lon="0.07967">
        <ele>62</ele>
        <time>2008-10-12T08:06:24Z</time>
      </trkpt>
      <trkpt lat="47.31982" lon="0.07985">
        <ele>62</ele>
        <time>2008-10-12T08:06:26Z</time>
      </trkpt>
      <trkpt lat="47.31978" lon="0.08">
        <ele>62</ele>
        <time>2008-10-12T08:06:28Z</time>
      </trkpt>
      <trkpt lat="47.31974" lon="0.08013">
        <ele>62</ele>
        <time>2008-10-12T08:06:31Z</time>
      </trkpt>
      <trkpt lat="47.31972" lon="0.08028">
        <ele>54</ele>
        <time>2008-10-12T08:07:27Z</time>
      </trkpt>
      <trkpt lat="47.31969" lon="0.08044">
        <ele>54</ele>
        <time>2008-10-12T08:07:31Z</time>
      </trkpt>
      <trkpt lat="47.31966" lon="0.08058">
        <ele>54</ele>
        <time>2008-10-12T08:07:34Z</time>
      </trkpt>
      <trkpt lat="47.31962" lon="0.08072">
        <ele>54</ele>
        <time>2008-10-12T08:07:37Z</time>
      </trkpt>
      <trkpt lat="47.31958" lon="0.0809">
        <ele>54</ele>
        <time>2008-10-12T08:07:40Z</time>
      </trkpt>
      <trkpt lat="47.31956" lon="0.08103">
        <ele>54</ele>
        <time>2008-10-12T08:07:42Z</time>
      </trkpt>
      <trkpt lat="47.31953" lon="0.08121">
        <ele>54</ele>
        <time>2008-10-12T08:07:45Z</time>
      </trkpt>
      <trkpt lat="47.31944" lon="0.08132">
        <ele>54</ele>
        <time>2008-10-12T08:07:48Z</time>
      </trkpt>
      <trkpt lat="47.31933" lon="0.0814">
        <ele>54</ele>
        <time>2008-10-12T08:07:50Z</time>
      </trkpt>
      <trkpt lat="47.31923" lon="0.0815">
        <ele>54</ele>
        <time>2008-10-12T08:07:52Z</time>
      </trkpt>
      <trkpt lat="47.31916" lon="0.08162">
        <ele>60</ele>
        <time>2008-10-12T08:07:54Z</time>
      </trkpt>
      <trkpt lat="47.31907" lon="0.08176">
        <ele>60</ele>
        <time>2008-10-12T08:07:56Z</time>
      </trkpt>
      <trkpt lat="47.31899" lon="0.08189">
        <ele>60</ele>
        <time>2008-10-12T08:07:58Z</time>
      </trkpt>
      <trkpt lat="47.3189" lon="0.08201">
        <ele>60</ele>
        <time>2008-10-12T08:08:00Z</time>
      </trkpt>
      <trkpt lat="47.31885" lon="0.08215">
        <ele>60</ele>
        <time>2008-10-12T08:08:02Z</time>
      </trkpt>
      <trkpt lat="47.31879" lon="0.08229">
        <ele>60</ele>
        <time>2008-10-12T08:08:04Z</time>
      </trkpt>
      <trkpt lat="47.31875" lon="0.0824">
        <ele>60</ele>
        <time>2008-10-12T08:08:06Z</time>
      </trkpt>
      <trkpt lat="47.31872" lon="0.08257">
        <ele>60</ele>
        <time>2008-10-12T08:08:08Z</time>
      </trkpt>
      <trkpt lat="47.31859" lon="0.0829">
        <ele>60</ele>
        <time>2008-10-12T08:08:13Z</time>
      </trkpt>
      <trkpt lat="47.31853" lon="0.08308">
        <ele>60</ele>
        <time>2008-10-12T08:08:15Z</time>
      </trkpt>
      <trkpt lat="47.31847" lon="0.0832">
        <ele>60</ele>
        <time>2008-10-12T08:08:17Z</time>
      </trkpt>
      <trkpt lat="47.3184" lon="0.0833">
        <ele>60</ele>
        <time>2008-10-12T08:08:19Z</time>
      </trkpt>
      <trkpt lat="47.31832" lon="0.0834">
        <ele>60</ele>
        <time>2008-10-12T08:08:21Z</time>
      </trkpt>
      <trkpt lat="47.31821" lon="0.08349">
        <ele>60</ele>
        <time>2008-10-12T08:08:24Z</time>
      </trkpt>
      <trkpt lat="47.31811" lon="0.08356">
        <ele>68</ele>
        <time>2008-10-12T08:08:27Z</time>
      </trkpt>
      <trkpt lat="47.31801" lon="0.0836">
        <ele>68</ele>
        <time>2008-10-12T08:08:30Z</time>
      </trkpt>
      <trkpt lat="47.31791" lon="0.08363">
        <ele>68</ele>
        <time>2008-10-12T08:08:33Z</time>
      </trkpt>
      <trkpt lat="47.31781" lon="0.08367">
        <ele>68</ele>
        <time>2008-10-12T08:08:36Z</time>
      </trkpt>
      <trkpt lat="47.31769" lon="0.08371">
        <ele>68</ele>
        <time>2008-10-12T08:08:39Z</time>
      </trkpt>
      <trkpt lat="47.31758" lon="0.08374">
        <ele>73</ele>
        <time>2008-10-12T08:08:42Z</time>
      </trkpt>
      <trkpt lat="47.31749" lon="0.08378">
        <ele>73</ele>
        <time>2008-10-12T08:08:45Z</time>
      </trkpt>
      <trkpt lat="47.31739" lon="0.08383">
        <ele>73</ele>
        <time>2008-10-12T08:08:48Z</time>
      </trkpt>
      <trkpt lat="47.31726" lon="0.08388">
        <ele>73</ele>
        <time>2008-10-12T08:08:52Z</time>
      </trkpt>
      <trkpt lat="47.31716" lon="0.08396">
        <ele>73</ele>
        <time>2008-10-12T08:08:55Z</time>
      </trkpt>
      <trkpt lat="47.31705" lon="0.08401">
        <ele>73</ele>
        <time>2008-10-12T08:08:58Z</time>
      </trkpt>
      <trkpt lat="47.31695" lon="0.08404">
        <ele>73</ele>
        <time>2008-10-12T08:09:01Z</time>
      </trkpt>
      <trkpt lat="47.31684" lon="0.08407">
        <ele>73</ele>
        <time>2008-10-12T08:09:04Z</time>
      </trkpt>
      <trkpt lat="47.31672" lon="0.08411">
        <ele>73</ele>
        <time>2008-10-12T08:09:07Z</time>
      </trkpt>
      <trkpt lat="47.3166" lon="0.08414">
        <ele>73</ele>
        <time>2008-10-12T08:09:10Z</time>
      </trkpt>
      <trkpt lat="47.3165" lon="0.0842">
        <ele>73</ele>
        <time>2008-10-12T08:09:13Z</time>
      </trkpt>
      <trkpt lat="47.31641" lon="0.08422">
        <ele>73</ele>
        <time>2008-10-12T08:09:16Z</time>
      </trkpt>
      <trkpt lat="47.3163" lon="0.08424">
        <ele>73</ele>
        <time>2008-10-12T08:09:19Z</time>
      </trkpt>
      <trkpt lat="47.3162" lon="0.08425">
        <ele>73</ele>
        <time>2008-10-12T08:09:21Z</time>
      </trkpt>
      <trkpt lat="47.31611" lon="0.08427">
        <ele>78</ele>
        <time>2008-10-12T08:09:23Z</time>
      </trkpt>
      <trkpt lat="47.31601" lon="0.08432">
        <ele>78</ele>
        <time>2008-10-12T08:09:26Z</time>
      </trkpt>
      <trkpt lat="47.3159" lon="0.08432">
        <ele>78</ele>
        <time>2008-10-12T08:09:29Z</time>
      </trkpt>
      <trkpt lat="47.31579" lon="0.08433">
        <ele>78</ele>
        <time>2008-10-12T08:09:32Z</time>
      </trkpt>
      <trkpt lat="47.31567" lon="0.08436">
        <ele>78</ele>
        <time>2008-10-12T08:09:35Z</time>
      </trkpt>
      <trkpt lat="47.31549" lon="0.08436">
        <ele>78</ele>
        <time>2008-10-12T08:09:39Z</time>
      </trkpt>
      <trkpt lat="47.31535" lon="0.08436">
        <ele>78</ele>
        <time>2008-10-12T08:09:42Z</time>
      </trkpt>
      <trkpt lat="47.31526" lon="0.08441">
        <ele>78</ele>
        <time>2008-10-12T08:09:44Z</time>
      </trkpt>
      <trkpt lat="47.31517" lon="0.08444">
        <ele>78</ele>
        <time>2008-10-12T08:09:46Z</time>
      </trkpt>
      <trkpt lat="47.31506" lon="0.08446">
        <ele>85</ele>
        <time>2008-10-12T08:09:49Z</time>
      </trkpt>
      <trkpt lat="47.31497" lon="0.08451">
        <ele>85</ele>
        <time>2008-10-12T08:09:51Z</time>
      </trkpt>
      <trkpt lat="47.31485" lon="0.08456">
        <ele>85</ele>
        <time>2008-10-12T08:09:54Z</time>
      </trkpt>
      <trkpt lat="47.31476" lon="0.08459">
        <ele>85</ele>
        <time>2008-10-12T08:09:56Z</time>
      </trkpt>
      <trkpt lat="47.31465" lon="0.08467">
        <ele>85</ele>
        <time>2008-10-12T08:09:59Z</time>
      </trkpt>
      <trkpt lat="47.31452" lon="0.08475">
        <ele>85</ele>
        <time>2008-10-12T08:10:02Z</time>
      </trkpt>
      <trkpt lat="47.3144" lon="0.0848">
        <ele>85</ele>
        <time>2008-10-12T08:10:05Z</time>
      </trkpt>
      <trkpt lat="47.31426" lon="0.08485">
        <ele>85</ele>
        <time>2008-10-12T08:10:08Z</time>
      </trkpt>
      <trkpt lat="47.31414" lon="0.08494">
        <ele>85</ele>
        <time>2008-10-12T08:10:11Z</time>
      </trkpt>
      <trkpt lat="47.31404" lon="0.085">
        <ele>85</ele>
        <time>2008-10-12T08:10:13Z</time>
      </trkpt>
      <trkpt lat="47.31393" lon="0.0851">
        <ele>85</ele>
        <time>2008-10-12T08:10:16Z</time>
      </trkpt>
      <trkpt lat="47.31384" lon="0.08518">
        <ele>85</ele>
        <time>2008-10-12T08:10:18Z</time>
      </trkpt>
      <trkpt lat="47.31375" lon="0.08526">
        <ele>85</ele>
        <time>2008-10-12T08:10:20Z</time>
      </trkpt>
      <trkpt lat="47.31365" lon="0.08534">
        <ele>85</ele>
        <time>2008-10-12T08:10:22Z</time>
      </trkpt>
      <trkpt lat="47.31356" lon="0.08543">
        <ele>85</ele>
        <time>2008-10-12T08:10:24Z</time>
      </trkpt>
      <trkpt lat="47.31347" lon="0.08551">
        <ele>85</ele>
        <time>2008-10-12T08:10:26Z</time>
      </trkpt>
      <trkpt lat="47.31337" lon="0.08559">
        <ele>85</ele>
        <time>2008-10-12T08:10:28Z</time>
      </trkpt>
      <trkpt lat="47.31327" lon="0.08568">
        <ele>85</ele>
        <time>2008-10-12T08:10:30Z</time>
      </trkpt>
      <trkpt lat="47.31317" lon="0.08576">
        <ele>85</ele>
        <time>2008-10-12T08:10:32Z</time>
      </trkpt>
      <trkpt lat="47.31309" lon="0.08585">
        <ele>85</ele>
        <time>2008-10-12T08:10:34Z</time>
      </trkpt>
      <trkpt lat="47.31301" lon="0.08594">
        <ele>85</ele>
        <time>2008-10-12T08:10:36Z</time>
      </trkpt>
      <trkpt lat="47.31292" lon="0.08601">
        <ele>85</ele>
        <time>2008-10-12T08:10:38Z</time>
      </trkpt>
      <trkpt lat="47.31283" lon="0.0861">
        <ele>80</ele>
        <time>2008-10-12T08:10:40Z</time>
      </trkpt>
      <trkpt lat="47.31275" lon="0.08619">
        <ele>80</ele>
        <time>2008-10-12T08:10:42Z</time>
      </trkpt>
      <trkpt lat="47.31267" lon="0.0863">
        <ele>80</ele>
        <time>2008-10-12T08:10:44Z</time>
      </trkpt>
      <trkpt lat="47.31259" lon="0.0864">
        <ele>80</ele>
        <time>2008-10-12T08:10:46Z</time>
      </trkpt>
      <trkpt lat="47.31252" lon="0.08651">
        <ele>80</ele>
        <time>2008-10-12T08:10:48Z</time>
      </trkpt>
      <trkpt lat="47.31244" lon="0.08662">
        <ele>80</ele>
        <time>2008-10-12T08:10:50Z</time>
      </trkpt>
      <trkpt lat="47.31235" lon="0.08672">
        <ele>80</ele>
        <time>2008-10-12T08:10:52Z</time>
      </trkpt>
      <trkpt lat="47.31226" lon="0.08684">
        <ele>80</ele>
        <time>2008-10-12T08:10:54Z</time>
      </trkpt>
      <trkpt lat="47.31218" lon="0.08694">
        <ele>80</ele>
        <time>2008-10-12T08:10:56Z</time>
      </trkpt>
      <trkpt lat="47.31209" lon="0.08703">
        <ele>80</ele>
        <time>2008-10-12T08:10:58Z</time>
      </trkpt>
      <trkpt lat="47.312" lon="0.08711">
        <ele>80</ele>
        <time>2008-10-12T08:11:00Z</time>
      </trkpt>
      <trkpt lat="47.31191" lon="0.0872">
        <ele>80</ele>
        <time>2008-10-12T08:11:02Z</time>
      </trkpt>
      <trkpt lat="47.3118" lon="0.08731">
        <ele>80</ele>
        <time>2008-10-12T08:11:04Z</time>
      </trkpt>
      <trkpt lat="47.3117" lon="0.08741">
        <ele>80</ele>
        <time>2008-10-12T08:11:06Z</time>
      </trkpt>
      <trkpt lat="47.31161" lon="0.08752">
        <ele>80</ele>
        <time>2008-10-12T08:11:08Z</time>
      </trkpt>
      <trkpt lat="47.31153" lon="0.08766">
        <ele>75</ele>
        <time>2008-10-12T08:11:10Z</time>
      </trkpt>
      <trkpt lat="47.31146" lon="0.08781">
        <ele>75</ele>
        <time>2008-10-12T08:11:12Z</time>
      </trkpt>
      <trkpt lat="47.31138" lon="0.08795">
        <ele>75</ele>
        <time>2008-10-12T08:11:14Z</time>
      </trkpt>
      <trkpt lat="47.3113" lon="0.08808">
        <ele>75</ele>
        <time>2008-10-12T08:11:16Z</time>
      </trkpt>
      <trkpt lat="47.31121" lon="0.0882">
        <ele>75</ele>
        <time>2008-10-12T08:11:18Z</time>
      </trkpt>
      <trkpt lat="47.31112" lon="0.08832">
        <ele>75</ele>
        <time>2008-10-12T08:11:20Z</time>
      </trkpt>
      <trkpt lat="47.31103" lon="0.08846">
        <ele>75</ele>
        <time>2008-10-12T08:11:22Z</time>
      </trkpt>
      <trkpt lat="47.31095" lon="0.08859">
        <ele>69</ele>
        <time>2008-10-12T08:11:24Z</time>
      </trkpt>
      <trkpt lat="47.31086" lon="0.08874">
        <ele>69</ele>
        <time>2008-10-12T08:11:26Z</time>
      </trkpt>
      <trkpt lat="47.31077" lon="0.08888">
        <ele>69</ele>
        <time>2008-10-12T08:11:28Z</time>
      </trkpt>
      <trkpt lat="47.31068" lon="0.08903">
        <ele>69</ele>
        <time>2008-10-12T08:11:30Z</time>
      </trkpt>
      <trkpt lat="47.31061" lon="0.0892">
        <ele>69</ele>
        <time>2008-10-12T08:11:32Z</time>
      </trkpt>
      <trkpt lat="47.31056" lon="0.08939">
        <ele>69</ele>
        <time>2008-10-12T08:11:34Z</time>
      </trkpt>
      <trkpt lat="47.31049" lon="0.08956">
        <ele>69</ele>
        <time>2008-10-12T08:11:36Z</time>
      </trkpt>
      <trkpt lat="47.31039" lon="0.08969">
        <ele>69</ele>
        <time>2008-10-12T08:11:38Z</time>
      </trkpt>
      <trkpt lat="47.31027" lon="0.08979">
        <ele>69</ele>
        <time>2008-10-12T08:11:40Z</time>
      </trkpt>
      <trkpt lat="47.31013" lon="0.08988">
        <ele>69</ele>
        <time>2008-10-12T08:11:42Z</time>
      </trkpt>
      <trkpt lat="47.31" lon="0.08997">
        <ele>69</ele>
        <time>2008-10-12T08:11:44Z</time>
      </trkpt>
      <trkpt lat="47.30986" lon="0.09006">
        <ele>69</ele>
        <time>2008-10-12T08:11:46Z</time>
      </trkpt>
      <trkpt lat="47.30975" lon="0.09016">
        <ele>69</ele>
        <time>2008-10-12T08:11:48Z</time>
      </trkpt>
      <trkpt lat="47.30961" lon="0.09026">
        <ele>63</ele>
        <time>2008-10-12T08:11:50Z</time>
      </trkpt>
      <trkpt lat="47.30948" lon="0.09035">
        <ele>63</ele>
        <time>2008-10-12T08:11:52Z</time>
      </trkpt>
      <trkpt lat="47.30934" lon="0.09043">
        <ele>63</ele>
        <time>2008-10-12T08:11:54Z</time>
      </trkpt>
      <trkpt lat="47.30919" lon="0.09053">
        <ele>63</ele>
        <time>2008-10-12T08:11:56Z</time>
      </trkpt>
      <trkpt lat="47.30904" lon="0.09064">
        <ele>63</ele>
        <time>2008-10-12T08:11:58Z</time>
      </trkpt>
      <trkpt lat="47.3089" lon="0.09075">
        <ele>58</ele>
        <time>2008-10-12T08:12:00Z</time>
      </trkpt>
      <trkpt lat="47.30875" lon="0.09086">
        <ele>58</ele>
        <time>2008-10-12T08:12:02Z</time>
      </trkpt>
      <trkpt lat="47.3086" lon="0.09095">
        <ele>58</ele>
        <time>2008-10-12T08:12:04Z</time>
      </trkpt>
      <trkpt lat="47.30846" lon="0.09104">
        <ele>58</ele>
        <time>2008-10-12T08:12:06Z</time>
      </trkpt>
      <trkpt lat="47.30836" lon="0.09112">
        <ele>52</ele>
        <time>2008-10-12T08:12:08Z</time>
      </trkpt>
      <trkpt lat="47.30827" lon="0.09121">
        <ele>52</ele>
        <time>2008-10-12T08:12:12Z</time>
      </trkpt>
      <trkpt lat="47.3083" lon="0.09138">
        <ele>52</ele>
        <time>2008-10-12T08:12:15Z</time>
      </trkpt>
      <trkpt lat="47.30833" lon="0.09151">
        <ele>52</ele>
        <time>2008-10-12T08:12:17Z</time>
      </trkpt>
      <trkpt lat="47.30835" lon="0.09166">
        <ele>52</ele>
        <time>2008-10-12T08:12:19Z</time>
      </trkpt>
      <trkpt lat="47.30838" lon="0.09181">
        <ele>52</ele>
        <time>2008-10-12T08:12:21Z</time>
      </trkpt>
      <trkpt lat="47.30841" lon="0.09198">
        <ele>52</ele>
        <time>2008-10-12T08:12:23Z</time>
      </trkpt>
      <trkpt lat="47.30844" lon="0.09215">
        <ele>52</ele>
        <time>2008-10-12T08:12:25Z</time>
      </trkpt>
      <trkpt lat="47.30846" lon="0.09233">
        <ele>52</ele>
        <time>2008-10-12T08:12:27Z</time>
      </trkpt>
      <trkpt lat="47.30848" lon="0.0925">
        <ele>52</ele>
        <time>2008-10-12T08:12:29Z</time>
      </trkpt>
      <trkpt lat="47.30851" lon="0.09268">
        <ele>52</ele>
        <time>2008-10-12T08:12:31Z</time>
      </trkpt>
      <trkpt lat="47.30853" lon="0.09285">
        <ele>52</ele>
        <time>2008-10-12T08:12:33Z</time>
      </trkpt>
      <trkpt lat="47.30856" lon="0.09302">
        <ele>52</ele>
        <time>2008-10-12T08:12:35Z</time>
      </trkpt>
      <trkpt lat="47.30859" lon="0.09319">
        <ele>52</ele>
        <time>2008-10-12T08:12:37Z</time>
      </trkpt>
      <trkpt lat="47.30862" lon="0.09335">
        <ele>47</ele>
        <time>2008-10-12T08:12:39Z</time>
      </trkpt>
      <trkpt lat="47.30865" lon="0.09351">
        <ele>47</ele>
        <time>2008-10-12T08:12:41Z</time>
      </trkpt>
      <trkpt lat="47.30868" lon="0.09367">
        <ele>47</ele>
        <time>2008-10-12T08:12:43Z</time>
      </trkpt>
      <trkpt lat="47.30871" lon="0.09383">
        <ele>47</ele>
        <time>2008-10-12T08:12:45Z</time>
      </trkpt>
      <trkpt lat="47.30875" lon="0.094">
        <ele>47</ele>
        <time>2008-10-12T08:12:47Z</time>
      </trkpt>
      <trkpt lat="47.30879" lon="0.09416">
        <ele>47</ele>
        <time>2008-10-12T08:12:49Z</time>
      </trkpt>
      <trkpt lat="47.30882" lon="0.09432">
        <ele>47</ele>
        <time>2008-10-12T08:12:51Z</time>
      </trkpt>
      <trkpt lat="47.30885" lon="0.09449">
        <ele>47</ele>
        <time>2008-10-12T08:12:53Z</time>
      </trkpt>
      <trkpt lat="47.30888" lon="0.09465">
        <ele>47</ele>
        <time>2008-10-12T08:12:55Z</time>
      </trkpt>
      <trkpt lat="47.30892" lon="0.09479">
        <ele>47</ele>
        <time>2008-10-12T08:12:57Z</time>
      </trkpt>
      <trkpt lat="47.30895" lon="0.09493">
        <ele>47</ele>
        <time>2008-10-12T08:12:59Z</time>
      </trkpt>
      <trkpt lat="47.30898" lon="0.09508">
        <ele>47</ele>
        <time>2008-10-12T08:13:01Z</time>
      </trkpt>
      <trkpt lat="47.309" lon="0.09521">
        <ele>47</ele>
        <time>2008-10-12T08:13:03Z</time>
      </trkpt>
      <trkpt lat="47.30903" lon="0.09534">
        <ele>47</ele>
        <time>2008-10-12T08:13:05Z</time>
      </trkpt>
      <trkpt lat="47.30908" lon="0.09552">
        <ele>47</ele>
        <time>2008-10-12T08:13:08Z</time>
      </trkpt>
      <trkpt lat="47.30911" lon="0.09565">
        <ele>47</ele>
        <time>2008-10-12T08:13:10Z</time>
      </trkpt>
      <trkpt lat="47.30913" lon="0.09579">
        <ele>47</ele>
        <time>2008-10-12T08:13:12Z</time>
      </trkpt>
      <trkpt lat="47.30915" lon="0.09591">
        <ele>47</ele>
        <time>2008-10-12T08:13:14Z</time>
      </trkpt>
      <trkpt lat="47.30918" lon="0.09605">
        <ele>47</ele>
        <time>2008-10-12T08:13:16Z</time>
      </trkpt>
      <trkpt lat="47.3092" lon="0.09618">
        <ele>47</ele>
        <time>2008-10-12T08:13:18Z</time>
      </trkpt>
      <trkpt lat="47.30923" lon="0.09632">
        <ele>47</ele>
        <time>2008-10-12T08:13:20Z</time>
      </trkpt>
      <trkpt lat="47.30926" lon="0.09644">
        <ele>47</ele>
        <time>2008-10-12T08:13:22Z</time>
      </trkpt>
      <trkpt lat="47.30929" lon="0.09658">
        <ele>47</ele>
        <time>2008-10-12T08:13:24Z</time>
      </trkpt>
      <trkpt lat="47.30931" lon="0.0967">
        <ele>47</ele>
        <time>2008-10-12T08:13:26Z</time>
      </trkpt>
      <trkpt lat="47.30936" lon="0.09688">
        <ele>47</ele>
        <time>2008-10-12T08:13:29Z</time>
      </trkpt>
      <trkpt lat="47.30939" lon="0.09708">
        <ele>47</ele>
        <time>2008-10-12T08:13:32Z</time>
      </trkpt>
      <trkpt lat="47.30942" lon="0.09726">
        <ele>47</ele>
        <time>2008-10-12T08:13:35Z</time>
      </trkpt>
      <trkpt lat="47.30947" lon="0.09741">
        <ele>47</ele>
        <time>2008-10-12T08:13:38Z</time>
      </trkpt>
      <trkpt lat="47.30949" lon="0.0975">
        <ele>55</ele>
        <time>2014-09-14T11:44:42Z</time>
      </trkpt>
      <trkpt lat="47.30943" lon="0.09762">
        <ele>57</ele>
        <time>2014-09-14T11:44:46Z</time>
      </trkpt>
      <trkpt lat="47.30942" lon="0.09765">
        <ele>57</ele>
        <time>2014-09-14T11:44:47Z</time>
      </trkpt>
      <trkpt lat="47.30939" lon="0.09769">
        <ele>57</ele>
        <time>2014-09-14T11:44:49Z</time>
      </trkpt>
      <trkpt lat="47.30934" lon="0.09777">
        <ele>57</ele>
        <time>2014-09-14T11:44:52Z</time>
      </trkpt>
      <trkpt lat="47.30933" lon="0.09779">
        <ele>57</ele>
        <time>2014-09-14T11:44:53Z</time>
      </trkpt>
      <trkpt lat="47.30932" lon="0.09782">
        <ele>58</ele>
        <time>2014-09-14T11:44:54Z</time>
      </trkpt>
      <trkpt lat="47.30931" lon="0.09784">
        <ele>59</ele>
        <time>2014-09-14T11:44:55Z</time>
      </trkpt>
      <trkpt lat="47.30929" lon="0.09789">
        <ele>59</ele>
        <time>2014-09-14T11:44:57Z</time>
      </trkpt>
      <trkpt lat="47.30928" lon="0.09791">
        <ele>60</ele>
        <time>2014-09-14T11:44:58Z</time>
      </trkpt>
      <trkpt lat="47.30926" lon="0.09794">
        <ele>60</ele>
        <time>2014-09-14T11:44:59Z</time>
      </trkpt>
      <trkpt lat="47.30925" lon="0.09796">
        <ele>60</ele>
        <time>2014-09-14T11:45:00Z</time>
      </trkpt>
      <trkpt lat="47.30924" lon="0.09798">
        <ele>61</ele>
        <time>2014-09-14T11:45:01Z</time>
      </trkpt>
      <trkpt lat="47.30922" lon="0.09803">
        <ele>61</ele>
        <time>2014-09-14T11:45:03Z</time>
      </trkpt>
      <trkpt lat="47.3092" lon="0.09808">
        <ele>61</ele>
        <time>2014-09-14T11:45:05Z</time>
      </trkpt>
      <trkpt lat="47.30919" lon="0.0981">
        <ele>62</ele>
        <time>2014-09-14T11:45:06Z</time>
      </trkpt>
      <trkpt lat="47.30918" lon="0.09813">
        <ele>62</ele>
        <time>2014-09-14T11:45:07Z</time>
      </trkpt>
      <trkpt lat="47.30918" lon="0.09815">
        <ele>63</ele>
        <time>2014-09-14T11:45:08Z</time>
      </trkpt>
      <trkpt lat="47.30917" lon="0.09817">
        <ele>63</ele>
        <time>2014-09-14T11:45:09Z</time>
      </trkpt>
      <trkpt lat="47.30916" lon="0.09819">
        <ele>63</ele>
        <time>2014-09-14T11:45:10Z</time>
      </trkpt>
      <trkpt lat="47.30913" lon="0.09826">
        <ele>63</ele>
        <time>2014-09-14T11:45:13Z</time>
      </trkpt>
      <trkpt lat="47.3091" lon="0.09831">
        <ele>64</ele>
        <time>2014-09-14T11:45:15Z</time>
      </trkpt>
      <trkpt lat="47.30909" lon="0.09833">
        <ele>64</ele>
        <time>2014-09-14T11:45:16Z</time>
      </trkpt>
      <trkpt lat="47.30908" lon="0.09835">
        <ele>64</ele>
        <time>2014-09-14T11:45:17Z</time>
      </trkpt>
      <trkpt lat="47.30907" lon="0.09837">
        <ele>65</ele>
        <time>2014-09-14T11:45:18Z</time>
      </trkpt>
      <trkpt lat="47.30906" lon="0.09838">
        <ele>65</ele>
        <time>2014-09-14T11:45:19Z</time>
      </trkpt>
      <trkpt lat="47.30901" lon="0.09848">
        <ele>65</ele>
        <time>2014-09-14T11:45:23Z</time>
      </trkpt>
      <trkpt lat="47.30899" lon="0.09854">
        <ele>66</ele>
        <time>2014-09-14T11:45:25Z</time>
      </trkpt>
      <trkpt lat="47.30897" lon="0.09857">
        <ele>66</ele>
        <time>2014-09-14T11:45:26Z</time>
      </trkpt>
      <trkpt lat="47.30896" lon="0.0986">
        <ele>66</ele>
        <time>2014-09-14T11:45:27Z</time>
      </trkpt>
      <trkpt lat="47.30895" lon="0.09863">
        <ele>67</ele>
        <time>2014-09-14T11:45:28Z</time>
      </trkpt>
      <trkpt lat="47.30895" lon="0.09866">
        <ele>67</ele>
        <time>2014-09-14T11:45:29Z</time>
      </trkpt>
      <trkpt lat="47.30893" lon="0.09869">
        <ele>67</ele>
        <time>2014-09-14T11:45:30Z</time>
      </trkpt>
      <trkpt lat="47.30885" lon="0.09891">
        <ele>68</ele>
        <time>2014-09-14T11:45:37Z</time>
      </trkpt>
      <trkpt lat="47.30884" lon="0.09894">
        <ele>68</ele>
        <time>2014-09-14T11:45:38Z</time>
      </trkpt>
      <trkpt lat="47.30883" lon="0.09897">
        <ele>69</ele>
        <time>2014-09-14T11:45:39Z</time>
      </trkpt>
      <trkpt lat="47.30882" lon="0.099">
        <ele>69</ele>
        <time>2014-09-14T11:45:40Z</time>
      </trkpt>
      <trkpt lat="47.30881" lon="0.09903">
        <ele>69</ele>
        <time>2014-09-14T11:45:41Z</time>
      </trkpt>
      <trkpt lat="47.30876" lon="0.09915">
        <ele>69</ele>
        <time>2014-09-14T11:45:45Z</time>
      </trkpt>
      <trkpt lat="47.30875" lon="0.09922">
        <ele>70</ele>
        <time>2014-09-14T11:45:47Z</time>
      </trkpt>
      <trkpt lat="47.30874" lon="0.09925">
        <ele>70</ele>
        <time>2014-09-14T11:45:48Z</time>
      </trkpt>
      <trkpt lat="47.30873" lon="0.09927">
        <ele>71</ele>
        <time>2014-09-14T11:45:49Z</time>
      </trkpt>
      <trkpt lat="47.3087" lon="0.09928">
        <ele>71</ele>
        <time>2014-09-14T11:45:50Z</time>
      </trkpt>
      <trkpt lat="47.30867" lon="0.09927">
        <ele>71</ele>
        <time>2014-09-14T11:45:51Z</time>
      </trkpt>
      <trkpt lat="47.30852" lon="0.09915">
        <ele>71</ele>
        <time>2014-09-14T11:45:56Z</time>
      </trkpt>
      <trkpt lat="47.30835" lon="0.09904">
        <ele>71</ele>
        <time>2014-09-14T11:46:01Z</time>
      </trkpt>
      <trkpt lat="47.30822" lon="0.09895">
        <ele>71</ele>
        <time>2014-09-14T11:46:04Z</time>
      </trkpt>
      <trkpt lat="47.30817" lon="0.09891">
        <ele>71</ele>
        <time>2014-09-14T11:46:05Z</time>
      </trkpt>
      <trkpt lat="47.30812" lon="0.09887">
        <ele>71</ele>
        <time>2014-09-14T11:46:06Z</time>
      </trkpt>
      <trkpt lat="47.30808" lon="0.09887">
        <ele>71</ele>
        <time>2014-09-14T11:46:07Z</time>
      </trkpt>
      <trkpt lat="47.30804" lon="0.09888">
        <ele>70</ele>
        <time>2014-09-14T11:46:08Z</time>
      </trkpt>
      <trkpt lat="47.30802" lon="0.0989">
        <ele>70</ele>
        <time>2014-09-14T11:46:09Z</time>
      </trkpt>
      <trkpt lat="47.30801" lon="0.09894">
        <ele>69</ele>
        <time>2014-09-14T11:46:10Z</time>
      </trkpt>
      <trkpt lat="47.308" lon="0.09897">
        <ele>69</ele>
        <time>2014-09-14T11:46:11Z</time>
      </trkpt>
      <trkpt lat="47.30799" lon="0.09901">
        <ele>69</ele>
        <time>2014-09-14T11:46:12Z</time>
      </trkpt>
      <trkpt lat="47.30795" lon="0.09912">
        <ele>70</ele>
        <time>2014-09-14T11:46:16Z</time>
      </trkpt>
      <trkpt lat="47.30794" lon="0.09914">
        <ele>70</ele>
        <time>2014-09-14T11:46:17Z</time>
      </trkpt>
      <trkpt lat="47.30793" lon="0.09918">
        <ele>71</ele>
        <time>2014-09-14T11:46:18Z</time>
      </trkpt>
      <trkpt lat="47.30792" lon="0.09921">
        <ele>71</ele>
        <time>2014-09-14T11:46:19Z</time>
      </trkpt>
      <trkpt lat="47.30791" lon="0.09924">
        <ele>72</ele>
        <time>2014-09-14T11:46:20Z</time>
      </trkpt>
      <trkpt lat="47.3079" lon="0.09927">
        <ele>72</ele>
        <time>2014-09-14T11:46:21Z</time>
      </trkpt>
      <trkpt lat="47.30789" lon="0.0993">
        <ele>72</ele>
        <time>2014-09-14T11:46:22Z</time>
      </trkpt>
      <trkpt lat="47.30783" lon="0.09948">
        <ele>72</ele>
        <time>2014-09-14T11:46:28Z</time>
      </trkpt>
      <trkpt lat="47.30783" lon="0.09951">
        <ele>72</ele>
        <time>2014-09-14T11:46:29Z</time>
      </trkpt>
      <trkpt lat="47.30782" lon="0.09954">
        <ele>73</ele>
        <time>2014-09-14T11:46:30Z</time>
      </trkpt>
      <trkpt lat="47.3078" lon="0.09956">
        <ele>73</ele>
        <time>2014-09-14T11:46:31Z</time>
      </trkpt>
      <trkpt lat="47.30779" lon="0.09959">
        <ele>74</ele>
        <time>2014-09-14T11:46:32Z</time>
      </trkpt>
      <trkpt lat="47.30778" lon="0.09961">
        <ele>74</ele>
        <time>2014-09-14T11:46:33Z</time>
      </trkpt>
      <trkpt lat="47.30775" lon="0.09971">
        <ele>74</ele>
        <time>2014-09-14T11:46:37Z</time>
      </trkpt>
      <trkpt lat="47.30774" lon="0.09973">
        <ele>75</ele>
        <time>2014-09-14T11:46:38Z</time>
      </trkpt>
      <trkpt lat="47.30773" lon="0.09975">
        <ele>75</ele>
        <time>2014-09-14T11:46:39Z</time>
      </trkpt>
      <trkpt lat="47.30773" lon="0.09977">
        <ele>75</ele>
        <time>2014-09-14T11:46:40Z</time>
      </trkpt>
      <trkpt lat="47.30773" lon="0.09979">
        <ele>76</ele>
        <time>2014-09-14T11:46:41Z</time>
      </trkpt>
      <trkpt lat="47.30767" lon="0.09993">
        <ele>76</ele>
        <time>2014-09-14T11:46:46Z</time>
      </trkpt>
      <trkpt lat="47.30766" lon="0.09995">
        <ele>76</ele>
        <time>2014-09-14T11:46:47Z</time>
      </trkpt>
      <trkpt lat="47.30765" lon="0.09998">
        <ele>77</ele>
        <time>2014-09-14T11:46:48Z</time>
      </trkpt>
      <trkpt lat="47.30764" lon="0.1">
        <ele>77</ele>
        <time>2014-09-14T11:46:49Z</time>
      </trkpt>
      <trkpt lat="47.30763" lon="0.10002">
        <ele>77</ele>
        <time>2014-09-14T11:46:50Z</time>
      </trkpt>
      <trkpt lat="47.30762" lon="0.10004">
        <ele>78</ele>
        <time>2014-09-14T11:46:51Z</time>
      </trkpt>
      <trkpt lat="47.30758" lon="0.10013">
        <ele>78</ele>
        <time>2014-09-14T11:46:54Z</time>
      </trkpt>
      <trkpt lat="47.30754" lon="0.1002">
        <ele>78</ele>
        <time>2014-09-14T11:46:56Z</time>
      </trkpt>
      <trkpt lat="47.30753" lon="0.10023">
        <ele>79</ele>
        <time>2014-09-14T11:46:57Z</time>
      </trkpt>
      <trkpt lat="47.30752" lon="0.10026">
        <ele>80</ele>
        <time>2014-09-14T11:46:58Z</time>
      </trkpt>
      <trkpt lat="47.30751" lon="0.10029">
        <ele>80</ele>
        <time>2014-09-14T11:46:59Z</time>
      </trkpt>
      <trkpt lat="47.3075" lon="0.10032">
        <ele>80</ele>
        <time>2014-09-14T11:47:00Z</time>
      </trkpt>
      <trkpt lat="47.30747" lon="0.10037">
        <ele>81</ele>
        <time>2014-09-14T11:47:02Z</time>
      </trkpt>
      <trkpt lat="47.30745" lon="0.1004">
        <ele>81</ele>
        <time>2014-09-14T11:47:03Z</time>
      </trkpt>
      <trkpt lat="47.30744" lon="0.10042">
        <ele>81</ele>
        <time>2014-09-14T11:47:04Z</time>
      </trkpt>
      <trkpt lat="47.30743" lon="0.10045">
        <ele>82</ele>
        <time>2014-09-14T11:47:05Z</time>
      </trkpt>
      <trkpt lat="47.30742" lon="0.10047">
        <ele>82</ele>
        <time>2014-09-14T11:47:06Z</time>
      </trkpt>
      <trkpt lat="47.30736" lon="0.10058">
        <ele>83</ele>
        <time>2014-09-14T11:47:11Z</time>
      </trkpt>
      <trkpt lat="47.30733" lon="0.10061">
        <ele>83</ele>
        <time>2014-09-14T11:47:12Z</time>
      </trkpt>
      <trkpt lat="47.3073" lon="0.10064">
        <ele>84</ele>
        <time>2014-09-14T11:47:13Z</time>
      </trkpt>
      <trkpt lat="47.30728" lon="0.10067">
        <ele>84</ele>
        <time>2014-09-14T11:47:14Z</time>
      </trkpt>
      <trkpt lat="47.30726" lon="0.10069">
        <ele>84</ele>
        <time>2014-09-14T11:47:15Z</time>
      </trkpt>
      <trkpt lat="47.3072" lon="0.10077">
        <ele>84</ele>
        <time>2014-09-14T11:47:18Z</time>
      </trkpt>
      <trkpt lat="47.30714" lon="0.10084">
        <ele>85</ele>
        <time>2014-09-14T11:47:21Z</time>
      </trkpt>
      <trkpt lat="47.30713" lon="0.10087">
        <ele>86</ele>
        <time>2014-09-14T11:47:22Z</time>
      </trkpt>
      <trkpt lat="47.30711" lon="0.10089">
        <ele>86</ele>
        <time>2014-09-14T11:47:23Z</time>
      </trkpt>
      <trkpt lat="47.30709" lon="0.10092">
        <ele>86</ele>
        <time>2014-09-14T11:47:24Z</time>
      </trkpt>
      <trkpt lat="47.30702" lon="0.10105">
        <ele>87</ele>
        <time>2014-09-14T11:47:30Z</time>
      </trkpt>
      <trkpt lat="47.307" lon="0.10109">
        <ele>87</ele>
        <time>2014-09-14T11:47:31Z</time>
      </trkpt>
      <trkpt lat="47.30698" lon="0.10111">
        <ele>88</ele>
        <time>2014-09-14T11:47:32Z</time>
      </trkpt>
      <trkpt lat="47.30696" lon="0.10113">
        <ele>88</ele>
        <time>2014-09-14T11:47:33Z</time>
      </trkpt>
      <trkpt lat="47.30695" lon="0.10114">
        <ele>89</ele>
        <time>2014-09-14T11:47:34Z</time>
      </trkpt>
      <trkpt lat="47.30691" lon="0.10118">
        <ele>89</ele>
        <time>2014-09-14T11:47:36Z</time>
      </trkpt>
      <trkpt lat="47.30684" lon="0.10126">
        <ele>89</ele>
        <time>2014-09-14T11:47:42Z</time>
      </trkpt>
      <trkpt lat="47.30683" lon="0.10127">
        <ele>89</ele>
        <time>2014-09-14T11:47:43Z</time>
      </trkpt>
      <trkpt lat="47.30681" lon="0.10129">
        <ele>89</ele>
        <time>2014-09-14T11:47:44Z</time>
      </trkpt>
      <trkpt lat="47.30679" lon="0.10131">
        <ele>90</ele>
        <time>2014-09-14T11:47:45Z</time>
      </trkpt>
      <trkpt lat="47.30676" lon="0.10133">
        <ele>90</ele>
        <time>2014-09-14T11:47:46Z</time>
      </trkpt>
      <trkpt lat="47.30675" lon="0.10135">
        <ele>91</ele>
        <time>2014-09-14T11:47:47Z</time>
      </trkpt>
      <trkpt lat="47.30674" lon="0.10137">
        <ele>91</ele>
        <time>2014-09-14T11:47:48Z</time>
      </trkpt>
      <trkpt lat="47.30672" lon="0.10138">
        <ele>91</ele>
        <time>2014-09-14T11:47:49Z</time>
      </trkpt>
      <trkpt lat="47.30664" lon="0.1014">
        <ele>91</ele>
        <time>2014-09-14T11:47:53Z</time>
      </trkpt>
      <trkpt lat="47.30662" lon="0.10142">
        <ele>92</ele>
        <time>2014-09-14T11:47:54Z</time>
      </trkpt>
      <trkpt lat="47.3066" lon="0.10143">
        <ele>92</ele>
        <time>2014-09-14T11:47:55Z</time>
      </trkpt>
      <trkpt lat="47.30658" lon="0.10144">
        <ele>92</ele>
        <time>2014-09-14T11:47:56Z</time>
      </trkpt>
      <trkpt lat="47.30656" lon="0.10145">
        <ele>93</ele>
        <time>2014-09-14T11:47:57Z</time>
      </trkpt>
      <trkpt lat="47.3065" lon="0.10149">
        <ele>93</ele>
        <time>2014-09-14T11:48:00Z</time>
      </trkpt>
      <trkpt lat="47.30647" lon="0.10151">
        <ele>93</ele>
        <time>2014-09-14T11:48:02Z</time>
      </trkpt>
      <trkpt lat="47.30645" lon="0.10152">
        <ele>94</ele>
        <time>2014-09-14T11:48:03Z</time>
      </trkpt>
      <trkpt lat="47.30644" lon="0.10153">
        <ele>94</ele>
        <time>2014-09-14T11:48:04Z</time>
      </trkpt>
      <trkpt lat="47.30642" lon="0.10153">
        <ele>94</ele>
        <time>2014-09-14T11:48:05Z</time>
      </trkpt>
      <trkpt lat="47.3064" lon="0.10153">
        <ele>95</ele>
        <time>2014-09-14T11:48:06Z</time>
      </trkpt>
      <trkpt lat="47.30622" lon="0.10167">
        <ele>95</ele>
        <time>2014-09-14T11:48:13Z</time>
      </trkpt>
      <trkpt lat="47.30602" lon="0.10187">
        <ele>95</ele>
        <time>2014-09-14T11:48:18Z</time>
      </trkpt>
      <trkpt lat="47.30592" lon="0.10193">
        <ele>95</ele>
        <time>2014-09-14T11:48:20Z</time>
      </trkpt>
      <trkpt lat="47.30582" lon="0.10202">
        <ele>95</ele>
        <time>2014-09-14T11:48:22Z</time>
      </trkpt>
      <trkpt lat="47.30568" lon="0.10217">
        <ele>95</ele>
        <time>2014-09-14T11:48:25Z</time>
      </trkpt>
      <trkpt lat="47.30557" lon="0.10236">
        <ele>95</ele>
        <time>2014-09-14T11:48:28Z</time>
      </trkpt>
      <trkpt lat="47.30553" lon="0.10244">
        <ele>95</ele>
        <time>2014-09-14T11:48:29Z</time>
      </trkpt>
      <trkpt lat="47.30538" lon="0.10274">
        <ele>95</ele>
        <time>2014-09-14T11:48:33Z</time>
      </trkpt>
      <trkpt lat="47.30523" lon="0.10298">
        <ele>95</ele>
        <time>2014-09-14T11:48:37Z</time>
      </trkpt>
      <trkpt lat="47.30515" lon="0.10311">
        <ele>95</ele>
        <time>2014-09-14T11:48:39Z</time>
      </trkpt>
      <trkpt lat="47.3051" lon="0.10325">
        <ele>94</ele>
        <time>2014-09-14T11:48:41Z</time>
      </trkpt>
      <trkpt lat="47.30507" lon="0.10331">
        <ele>94</ele>
        <time>2014-09-14T11:48:42Z</time>
      </trkpt>
      <trkpt lat="47.30504" lon="0.10338">
        <ele>94</ele>
        <time>2014-09-14T11:48:43Z</time>
      </trkpt>
      <trkpt lat="47.30502" lon="0.10345">
        <ele>93</ele>
        <time>2014-09-14T11:48:44Z</time>
      </trkpt>
      <trkpt lat="47.30498" lon="0.10352">
        <ele>93</ele>
        <time>2014-09-14T11:48:45Z</time>
      </trkpt>
      <trkpt lat="47.30487" lon="0.10366">
        <ele>93</ele>
        <time>2014-09-14T11:48:48Z</time>
      </trkpt>
      <trkpt lat="47.30467" lon="0.1039">
        <ele>92</ele>
        <time>2014-09-14T11:48:53Z</time>
      </trkpt>
      <trkpt lat="47.30462" lon="0.10393">
        <ele>92</ele>
        <time>2014-09-14T11:48:54Z</time>
      </trkpt>
      <trkpt lat="47.30458" lon="0.10397">
        <ele>91</ele>
        <time>2014-09-14T11:48:55Z</time>
      </trkpt>
      <trkpt lat="47.30453" lon="0.10398">
        <ele>91</ele>
        <time>2014-09-14T11:48:56Z</time>
      </trkpt>
      <trkpt lat="47.30448" lon="0.104">
        <ele>91</ele>
        <time>2014-09-14T11:48:57Z</time>
      </trkpt>
      <trkpt lat="47.30445" lon="0.10404">
        <ele>91</ele>
        <time>2014-09-14T11:48:58Z</time>
      </trkpt>
      <trkpt lat="47.30439" lon="0.10416">
        <ele>90</ele>
        <time>2014-09-14T11:49:00Z</time>
      </trkpt>
      <trkpt lat="47.30437" lon="0.10425">
        <ele>89</ele>
        <time>2014-09-14T11:49:01Z</time>
      </trkpt>
      <trkpt lat="47.30436" lon="0.10434">
        <ele>89</ele>
        <time>2014-09-14T11:49:02Z</time>
      </trkpt>
      <trkpt lat="47.30434" lon="0.10444">
        <ele>88</ele>
        <time>2014-09-14T11:49:03Z</time>
      </trkpt>
      <trkpt lat="47.30433" lon="0.10454">
        <ele>88</ele>
        <time>2014-09-14T11:49:04Z</time>
      </trkpt>
      <trkpt lat="47.30432" lon="0.10466">
        <ele>87</ele>
        <time>2014-09-14T11:49:05Z</time>
      </trkpt>
      <trkpt lat="47.3043" lon="0.10476">
        <ele>87</ele>
        <time>2014-09-14T11:49:06Z</time>
      </trkpt>
      <trkpt lat="47.30429" lon="0.10487">
        <ele>87</ele>
        <time>2014-09-14T11:49:07Z</time>
      </trkpt>
      <trkpt lat="47.30428" lon="0.105">
        <ele>86</ele>
        <time>2014-09-14T11:49:08Z</time>
      </trkpt>
      <trkpt lat="47.30427" lon="0.10511">
        <ele>86</ele>
        <time>2014-09-14T11:49:09Z</time>
      </trkpt>
      <trkpt lat="47.30425" lon="0.10523">
        <ele>85</ele>
        <time>2014-09-14T11:49:10Z</time>
      </trkpt>
      <trkpt lat="47.30424" lon="0.10534">
        <ele>85</ele>
        <time>2014-09-14T11:49:11Z</time>
      </trkpt>
      <trkpt lat="47.30423" lon="0.10545">
        <ele>84</ele>
        <time>2014-09-14T11:49:12Z</time>
      </trkpt>
      <trkpt lat="47.30421" lon="0.10557">
        <ele>84</ele>
        <time>2014-09-14T11:49:13Z</time>
      </trkpt>
      <trkpt lat="47.30418" lon="0.10569">
        <ele>84</ele>
        <time>2014-09-14T11:49:14Z</time>
      </trkpt>
      <trkpt lat="47.30416" lon="0.1058">
        <ele>83</ele>
        <time>2014-09-14T11:49:15Z</time>
      </trkpt>
      <trkpt lat="47.30414" lon="0.10592">
        <ele>83</ele>
        <time>2014-09-14T11:49:16Z</time>
      </trkpt>
      <trkpt lat="47.30411" lon="0.10603">
        <ele>82</ele>
        <time>2014-09-14T11:49:17Z</time>
      </trkpt>
      <trkpt lat="47.30406" lon="0.10612">
        <ele>82</ele>
        <time>2014-09-14T11:49:18Z</time>
      </trkpt>
      <trkpt lat="47.30401" lon="0.10621">
        <ele>82</ele>
        <time>2014-09-14T11:49:19Z</time>
      </trkpt>
      <trkpt lat="47.30377" lon="0.10656">
        <ele>82</ele>
        <time>2014-09-14T11:49:24Z</time>
      </trkpt>
      <trkpt lat="47.30369" lon="0.10671">
        <ele>82</ele>
        <time>2014-09-14T11:49:26Z</time>
      </trkpt>
      <trkpt lat="47.30363" lon="0.1069">
        <ele>82</ele>
        <time>2014-09-14T11:49:28Z</time>
      </trkpt>
      <trkpt lat="47.30361" lon="0.10699">
        <ele>82</ele>
        <time>2014-09-14T11:49:29Z</time>
      </trkpt>
      <trkpt lat="47.30357" lon="0.10727">
        <ele>82</ele>
        <time>2014-09-14T11:49:32Z</time>
      </trkpt>
      <trkpt lat="47.30351" lon="0.10757">
        <ele>82</ele>
        <time>2014-09-14T11:49:36Z</time>
      </trkpt>
      <trkpt lat="47.3035" lon="0.10764">
        <ele>82</ele>
        <time>2014-09-14T11:49:37Z</time>
      </trkpt>
      <trkpt lat="47.30348" lon="0.10782">
        <ele>82</ele>
        <time>2014-09-14T11:49:40Z</time>
      </trkpt>
      <trkpt lat="47.3035" lon="0.10798">
        <ele>82</ele>
        <time>2014-09-14T11:49:43Z</time>
      </trkpt>
      <trkpt lat="47.30355" lon="0.10805">
        <ele>82</ele>
        <time>2014-09-14T11:49:47Z</time>
      </trkpt>
      <trkpt lat="47.30357" lon="0.10807">
        <ele>82</ele>
        <time>2014-09-14T11:49:48Z</time>
      </trkpt>
      <trkpt lat="47.30362" lon="0.10809">
        <ele>82</ele>
        <time>2014-09-14T11:49:50Z</time>
      </trkpt>
      <trkpt lat="47.30364" lon="0.1081">
        <ele>83</ele>
        <time>2014-09-14T11:49:51Z</time>
      </trkpt>
      <trkpt lat="47.30366" lon="0.10811">
        <ele>84</ele>
        <time>2014-09-14T11:49:52Z</time>
      </trkpt>
      <trkpt lat="47.30368" lon="0.10812">
        <ele>84</ele>
        <time>2014-09-14T11:49:53Z</time>
      </trkpt>
      <trkpt lat="47.30377" lon="0.1082">
        <ele>84</ele>
        <time>2014-09-14T11:49:58Z</time>
      </trkpt>
      <trkpt lat="47.30381" lon="0.10823">
        <ele>84</ele>
        <time>2014-09-14T11:50:00Z</time>
      </trkpt>
      <trkpt lat="47.30383" lon="0.10825">
        <ele>85</ele>
        <time>2014-09-14T11:50:01Z</time>
      </trkpt>
      <trkpt lat="47.30384" lon="0.10826">
        <ele>85</ele>
        <time>2014-09-14T11:50:02Z</time>
      </trkpt>
      <trkpt lat="47.30386" lon="0.10828">
        <ele>86</ele>
        <time>2014-09-14T11:50:03Z</time>
      </trkpt>
      <trkpt lat="47.30388" lon="0.1083">
        <ele>86</ele>
        <time>2014-09-14T11:50:04Z</time>
      </trkpt>
      <trkpt lat="47.304" lon="0.10842">
        <ele>87</ele>
        <time>2014-09-14T11:50:10Z</time>
      </trkpt>
      <trkpt lat="47.30402" lon="0.10844">
        <ele>87</ele>
        <time>2014-09-14T11:50:11Z</time>
      </trkpt>
      <trkpt lat="47.30404" lon="0.10847">
        <ele>87</ele>
        <time>2014-09-14T11:50:12Z</time>
      </trkpt>
      <trkpt lat="47.30406" lon="0.10849">
        <ele>88</ele>
        <time>2014-09-14T11:50:13Z</time>
      </trkpt>
      <trkpt lat="47.30407" lon="0.10851">
        <ele>88</ele>
        <time>2014-09-14T11:50:14Z</time>
      </trkpt>
      <trkpt lat="47.30411" lon="0.10853">
        <ele>88</ele>
        <time>2014-09-14T11:50:17Z</time>
      </trkpt>
      <trkpt lat="47.30414" lon="0.10854">
        <ele>89</ele>
        <time>2014-09-14T11:50:19Z</time>
      </trkpt>
      <trkpt lat="47.30416" lon="0.10855">
        <ele>89</ele>
        <time>2014-09-14T11:50:20Z</time>
      </trkpt>
      <trkpt lat="47.30417" lon="0.10856">
        <ele>89</ele>
        <time>2014-09-14T11:50:21Z</time>
      </trkpt>
      <trkpt lat="47.30418" lon="0.10857">
        <ele>90</ele>
        <time>2014-09-14T11:50:22Z</time>
      </trkpt>
      <trkpt lat="47.3042" lon="0.10858">
        <ele>90</ele>
        <time>2014-09-14T11:50:23Z</time>
      </trkpt>
      <trkpt lat="47.30423" lon="0.10863">
        <ele>90</ele>
        <time>2014-09-14T11:50:25Z</time>
      </trkpt>
      <trkpt lat="47.30429" lon="0.10871">
        <ele>91</ele>
        <time>2014-09-14T11:50:29Z</time>
      </trkpt>
      <trkpt lat="47.3043" lon="0.10872">
        <ele>91</ele>
        <time>2014-09-14T11:50:30Z</time>
      </trkpt>
      <trkpt lat="47.30431" lon="0.10874">
        <ele>92</ele>
        <time>2014-09-14T11:50:31Z</time>
      </trkpt>
      <trkpt lat="47.30432" lon="0.10877">
        <ele>92</ele>
        <time>2014-09-14T11:50:32Z</time>
      </trkpt>
      <trkpt lat="47.30434" lon="0.10879">
        <ele>92</ele>
        <time>2014-09-14T11:50:33Z</time>
      </trkpt>
      <trkpt lat="47.30438" lon="0.10888">
        <ele>93</ele>
        <time>2014-09-14T11:50:39Z</time>
      </trkpt>
      <trkpt lat="47.30439" lon="0.10889">
        <ele>93</ele>
        <time>2014-09-14T11:50:40Z</time>
      </trkpt>
      <trkpt lat="47.30441" lon="0.1089">
        <ele>94</ele>
        <time>2014-09-14T11:50:41Z</time>
      </trkpt>
      <trkpt lat="47.30443" lon="0.10892">
        <ele>94</ele>
        <time>2014-09-14T11:50:42Z</time>
      </trkpt>
      <trkpt lat="47.30449" lon="0.10901">
        <ele>94</ele>
        <time>2014-09-14T11:50:47Z</time>
      </trkpt>
      <trkpt lat="47.30451" lon="0.10906">
        <ele>95</ele>
        <time>2014-09-14T11:50:49Z</time>
      </trkpt>
      <trkpt lat="47.30452" lon="0.10907">
        <ele>95</ele>
        <time>2014-09-14T11:50:50Z</time>
      </trkpt>
      <trkpt lat="47.30453" lon="0.10909">
        <ele>96</ele>
        <time>2014-09-14T11:50:51Z</time>
      </trkpt>
      <trkpt lat="47.30454" lon="0.10911">
        <ele>96</ele>
        <time>2014-09-14T11:50:52Z</time>
      </trkpt>
      <trkpt lat="47.30455" lon="0.10913">
        <ele>97</ele>
        <time>2014-09-14T11:50:53Z</time>
      </trkpt>
      <trkpt lat="47.30458" lon="0.10935">
        <ele>97</ele>
        <time>2014-09-14T11:51:00Z</time>
      </trkpt>
      <trkpt lat="47.30458" lon="0.10938">
        <ele>97</ele>
        <time>2014-09-14T11:51:01Z</time>
      </trkpt>
      <trkpt lat="47.30457" lon="0.10945">
        <ele>98</ele>
        <time>2014-09-14T11:51:02Z</time>
      </trkpt>
      <trkpt lat="47.30455" lon="0.10951">
        <ele>98</ele>
        <time>2014-09-14T11:51:03Z</time>
      </trkpt>
      <trkpt lat="47.30455" lon="0.10955">
        <ele>99</ele>
        <time>2014-09-14T11:51:04Z</time>
      </trkpt>
      <trkpt lat="47.30454" lon="0.10966">
        <ele>99</ele>
        <time>2014-09-14T11:51:07Z</time>
      </trkpt>
      <trkpt lat="47.30454" lon="0.10969">
        <ele>99</ele>
        <time>2014-09-14T11:51:08Z</time>
      </trkpt>
      <trkpt lat="47.30454" lon="0.10971">
        <ele>99</ele>
        <time>2014-09-14T11:51:09Z</time>
      </trkpt>
      <trkpt lat="47.30454" lon="0.10973">
        <ele>100</ele>
        <time>2014-09-14T11:51:10Z</time>
      </trkpt>
      <trkpt lat="47.30454" lon="0.10975">
        <ele>100</ele>
        <time>2014-09-14T11:51:11Z</time>
      </trkpt>
      <trkpt lat="47.30454" lon="0.10978">
        <ele>101</ele>
        <time>2014-09-14T11:51:12Z</time>
      </trkpt>
      <trkpt lat="47.30454" lon="0.1098">
        <ele>101</ele>
        <time>2014-09-14T11:51:13Z</time>
      </trkpt>
      <trkpt lat="47.30454" lon="0.1099">
        <ele>101</ele>
        <time>2014-09-14T11:51:18Z</time>
      </trkpt>
      <trkpt lat="47.30455" lon="0.10992">
        <ele>102</ele>
        <time>2014-09-14T11:51:19Z</time>
      </trkpt>
      <trkpt lat="47.30455" lon="0.10994">
        <ele>102</ele>
        <time>2014-09-14T11:51:20Z</time>
      </trkpt>
      <trkpt lat="47.30456" lon="0.10996">
        <ele>102</ele>
        <time>2014-09-14T11:51:21Z</time>
      </trkpt>
      <trkpt lat="47.30457" lon="0.10999">
        <ele>103</ele>
        <time>2014-09-14T11:51:22Z</time>
      </trkpt>
      <trkpt lat="47.30459" lon="0.11003">
        <ele>103</ele>
        <time>2014-09-14T11:51:24Z</time>
      </trkpt>
      <trkpt lat="47.30466" lon="0.11011">
        <ele>103</ele>
        <time>2014-09-14T11:51:28Z</time>
      </trkpt>
      <trkpt lat="47.30467" lon="0.11013">
        <ele>103</ele>
        <time>2014-09-14T11:51:29Z</time>
      </trkpt>
      <trkpt lat="47.30474" lon="0.11023">
        <ele>103</ele>
        <time>2014-09-14T11:51:33Z</time>
      </trkpt>
      <trkpt lat="47.30476" lon="0.11024">
        <ele>103</ele>
        <time>2014-09-14T11:51:34Z</time>
      </trkpt>
      <trkpt lat="47.30477" lon="0.11025">
        <ele>104</ele>
        <time>2014-09-14T11:51:35Z</time>
      </trkpt>
      <trkpt lat="47.30479" lon="0.11027">
        <ele>104</ele>
        <time>2014-09-14T11:51:36Z</time>
      </trkpt>
      <trkpt lat="47.30482" lon="0.11029">
        <ele>104</ele>
        <time>2014-09-14T11:51:37Z</time>
      </trkpt>
      <trkpt lat="47.30484" lon="0.11031">
        <ele>105</ele>
        <time>2014-09-14T11:51:38Z</time>
      </trkpt>
      <trkpt lat="47.30487" lon="0.11034">
        <ele>105</ele>
        <time>2014-09-14T11:51:40Z</time>
      </trkpt>
      <trkpt lat="47.30499" lon="0.11042">
        <ele>105</ele>
        <time>2014-09-14T11:51:45Z</time>
      </trkpt>
      <trkpt lat="47.30511" lon="0.1106">
        <ele>105</ele>
        <time>2014-09-14T11:51:50Z</time>
      </trkpt>
      <trkpt lat="47.30528" lon="0.11084">
        <ele>105</ele>
        <time>2014-09-14T11:51:56Z</time>
      </trkpt>
      <trkpt lat="47.3053" lon="0.11088">
        <ele>106</ele>
        <time>2014-09-14T11:51:57Z</time>
      </trkpt>
      <trkpt lat="47.30535" lon="0.11093">
        <ele>106</ele>
        <time>2014-09-14T11:51:58Z</time>
      </trkpt>
      <trkpt lat="47.30537" lon="0.11097">
        <ele>106</ele>
        <time>2014-09-14T11:51:59Z</time>
      </trkpt>
      <trkpt lat="47.30541" lon="0.11101">
        <ele>107</ele>
        <time>2014-09-14T11:52:00Z</time>
      </trkpt>
      <trkpt lat="47.30549" lon="0.11113">
        <ele>107</ele>
        <time>2014-09-14T11:52:03Z</time>
      </trkpt>
      <trkpt lat="47.30554" lon="0.1112">
        <ele>107</ele>
        <time>2014-09-14T11:52:05Z</time>
      </trkpt>
      <trkpt lat="47.30556" lon="0.11123">
        <ele>108</ele>
        <time>2014-09-14T11:52:06Z</time>
      </trkpt>
      <trkpt lat="47.30558" lon="0.11126">
        <ele>108</ele>
        <time>2014-09-14T11:52:07Z</time>
      </trkpt>
      <trkpt lat="47.30561" lon="0.1113">
        <ele>109</ele>
        <time>2014-09-14T11:52:08Z</time>
      </trkpt>
      <trkpt lat="47.30563" lon="0.11132">
        <ele>109</ele>
        <time>2014-09-14T11:52:09Z</time>
      </trkpt>
      <trkpt lat="47.30571" lon="0.11144">
        <ele>110</ele>
        <time>2014-09-14T11:52:13Z</time>
      </trkpt>
      <trkpt lat="47.30573" lon="0.11147">
        <ele>110</ele>
        <time>2014-09-14T11:52:14Z</time>
      </trkpt>
      <trkpt lat="47.30574" lon="0.1115">
        <ele>111</ele>
        <time>2014-09-14T11:52:15Z</time>
      </trkpt>
      <trkpt lat="47.30575" lon="0.11154">
        <ele>111</ele>
        <time>2014-09-14T11:52:16Z</time>
      </trkpt>
      <trkpt lat="47.30576" lon="0.11158">
        <ele>111</ele>
        <time>2014-09-14T11:52:17Z</time>
      </trkpt>
      <trkpt lat="47.30584" lon="0.11174">
        <ele>111</ele>
        <time>2014-09-14T11:52:22Z</time>
      </trkpt>
      <trkpt lat="47.30586" lon="0.11177">
        <ele>112</ele>
        <time>2014-09-14T11:52:23Z</time>
      </trkpt>
      <trkpt lat="47.30588" lon="0.11179">
        <ele>112</ele>
        <time>2014-09-14T11:52:24Z</time>
      </trkpt>
      <trkpt lat="47.30589" lon="0.11182">
        <ele>113</ele>
        <time>2014-09-14T11:52:25Z</time>
      </trkpt>
      <trkpt lat="47.30591" lon="0.11184">
        <ele>113</ele>
        <time>2014-09-14T11:52:26Z</time>
      </trkpt>
      <trkpt lat="47.30593" lon="0.11185">
        <ele>113</ele>
        <time>2014-09-14T11:52:27Z</time>
      </trkpt>
      <trkpt lat="47.30595" lon="0.11188">
        <ele>113</ele>
        <time>2014-09-14T11:52:28Z</time>
      </trkpt>
      <trkpt lat="47.30605" lon="0.112">
        <ele>113</ele>
        <time>2014-09-14T11:52:34Z</time>
      </trkpt>
      <trkpt lat="47.3061" lon="0.11206">
        <ele>114</ele>
        <time>2014-09-14T11:52:36Z</time>
      </trkpt>
      <trkpt lat="47.30613" lon="0.11208">
        <ele>114</ele>
        <time>2014-09-14T11:52:37Z</time>
      </trkpt>
      <trkpt lat="47.30616" lon="0.11211">
        <ele>115</ele>
        <time>2014-09-14T11:52:38Z</time>
      </trkpt>
      <trkpt lat="47.30618" lon="0.11212">
        <ele>115</ele>
        <time>2014-09-14T11:52:39Z</time>
      </trkpt>
      <trkpt lat="47.3062" lon="0.11215">
        <ele>116</ele>
        <time>2014-09-14T11:52:40Z</time>
      </trkpt>
      <trkpt lat="47.30632" lon="0.11228">
        <ele>116</ele>
        <time>2014-09-14T11:52:45Z</time>
      </trkpt>
      <trkpt lat="47.30651" lon="0.11256">
        <ele>116</ele>
        <time>2014-09-14T11:52:51Z</time>
      </trkpt>
      <trkpt lat="47.3067" lon="0.11282">
        <ele>116</ele>
        <time>2014-09-14T11:52:57Z</time>
      </trkpt>
      <trkpt lat="47.30674" lon="0.11283">
        <ele>116</ele>
        <time>2014-09-14T11:52:59Z</time>
      </trkpt>
      <trkpt lat="47.30676" lon="0.11282">
        <ele>116</ele>
        <time>2014-09-14T11:53:01Z</time>
      </trkpt>
      <trkpt lat="47.30679" lon="0.11282">
        <ele>116</ele>
        <time>2014-09-14T11:53:02Z</time>
      </trkpt>
      <trkpt lat="47.30687" lon="0.11281">
        <ele>116</ele>
        <time>2014-09-14T11:53:05Z</time>
      </trkpt>
      <trkpt lat="47.30693" lon="0.11282">
        <ele>116</ele>
        <time>2014-09-14T11:53:07Z</time>
      </trkpt>
      <trkpt lat="47.30704" lon="0.11274">
        <ele>116</ele>
        <time>2014-09-14T11:53:11Z</time>
      </trkpt>
      <trkpt lat="47.30711" lon="0.11272">
        <ele>116</ele>
        <time>2014-09-14T11:53:13Z</time>
      </trkpt>
      <trkpt lat="47.30716" lon="0.11268">
        <ele>116</ele>
        <time>2014-09-14T11:53:15Z</time>
      </trkpt>
      <trkpt lat="47.3072" lon="0.11263">
        <ele>116</ele>
        <time>2014-09-14T11:53:17Z</time>
      </trkpt>
      <trkpt lat="47.30725" lon="0.11254">
        <ele>116</ele>
        <time>2014-09-14T11:53:21Z</time>
      </trkpt>
      <trkpt lat="47.30731" lon="0.11231">
        <ele>116</ele>
        <time>2014-09-14T11:53:26Z</time>
      </trkpt>
      <trkpt lat="47.30736" lon="0.11201">
        <ele>116</ele>
        <time>2014-09-14T11:53:31Z</time>
      </trkpt>
      <trkpt lat="47.30746" lon="0.11155">
        <ele>116</ele>
        <time>2014-09-14T11:53:38Z</time>
      </trkpt>
      <trkpt lat="47.30751" lon="0.11125">
        <ele>116</ele>
        <time>2014-09-14T11:53:43Z</time>
      </trkpt>
      <trkpt lat="47.30753" lon="0.1112">
        <ele>116</ele>
        <time>2014-09-14T11:53:44Z</time>
      </trkpt>
      <trkpt lat="47.30752" lon="0.11112">
        <ele>116</ele>
        <time>2014-09-14T11:53:45Z</time>
      </trkpt>
      <trkpt lat="47.30752" lon="0.11105">
        <ele>117</ele>
        <time>2014-09-14T11:53:46Z</time>
      </trkpt>
      <trkpt lat="47.30753" lon="0.11098">
        <ele>117</ele>
        <time>2014-09-14T11:53:47Z</time>
      </trkpt>
      <trkpt lat="47.30753" lon="0.11091">
        <ele>118</ele>
        <time>2014-09-14T11:53:48Z</time>
      </trkpt>
      <trkpt lat="47.30751" lon="0.11062">
        <ele>118</ele>
        <time>2014-09-14T11:53:53Z</time>
      </trkpt>
      <trkpt lat="47.3075" lon="0.11042">
        <ele>118</ele>
        <time>2014-09-14T11:53:58Z</time>
      </trkpt>
      <trkpt lat="47.30743" lon="0.11019">
        <ele>118</ele>
        <time>2014-09-14T11:54:04Z</time>
      </trkpt>
      <trkpt lat="47.30736" lon="0.11009">
        <ele>118</ele>
        <time>2014-09-14T11:54:08Z</time>
      </trkpt>
      <trkpt lat="47.30734" lon="0.11008">
        <ele>118</ele>
        <time>2014-09-14T11:54:09Z</time>
      </trkpt>
      <trkpt lat="47.30725" lon="0.11001">
        <ele>117</ele>
        <time>2014-09-14T11:54:13Z</time>
      </trkpt>
      <trkpt lat="47.30725" lon="0.10999">
        <ele>117</ele>
        <time>2014-09-14T11:54:14Z</time>
      </trkpt>
      <trkpt lat="47.30726" lon="0.10997">
        <ele>116</ele>
        <time>2014-09-14T11:54:15Z</time>
      </trkpt>
      <trkpt lat="47.30725" lon="0.10997">
        <ele>116</ele>
        <time>2014-09-14T11:54:16Z</time>
      </trkpt>
      <trkpt lat="47.30727" lon="0.10995">
        <ele>116</ele>
        <time>2014-09-14T11:54:17Z</time>
      </trkpt>
      <trkpt lat="47.30728" lon="0.10994">
        <ele>116</ele>
        <time>2014-09-14T11:54:20Z</time>
      </trkpt>
      <trkpt lat="47.3073" lon="0.10983">
        <ele>116</ele>
        <time>2014-09-14T11:54:24Z</time>
      </trkpt>
      <trkpt lat="47.30731" lon="0.10976">
        <ele>116</ele>
        <time>2014-09-14T11:54:26Z</time>
      </trkpt>
      <trkpt lat="47.30735" lon="0.10975">
        <ele>116</ele>
        <time>2014-09-14T11:54:29Z</time>
      </trkpt>
      <trkpt lat="47.30737" lon="0.10976">
        <ele>116</ele>
        <time>2014-09-14T11:54:30Z</time>
      </trkpt>
      <trkpt lat="47.30739" lon="0.10975">
        <ele>116</ele>
        <time>2014-09-14T11:54:33Z</time>
      </trkpt>
      <trkpt lat="47.30743" lon="0.10978">
        <ele>116</ele>
        <time>2014-09-14T11:54:36Z</time>
      </trkpt>
      <trkpt lat="47.30745" lon="0.10979">
        <ele>116</ele>
        <time>2014-09-14T11:54:37Z</time>
      </trkpt>
      <trkpt lat="47.30747" lon="0.10981">
        <ele>117</ele>
        <time>2014-09-14T11:54:38Z</time>
      </trkpt>
      <trkpt lat="47.30749" lon="0.10983">
        <ele>117</ele>
        <time>2014-09-14T11:54:39Z</time>
      </trkpt>
      <trkpt lat="47.30751" lon="0.10986">
        <ele>117</ele>
        <time>2014-09-14T11:54:40Z</time>
      </trkpt>
      <trkpt lat="47.30753" lon="0.10988">
        <ele>118</ele>
        <time>2014-09-14T11:54:41Z</time>
      </trkpt>
      <trkpt lat="47.30757" lon="0.10992">
        <ele>118</ele>
        <time>2014-09-14T11:54:43Z</time>
      </trkpt>
      <trkpt lat="47.30759" lon="0.10996">
        <ele>118</ele>
        <time>2014-09-14T11:54:45Z</time>
      </trkpt>
      <trkpt lat="47.30759" lon="0.11005">
        <ele>118</ele>
        <time>2014-09-14T11:54:48Z</time>
      </trkpt>
      <trkpt lat="47.30763" lon="0.11016">
        <ele>118</ele>
        <time>2014-09-14T11:54:55Z</time>
      </trkpt>
      <trkpt lat="47.30771" lon="0.11017">
        <ele>118</ele>
        <time>2014-09-14T11:55:01Z</time>
      </trkpt>
      <trkpt lat="47.30773" lon="0.11015">
        <ele>118</ele>
        <time>2014-09-14T11:55:02Z</time>
      </trkpt>
      <trkpt lat="47.30781" lon="0.11007">
        <ele>118</ele>
        <time>2014-09-14T11:55:06Z</time>
      </trkpt>
      <trkpt lat="47.30792" lon="0.10995">
        <ele>118</ele>
        <time>2014-09-14T11:55:11Z</time>
      </trkpt>
      <trkpt lat="47.30808" lon="0.10974">
        <ele>118</ele>
        <time>2014-09-14T11:55:16Z</time>
      </trkpt>
      <trkpt lat="47.30814" lon="0.1096">
        <ele>118</ele>
        <time>2014-09-14T11:55:20Z</time>
      </trkpt>
      <trkpt lat="47.30817" lon="0.1095">
        <ele>118</ele>
        <time>2014-09-14T11:55:22Z</time>
      </trkpt>
      <trkpt lat="47.30829" lon="0.10926">
        <ele>118</ele>
        <time>2014-09-14T11:55:26Z</time>
      </trkpt>
      <trkpt lat="47.30837" lon="0.10906">
        <ele>118</ele>
        <time>2014-09-14T11:55:30Z</time>
      </trkpt>
      <trkpt lat="47.30839" lon="0.10901">
        <ele>118</ele>
        <time>2014-09-14T11:55:31Z</time>
      </trkpt>
      <trkpt lat="47.30843" lon="0.10874">
        <ele>118</ele>
        <time>2014-09-14T11:55:36Z</time>
      </trkpt>
      <trkpt lat="47.3085" lon="0.10852">
        <ele>118</ele>
        <time>2014-09-14T11:55:40Z</time>
      </trkpt>
      <trkpt lat="47.30852" lon="0.10828">
        <ele>118</ele>
        <time>2014-09-14T11:55:45Z</time>
      </trkpt>
      <trkpt lat="47.30851" lon="0.10801">
        <ele>118</ele>
        <time>2014-09-14T11:55:50Z</time>
      </trkpt>
      <trkpt lat="47.30848" lon="0.10774">
        <ele>118</ele>
        <time>2014-09-14T11:55:56Z</time>
      </trkpt>
      <trkpt lat="47.30844" lon="0.10756">
        <ele>118</ele>
        <time>2014-09-14T11:56:01Z</time>
      </trkpt>
      <trkpt lat="47.30838" lon="0.10733">
        <ele>118</ele>
        <time>2014-09-14T11:56:07Z</time>
      </trkpt>
      <trkpt lat="47.30832" lon="0.10718">
        <ele>118</ele>
        <time>2014-09-14T11:56:12Z</time>
      </trkpt>
      <trkpt lat="47.3083" lon="0.10716">
        <ele>118</ele>
        <time>2014-09-14T11:56:13Z</time>
      </trkpt>
      <trkpt lat="47.30822" lon="0.10701">
        <ele>118</ele>
        <time>2014-09-14T11:56:17Z</time>
      </trkpt>
      <trkpt lat="47.30817" lon="0.10689">
        <ele>118</ele>
        <time>2014-09-14T11:56:20Z</time>
      </trkpt>
      <trkpt lat="47.30815" lon="0.10682">
        <ele>118</ele>
        <time>2014-09-14T11:56:22Z</time>
      </trkpt>
      <trkpt lat="47.30814" lon="0.10679">
        <ele>118</ele>
        <time>2014-09-14T11:56:23Z</time>
      </trkpt>
      <trkpt lat="47.30815" lon="0.10668">
        <ele>118</ele>
        <time>2014-09-14T11:56:26Z</time>
      </trkpt>
      <trkpt lat="47.30816" lon="0.1066">
        <ele>118</ele>
        <time>2014-09-14T11:56:27Z</time>
      </trkpt>
      <trkpt lat="47.3082" lon="0.10651">
        <ele>118</ele>
        <time>2014-09-14T11:56:29Z</time>
      </trkpt>
      <trkpt lat="47.3082" lon="0.10647">
        <ele>118</ele>
        <time>2014-09-14T11:56:31Z</time>
      </trkpt>
      <trkpt lat="47.3082" lon="0.10647">
        <ele>118</ele>
        <time>2014-09-14T11:56:32Z</time>
      </trkpt>
      <trkpt lat="47.30815" lon="0.10647">
        <ele>118</ele>
        <time>2014-09-14T11:56:35Z</time>
      </trkpt>
      <trkpt lat="47.30814" lon="0.10648">
        <ele>118</ele>
        <time>2014-09-14T11:56:36Z</time>
      </trkpt>
      <trkpt lat="47.30805" lon="0.10654">
        <ele>118</ele>
        <time>2014-09-14T11:56:42Z</time>
      </trkpt>
      <trkpt lat="47.30791" lon="0.10653">
        <ele>118</ele>
        <time>2014-09-14T11:56:46Z</time>
      </trkpt>
      <trkpt lat="47.30788" lon="0.10651">
        <ele>118</ele>
        <time>2014-09-14T11:56:47Z</time>
      </trkpt>
      <trkpt lat="47.30787" lon="0.10648">
        <ele>118</ele>
        <time>2014-09-14T11:56:48Z</time>
      </trkpt>
      <trkpt lat="47.30783" lon="0.10634">
        <ele>118</ele>
        <time>2014-09-14T11:56:51Z</time>
      </trkpt>
      <trkpt lat="47.3078" lon="0.10623">
        <ele>118</ele>
        <time>2014-09-14T11:56:55Z</time>
      </trkpt>
      <trkpt lat="47.30777" lon="0.10622">
        <ele>118</ele>
        <time>2014-09-14T11:56:56Z</time>
      </trkpt>
      <trkpt lat="47.30773" lon="0.10621">
        <ele>118</ele>
        <time>2014-09-14T11:56:59Z</time>
      </trkpt>
      <trkpt lat="47.30772" lon="0.1062">
        <ele>118</ele>
        <time>2014-09-14T11:57:00Z</time>
      </trkpt>
      <trkpt lat="47.30777" lon="0.10617">
        <ele>118</ele>
        <time>2014-09-14T11:57:05Z</time>
      </trkpt>
      <trkpt lat="47.30781" lon="0.10616">
        <ele>118</ele>
        <time>2014-09-14T11:57:07Z</time>
      </trkpt>
      <trkpt lat="47.30792" lon="0.10614">
        <ele>118</ele>
        <time>2014-09-14T11:57:13Z</time>
      </trkpt>
      <trkpt lat="47.30794" lon="0.10616">
        <ele>118</ele>
        <time>2014-09-14T11:57:14Z</time>
      </trkpt>
      <trkpt lat="47.308" lon="0.10617">
        <ele>118</ele>
        <time>2014-09-14T11:57:18Z</time>
      </trkpt>
      <trkpt lat="47.308" lon="0.10613">
        <ele>118</ele>
        <time>2014-09-14T11:57:22Z</time>
      </trkpt>
      <trkpt lat="47.30798" lon="0.1061">
        <ele>118</ele>
        <time>2014-09-14T11:57:26Z</time>
      </trkpt>
      <trkpt lat="47.30793" lon="0.10607">
        <ele>118</ele>
        <time>2014-09-14T11:57:28Z</time>
      </trkpt>
      <trkpt lat="47.3079" lon="0.10605">
        <ele>117</ele>
        <time>2014-09-14T11:57:29Z</time>
      </trkpt>
      <trkpt lat="47.30788" lon="0.10604">
        <ele>117</ele>
        <time>2014-09-14T11:57:30Z</time>
      </trkpt>
      <trkpt lat="47.30787" lon="0.10601">
        <ele>117</ele>
        <time>2014-09-14T11:57:31Z</time>
      </trkpt>
      <trkpt lat="47.30784" lon="0.10598">
        <ele>116</ele>
        <time>2014-09-14T11:57:32Z</time>
      </trkpt>
      <trkpt lat="47.30782" lon="0.10596">
        <ele>116</ele>
        <time>2014-09-14T11:57:33Z</time>
      </trkpt>
      <trkpt lat="47.30775" lon="0.10594">
        <ele>116</ele>
        <time>2014-09-14T11:57:35Z</time>
      </trkpt>
      <trkpt lat="47.30773" lon="0.10597">
        <ele>116</ele>
        <time>2014-09-14T11:57:36Z</time>
      </trkpt>
      <trkpt lat="47.30771" lon="0.10598">
        <ele>117</ele>
        <time>2014-09-14T11:57:37Z</time>
      </trkpt>
      <trkpt lat="47.30768" lon="0.10601">
        <ele>117</ele>
        <time>2014-09-14T11:57:38Z</time>
      </trkpt>
      <trkpt lat="47.30766" lon="0.10605">
        <ele>118</ele>
        <time>2014-09-14T11:57:39Z</time>
      </trkpt>
      <trkpt lat="47.30765" lon="0.10609">
        <ele>118</ele>
        <time>2014-09-14T11:57:40Z</time>
      </trkpt>
      <trkpt lat="47.30764" lon="0.10614">
        <ele>118</ele>
        <time>2014-09-14T11:57:41Z</time>
      </trkpt>
      <trkpt lat="47.30762" lon="0.10635">
        <ele>118</ele>
        <time>2014-09-14T11:57:46Z</time>
      </trkpt>
      <trkpt lat="47.30763" lon="0.10648">
        <ele>118</ele>
        <time>2014-09-14T11:57:50Z</time>
      </trkpt>
      <trkpt lat="47.30763" lon="0.10651">
        <ele>118</ele>
        <time>2014-09-14T11:57:51Z</time>
      </trkpt>
      <trkpt lat="47.30762" lon="0.10656">
        <ele>118</ele>
        <time>2014-09-14T11:57:55Z</time>
      </trkpt>
      <trkpt lat="47.30755" lon="0.10657">
        <ele>118</ele>
        <time>2014-09-14T11:58:02Z</time>
      </trkpt>
      <trkpt lat="47.3075" lon="0.10663">
        <ele>118</ele>
        <time>2014-09-14T11:58:07Z</time>
      </trkpt>
      <trkpt lat="47.30749" lon="0.10665">
        <ele>118</ele>
        <time>2014-09-14T11:58:08Z</time>
      </trkpt>
      <trkpt lat="47.30744" lon="0.1067">
        <ele>118</ele>
        <time>2014-09-14T11:58:13Z</time>
      </trkpt>
      <trkpt lat="47.3074" lon="0.10669">
        <ele>118</ele>
        <time>2014-09-14T11:58:16Z</time>
      </trkpt>
      <trkpt lat="47.30732" lon="0.10674">
        <ele>118</ele>
        <time>2014-09-14T11:58:18Z</time>
      </trkpt>
      <trkpt lat="47.30726" lon="0.10689">
        <ele>118</ele>
        <time>2014-09-14T11:58:22Z</time>
      </trkpt>
      <trkpt lat="47.30719" lon="0.10701">
        <ele>118</ele>
        <time>2014-09-14T11:58:27Z</time>
      </trkpt>
      <trkpt lat="47.30711" lon="0.10707">
        <ele>118</ele>
        <time>2014-09-14T11:58:30Z</time>
      </trkpt>
      <trkpt lat="47.30707" lon="0.10713">
        <ele>118</ele>
        <time>2014-09-14T11:58:33Z</time>
      </trkpt>
      <trkpt lat="47.30707" lon="0.10714">
        <ele>117</ele>
        <time>2014-09-14T11:58:34Z</time>
      </trkpt>
      <trkpt lat="47.30707" lon="0.10717">
        <ele>117</ele>
        <time>2014-09-14T11:58:35Z</time>
      </trkpt>
      <trkpt lat="47.30707" lon="0.10719">
        <ele>116</ele>
        <time>2014-09-14T11:58:36Z</time>
      </trkpt>
      <trkpt lat="47.30707" lon="0.1072">
        <ele>116</ele>
        <time>2014-09-14T11:58:37Z</time>
      </trkpt>
      <trkpt lat="47.30708" lon="0.10723">
        <ele>116</ele>
        <time>2014-09-14T11:58:38Z</time>
      </trkpt>
      <trkpt lat="47.30715" lon="0.10726">
        <ele>116</ele>
        <time>2014-09-14T11:58:43Z</time>
      </trkpt>
      <trkpt lat="47.30715" lon="0.10726">
        <ele>116</ele>
        <time>2014-09-14T11:58:44Z</time>
      </trkpt>
      <trkpt lat="47.30716" lon="0.10726">
        <ele>116</ele>
        <time>2014-09-14T11:58:45Z</time>
      </trkpt>
      <trkpt lat="47.30717" lon="0.10727">
        <ele>116</ele>
        <time>2014-09-14T11:58:46Z</time>
      </trkpt>
      <trkpt lat="47.30717" lon="0.10727">
        <ele>117</ele>
        <time>2014-09-14T11:58:47Z</time>
      </trkpt>
      <trkpt lat="47.3072" lon="0.10734">
        <ele>118</ele>
        <time>2014-09-14T11:58:51Z</time>
      </trkpt>
      <trkpt lat="47.30721" lon="0.1074">
        <ele>118</ele>
        <time>2014-09-14T11:58:53Z</time>
      </trkpt>
      <trkpt lat="47.3072" lon="0.10746">
        <ele>118</ele>
        <time>2014-09-14T11:58:55Z</time>
      </trkpt>
      <trkpt lat="47.30717" lon="0.10747">
        <ele>118</ele>
        <time>2014-09-14T11:58:56Z</time>
      </trkpt>
      <trkpt lat="47.30715" lon="0.10751">
        <ele>118</ele>
        <time>2014-09-14T11:58:57Z</time>
      </trkpt>
      <trkpt lat="47.30707" lon="0.10752">
        <ele>118</ele>
        <time>2014-09-14T11:59:03Z</time>
      </trkpt>
      <trkpt lat="47.30707" lon="0.10746">
        <ele>118</ele>
        <time>2014-09-14T11:59:05Z</time>
      </trkpt>
      <trkpt lat="47.30706" lon="0.10737">
        <ele>118</ele>
        <time>2014-09-14T11:59:07Z</time>
      </trkpt>
      <trkpt lat="47.30707" lon="0.1073">
        <ele>118</ele>
        <time>2014-09-14T11:59:09Z</time>
      </trkpt>
      <trkpt lat="47.30704" lon="0.10723">
        <ele>118</ele>
        <time>2014-09-14T11:59:11Z</time>
      </trkpt>
      <trkpt lat="47.307" lon="0.10715">
        <ele>117</ele>
        <time>2014-09-14T11:59:13Z</time>
      </trkpt>
      <trkpt lat="47.30698" lon="0.10712">
        <ele>117</ele>
        <time>2014-09-14T11:59:14Z</time>
      </trkpt>
      <trkpt lat="47.30695" lon="0.1071">
        <ele>116</ele>
        <time>2014-09-14T11:59:15Z</time>
      </trkpt>
      <trkpt lat="47.30693" lon="0.1071">
        <ele>116</ele>
        <time>2014-09-14T11:59:16Z</time>
      </trkpt>
      <trkpt lat="47.30692" lon="0.1071">
        <ele>116</ele>
        <time>2014-09-14T11:59:17Z</time>
      </trkpt>
      <trkpt lat="47.30688" lon="0.10706">
        <ele>116</ele>
        <time>2014-09-14T11:59:21Z</time>
      </trkpt>
      <trkpt lat="47.3069" lon="0.10694">
        <ele>116</ele>
        <time>2014-09-14T11:59:25Z</time>
      </trkpt>
      <trkpt lat="47.30691" lon="0.10694">
        <ele>116</ele>
        <time>2014-09-14T11:59:26Z</time>
      </trkpt>
      <trkpt lat="47.30693" lon="0.10692">
        <ele>116</ele>
        <time>2014-09-14T11:59:28Z</time>
      </trkpt>
      <trkpt lat="47.30699" lon="0.10682">
        <ele>116</ele>
        <time>2014-09-14T11:59:34Z</time>
      </trkpt>
      <trkpt lat="47.307" lon="0.10679">
        <ele>116</ele>
        <time>2014-09-14T11:59:35Z</time>
      </trkpt>
      <trkpt lat="47.307" lon="0.10671">
        <ele>116</ele>
        <time>2014-09-14T11:59:39Z</time>
      </trkpt>
      <trkpt lat="47.30704" lon="0.10658">
        <ele>116</ele>
        <time>2014-09-14T11:59:45Z</time>
      </trkpt>
      <trkpt lat="47.30709" lon="0.10654">
        <ele>116</ele>
        <time>2014-09-14T11:59:50Z</time>
      </trkpt>
      <trkpt lat="47.30712" lon="0.10651">
        <ele>117</ele>
        <time>2014-09-14T11:59:53Z</time>
      </trkpt>
      <trkpt lat="47.30713" lon="0.10651">
        <ele>117</ele>
        <time>2014-09-14T11:59:54Z</time>
      </trkpt>
      <trkpt lat="47.30716" lon="0.10649">
        <ele>118</ele>
        <time>2014-09-14T11:59:55Z</time>
      </trkpt>
      <trkpt lat="47.30718" lon="0.10648">
        <ele>118</ele>
        <time>2014-09-14T11:59:56Z</time>
      </trkpt>
      <trkpt lat="47.30731" lon="0.10638">
        <ele>118</ele>
        <time>2014-09-14T12:00:02Z</time>
      </trkpt>
      <trkpt lat="47.30742" lon="0.10627">
        <ele>118</ele>
        <time>2014-09-14T12:00:06Z</time>
      </trkpt>
      <trkpt lat="47.30742" lon="0.10624">
        <ele>118</ele>
        <time>2014-09-14T12:00:07Z</time>
      </trkpt>
      <trkpt lat="47.30742" lon="0.10606">
        <ele>118</ele>
        <time>2014-09-14T12:00:12Z</time>
      </trkpt>
      <trkpt lat="47.30746" lon="0.10603">
        <ele>118</ele>
        <time>2014-09-14T12:00:14Z</time>
      </trkpt>
      <trkpt lat="47.30751" lon="0.10599">
        <ele>118</ele>
        <time>2014-09-14T12:00:16Z</time>
      </trkpt>
      <trkpt lat="47.30752" lon="0.10597">
        <ele>118</ele>
        <time>2014-09-14T12:00:17Z</time>
      </trkpt>
      <trkpt lat="47.30753" lon="0.10587">
        <ele>118</ele>
        <time>2014-09-14T12:00:23Z</time>
      </trkpt>
      <trkpt lat="47.30757" lon="0.1058">
        <ele>118</ele>
        <time>2014-09-14T12:00:25Z</time>
      </trkpt>
      <trkpt lat="47.3077" lon="0.10571">
        <ele>118</ele>
        <time>2014-09-14T12:00:31Z</time>
      </trkpt>
      <trkpt lat="47.30777" lon="0.10581">
        <ele>118</ele>
        <time>2014-09-14T12:00:36Z</time>
      </trkpt>
      <trkpt lat="47.30791" lon="0.10589">
        <ele>118</ele>
        <time>2014-09-14T12:00:41Z</time>
      </trkpt>
      <trkpt lat="47.30809" lon="0.10584">
        <ele>118</ele>
        <time>2014-09-14T12:00:46Z</time>
      </trkpt>
      <trkpt lat="47.30819" lon="0.10574">
        <ele>117</ele>
        <time>2014-09-14T12:00:50Z</time>
      </trkpt>
      <trkpt lat="47.30822" lon="0.10574">
        <ele>117</ele>
        <time>2014-09-14T12:00:51Z</time>
      </trkpt>
      <trkpt lat="47.30824" lon="0.10571">
        <ele>116</ele>
        <time>2014-09-14T12:00:52Z</time>
      </trkpt>
      <trkpt lat="47.30827" lon="0.10568">
        <ele>116</ele>
        <time>2014-09-14T12:00:53Z</time>
      </trkpt>
      <trkpt lat="47.30829" lon="0.10566">
        <ele>116</ele>
        <time>2014-09-14T12:00:54Z</time>
      </trkpt>
      <trkpt lat="47.30839" lon="0.10561">
        <ele>116</ele>
        <time>2014-09-14T12:00:58Z</time>
      </trkpt>
      <trkpt lat="47.30859" lon="0.1056">
        <ele>115</ele>
        <time>2014-09-14T12:01:03Z</time>
      </trkpt>
      <trkpt lat="47.30862" lon="0.10559">
        <ele>115</ele>
        <time>2014-09-14T12:01:04Z</time>
      </trkpt>
      <trkpt lat="47.30865" lon="0.10558">
        <ele>114</ele>
        <time>2014-09-14T12:01:05Z</time>
      </trkpt>
      <trkpt lat="47.30868" lon="0.10557">
        <ele>114</ele>
        <time>2014-09-14T12:01:06Z</time>
      </trkpt>
      <trkpt lat="47.30872" lon="0.10556">
        <ele>113</ele>
        <time>2014-09-14T12:01:07Z</time>
      </trkpt>
      <trkpt lat="47.30881" lon="0.10551">
        <ele>113</ele>
        <time>2014-09-14T12:01:10Z</time>
      </trkpt>
      <trkpt lat="47.30898" lon="0.10542">
        <ele>113</ele>
        <time>2014-09-14T12:01:16Z</time>
      </trkpt>
      <trkpt lat="47.309" lon="0.10543">
        <ele>113</ele>
        <time>2014-09-14T12:01:17Z</time>
      </trkpt>
      <trkpt lat="47.30901" lon="0.10543">
        <ele>113</ele>
        <time>2014-09-14T12:01:18Z</time>
      </trkpt>
      <trkpt lat="47.30903" lon="0.10545">
        <ele>112</ele>
        <time>2014-09-14T12:01:19Z</time>
      </trkpt>
      <trkpt lat="47.30905" lon="0.10548">
        <ele>112</ele>
        <time>2014-09-14T12:01:20Z</time>
      </trkpt>
      <trkpt lat="47.30906" lon="0.10551">
        <ele>111</ele>
        <time>2014-09-14T12:01:21Z</time>
      </trkpt>
      <trkpt lat="47.3091" lon="0.10559">
        <ele>111</ele>
        <time>2014-09-14T12:01:23Z</time>
      </trkpt>
      <trkpt lat="47.30917" lon="0.10585">
        <ele>111</ele>
        <time>2014-09-14T12:01:27Z</time>
      </trkpt>
      <trkpt lat="47.30925" lon="0.10621">
        <ele>111</ele>
        <time>2014-09-14T12:01:33Z</time>
      </trkpt>
      <trkpt lat="47.3093" lon="0.10653">
        <ele>111</ele>
        <time>2014-09-14T12:01:38Z</time>
      </trkpt>
      <trkpt lat="47.30934" lon="0.10693">
        <ele>111</ele>
        <time>2014-09-14T12:01:44Z</time>
      </trkpt>
      <trkpt lat="47.30936" lon="0.1073">
        <ele>111</ele>
        <time>2014-09-14T12:01:50Z</time>
      </trkpt>
      <trkpt lat="47.30939" lon="0.10765">
        <ele>111</ele>
        <time>2014-09-14T12:01:55Z</time>
      </trkpt>
      <trkpt lat="47.30942" lon="0.10805">
        <ele>111</ele>
        <time>2014-09-14T12:02:01Z</time>
      </trkpt>
      <trkpt lat="47.30943" lon="0.10836">
        <ele>111</ele>
        <time>2014-09-14T12:02:06Z</time>
      </trkpt>
      <trkpt lat="47.30945" lon="0.10858">
        <ele>111</ele>
        <time>2014-09-14T12:02:10Z</time>
      </trkpt>
      <trkpt lat="47.30945" lon="0.10871">
        <ele>111</ele>
        <time>2014-09-14T12:02:13Z</time>
      </trkpt>
      <trkpt lat="47.30944" lon="0.10879">
        <ele>112</ele>
        <time>2014-09-14T12:02:15Z</time>
      </trkpt>
      <trkpt lat="47.30944" lon="0.10885">
        <ele>112</ele>
        <time>2014-09-14T12:02:16Z</time>
      </trkpt>
      <trkpt lat="47.30945" lon="0.1089">
        <ele>113</ele>
        <time>2014-09-14T12:02:17Z</time>
      </trkpt>
      <trkpt lat="47.30945" lon="0.10896">
        <ele>113</ele>
        <time>2014-09-14T12:02:18Z</time>
      </trkpt>
      <trkpt lat="47.30945" lon="0.10902">
        <ele>113</ele>
        <time>2014-09-14T12:02:19Z</time>
      </trkpt>
      <trkpt lat="47.30945" lon="0.10907">
        <ele>113</ele>
        <time>2014-09-14T12:02:20Z</time>
      </trkpt>
      <trkpt lat="47.30945" lon="0.10932">
        <ele>113</ele>
        <time>2014-09-14T12:02:25Z</time>
      </trkpt>
      <trkpt lat="47.30946" lon="0.10966">
        <ele>113</ele>
        <time>2014-09-14T12:02:31Z</time>
      </trkpt>
      <trkpt lat="47.30948" lon="0.10996">
        <ele>113</ele>
        <time>2014-09-14T12:02:37Z</time>
      </trkpt>
      <trkpt lat="47.30949" lon="0.11009">
        <ele>114</ele>
        <time>2014-09-14T12:02:40Z</time>
      </trkpt>
      <trkpt lat="47.3095" lon="0.11013">
        <ele>114</ele>
        <time>2014-09-14T12:02:41Z</time>
      </trkpt>
      <trkpt lat="47.30951" lon="0.11018">
        <ele>115</ele>
        <time>2014-09-14T12:02:42Z</time>
      </trkpt>
      <trkpt lat="47.30951" lon="0.11024">
        <ele>115</ele>
        <time>2014-09-14T12:02:43Z</time>
      </trkpt>
      <trkpt lat="47.30951" lon="0.11029">
        <ele>116</ele>
        <time>2014-09-14T12:02:44Z</time>
      </trkpt>
      <trkpt lat="47.30948" lon="0.1104">
        <ele>116</ele>
        <time>2014-09-14T12:02:46Z</time>
      </trkpt>
      <trkpt lat="47.30939" lon="0.11069">
        <ele>116</ele>
        <time>2014-09-14T12:02:53Z</time>
      </trkpt>
      <trkpt lat="47.30943" lon="0.11101">
        <ele>116</ele>
        <time>2014-09-14T12:02:57Z</time>
      </trkpt>
      <trkpt lat="47.30951" lon="0.11141">
        <ele>116</ele>
        <time>2014-09-14T12:03:03Z</time>
      </trkpt>
      <trkpt lat="47.30958" lon="0.11169">
        <ele>116</ele>
        <time>2014-09-14T12:03:09Z</time>
      </trkpt>
      <trkpt lat="47.30958" lon="0.11176">
        <ele>116</ele>
        <time>2014-09-14T12:03:10Z</time>
      </trkpt>
      <trkpt lat="47.30958" lon="0.11196">
        <ele>116</ele>
        <time>2014-09-14T12:03:13Z</time>
      </trkpt>
      <trkpt lat="47.30959" lon="0.11239">
        <ele>116</ele>
        <time>2014-09-14T12:03:20Z</time>
      </trkpt>
      <trkpt lat="47.30958" lon="0.11244">
        <ele>116</ele>
        <time>2014-09-14T12:03:21Z</time>
      </trkpt>
      <trkpt lat="47.30958" lon="0.11252">
        <ele>116</ele>
        <time>2014-09-14T12:03:22Z</time>
      </trkpt>
      <trkpt lat="47.30957" lon="0.1126">
        <ele>117</ele>
        <time>2014-09-14T12:03:23Z</time>
      </trkpt>
      <trkpt lat="47.30956" lon="0.11268">
        <ele>117</ele>
        <time>2014-09-14T12:03:24Z</time>
      </trkpt>
      <trkpt lat="47.30955" lon="0.11276">
        <ele>118</ele>
        <time>2014-09-14T12:03:25Z</time>
      </trkpt>
      <trkpt lat="47.30954" lon="0.11284">
        <ele>118</ele>
        <time>2014-09-14T12:03:26Z</time>
      </trkpt>
      <trkpt lat="47.30948" lon="0.11328">
        <ele>118</ele>
        <time>2014-09-14T12:03:32Z</time>
      </trkpt>
      <trkpt lat="47.30939" lon="0.11354">
        <ele>118</ele>
        <time>2014-09-14T12:03:36Z</time>
      </trkpt>
      <trkpt lat="47.30937" lon="0.1137">
        <ele>118</ele>
        <time>2014-09-14T12:03:39Z</time>
      </trkpt>
      <trkpt lat="47.30937" lon="0.11376">
        <ele>118</ele>
        <time>2014-09-14T12:03:40Z</time>
      </trkpt>
      <trkpt lat="47.30935" lon="0.11382">
        <ele>119</ele>
        <time>2014-09-14T12:03:41Z</time>
      </trkpt>
      <trkpt lat="47.30934" lon="0.11388">
        <ele>119</ele>
        <time>2014-09-14T12:03:42Z</time>
      </trkpt>
      <trkpt lat="47.30934" lon="0.11395">
        <ele>120</ele>
        <time>2014-09-14T12:03:43Z</time>
      </trkpt>
      <trkpt lat="47.30931" lon="0.11419">
        <ele>120</ele>
        <time>2014-09-14T12:03:47Z</time>
      </trkpt>
      <trkpt lat="47.30927" lon="0.11457">
        <ele>120</ele>
        <time>2014-09-14T12:03:53Z</time>
      </trkpt>
      <trkpt lat="47.3092" lon="0.11484">
        <ele>120</ele>
        <time>2014-09-14T12:03:57Z</time>
      </trkpt>
      <trkpt lat="47.30915" lon="0.11496">
        <ele>120</ele>
        <time>2014-09-14T12:03:59Z</time>
      </trkpt>
      <trkpt lat="47.30909" lon="0.115">
        <ele>120</ele>
        <time>2014-09-14T12:04:01Z</time>
      </trkpt>
      <trkpt lat="47.30891" lon="0.11503">
        <ele>120</ele>
        <time>2014-09-14T12:04:06Z</time>
      </trkpt>
      <trkpt lat="47.30875" lon="0.1149">
        <ele>120</ele>
        <time>2014-09-14T12:04:12Z</time>
      </trkpt>
      <trkpt lat="47.30861" lon="0.11469">
        <ele>120</ele>
        <time>2014-09-14T12:04:17Z</time>
      </trkpt>
      <trkpt lat="47.30842" lon="0.11443">
        <ele>120</ele>
        <time>2014-09-14T12:04:22Z</time>
      </trkpt>
      <trkpt lat="47.30821" lon="0.11411">
        <ele>120</ele>
        <time>2014-09-14T12:04:28Z</time>
      </trkpt>
      <trkpt lat="47.30815" lon="0.11401">
        <ele>120</ele>
        <time>2014-09-14T12:04:30Z</time>
      </trkpt>
      <trkpt lat="47.30806" lon="0.11382">
        <ele>120</ele>
        <time>2014-09-14T12:04:33Z</time>
      </trkpt>
      <trkpt lat="47.30792" lon="0.11365">
        <ele>119</ele>
        <time>2014-09-14T12:04:36Z</time>
      </trkpt>
      <trkpt lat="47.30788" lon="0.11359">
        <ele>119</ele>
        <time>2014-09-14T12:04:37Z</time>
      </trkpt>
      <trkpt lat="47.30784" lon="0.11352">
        <ele>118</ele>
        <time>2014-09-14T12:04:38Z</time>
      </trkpt>
      <trkpt lat="47.3078" lon="0.11347">
        <ele>118</ele>
        <time>2014-09-14T12:04:39Z</time>
      </trkpt>
      <trkpt lat="47.30776" lon="0.11344">
        <ele>117</ele>
        <time>2014-09-14T12:04:40Z</time>
      </trkpt>
      <trkpt lat="47.30772" lon="0.11341">
        <ele>116</ele>
        <time>2014-09-14T12:04:41Z</time>
      </trkpt>
      <trkpt lat="47.30768" lon="0.11339">
        <ele>116</ele>
        <time>2014-09-14T12:04:42Z</time>
      </trkpt>
      <trkpt lat="47.30765" lon="0.11339">
        <ele>115</ele>
        <time>2014-09-14T12:04:43Z</time>
      </trkpt>
      <trkpt lat="47.30762" lon="0.11339">
        <ele>115</ele>
        <time>2014-09-14T12:04:44Z</time>
      </trkpt>
      <trkpt lat="47.3076" lon="0.1134">
        <ele>114</ele>
        <time>2014-09-14T12:04:45Z</time>
      </trkpt>
      <trkpt lat="47.30758" lon="0.11341">
        <ele>113</ele>
        <time>2014-09-14T12:04:46Z</time>
      </trkpt>
      <trkpt lat="47.30757" lon="0.11343">
        <ele>113</ele>
        <time>2014-09-14T12:04:47Z</time>
      </trkpt>
      <trkpt lat="47.30754" lon="0.11348">
        <ele>113</ele>
        <time>2014-09-14T12:04:49Z</time>
      </trkpt>
      <trkpt lat="47.30754" lon="0.11351">
        <ele>113</ele>
        <time>2014-09-14T12:04:50Z</time>
      </trkpt>
      <trkpt lat="47.30754" lon="0.11354">
        <ele>112</ele>
        <time>2014-09-14T12:04:51Z</time>
      </trkpt>
      <trkpt lat="47.30754" lon="0.11358">
        <ele>112</ele>
        <time>2014-09-14T12:04:52Z</time>
      </trkpt>
      <trkpt lat="47.30753" lon="0.11361">
        <ele>111</ele>
        <time>2014-09-14T12:04:53Z</time>
      </trkpt>
      <trkpt lat="47.30753" lon="0.11365">
        <ele>111</ele>
        <time>2014-09-14T12:04:54Z</time>
      </trkpt>
      <trkpt lat="47.30753" lon="0.11371">
        <ele>111</ele>
        <time>2014-09-14T12:04:55Z</time>
      </trkpt>
      <trkpt lat="47.30753" lon="0.11376">
        <ele>111</ele>
        <time>2014-09-14T12:04:56Z</time>
      </trkpt>
      <trkpt lat="47.30753" lon="0.11381">
        <ele>110</ele>
        <time>2014-09-14T12:04:57Z</time>
      </trkpt>
      <trkpt lat="47.30751" lon="0.11384">
        <ele>110</ele>
        <time>2014-09-14T12:04:58Z</time>
      </trkpt>
      <trkpt lat="47.30748" lon="0.11387">
        <ele>109</ele>
        <time>2014-09-14T12:04:59Z</time>
      </trkpt>
      <trkpt lat="47.30747" lon="0.11389">
        <ele>109</ele>
        <time>2014-09-14T12:05:00Z</time>
      </trkpt>
      <trkpt lat="47.30745" lon="0.1139">
        <ele>108</ele>
        <time>2014-09-14T12:05:01Z</time>
      </trkpt>
      <trkpt lat="47.30737" lon="0.11391">
        <ele>108</ele>
        <time>2014-09-14T12:05:05Z</time>
      </trkpt>
      <trkpt lat="47.30736" lon="0.11392">
        <ele>108</ele>
        <time>2014-09-14T12:05:06Z</time>
      </trkpt>
      <trkpt lat="47.30731" lon="0.11395">
        <ele>108</ele>
        <time>2014-09-14T12:05:08Z</time>
      </trkpt>
      <trkpt lat="47.30722" lon="0.11395">
        <ele>108</ele>
        <time>2014-09-14T12:05:11Z</time>
      </trkpt>
      <trkpt lat="47.30719" lon="0.11395">
        <ele>108</ele>
        <time>2014-09-14T12:05:12Z</time>
      </trkpt>
      <trkpt lat="47.30714" lon="0.11394">
        <ele>109</ele>
        <time>2014-09-14T12:05:14Z</time>
      </trkpt>
      <trkpt lat="47.30712" lon="0.11393">
        <ele>109</ele>
        <time>2014-09-14T12:05:15Z</time>
      </trkpt>
      <trkpt lat="47.3071" lon="0.11392">
        <ele>109</ele>
        <time>2014-09-14T12:05:16Z</time>
      </trkpt>
      <trkpt lat="47.30708" lon="0.11392">
        <ele>110</ele>
        <time>2014-09-14T12:05:17Z</time>
      </trkpt>
      <trkpt lat="47.30705" lon="0.11391">
        <ele>110</ele>
        <time>2014-09-14T12:05:18Z</time>
      </trkpt>
      <trkpt lat="47.30703" lon="0.11391">
        <ele>110</ele>
        <time>2014-09-14T12:05:19Z</time>
      </trkpt>
      <trkpt lat="47.30702" lon="0.11389">
        <ele>111</ele>
        <time>2014-09-14T12:05:20Z</time>
      </trkpt>
      <trkpt lat="47.307" lon="0.11389">
        <ele>111</ele>
        <time>2014-09-14T12:05:21Z</time>
      </trkpt>
      <trkpt lat="47.30699" lon="0.11388">
        <ele>112</ele>
        <time>2014-09-14T12:05:22Z</time>
      </trkpt>
      <trkpt lat="47.30698" lon="0.11387">
        <ele>112</ele>
        <time>2014-09-14T12:05:23Z</time>
      </trkpt>
      <trkpt lat="47.30697" lon="0.11385">
        <ele>113</ele>
        <time>2014-09-14T12:05:24Z</time>
      </trkpt>
      <trkpt lat="47.30695" lon="0.11382">
        <ele>113</ele>
        <time>2014-09-14T12:05:26Z</time>
      </trkpt>
      <trkpt lat="47.30693" lon="0.11379">
        <ele>113</ele>
        <time>2014-09-14T12:05:27Z</time>
      </trkpt>
      <trkpt lat="47.30689" lon="0.11376">
        <ele>113</ele>
        <time>2014-09-14T12:05:29Z</time>
      </trkpt>
      <trkpt lat="47.30688" lon="0.11374">
        <ele>113</ele>
        <time>2014-09-14T12:05:30Z</time>
      </trkpt>
      <trkpt lat="47.30687" lon="0.11373">
        <ele>114</ele>
        <time>2014-09-14T12:05:31Z</time>
      </trkpt>
      <trkpt lat="47.30686" lon="0.11372">
        <ele>114</ele>
        <time>2014-09-14T12:05:32Z</time>
      </trkpt>
      <trkpt lat="47.30684" lon="0.11371">
        <ele>115</ele>
        <time>2014-09-14T12:05:33Z</time>
      </trkpt>
      <trkpt lat="47.30679" lon="0.1137">
        <ele>115</ele>
        <time>2014-09-14T12:05:36Z</time>
      </trkpt>
      <trkpt lat="47.30675" lon="0.11372">
        <ele>115</ele>
        <time>2014-09-14T12:05:38Z</time>
      </trkpt>
      <trkpt lat="47.30655" lon="0.11387">
        <ele>115</ele>
        <time>2014-09-14T12:05:44Z</time>
      </trkpt>
      <trkpt lat="47.30639" lon="0.11395">
        <ele>115</ele>
        <time>2014-09-14T12:05:49Z</time>
      </trkpt>
      <trkpt lat="47.30623" lon="0.11398">
        <ele>115</ele>
        <time>2014-09-14T12:05:54Z</time>
      </trkpt>
      <trkpt lat="47.30607" lon="0.11391">
        <ele>115</ele>
        <time>2014-09-14T12:06:00Z</time>
      </trkpt>
      <trkpt lat="47.30604" lon="0.1139">
        <ele>116</ele>
        <time>2014-09-14T12:06:01Z</time>
      </trkpt>
      <trkpt lat="47.30602" lon="0.11389">
        <ele>116</ele>
        <time>2014-09-14T12:06:02Z</time>
      </trkpt>
      <trkpt lat="47.30599" lon="0.11387">
        <ele>116</ele>
        <time>2014-09-14T12:06:03Z</time>
      </trkpt>
      <trkpt lat="47.30595" lon="0.11385">
        <ele>117</ele>
        <time>2014-09-14T12:06:04Z</time>
      </trkpt>
      <trkpt lat="47.30583" lon="0.11383">
        <ele>117</ele>
        <time>2014-09-14T12:06:07Z</time>
      </trkpt>
      <trkpt lat="47.3057" lon="0.11378">
        <ele>117</ele>
        <time>2014-09-14T12:06:12Z</time>
      </trkpt>
      <trkpt lat="47.30568" lon="0.11368">
        <ele>117</ele>
        <time>2014-09-14T12:06:17Z</time>
      </trkpt>
      <trkpt lat="47.30566" lon="0.11368">
        <ele>117</ele>
        <time>2014-09-14T12:06:18Z</time>
      </trkpt>
      <trkpt lat="47.30557" lon="0.11365">
        <ele>117</ele>
        <time>2014-09-14T12:06:22Z</time>
      </trkpt>
      <trkpt lat="47.30546" lon="0.11363">
        <ele>117</ele>
        <time>2014-09-14T12:06:28Z</time>
      </trkpt>
      <trkpt lat="47.30544" lon="0.11362">
        <ele>117</ele>
        <time>2014-09-14T12:06:29Z</time>
      </trkpt>
      <trkpt lat="47.30537" lon="0.11357">
        <ele>117</ele>
        <time>2014-09-14T12:06:33Z</time>
      </trkpt>
      <trkpt lat="47.30529" lon="0.11352">
        <ele>117</ele>
        <time>2014-09-14T12:06:38Z</time>
      </trkpt>
      <trkpt lat="47.3052" lon="0.11351">
        <ele>117</ele>
        <time>2014-09-14T12:06:43Z</time>
      </trkpt>
      <trkpt lat="47.30514" lon="0.11347">
        <ele>117</ele>
        <time>2014-09-14T12:06:45Z</time>
      </trkpt>
      <trkpt lat="47.3051" lon="0.11344">
        <ele>117</ele>
        <time>2014-09-14T12:06:47Z</time>
      </trkpt>
      <trkpt lat="47.30502" lon="0.11338">
        <ele>116</ele>
        <time>2014-09-14T12:06:51Z</time>
      </trkpt>
      <trkpt lat="47.30501" lon="0.11338">
        <ele>116</ele>
        <time>2014-09-14T12:06:52Z</time>
      </trkpt>
      <trkpt lat="47.30499" lon="0.11338">
        <ele>116</ele>
        <time>2014-09-14T12:06:53Z</time>
      </trkpt>
      <trkpt lat="47.30496" lon="0.11339">
        <ele>115</ele>
        <time>2014-09-14T12:06:54Z</time>
      </trkpt>
      <trkpt lat="47.30492" lon="0.1134">
        <ele>115</ele>
        <time>2014-09-14T12:06:55Z</time>
      </trkpt>
      <trkpt lat="47.30488" lon="0.11342">
        <ele>115</ele>
        <time>2014-09-14T12:06:56Z</time>
      </trkpt>
      <trkpt lat="47.30481" lon="0.11347">
        <ele>114</ele>
        <time>2014-09-14T12:06:58Z</time>
      </trkpt>
      <trkpt lat="47.30478" lon="0.11348">
        <ele>114</ele>
        <time>2014-09-14T12:06:59Z</time>
      </trkpt>
      <trkpt lat="47.30475" lon="0.1135">
        <ele>113</ele>
        <time>2014-09-14T12:07:00Z</time>
      </trkpt>
      <trkpt lat="47.30472" lon="0.11352">
        <ele>113</ele>
        <time>2014-09-14T12:07:01Z</time>
      </trkpt>
      <trkpt lat="47.30469" lon="0.11353">
        <ele>113</ele>
        <time>2014-09-14T12:07:02Z</time>
      </trkpt>
      <trkpt lat="47.30466" lon="0.11354">
        <ele>112</ele>
        <time>2014-09-14T12:07:03Z</time>
      </trkpt>
      <trkpt lat="47.30463" lon="0.11353">
        <ele>112</ele>
        <time>2014-09-14T12:07:04Z</time>
      </trkpt>
      <trkpt lat="47.30461" lon="0.11354">
        <ele>111</ele>
        <time>2014-09-14T12:07:05Z</time>
      </trkpt>
      <trkpt lat="47.30459" lon="0.11353">
        <ele>111</ele>
        <time>2014-09-14T12:07:06Z</time>
      </trkpt>
      <trkpt lat="47.30451" lon="0.11355">
        <ele>110</ele>
        <time>2014-09-14T12:07:09Z</time>
      </trkpt>
      <trkpt lat="47.30449" lon="0.11358">
        <ele>110</ele>
        <time>2014-09-14T12:07:10Z</time>
      </trkpt>
      <trkpt lat="47.30448" lon="0.11361">
        <ele>109</ele>
        <time>2014-09-14T12:07:11Z</time>
      </trkpt>
      <trkpt lat="47.30447" lon="0.11365">
        <ele>109</ele>
        <time>2014-09-14T12:07:12Z</time>
      </trkpt>
      <trkpt lat="47.30446" lon="0.11369">
        <ele>108</ele>
        <time>2014-09-14T12:07:13Z</time>
      </trkpt>
      <trkpt lat="47.30445" lon="0.11373">
        <ele>108</ele>
        <time>2014-09-14T12:07:14Z</time>
      </trkpt>
      <trkpt lat="47.30443" lon="0.11378">
        <ele>107</ele>
        <time>2014-09-14T12:07:15Z</time>
      </trkpt>
      <trkpt lat="47.30443" lon="0.11381">
        <ele>107</ele>
        <time>2014-09-14T12:07:16Z</time>
      </trkpt>
      <trkpt lat="47.30442" lon="0.11385">
        <ele>106</ele>
        <time>2014-09-14T12:07:17Z</time>
      </trkpt>
      <trkpt lat="47.30441" lon="0.11388">
        <ele>105</ele>
        <time>2014-09-14T12:07:18Z</time>
      </trkpt>
      <trkpt lat="47.3044" lon="0.11391">
        <ele>104</ele>
        <time>2014-09-14T12:07:19Z</time>
      </trkpt>
      <trkpt lat="47.30438" lon="0.11394">
        <ele>104</ele>
        <time>2014-09-14T12:07:20Z</time>
      </trkpt>
      <trkpt lat="47.30431" lon="0.11396">
        <ele>104</ele>
        <time>2014-09-14T12:07:24Z</time>
      </trkpt>
      <trkpt lat="47.30429" lon="0.11392">
        <ele>103</ele>
        <time>2014-09-14T12:07:25Z</time>
      </trkpt>
      <trkpt lat="47.30427" lon="0.11388">
        <ele>103</ele>
        <time>2014-09-14T12:07:26Z</time>
      </trkpt>
      <trkpt lat="47.30424" lon="0.11384">
        <ele>102</ele>
        <time>2014-09-14T12:07:27Z</time>
      </trkpt>
      <trkpt lat="47.30421" lon="0.11381">
        <ele>102</ele>
        <time>2014-09-14T12:07:28Z</time>
      </trkpt>
      <trkpt lat="47.30417" lon="0.11378">
        <ele>101</ele>
        <time>2014-09-14T12:07:29Z</time>
      </trkpt>
      <trkpt lat="47.30408" lon="0.1137">
        <ele>101</ele>
        <time>2014-09-14T12:07:31Z</time>
      </trkpt>
      <trkpt lat="47.30399" lon="0.11361">
        <ele>101</ele>
        <time>2014-09-14T12:07:33Z</time>
      </trkpt>
      <trkpt lat="47.30395" lon="0.11355">
        <ele>100</ele>
        <time>2014-09-14T12:07:34Z</time>
      </trkpt>
      <trkpt lat="47.30391" lon="0.11349">
        <ele>100</ele>
        <time>2014-09-14T12:07:35Z</time>
      </trkpt>
      <trkpt lat="47.30386" lon="0.11344">
        <ele>99</ele>
        <time>2014-09-14T12:07:36Z</time>
      </trkpt>
      <trkpt lat="47.30382" lon="0.1134">
        <ele>99</ele>
        <time>2014-09-14T12:07:37Z</time>
      </trkpt>
      <trkpt lat="47.30377" lon="0.11339">
        <ele>99</ele>
        <time>2014-09-14T12:07:38Z</time>
      </trkpt>
      <trkpt lat="47.30372" lon="0.11339">
        <ele>98</ele>
        <time>2014-09-14T12:07:39Z</time>
      </trkpt>
      <trkpt lat="47.30367" lon="0.1134">
        <ele>98</ele>
        <time>2014-09-14T12:07:40Z</time>
      </trkpt>
      <trkpt lat="47.30363" lon="0.11341">
        <ele>97</ele>
        <time>2014-09-14T12:07:41Z</time>
      </trkpt>
      <trkpt lat="47.30359" lon="0.11342">
        <ele>96</ele>
        <time>2014-09-14T12:07:42Z</time>
      </trkpt>
      <trkpt lat="47.30355" lon="0.11344">
        <ele>96</ele>
        <time>2014-09-14T12:07:43Z</time>
      </trkpt>
      <trkpt lat="47.30351" lon="0.11347">
        <ele>95</ele>
        <time>2014-09-14T12:07:44Z</time>
      </trkpt>
      <trkpt lat="47.30345" lon="0.11349">
        <ele>94</ele>
        <time>2014-09-14T12:07:45Z</time>
      </trkpt>
      <trkpt lat="47.30341" lon="0.11352">
        <ele>94</ele>
        <time>2014-09-14T12:07:46Z</time>
      </trkpt>
      <trkpt lat="47.30337" lon="0.11354">
        <ele>93</ele>
        <time>2014-09-14T12:07:47Z</time>
      </trkpt>
      <trkpt lat="47.30333" lon="0.11354">
        <ele>92</ele>
        <time>2014-09-14T12:07:48Z</time>
      </trkpt>
      <trkpt lat="47.30329" lon="0.11352">
        <ele>92</ele>
        <time>2014-09-14T12:07:49Z</time>
      </trkpt>
      <trkpt lat="47.30325" lon="0.1135">
        <ele>92</ele>
        <time>2014-09-14T12:07:50Z</time>
      </trkpt>
      <trkpt lat="47.3032" lon="0.11349">
        <ele>91</ele>
        <time>2014-09-14T12:07:51Z</time>
      </trkpt>
      <trkpt lat="47.30316" lon="0.11349">
        <ele>91</ele>
        <time>2014-09-14T12:07:52Z</time>
      </trkpt>
      <trkpt lat="47.30312" lon="0.11349">
        <ele>90</ele>
        <time>2014-09-14T12:07:53Z</time>
      </trkpt>
      <trkpt lat="47.30304" lon="0.11348">
        <ele>90</ele>
        <time>2014-09-14T12:07:54Z</time>
      </trkpt>
      <trkpt lat="47.30302" lon="0.11349">
        <ele>89</ele>
        <time>2014-09-14T12:07:55Z</time>
      </trkpt>
      <trkpt lat="47.30301" lon="0.1135">
        <ele>89</ele>
        <time>2014-09-14T12:07:56Z</time>
      </trkpt>
      <trkpt lat="47.303" lon="0.11351">
        <ele>88</ele>
        <time>2014-09-14T12:07:57Z</time>
      </trkpt>
      <trkpt lat="47.303" lon="0.11351">
        <ele>88</ele>
        <time>2014-09-14T12:07:58Z</time>
      </trkpt>
      <trkpt lat="47.30302" lon="0.11355">
        <ele>88</ele>
        <time>2014-09-14T12:08:02Z</time>
      </trkpt>
      <trkpt lat="47.30297" lon="0.11369">
        <ele>88</ele>
        <time>2014-09-14T12:08:07Z</time>
      </trkpt>
      <trkpt lat="47.30289" lon="0.11393">
        <ele>88</ele>
        <time>2014-09-14T12:08:12Z</time>
      </trkpt>
      <trkpt lat="47.30288" lon="0.11398">
        <ele>88</ele>
        <time>2014-09-14T12:08:13Z</time>
      </trkpt>
      <trkpt lat="47.30286" lon="0.11403">
        <ele>88</ele>
        <time>2014-09-14T12:08:14Z</time>
      </trkpt>
      <trkpt lat="47.30284" lon="0.11409">
        <ele>89</ele>
        <time>2014-09-14T12:08:15Z</time>
      </trkpt>
      <trkpt lat="47.30283" lon="0.11416">
        <ele>89</ele>
        <time>2014-09-14T12:08:16Z</time>
      </trkpt>
      <trkpt lat="47.30281" lon="0.11421">
        <ele>90</ele>
        <time>2014-09-14T12:08:17Z</time>
      </trkpt>
      <trkpt lat="47.30279" lon="0.11427">
        <ele>90</ele>
        <time>2014-09-14T12:08:18Z</time>
      </trkpt>
      <trkpt lat="47.30273" lon="0.11449">
        <ele>90</ele>
        <time>2014-09-14T12:08:23Z</time>
      </trkpt>
      <trkpt lat="47.30272" lon="0.11468">
        <ele>90</ele>
        <time>2014-09-14T12:08:28Z</time>
      </trkpt>
      <trkpt lat="47.30275" lon="0.11495">
        <ele>90</ele>
        <time>2014-09-14T12:08:33Z</time>
      </trkpt>
      <trkpt lat="47.30276" lon="0.11501">
        <ele>90</ele>
        <time>2014-09-14T12:08:34Z</time>
      </trkpt>
      <trkpt lat="47.30287" lon="0.11517">
        <ele>90</ele>
        <time>2014-09-14T12:08:38Z</time>
      </trkpt>
      <trkpt lat="47.30303" lon="0.11522">
        <ele>90</ele>
        <time>2014-09-14T12:08:43Z</time>
      </trkpt>
      <trkpt lat="47.30319" lon="0.11536">
        <ele>90</ele>
        <time>2014-09-14T12:08:49Z</time>
      </trkpt>
      <trkpt lat="47.30334" lon="0.11552">
        <ele>90</ele>
        <time>2014-09-14T12:08:54Z</time>
      </trkpt>
      <trkpt lat="47.30337" lon="0.11555">
        <ele>90</ele>
        <time>2014-09-14T12:08:55Z</time>
      </trkpt>
      <trkpt lat="47.30339" lon="0.11558">
        <ele>91</ele>
        <time>2014-09-14T12:08:56Z</time>
      </trkpt>
      <trkpt lat="47.30342" lon="0.11561">
        <ele>91</ele>
        <time>2014-09-14T12:08:57Z</time>
      </trkpt>
      <trkpt lat="47.30345" lon="0.11564">
        <ele>92</ele>
        <time>2014-09-14T12:08:58Z</time>
      </trkpt>
      <trkpt lat="47.30351" lon="0.11571">
        <ele>92</ele>
        <time>2014-09-14T12:09:00Z</time>
      </trkpt>
      <trkpt lat="47.30361" lon="0.1158">
        <ele>92</ele>
        <time>2014-09-14T12:09:03Z</time>
      </trkpt>
      <trkpt lat="47.30369" lon="0.11583">
        <ele>92</ele>
        <time>2014-09-14T12:09:06Z</time>
      </trkpt>
      <trkpt lat="47.30373" lon="0.11583">
        <ele>92</ele>
        <time>2014-09-14T12:09:07Z</time>
      </trkpt>
      <trkpt lat="47.30386" lon="0.11589">
        <ele>92</ele>
        <time>2014-09-14T12:09:12Z</time>
      </trkpt>
      <trkpt lat="47.30387" lon="0.11592">
        <ele>92</ele>
        <time>2014-09-14T12:09:13Z</time>
      </trkpt>
      <trkpt lat="47.30387" lon="0.11603">
        <ele>92</ele>
        <time>2014-09-14T12:09:16Z</time>
      </trkpt>
      <trkpt lat="47.30385" lon="0.11614">
        <ele>92</ele>
        <time>2014-09-14T12:09:18Z</time>
      </trkpt>
      <trkpt lat="47.30382" lon="0.11634">
        <ele>92</ele>
        <time>2014-09-14T12:09:21Z</time>
      </trkpt>
      <trkpt lat="47.30379" lon="0.1165">
        <ele>91</ele>
        <time>2014-09-14T12:09:23Z</time>
      </trkpt>
      <trkpt lat="47.30375" lon="0.11665">
        <ele>91</ele>
        <time>2014-09-14T12:09:24Z</time>
      </trkpt>
      <trkpt lat="47.30372" lon="0.11676">
        <ele>90</ele>
        <time>2014-09-14T12:09:25Z</time>
      </trkpt>
      <trkpt lat="47.3037" lon="0.11683">
        <ele>90</ele>
        <time>2014-09-14T12:09:26Z</time>
      </trkpt>
      <trkpt lat="47.30369" lon="0.11691">
        <ele>90</ele>
        <time>2014-09-14T12:09:27Z</time>
      </trkpt>
      <trkpt lat="47.30369" lon="0.11696">
        <ele>89</ele>
        <time>2014-09-14T12:09:28Z</time>
      </trkpt>
      <trkpt lat="47.30372" lon="0.117">
        <ele>88</ele>
        <time>2014-09-14T12:09:29Z</time>
      </trkpt>
      <trkpt lat="47.30376" lon="0.11702">
        <ele>88</ele>
        <time>2014-09-14T12:09:30Z</time>
      </trkpt>
      <trkpt lat="47.3038" lon="0.11704">
        <ele>87</ele>
        <time>2014-09-14T12:09:31Z</time>
      </trkpt>
      <trkpt lat="47.30388" lon="0.11709">
        <ele>87</ele>
        <time>2014-09-14T12:09:33Z</time>
      </trkpt>
      <trkpt lat="47.30402" lon="0.11727">
        <ele>87</ele>
        <time>2014-09-14T12:09:37Z</time>
      </trkpt>
      <trkpt lat="47.30406" lon="0.11732">
        <ele>87</ele>
        <time>2014-09-14T12:09:38Z</time>
      </trkpt>
      <trkpt lat="47.30416" lon="0.11747">
        <ele>87</ele>
        <time>2014-09-14T12:09:41Z</time>
      </trkpt>
      <trkpt lat="47.30428" lon="0.1176">
        <ele>87</ele>
        <time>2014-09-14T12:09:44Z</time>
      </trkpt>
      <trkpt lat="47.30436" lon="0.11767">
        <ele>87</ele>
        <time>2014-09-14T12:09:46Z</time>
      </trkpt>
      <trkpt lat="47.30439" lon="0.11778">
        <ele>87</ele>
        <time>2014-09-14T12:09:48Z</time>
      </trkpt>
      <trkpt lat="47.30434" lon="0.11796">
        <ele>87</ele>
        <time>2014-09-14T12:09:51Z</time>
      </trkpt>
      <trkpt lat="47.30426" lon="0.11815">
        <ele>87</ele>
        <time>2014-09-14T12:09:54Z</time>
      </trkpt>
      <trkpt lat="47.3042" lon="0.11829">
        <ele>87</ele>
        <time>2014-09-14T12:09:56Z</time>
      </trkpt>
      <trkpt lat="47.30416" lon="0.11835">
        <ele>87</ele>
        <time>2014-09-14T12:09:57Z</time>
      </trkpt>
      <trkpt lat="47.30406" lon="0.11844">
        <ele>87</ele>
        <time>2014-09-14T12:09:59Z</time>
      </trkpt>
      <trkpt lat="47.30401" lon="0.11849">
        <ele>86</ele>
        <time>2014-09-14T12:10:00Z</time>
      </trkpt>
      <trkpt lat="47.30396" lon="0.11853">
        <ele>86</ele>
        <time>2014-09-14T12:10:01Z</time>
      </trkpt>
      <trkpt lat="47.30391" lon="0.11857">
        <ele>85</ele>
        <time>2014-09-14T12:10:02Z</time>
      </trkpt>
      <trkpt lat="47.30386" lon="0.1186">
        <ele>85</ele>
        <time>2014-09-14T12:10:03Z</time>
      </trkpt>
      <trkpt lat="47.30382" lon="0.11863">
        <ele>85</ele>
        <time>2014-09-14T12:10:04Z</time>
      </trkpt>
      <trkpt lat="47.30371" lon="0.11876">
        <ele>85</ele>
        <time>2014-09-14T12:10:08Z</time>
      </trkpt>
      <trkpt lat="47.30369" lon="0.11879">
        <ele>86</ele>
        <time>2014-09-14T12:10:09Z</time>
      </trkpt>
      <trkpt lat="47.30367" lon="0.11881">
        <ele>86</ele>
        <time>2014-09-14T12:10:10Z</time>
      </trkpt>
      <trkpt lat="47.30365" lon="0.11884">
        <ele>87</ele>
        <time>2014-09-14T12:10:11Z</time>
      </trkpt>
      <trkpt lat="47.30362" lon="0.11886">
        <ele>87</ele>
        <time>2014-09-14T12:10:12Z</time>
      </trkpt>
      <trkpt lat="47.30358" lon="0.11893">
        <ele>87</ele>
        <time>2014-09-14T12:10:14Z</time>
      </trkpt>
      <trkpt lat="47.30356" lon="0.11897">
        <ele>88</ele>
        <time>2014-09-14T12:10:15Z</time>
      </trkpt>
      <trkpt lat="47.30354" lon="0.119">
        <ele>88</ele>
        <time>2014-09-14T12:10:16Z</time>
      </trkpt>
      <trkpt lat="47.30351" lon="0.11903">
        <ele>89</ele>
        <time>2014-09-14T12:10:17Z</time>
      </trkpt>
      <trkpt lat="47.30348" lon="0.11906">
        <ele>89</ele>
        <time>2014-09-14T12:10:18Z</time>
      </trkpt>
      <trkpt lat="47.30345" lon="0.11907">
        <ele>89</ele>
        <time>2014-09-14T12:10:19Z</time>
      </trkpt>
      <trkpt lat="47.30332" lon="0.11911">
        <ele>89</ele>
        <time>2014-09-14T12:10:23Z</time>
      </trkpt>
      <trkpt lat="47.30326" lon="0.11926">
        <ele>89</ele>
        <time>2014-09-14T12:10:27Z</time>
      </trkpt>
      <trkpt lat="47.30317" lon="0.11937">
        <ele>89</ele>
        <time>2014-09-14T12:10:30Z</time>
      </trkpt>
      <trkpt lat="47.30312" lon="0.11938">
        <ele>89</ele>
        <time>2014-09-14T12:10:31Z</time>
      </trkpt>
      <trkpt lat="47.30295" lon="0.11935">
        <ele>89</ele>
        <time>2014-09-14T12:10:34Z</time>
      </trkpt>
      <trkpt lat="47.30289" lon="0.11933">
        <ele>89</ele>
        <time>2014-09-14T12:10:35Z</time>
      </trkpt>
      <trkpt lat="47.30284" lon="0.11934">
        <ele>89</ele>
        <time>2014-09-14T12:10:36Z</time>
      </trkpt>
      <trkpt lat="47.30279" lon="0.11936">
        <ele>89</ele>
        <time>2014-09-14T12:10:37Z</time>
      </trkpt>
      <trkpt lat="47.30275" lon="0.11942">
        <ele>88</ele>
        <time>2014-09-14T12:10:38Z</time>
      </trkpt>
      <trkpt lat="47.30271" lon="0.11949">
        <ele>88</ele>
        <time>2014-09-14T12:10:39Z</time>
      </trkpt>
      <trkpt lat="47.30268" lon="0.11956">
        <ele>87</ele>
        <time>2014-09-14T12:10:40Z</time>
      </trkpt>
      <trkpt lat="47.30265" lon="0.11962">
        <ele>87</ele>
        <time>2014-09-14T12:10:41Z</time>
      </trkpt>
      <trkpt lat="47.30262" lon="0.11969">
        <ele>87</ele>
        <time>2014-09-14T12:10:42Z</time>
      </trkpt>
      <trkpt lat="47.30248" lon="0.11991">
        <ele>87</ele>
        <time>2014-09-14T12:10:46Z</time>
      </trkpt>
      <trkpt lat="47.30243" lon="0.11997">
        <ele>87</ele>
        <time>2014-09-14T12:10:47Z</time>
      </trkpt>
      <trkpt lat="47.3023" lon="0.12014">
        <ele>87</ele>
        <time>2014-09-14T12:10:50Z</time>
      </trkpt>
      <trkpt lat="47.30226" lon="0.12021">
        <ele>86</ele>
        <time>2014-09-14T12:10:51Z</time>
      </trkpt>
      <trkpt lat="47.30222" lon="0.12029">
        <ele>86</ele>
        <time>2014-09-14T12:10:52Z</time>
      </trkpt>
      <trkpt lat="47.30218" lon="0.12037">
        <ele>85</ele>
        <time>2014-09-14T12:10:53Z</time>
      </trkpt>
      <trkpt lat="47.30214" lon="0.12044">
        <ele>85</ele>
        <time>2014-09-14T12:10:54Z</time>
      </trkpt>
      <trkpt lat="47.3021" lon="0.12053">
        <ele>85</ele>
        <time>2014-09-14T12:10:55Z</time>
      </trkpt>
      <trkpt lat="47.30201" lon="0.12079">
        <ele>84</ele>
        <time>2014-09-14T12:10:58Z</time>
      </trkpt>
      <trkpt lat="47.30199" lon="0.12086">
        <ele>84</ele>
        <time>2014-09-14T12:10:59Z</time>
      </trkpt>
      <trkpt lat="47.30195" lon="0.12091">
        <ele>83</ele>
        <time>2014-09-14T12:11:00Z</time>
      </trkpt>
      <trkpt lat="47.30191" lon="0.12094">
        <ele>83</ele>
        <time>2014-09-14T12:11:01Z</time>
      </trkpt>
      <trkpt lat="47.30186" lon="0.12096">
        <ele>83</ele>
        <time>2014-09-14T12:11:02Z</time>
      </trkpt>
      <trkpt lat="47.30182" lon="0.12098">
        <ele>83</ele>
        <time>2014-09-14T12:11:03Z</time>
      </trkpt>
      <trkpt lat="47.30172" lon="0.12103">
        <ele>82</ele>
        <time>2014-09-14T12:11:05Z</time>
      </trkpt>
      <trkpt lat="47.30169" lon="0.12108">
        <ele>82</ele>
        <time>2014-09-14T12:11:06Z</time>
      </trkpt>
      <trkpt lat="47.30165" lon="0.12113">
        <ele>81</ele>
        <time>2014-09-14T12:11:07Z</time>
      </trkpt>
      <trkpt lat="47.30161" lon="0.1212">
        <ele>80</ele>
        <time>2014-09-14T12:11:08Z</time>
      </trkpt>
      <trkpt lat="47.30158" lon="0.12127">
        <ele>80</ele>
        <time>2014-09-14T12:11:09Z</time>
      </trkpt>
      <trkpt lat="47.30154" lon="0.12133">
        <ele>79</ele>
        <time>2014-09-14T12:11:10Z</time>
      </trkpt>
      <trkpt lat="47.3015" lon="0.12139">
        <ele>79</ele>
        <time>2014-09-14T12:11:11Z</time>
      </trkpt>
      <trkpt lat="47.30145" lon="0.12145">
        <ele>78</ele>
        <time>2014-09-14T12:11:12Z</time>
      </trkpt>
      <trkpt lat="47.3014" lon="0.12151">
        <ele>78</ele>
        <time>2014-09-14T12:11:13Z</time>
      </trkpt>
      <trkpt lat="47.30136" lon="0.12156">
        <ele>77</ele>
        <time>2014-09-14T12:11:14Z</time>
      </trkpt>
      <trkpt lat="47.30131" lon="0.12162">
        <ele>77</ele>
        <time>2014-09-14T12:11:15Z</time>
      </trkpt>
      <trkpt lat="47.30128" lon="0.12167">
        <ele>76</ele>
        <time>2014-09-14T12:11:16Z</time>
      </trkpt>
      <trkpt lat="47.30123" lon="0.12174">
        <ele>76</ele>
        <time>2014-09-14T12:11:17Z</time>
      </trkpt>
      <trkpt lat="47.3012" lon="0.12181">
        <ele>75</ele>
        <time>2014-09-14T12:11:18Z</time>
      </trkpt>
      <trkpt lat="47.30118" lon="0.12188">
        <ele>75</ele>
        <time>2014-09-14T12:11:19Z</time>
      </trkpt>
      <trkpt lat="47.30116" lon="0.12195">
        <ele>74</ele>
        <time>2014-09-14T12:11:20Z</time>
      </trkpt>
      <trkpt lat="47.30115" lon="0.122">
        <ele>74</ele>
        <time>2014-09-14T12:11:21Z</time>
      </trkpt>
      <trkpt lat="47.30114" lon="0.12207">
        <ele>74</ele>
        <time>2014-09-14T12:11:22Z</time>
      </trkpt>
      <trkpt lat="47.30112" lon="0.12214">
        <ele>73</ele>
        <time>2014-09-14T12:11:23Z</time>
      </trkpt>
      <trkpt lat="47.30104" lon="0.12238">
        <ele>73</ele>
        <time>2014-09-14T12:11:28Z</time>
      </trkpt>
      <trkpt lat="47.301" lon="0.12238">
        <ele>73</ele>
        <time>2014-09-14T12:11:29Z</time>
      </trkpt>
      <trkpt lat="47.30121" lon="0.1224">
        <ele>61.378906</ele>
        <time>2014-09-14T08:18:20Z</time>
      </trkpt>
      <trkpt lat="47.30152" lon="0.12253">
        <ele>64.679688</ele>
        <time>2014-09-14T08:18:20Z</time>
      </trkpt>
      <trkpt lat="47.30195" lon="0.12264">
        <ele>69.167969</ele>
        <time>2014-09-14T08:18:20Z</time>
      </trkpt>
      <trkpt lat="47.30245" lon="0.12284">
        <ele>73.183594</ele>
        <time>2014-09-14T08:18:20Z</time>
      </trkpt>
      <trkpt lat="47.30307" lon="0.12299">
        <ele>75.792969</ele>
        <time>2014-09-14T08:18:20Z</time>
      </trkpt>
      <trkpt lat="47.30298" lon="0.1231">
        <ele>75.46875</ele>
        <time>2014-09-14T08:18:20Z</time>
      </trkpt>
      <trkpt lat="47.30271" lon="0.12308">
        <ele>74.5</ele>
        <time>2014-09-14T08:18:20Z</time>
      </trkpt>
      <trkpt lat="47.30269" lon="0.12308">
        <ele>74.433594</ele>
        <time>2014-09-14T08:18:20Z</time>
      </trkpt>
      <trkpt lat="47.3024" lon="0.12301">
        <ele>72.867188</ele>
        <time>2014-09-14T08:18:20Z</time>
      </trkpt>
      <trkpt lat="47.30195" lon="0.12286">
        <ele>69.464844</ele>
        <time>2014-09-14T08:18:20Z</time>
      </trkpt>
      <trkpt lat="47.30193" lon="0.12286">
        <ele>69.308594</ele>
        <time>2014-09-14T08:18:20Z</time>
      </trkpt>
      <trkpt lat="47.30183" lon="0.12341">
        <ele>69.652344</ele>
        <time>2014-09-14T08:18:20Z</time>
      </trkpt>
      <trkpt lat="47.30177" lon="0.12398">
        <ele>69.265625</ele>
        <time>2014-09-14T08:18:20Z</time>
      </trkpt>
      <trkpt lat="47.30168" lon="0.12442">
        <ele>67.617188</ele>
        <time>2014-09-14T08:18:20Z</time>
      </trkpt>
      <trkpt lat="47.30143" lon="0.1247">
        <ele>65.730469</ele>
        <time>2014-09-14T08:18:20Z</time>
      </trkpt>
      <trkpt lat="47.30139" lon="0.12501">
        <ele>65.546875</ele>
        <time>2014-09-14T08:18:20Z</time>
      </trkpt>
      <trkpt lat="47.30139" lon="0.12503">
        <ele>65.546875</ele>
        <time>2014-09-14T08:18:20Z</time>
      </trkpt>
      <trkpt lat="47.30132" lon="0.12538">
        <ele>65.03125</ele>
        <time>2014-09-14T08:18:20Z</time>
      </trkpt>
      <trkpt lat="47.30132" lon="0.12569">
        <ele>65.03125</ele>
        <time>2014-09-14T08:18:20Z</time>
      </trkpt>
      <trkpt lat="47.30147" lon="0.12571">
        <ele>66.03125</ele>
        <time>2014-09-14T08:18:20Z</time>
      </trkpt>
      <trkpt lat="47.30156" lon="0.12571">
        <ele>66.355469</ele>
        <time>2014-09-14T08:18:20Z</time>
      </trkpt>
      <trkpt lat="47.30157" lon="0.12571">
        <ele>66.421875</ele>
        <time>2014-09-14T08:18:20Z</time>
      </trkpt>
      <trkpt lat="47.3017" lon="0.12569">
        <ele>66.875</ele>
        <time>2014-09-14T08:18:20Z</time>
      </trkpt>
      <trkpt lat="47.30174" lon="0.12582">
        <ele>66.769531</ele>
        <time>2014-09-14T08:18:20Z</time>
      </trkpt>
      <trkpt lat="47.30175" lon="0.12604">
        <ele>66.066406</ele>
        <time>2014-09-14T08:18:20Z</time>
      </trkpt>
      <trkpt lat="47.30186" lon="0.12624">
        <ele>66.457031</ele>
        <time>2014-09-14T08:18:20Z</time>
      </trkpt>
      <trkpt lat="47.30186" lon="0.12626">
        <ele>66.457031</ele>
        <time>2014-09-14T08:18:20Z</time>
      </trkpt>
      <trkpt lat="47.30195" lon="0.12644">
        <ele>66.332031</ele>
        <time>2014-09-14T08:18:20Z</time>
      </trkpt>
      <trkpt lat="47.30195" lon="0.12666">
        <ele>65.59375</ele>
        <time>2014-09-14T08:18:20Z</time>
      </trkpt>
      <trkpt lat="47.30195" lon="0.12694">
        <ele>65</ele>
        <time>2014-09-14T08:18:20Z</time>
      </trkpt>
      <trkpt lat="47.30196" lon="0.12716">
        <ele>37</ele>
        <time>2014-09-14T08:18:20Z</time>
      </trkpt>
      <trkpt lat="47.30197" lon="0.12716">
        <ele>37</ele>
        <time>2014-09-14T08:18:21Z</time>
      </trkpt>
      <trkpt lat="47.30201" lon="0.12722">
        <ele>37</ele>
        <time>2014-09-14T08:18:24Z</time>
      </trkpt>
      <trkpt lat="47.30204" lon="0.12738">
        <ele>37</ele>
        <time>2014-09-14T08:18:28Z</time>
      </trkpt>
      <trkpt lat="47.30205" lon="0.12741">
        <ele>37</ele>
        <time>2014-09-14T08:18:29Z</time>
      </trkpt>
      <trkpt lat="47.3021" lon="0.12759">
        <ele>37</ele>
        <time>2014-09-14T08:18:34Z</time>
      </trkpt>
      <trkpt lat="47.30219" lon="0.12771">
        <ele>37</ele>
        <time>2014-09-14T08:18:39Z</time>
      </trkpt>
      <trkpt lat="47.30228" lon="0.1278">
        <ele>38</ele>
        <time>2014-09-14T08:18:43Z</time>
      </trkpt>
      <trkpt lat="47.3023" lon="0.12783">
        <ele>38</ele>
        <time>2014-09-14T08:18:44Z</time>
      </trkpt>
      <trkpt lat="47.30232" lon="0.12786">
        <ele>39</ele>
        <time>2014-09-14T08:18:45Z</time>
      </trkpt>
      <trkpt lat="47.30235" lon="0.12788">
        <ele>39</ele>
        <time>2014-09-14T08:18:46Z</time>
      </trkpt>
      <trkpt lat="47.30237" lon="0.12791">
        <ele>40</ele>
        <time>2014-09-14T08:18:47Z</time>
      </trkpt>
      <trkpt lat="47.3025" lon="0.12804">
        <ele>40</ele>
        <time>2014-09-14T08:18:52Z</time>
      </trkpt>
      <trkpt lat="47.30261" lon="0.12813">
        <ele>40</ele>
        <time>2014-09-14T08:18:56Z</time>
      </trkpt>
      <trkpt lat="47.30264" lon="0.12815">
        <ele>41</ele>
        <time>2014-09-14T08:18:57Z</time>
      </trkpt>
      <trkpt lat="47.30267" lon="0.12818">
        <ele>41</ele>
        <time>2014-09-14T08:18:58Z</time>
      </trkpt>
      <trkpt lat="47.3027" lon="0.12819">
        <ele>41</ele>
        <time>2014-09-14T08:18:59Z</time>
      </trkpt>
      <trkpt lat="47.30274" lon="0.12821">
        <ele>42</ele>
        <time>2014-09-14T08:19:00Z</time>
      </trkpt>
      <trkpt lat="47.3029" lon="0.12832">
        <ele>42</ele>
        <time>2014-09-14T08:19:05Z</time>
      </trkpt>
      <trkpt lat="47.30299" lon="0.12855">
        <ele>42</ele>
        <time>2014-09-14T08:19:10Z</time>
      </trkpt>
      <trkpt lat="47.303" lon="0.12861">
        <ele>42</ele>
        <time>2014-09-14T08:19:11Z</time>
      </trkpt>
      <trkpt lat="47.30301" lon="0.12865">
        <ele>43</ele>
        <time>2014-09-14T08:19:12Z</time>
      </trkpt>
      <trkpt lat="47.30303" lon="0.1287">
        <ele>43</ele>
        <time>2014-09-14T08:19:13Z</time>
      </trkpt>
      <trkpt lat="47.30304" lon="0.12876">
        <ele>44</ele>
        <time>2014-09-14T08:19:14Z</time>
      </trkpt>
      <trkpt lat="47.30305" lon="0.1288">
        <ele>44</ele>
        <time>2014-09-14T08:19:15Z</time>
      </trkpt>
      <trkpt lat="47.30308" lon="0.1289">
        <ele>44</ele>
        <time>2014-09-14T08:19:17Z</time>
      </trkpt>
      <trkpt lat="47.30319" lon="0.12898">
        <ele>44</ele>
        <time>2014-09-14T08:19:21Z</time>
      </trkpt>
      <trkpt lat="47.30328" lon="0.12902">
        <ele>44</ele>
        <time>2014-09-14T08:19:24Z</time>
      </trkpt>
      <trkpt lat="47.30331" lon="0.12904">
        <ele>45</ele>
        <time>2014-09-14T08:19:25Z</time>
      </trkpt>
      <trkpt lat="47.30334" lon="0.12905">
        <ele>45</ele>
        <time>2014-09-14T08:19:26Z</time>
      </trkpt>
      <trkpt lat="47.30337" lon="0.12906">
        <ele>46</ele>
        <time>2014-09-14T08:19:27Z</time>
      </trkpt>
      <trkpt lat="47.30339" lon="0.12908">
        <ele>46</ele>
        <time>2014-09-14T08:19:28Z</time>
      </trkpt>
      <trkpt lat="47.30353" lon="0.12916">
        <ele>46</ele>
        <time>2014-09-14T08:19:33Z</time>
      </trkpt>
      <trkpt lat="47.30359" lon="0.1292">
        <ele>46</ele>
        <time>2014-09-14T08:19:35Z</time>
      </trkpt>
      <trkpt lat="47.30369" lon="0.12924">
        <ele>46</ele>
        <time>2014-09-14T08:19:39Z</time>
      </trkpt>
      <trkpt lat="47.30371" lon="0.12925">
        <ele>47</ele>
        <time>2014-09-14T08:19:40Z</time>
      </trkpt>
      <trkpt lat="47.30373" lon="0.12926">
        <ele>48</ele>
        <time>2014-09-14T08:19:41Z</time>
      </trkpt>
      <trkpt lat="47.30375" lon="0.12927">
        <ele>48</ele>
        <time>2014-09-14T08:19:42Z</time>
      </trkpt>
      <trkpt lat="47.30384" lon="0.12935">
        <ele>48</ele>
        <time>2014-09-14T08:19:47Z</time>
      </trkpt>
      <trkpt lat="47.30387" lon="0.1294">
        <ele>48</ele>
        <time>2014-09-14T08:19:49Z</time>
      </trkpt>
      <trkpt lat="47.30388" lon="0.12942">
        <ele>49</ele>
        <time>2014-09-14T08:19:50Z</time>
      </trkpt>
      <trkpt lat="47.30389" lon="0.12943">
        <ele>49</ele>
        <time>2014-09-14T08:19:51Z</time>
      </trkpt>
      <trkpt lat="47.30388" lon="0.12945">
        <ele>50</ele>
        <time>2014-09-14T08:19:52Z</time>
      </trkpt>
      <trkpt lat="47.30389" lon="0.12945">
        <ele>50</ele>
        <time>2014-09-14T08:19:53Z</time>
      </trkpt>
      <trkpt lat="47.30389" lon="0.12948">
        <ele>50</ele>
        <time>2014-09-14T08:19:54Z</time>
      </trkpt>
      <trkpt lat="47.3039" lon="0.1295">
        <ele>50</ele>
        <time>2014-09-14T08:19:55Z</time>
      </trkpt>
      <trkpt lat="47.30392" lon="0.12954">
        <ele>50</ele>
        <time>2014-09-14T08:19:57Z</time>
      </trkpt>
      <trkpt lat="47.30395" lon="0.12959">
        <ele>51</ele>
        <time>2014-09-14T08:19:59Z</time>
      </trkpt>
      <trkpt lat="47.30397" lon="0.12962">
        <ele>51</ele>
        <time>2014-09-14T08:20:00Z</time>
      </trkpt>
      <trkpt lat="47.30398" lon="0.12965">
        <ele>51</ele>
        <time>2014-09-14T08:20:01Z</time>
      </trkpt>
      <trkpt lat="47.30399" lon="0.12967">
        <ele>52</ele>
        <time>2014-09-14T08:20:02Z</time>
      </trkpt>
      <trkpt lat="47.304" lon="0.12971">
        <ele>52</ele>
        <time>2014-09-14T08:20:03Z</time>
      </trkpt>
      <trkpt lat="47.30403" lon="0.12979">
        <ele>53</ele>
        <time>2014-09-14T08:20:06Z</time>
      </trkpt>
      <trkpt lat="47.30403" lon="0.12982">
        <ele>53</ele>
        <time>2014-09-14T08:20:07Z</time>
      </trkpt>
      <trkpt lat="47.30405" lon="0.12984">
        <ele>54</ele>
        <time>2014-09-14T08:20:08Z</time>
      </trkpt>
      <trkpt lat="47.30405" lon="0.12986">
        <ele>54</ele>
        <time>2014-09-14T08:20:09Z</time>
      </trkpt>
      <trkpt lat="47.30407" lon="0.12989">
        <ele>54</ele>
        <time>2014-09-14T08:20:10Z</time>
      </trkpt>
      <trkpt lat="47.30409" lon="0.12995">
        <ele>54</ele>
        <time>2014-09-14T08:20:12Z</time>
      </trkpt>
      <trkpt lat="47.30411" lon="0.13001">
        <ele>55</ele>
        <time>2014-09-14T08:20:15Z</time>
      </trkpt>
      <trkpt lat="47.30413" lon="0.13003">
        <ele>55</ele>
        <time>2014-09-14T08:20:16Z</time>
      </trkpt>
      <trkpt lat="47.30414" lon="0.13005">
        <ele>56</ele>
        <time>2014-09-14T08:20:17Z</time>
      </trkpt>
      <trkpt lat="47.30414" lon="0.13007">
        <ele>56</ele>
        <time>2014-09-14T08:20:18Z</time>
      </trkpt>
      <trkpt lat="47.30415" lon="0.1301">
        <ele>56</ele>
        <time>2014-09-14T08:20:19Z</time>
      </trkpt>
      <trkpt lat="47.30419" lon="0.13019">
        <ele>57</ele>
        <time>2014-09-14T08:20:24Z</time>
      </trkpt>
      <trkpt lat="47.3042" lon="0.13021">
        <ele>57</ele>
        <time>2014-09-14T08:20:25Z</time>
      </trkpt>
      <trkpt lat="47.30421" lon="0.13022">
        <ele>58</ele>
        <time>2014-09-14T08:20:26Z</time>
      </trkpt>
      <trkpt lat="47.30422" lon="0.13023">
        <ele>58</ele>
        <time>2014-09-14T08:20:27Z</time>
      </trkpt>
      <trkpt lat="47.30422" lon="0.13024">
        <ele>59</ele>
        <time>2014-09-14T08:20:28Z</time>
      </trkpt>
      <trkpt lat="47.30426" lon="0.13031">
        <ele>59</ele>
        <time>2014-09-14T08:20:31Z</time>
      </trkpt>
      <trkpt lat="47.30432" lon="0.13041">
        <ele>59</ele>
        <time>2014-09-14T08:20:34Z</time>
      </trkpt>
      <trkpt lat="47.30433" lon="0.13045">
        <ele>60</ele>
        <time>2014-09-14T08:20:35Z</time>
      </trkpt>
      <trkpt lat="47.30435" lon="0.13048">
        <ele>60</ele>
        <time>2014-09-14T08:20:36Z</time>
      </trkpt>
      <trkpt lat="47.30436" lon="0.13051">
        <ele>60</ele>
        <time>2014-09-14T08:20:37Z</time>
      </trkpt>
      <trkpt lat="47.30438" lon="0.13054">
        <ele>61</ele>
        <time>2014-09-14T08:20:38Z</time>
      </trkpt>
      <trkpt lat="47.30444" lon="0.13069">
        <ele>61</ele>
        <time>2014-09-14T08:20:43Z</time>
      </trkpt>
      <trkpt lat="47.30445" lon="0.13072">
        <ele>61</ele>
        <time>2014-09-14T08:20:44Z</time>
      </trkpt>
      <trkpt lat="47.30447" lon="0.13075">
        <ele>62</ele>
        <time>2014-09-14T08:20:45Z</time>
      </trkpt>
      <trkpt lat="47.30448" lon="0.13078">
        <ele>62</ele>
        <time>2014-09-14T08:20:46Z</time>
      </trkpt>
      <trkpt lat="47.3045" lon="0.13081">
        <ele>62</ele>
        <time>2014-09-14T08:20:47Z</time>
      </trkpt>
      <trkpt lat="47.30453" lon="0.13083">
        <ele>63</ele>
        <time>2014-09-14T08:20:48Z</time>
      </trkpt>
      <trkpt lat="47.3046" lon="0.13096">
        <ele>63</ele>
        <time>2014-09-14T08:20:53Z</time>
      </trkpt>
      <trkpt lat="47.30462" lon="0.13102">
        <ele>63</ele>
        <time>2014-09-14T08:20:55Z</time>
      </trkpt>
      <trkpt lat="47.30462" lon="0.13105">
        <ele>64</ele>
        <time>2014-09-14T08:20:56Z</time>
      </trkpt>
      <trkpt lat="47.30463" lon="0.13108">
        <ele>64</ele>
        <time>2014-09-14T08:20:57Z</time>
      </trkpt>
      <trkpt lat="47.30464" lon="0.1311">
        <ele>65</ele>
        <time>2014-09-14T08:20:58Z</time>
      </trkpt>
      <trkpt lat="47.30465" lon="0.13114">
        <ele>65</ele>
        <time>2014-09-14T08:20:59Z</time>
      </trkpt>
      <trkpt lat="47.30466" lon="0.1313">
        <ele>65</ele>
        <time>2014-09-14T08:21:05Z</time>
      </trkpt>
      <trkpt lat="47.30466" lon="0.13132">
        <ele>65</ele>
        <time>2014-09-14T08:21:06Z</time>
      </trkpt>
      <trkpt lat="47.30467" lon="0.13134">
        <ele>66</ele>
        <time>2014-09-14T08:21:07Z</time>
      </trkpt>
      <trkpt lat="47.30468" lon="0.13136">
        <ele>66</ele>
        <time>2014-09-14T08:21:08Z</time>
      </trkpt>
      <trkpt lat="47.30468" lon="0.13138">
        <ele>67</ele>
        <time>2014-09-14T08:21:09Z</time>
      </trkpt>
      <trkpt lat="47.3047" lon="0.13141">
        <ele>67</ele>
        <time>2014-09-14T08:21:10Z</time>
      </trkpt>
      <trkpt lat="47.30472" lon="0.13161">
        <ele>67</ele>
        <time>2014-09-14T08:21:15Z</time>
      </trkpt>
      <trkpt lat="47.30467" lon="0.13172">
        <ele>67</ele>
        <time>2014-09-14T08:21:18Z</time>
      </trkpt>
      <trkpt lat="47.30466" lon="0.13175">
        <ele>68</ele>
        <time>2014-09-14T08:21:19Z</time>
      </trkpt>
      <trkpt lat="47.30464" lon="0.13178">
        <ele>69</ele>
        <time>2014-09-14T08:21:20Z</time>
      </trkpt>
      <trkpt lat="47.30463" lon="0.13182">
        <ele>69</ele>
        <time>2014-09-14T08:21:21Z</time>
      </trkpt>
      <trkpt lat="47.30457" lon="0.13199">
        <ele>69</ele>
        <time>2014-09-14T08:21:25Z</time>
      </trkpt>
      <trkpt lat="47.30451" lon="0.13224">
        <ele>69</ele>
        <time>2014-09-14T08:21:30Z</time>
      </trkpt>
      <trkpt lat="47.30443" lon="0.13248">
        <ele>69</ele>
        <time>2014-09-14T08:21:36Z</time>
      </trkpt>
      <trkpt lat="47.30431" lon="0.13269">
        <ele>69</ele>
        <time>2014-09-14T08:21:41Z</time>
      </trkpt>
      <trkpt lat="47.30422" lon="0.13287">
        <ele>69</ele>
        <time>2014-09-14T08:21:45Z</time>
      </trkpt>
      <trkpt lat="47.30419" lon="0.13299">
        <ele>69</ele>
        <time>2014-09-14T08:21:47Z</time>
      </trkpt>
      <trkpt lat="47.30412" lon="0.13318">
        <ele>69</ele>
        <time>2014-09-14T08:21:51Z</time>
      </trkpt>
      <trkpt lat="47.30409" lon="0.13351">
        <ele>69</ele>
        <time>2014-09-14T08:21:56Z</time>
      </trkpt>
      <trkpt lat="47.30405" lon="0.13379">
        <ele>69</ele>
        <time>2014-09-14T08:22:00Z</time>
      </trkpt>
      <trkpt lat="47.30408" lon="0.13393">
        <ele>69</ele>
        <time>2014-09-14T08:22:03Z</time>
      </trkpt>
      <trkpt lat="47.30409" lon="0.13397">
        <ele>70</ele>
        <time>2014-09-14T08:22:04Z</time>
      </trkpt>
      <trkpt lat="47.30409" lon="0.13398">
        <ele>70</ele>
        <time>2014-09-14T08:22:05Z</time>
      </trkpt>
      <trkpt lat="47.30409" lon="0.13399">
        <ele>71</ele>
        <time>2014-09-14T08:22:06Z</time>
      </trkpt>
      <trkpt lat="47.30409" lon="0.13399">
        <ele>71</ele>
        <time>2014-09-14T08:22:07Z</time>
      </trkpt>
      <trkpt lat="47.30409" lon="0.13406">
        <ele>71</ele>
        <time>2014-09-14T08:22:17Z</time>
      </trkpt>
      <trkpt lat="47.30409" lon="0.1341">
        <ele>71</ele>
        <time>2014-09-14T08:22:18Z</time>
      </trkpt>
      <trkpt lat="47.30416" lon="0.1343">
        <ele>72</ele>
        <time>2014-09-14T08:22:22Z</time>
      </trkpt>
      <trkpt lat="47.30418" lon="0.13435">
        <ele>72</ele>
        <time>2014-09-14T08:22:23Z</time>
      </trkpt>
      <trkpt lat="47.30419" lon="0.13438">
        <ele>73</ele>
        <time>2014-09-14T08:22:24Z</time>
      </trkpt>
      <trkpt lat="47.30422" lon="0.13443">
        <ele>73</ele>
        <time>2014-09-14T08:22:25Z</time>
      </trkpt>
      <trkpt lat="47.30424" lon="0.13446">
        <ele>74</ele>
        <time>2014-09-14T08:22:26Z</time>
      </trkpt>
      <trkpt lat="47.30426" lon="0.13451">
        <ele>74</ele>
        <time>2014-09-14T08:22:27Z</time>
      </trkpt>
      <trkpt lat="47.30435" lon="0.13469">
        <ele>74</ele>
        <time>2014-09-14T08:22:32Z</time>
      </trkpt>
      <trkpt lat="47.30436" lon="0.13472">
        <ele>75</ele>
        <time>2014-09-14T08:22:33Z</time>
      </trkpt>
      <trkpt lat="47.30438" lon="0.13476">
        <ele>75</ele>
        <time>2014-09-14T08:22:34Z</time>
      </trkpt>
      <trkpt lat="47.30439" lon="0.13481">
        <ele>76</ele>
        <time>2014-09-14T08:22:35Z</time>
      </trkpt>
      <trkpt lat="47.30442" lon="0.13488">
        <ele>76</ele>
        <time>2014-09-14T08:22:37Z</time>
      </trkpt>
      <trkpt lat="47.30447" lon="0.13503">
        <ele>76</ele>
        <time>2014-09-14T08:22:41Z</time>
      </trkpt>
      <trkpt lat="47.30449" lon="0.13508">
        <ele>77</ele>
        <time>2014-09-14T08:22:42Z</time>
      </trkpt>
      <trkpt lat="47.30451" lon="0.13513">
        <ele>77</ele>
        <time>2014-09-14T08:22:43Z</time>
      </trkpt>
      <trkpt lat="47.30452" lon="0.13518">
        <ele>77</ele>
        <time>2014-09-14T08:22:44Z</time>
      </trkpt>
      <trkpt lat="47.30454" lon="0.13523">
        <ele>78</ele>
        <time>2014-09-14T08:22:45Z</time>
      </trkpt>
      <trkpt lat="47.30459" lon="0.13548">
        <ele>78</ele>
        <time>2014-09-14T08:22:50Z</time>
      </trkpt>
      <trkpt lat="47.30458" lon="0.13576">
        <ele>78</ele>
        <time>2014-09-14T08:22:55Z</time>
      </trkpt>
      <trkpt lat="47.3045" lon="0.13606">
        <ele>78</ele>
        <time>2014-09-14T08:23:00Z</time>
      </trkpt>
      <trkpt lat="47.30436" lon="0.13646">
        <ele>78</ele>
        <time>2014-09-14T08:23:06Z</time>
      </trkpt>
      <trkpt lat="47.30431" lon="0.13672">
        <ele>78</ele>
        <time>2014-09-14T08:23:10Z</time>
      </trkpt>
      <trkpt lat="47.30435" lon="0.13703">
        <ele>78</ele>
        <time>2014-09-14T08:23:14Z</time>
      </trkpt>
      <trkpt lat="47.30438" lon="0.13708">
        <ele>78</ele>
        <time>2014-09-14T08:23:15Z</time>
      </trkpt>
      <trkpt lat="47.3045" lon="0.13727">
        <ele>78</ele>
        <time>2014-09-14T08:23:19Z</time>
      </trkpt>
      <trkpt lat="47.30456" lon="0.13746">
        <ele>77</ele>
        <time>2014-09-14T08:23:23Z</time>
      </trkpt>
      <trkpt lat="47.30455" lon="0.13751">
        <ele>77</ele>
        <time>2014-09-14T08:23:24Z</time>
      </trkpt>
      <trkpt lat="47.30455" lon="0.13754">
        <ele>77</ele>
        <time>2014-09-14T08:23:25Z</time>
      </trkpt>
      <trkpt lat="47.30456" lon="0.13758">
        <ele>76</ele>
        <time>2014-09-14T08:23:26Z</time>
      </trkpt>
      <trkpt lat="47.30458" lon="0.13761">
        <ele>76</ele>
        <time>2014-09-14T08:23:27Z</time>
      </trkpt>
      <trkpt lat="47.30462" lon="0.13761">
        <ele>76</ele>
        <time>2014-09-14T08:23:28Z</time>
      </trkpt>
      <trkpt lat="47.30465" lon="0.13763">
        <ele>76</ele>
        <time>2014-09-14T08:23:29Z</time>
      </trkpt>
      <trkpt lat="47.30482" lon="0.13769">
        <ele>76</ele>
        <time>2014-09-14T08:23:34Z</time>
      </trkpt>
      <trkpt lat="47.30498" lon="0.13776">
        <ele>76</ele>
        <time>2014-09-14T08:23:38Z</time>
      </trkpt>
      <trkpt lat="47.30502" lon="0.13777">
        <ele>76</ele>
        <time>2014-09-14T08:23:39Z</time>
      </trkpt>
      <trkpt lat="47.30511" lon="0.13786">
        <ele>76</ele>
        <time>2014-09-14T08:23:42Z</time>
      </trkpt>
      <trkpt lat="47.30507" lon="0.13797">
        <ele>76</ele>
        <time>2014-09-14T08:23:44Z</time>
      </trkpt>
      <trkpt lat="47.30494" lon="0.13816">
        <ele>76</ele>
        <time>2014-09-14T08:23:48Z</time>
      </trkpt>
      <trkpt lat="47.30477" lon="0.13839">
        <ele>76</ele>
        <time>2014-09-14T08:23:54Z</time>
      </trkpt>
      <trkpt lat="47.3046" lon="0.13851">
        <ele>76</ele>
        <time>2014-09-14T08:23:58Z</time>
      </trkpt>
      <trkpt lat="47.30456" lon="0.13854">
        <ele>76</ele>
        <time>2014-09-14T08:23:59Z</time>
      </trkpt>
      <trkpt lat="47.30445" lon="0.13863">
        <ele>76</ele>
        <time>2014-09-14T08:24:02Z</time>
      </trkpt>
      <trkpt lat="47.3044" lon="0.13865">
        <ele>76</ele>
        <time>2014-09-14T08:24:03Z</time>
      </trkpt>
      <trkpt lat="47.3043" lon="0.13869">
        <ele>76</ele>
        <time>2014-09-14T08:24:05Z</time>
      </trkpt>
      <trkpt lat="47.30419" lon="0.13873">
        <ele>76</ele>
        <time>2014-09-14T08:24:07Z</time>
      </trkpt>
      <trkpt lat="47.30414" lon="0.13874">
        <ele>76</ele>
        <time>2014-09-14T08:24:08Z</time>
      </trkpt>
      <trkpt lat="47.30379" lon="0.13882">
        <ele>76</ele>
        <time>2014-09-14T08:24:14Z</time>
      </trkpt>
      <trkpt lat="47.30354" lon="0.13889">
        <ele>76</ele>
        <time>2014-09-14T08:24:19Z</time>
      </trkpt>
      <trkpt lat="47.30344" lon="0.13895">
        <ele>76</ele>
        <time>2014-09-14T08:24:21Z</time>
      </trkpt>
      <trkpt lat="47.30335" lon="0.13906">
        <ele>76</ele>
        <time>2014-09-14T08:24:23Z</time>
      </trkpt>
      <trkpt lat="47.30325" lon="0.13925">
        <ele>76</ele>
        <time>2014-09-14T08:24:26Z</time>
      </trkpt>
      <trkpt lat="47.3032" lon="0.13938">
        <ele>76</ele>
        <time>2014-09-14T08:24:28Z</time>
      </trkpt>
      <trkpt lat="47.30314" lon="0.13961">
        <ele>76</ele>
        <time>2014-09-14T08:24:31Z</time>
      </trkpt>
      <trkpt lat="47.30312" lon="0.13982">
        <ele>76</ele>
        <time>2014-09-14T08:24:34Z</time>
      </trkpt>
      <trkpt lat="47.30309" lon="0.14017">
        <ele>76</ele>
        <time>2014-09-14T08:24:40Z</time>
      </trkpt>
      <trkpt lat="47.30304" lon="0.14048">
        <ele>76</ele>
        <time>2014-09-14T08:24:44Z</time>
      </trkpt>
      <trkpt lat="47.30302" lon="0.14071">
        <ele>76</ele>
        <time>2014-09-14T08:24:47Z</time>
      </trkpt>
      <trkpt lat="47.30301" lon="0.14079">
        <ele>77</ele>
        <time>2014-09-14T08:24:48Z</time>
      </trkpt>
      <trkpt lat="47.303" lon="0.14086">
        <ele>77</ele>
        <time>2014-09-14T08:24:49Z</time>
      </trkpt>
      <trkpt lat="47.30299" lon="0.14093">
        <ele>77</ele>
        <time>2014-09-14T08:24:50Z</time>
      </trkpt>
      <trkpt lat="47.30297" lon="0.141">
        <ele>78</ele>
        <time>2014-09-14T08:24:51Z</time>
      </trkpt>
      <trkpt lat="47.30292" lon="0.14125">
        <ele>78</ele>
        <time>2014-09-14T08:24:55Z</time>
      </trkpt>
      <trkpt lat="47.30287" lon="0.14139">
        <ele>78</ele>
        <time>2014-09-14T08:24:59Z</time>
      </trkpt>
      <trkpt lat="47.30273" lon="0.14142">
        <ele>78</ele>
        <time>2014-09-14T08:25:04Z</time>
      </trkpt>
      <trkpt lat="47.30265" lon="0.14147">
        <ele>78</ele>
        <time>2014-09-14T08:25:09Z</time>
      </trkpt>
      <trkpt lat="47.30253" lon="0.14148">
        <ele>78</ele>
        <time>2014-09-14T08:25:13Z</time>
      </trkpt>
      <trkpt lat="47.30219" lon="0.14166">
        <ele>78</ele>
        <time>2014-09-14T08:25:21Z</time>
      </trkpt>
      <trkpt lat="47.30207" lon="0.1417">
        <ele>78</ele>
        <time>2014-09-14T08:25:23Z</time>
      </trkpt>
      <trkpt lat="47.30194" lon="0.14184">
        <ele>78</ele>
        <time>2014-09-14T08:25:26Z</time>
      </trkpt>
      <trkpt lat="47.30191" lon="0.14189">
        <ele>78</ele>
        <time>2014-09-14T08:25:27Z</time>
      </trkpt>
      <trkpt lat="47.30186" lon="0.14199">
        <ele>77</ele>
        <time>2014-09-14T08:25:29Z</time>
      </trkpt>
      <trkpt lat="47.30183" lon="0.14205">
        <ele>77</ele>
        <time>2014-09-14T08:25:30Z</time>
      </trkpt>
      <trkpt lat="47.3018" lon="0.14207">
        <ele>76</ele>
        <time>2014-09-14T08:25:31Z</time>
      </trkpt>
      <trkpt lat="47.30176" lon="0.1421">
        <ele>76</ele>
        <time>2014-09-14T08:25:32Z</time>
      </trkpt>
      <trkpt lat="47.30173" lon="0.14213">
        <ele>75</ele>
        <time>2014-09-14T08:25:33Z</time>
      </trkpt>
      <trkpt lat="47.30169" lon="0.14217">
        <ele>75</ele>
        <time>2014-09-14T08:25:35Z</time>
      </trkpt>
      <trkpt lat="47.30166" lon="0.14219">
        <ele>75</ele>
        <time>2014-09-14T08:25:36Z</time>
      </trkpt>
      <trkpt lat="47.30163" lon="0.1422">
        <ele>75</ele>
        <time>2014-09-14T08:25:37Z</time>
      </trkpt>
      <trkpt lat="47.3016" lon="0.14223">
        <ele>74</ele>
        <time>2014-09-14T08:25:38Z</time>
      </trkpt>
      <trkpt lat="47.30156" lon="0.14222">
        <ele>74</ele>
        <time>2014-09-14T08:25:39Z</time>
      </trkpt>
      <trkpt lat="47.3014" lon="0.14221">
        <ele>72</ele>
        <time>2014-09-14T08:25:42Z</time>
      </trkpt>
      <trkpt lat="47.30136" lon="0.14222">
        <ele>71</ele>
        <time>2014-09-14T08:25:43Z</time>
      </trkpt>
      <trkpt lat="47.30133" lon="0.14223">
        <ele>71</ele>
        <time>2014-09-14T08:25:44Z</time>
      </trkpt>
      <trkpt lat="47.30129" lon="0.14224">
        <ele>70</ele>
        <time>2014-09-14T08:25:45Z</time>
      </trkpt>
      <trkpt lat="47.30125" lon="0.14225">
        <ele>69</ele>
        <time>2014-09-14T08:25:46Z</time>
      </trkpt>
      <trkpt lat="47.30123" lon="0.14227">
        <ele>69</ele>
        <time>2014-09-14T08:25:47Z</time>
      </trkpt>
      <trkpt lat="47.3012" lon="0.14229">
        <ele>68</ele>
        <time>2014-09-14T08:25:48Z</time>
      </trkpt>
      <trkpt lat="47.30118" lon="0.14229">
        <ele>67</ele>
        <time>2014-09-14T08:25:49Z</time>
      </trkpt>
      <trkpt lat="47.30117" lon="0.14231">
        <ele>67</ele>
        <time>2014-09-14T08:25:50Z</time>
      </trkpt>
      <trkpt lat="47.30115" lon="0.14232">
        <ele>66</ele>
        <time>2014-09-14T08:25:51Z</time>
      </trkpt>
      <trkpt lat="47.30113" lon="0.14234">
        <ele>66</ele>
        <time>2014-09-14T08:25:52Z</time>
      </trkpt>
      <trkpt lat="47.30112" lon="0.14235">
        <ele>65</ele>
        <time>2014-09-14T08:25:53Z</time>
      </trkpt>
      <trkpt lat="47.30111" lon="0.14238">
        <ele>65</ele>
        <time>2014-09-14T08:25:54Z</time>
      </trkpt>
      <trkpt lat="47.3011" lon="0.14241">
        <ele>65</ele>
        <time>2014-09-14T08:25:55Z</time>
      </trkpt>
      <trkpt lat="47.30108" lon="0.14245">
        <ele>64</ele>
        <time>2014-09-14T08:25:56Z</time>
      </trkpt>
      <trkpt lat="47.30108" lon="0.14251">
        <ele>64</ele>
        <time>2014-09-14T08:25:57Z</time>
      </trkpt>
      <trkpt lat="47.30104" lon="0.14261">
        <ele>64</ele>
        <time>2014-09-14T08:25:59Z</time>
      </trkpt>
      <trkpt lat="47.30102" lon="0.14264">
        <ele>63</ele>
        <time>2014-09-14T08:26:00Z</time>
      </trkpt>
      <trkpt lat="47.301" lon="0.14267">
        <ele>63</ele>
        <time>2014-09-14T08:26:01Z</time>
      </trkpt>
      <trkpt lat="47.30098" lon="0.14269">
        <ele>62</ele>
        <time>2014-09-14T08:26:02Z</time>
      </trkpt>
      <trkpt lat="47.30096" lon="0.14271">
        <ele>62</ele>
        <time>2014-09-14T08:26:03Z</time>
      </trkpt>
      <trkpt lat="47.30094" lon="0.14274">
        <ele>61</ele>
        <time>2014-09-14T08:26:04Z</time>
      </trkpt>
      <trkpt lat="47.30092" lon="0.14277">
        <ele>61</ele>
        <time>2014-09-14T08:26:05Z</time>
      </trkpt>
      <trkpt lat="47.30092" lon="0.14279">
        <ele>60</ele>
        <time>2014-09-14T08:26:06Z</time>
      </trkpt>
      <trkpt lat="47.30091" lon="0.14283">
        <ele>59</ele>
        <time>2014-09-14T08:26:07Z</time>
      </trkpt>
      <trkpt lat="47.30091" lon="0.14288">
        <ele>58</ele>
        <time>2014-09-14T08:26:08Z</time>
      </trkpt>
      <trkpt lat="47.30089" lon="0.14292">
        <ele>58</ele>
        <time>2014-09-14T08:26:09Z</time>
      </trkpt>
      <trkpt lat="47.30087" lon="0.14298">
        <ele>57</ele>
        <time>2014-09-14T08:26:10Z</time>
      </trkpt>
      <trkpt lat="47.3008" lon="0.14309">
        <ele>57</ele>
        <time>2014-09-14T08:26:12Z</time>
      </trkpt>
      <trkpt lat="47.30077" lon="0.14314">
        <ele>56</ele>
        <time>2014-09-14T08:26:13Z</time>
      </trkpt>
      <trkpt lat="47.30074" lon="0.1432">
        <ele>56</ele>
        <time>2014-09-14T08:26:14Z</time>
      </trkpt>
      <trkpt lat="47.3007" lon="0.14326">
        <ele>55</ele>
        <time>2014-09-14T08:26:15Z</time>
      </trkpt>
      <trkpt lat="47.30067" lon="0.14331">
        <ele>54</ele>
        <time>2014-09-14T08:26:16Z</time>
      </trkpt>
      <trkpt lat="47.30064" lon="0.14337">
        <ele>53</ele>
        <time>2014-09-14T08:26:17Z</time>
      </trkpt>
      <trkpt lat="47.30064" lon="0.14342">
        <ele>53</ele>
        <time>2014-09-14T08:26:18Z</time>
      </trkpt>
      <trkpt lat="47.30064" lon="0.14348">
        <ele>52</ele>
        <time>2014-09-14T08:26:19Z</time>
      </trkpt>
      <trkpt lat="47.30064" lon="0.14355">
        <ele>52</ele>
        <time>2014-09-14T08:26:20Z</time>
      </trkpt>
      <trkpt lat="47.30064" lon="0.14364">
        <ele>51</ele>
        <time>2014-09-14T08:26:21Z</time>
      </trkpt>
      <trkpt lat="47.30064" lon="0.14373">
        <ele>51</ele>
        <time>2014-09-14T08:26:22Z</time>
      </trkpt>
      <trkpt lat="47.30064" lon="0.14381">
        <ele>51</ele>
        <time>2014-09-14T08:26:23Z</time>
      </trkpt>
      <trkpt lat="47.30064" lon="0.1439">
        <ele>50</ele>
        <time>2014-09-14T08:26:24Z</time>
      </trkpt>
      <trkpt lat="47.30061" lon="0.14425">
        <ele>50</ele>
        <time>2014-09-14T08:26:27Z</time>
      </trkpt>
      <trkpt lat="47.30053" lon="0.14459">
        <ele>50</ele>
        <time>2014-09-14T08:26:30Z</time>
      </trkpt>
      <trkpt lat="47.30045" lon="0.14483">
        <ele>50</ele>
        <time>2014-09-14T08:26:33Z</time>
      </trkpt>
      <trkpt lat="47.30033" lon="0.14505">
        <ele>50</ele>
        <time>2014-09-14T08:26:36Z</time>
      </trkpt>
      <trkpt lat="47.30024" lon="0.14521">
        <ele>50</ele>
        <time>2014-09-14T08:26:38Z</time>
      </trkpt>
      <trkpt lat="47.30017" lon="0.1453">
        <ele>49</ele>
        <time>2014-09-14T08:26:39Z</time>
      </trkpt>
      <trkpt lat="47.30011" lon="0.1454">
        <ele>49</ele>
        <time>2014-09-14T08:26:40Z</time>
      </trkpt>
      <trkpt lat="47.30004" lon="0.1455">
        <ele>48</ele>
        <time>2014-09-14T08:26:41Z</time>
      </trkpt>
      <trkpt lat="47.29978" lon="0.14591">
        <ele>48</ele>
        <time>2014-09-14T08:26:46Z</time>
      </trkpt>
      <trkpt lat="47.29973" lon="0.14598">
        <ele>47</ele>
        <time>2014-09-14T08:26:47Z</time>
      </trkpt>
      <trkpt lat="47.29968" lon="0.14605">
        <ele>47</ele>
        <time>2014-09-14T08:26:48Z</time>
      </trkpt>
      <trkpt lat="47.29962" lon="0.14613">
        <ele>47</ele>
        <time>2014-09-14T08:26:49Z</time>
      </trkpt>
      <trkpt lat="47.29957" lon="0.14623">
        <ele>46</ele>
        <time>2014-09-14T08:26:50Z</time>
      </trkpt>
      <trkpt lat="47.29937" lon="0.14659">
        <ele>46</ele>
        <time>2014-09-14T08:26:54Z</time>
      </trkpt>
      <trkpt lat="47.29912" lon="0.14704">
        <ele>46</ele>
        <time>2014-09-14T08:26:59Z</time>
      </trkpt>
      <trkpt lat="47.29907" lon="0.14712">
        <ele>46</ele>
        <time>2014-09-14T08:27:00Z</time>
      </trkpt>
      <trkpt lat="47.29901" lon="0.1472">
        <ele>45</ele>
        <time>2014-09-14T08:27:01Z</time>
      </trkpt>
      <trkpt lat="47.29896" lon="0.14728">
        <ele>45</ele>
        <time>2014-09-14T08:27:02Z</time>
      </trkpt>
      <trkpt lat="47.29891" lon="0.14737">
        <ele>44</ele>
        <time>2014-09-14T08:27:03Z</time>
      </trkpt>
      <trkpt lat="47.29886" lon="0.14746">
        <ele>44</ele>
        <time>2014-09-14T08:27:04Z</time>
      </trkpt>
      <trkpt lat="47.29882" lon="0.14756">
        <ele>44</ele>
        <time>2014-09-14T08:27:05Z</time>
      </trkpt>
      <trkpt lat="47.29877" lon="0.14766">
        <ele>43</ele>
        <time>2014-09-14T08:27:06Z</time>
      </trkpt>
      <trkpt lat="47.29872" lon="0.14775">
        <ele>43</ele>
        <time>2014-09-14T08:27:07Z</time>
      </trkpt>
      <trkpt lat="47.29867" lon="0.14786">
        <ele>42</ele>
        <time>2014-09-14T08:27:08Z</time>
      </trkpt>
      <trkpt lat="47.29861" lon="0.14797">
        <ele>42</ele>
        <time>2014-09-14T08:27:09Z</time>
      </trkpt>
      <trkpt lat="47.29856" lon="0.14807">
        <ele>41</ele>
        <time>2014-09-14T08:27:10Z</time>
      </trkpt>
      <trkpt lat="47.29851" lon="0.14817">
        <ele>40</ele>
        <time>2014-09-14T08:27:11Z</time>
      </trkpt>
      <trkpt lat="47.29846" lon="0.14827">
        <ele>40</ele>
        <time>2014-09-14T08:27:12Z</time>
      </trkpt>
      <trkpt lat="47.2984" lon="0.14837">
        <ele>39</ele>
        <time>2014-09-14T08:27:13Z</time>
      </trkpt>
      <trkpt lat="47.29836" lon="0.14847">
        <ele>38</ele>
        <time>2014-09-14T08:27:14Z</time>
      </trkpt>
      <trkpt lat="47.29831" lon="0.14857">
        <ele>38</ele>
        <time>2014-09-14T08:27:15Z</time>
      </trkpt>
      <trkpt lat="47.29828" lon="0.14863">
        <ele>37</ele>
        <time>2014-09-14T08:27:16Z</time>
      </trkpt>
      <trkpt lat="47.29827" lon="0.14868">
        <ele>37</ele>
        <time>2014-09-14T08:27:17Z</time>
      </trkpt>
      <trkpt lat="47.29827" lon="0.14872">
        <ele>36</ele>
        <time>2014-09-14T08:27:18Z</time>
      </trkpt>
      <trkpt lat="47.2983" lon="0.14874">
        <ele>36</ele>
        <time>2014-09-14T08:27:19Z</time>
      </trkpt>
      <trkpt lat="47.29833" lon="0.14875">
        <ele>35</ele>
        <time>2014-09-14T08:27:20Z</time>
      </trkpt>
      <trkpt lat="47.29836" lon="0.14875">
        <ele>35</ele>
        <time>2014-09-14T08:27:21Z</time>
      </trkpt>
      <trkpt lat="47.29845" lon="0.14874">
        <ele>35</ele>
        <time>2014-09-14T08:27:24Z</time>
      </trkpt>
      <trkpt lat="47.29855" lon="0.14879">
        <ele>35</ele>
        <time>2014-09-14T08:27:27Z</time>
      </trkpt>
      <trkpt lat="47.29865" lon="0.14882">
        <ele>35</ele>
        <time>2014-09-14T08:27:30Z</time>
      </trkpt>
      <trkpt lat="47.29883" lon="0.14887">
        <ele>35</ele>
        <time>2014-09-14T08:27:35Z</time>
      </trkpt>
      <trkpt lat="47.29887" lon="0.14888">
        <ele>35</ele>
        <time>2014-09-14T08:27:36Z</time>
      </trkpt>
      <trkpt lat="47.29889" lon="0.14889">
        <ele>36</ele>
        <time>2014-09-14T08:27:37Z</time>
      </trkpt>
      <trkpt lat="47.29893" lon="0.1489">
        <ele>36</ele>
        <time>2014-09-14T08:27:38Z</time>
      </trkpt>
      <trkpt lat="47.29897" lon="0.1489">
        <ele>37</ele>
        <time>2014-09-14T08:27:39Z</time>
      </trkpt>
      <trkpt lat="47.29907" lon="0.14888">
        <ele>37</ele>
        <time>2014-09-14T08:27:42Z</time>
      </trkpt>
      <trkpt lat="47.29918" lon="0.14888">
        <ele>37</ele>
        <time>2014-09-14T08:27:45Z</time>
      </trkpt>
      <trkpt lat="47.29921" lon="0.14889">
        <ele>37</ele>
        <time>2014-09-14T08:27:46Z</time>
      </trkpt>
      <trkpt lat="47.29925" lon="0.14888">
        <ele>37</ele>
        <time>2014-09-14T08:27:47Z</time>
      </trkpt>
      <trkpt lat="47.29928" lon="0.14889">
        <ele>38</ele>
        <time>2014-09-14T08:27:48Z</time>
      </trkpt>
      <trkpt lat="47.29932" lon="0.1489">
        <ele>38</ele>
        <time>2014-09-14T08:27:49Z</time>
      </trkpt>
      <trkpt lat="47.29936" lon="0.1489">
        <ele>39</ele>
        <time>2014-09-14T08:27:50Z</time>
      </trkpt>
      <trkpt lat="47.29953" lon="0.14893">
        <ele>39</ele>
        <time>2014-09-14T08:27:55Z</time>
      </trkpt>
      <trkpt lat="47.2996" lon="0.14895">
        <ele>39</ele>
        <time>2014-09-14T08:27:57Z</time>
      </trkpt>
      <trkpt lat="47.29964" lon="0.14896">
        <ele>40</ele>
        <time>2014-09-14T08:27:58Z</time>
      </trkpt>
      <trkpt lat="47.29967" lon="0.14897">
        <ele>40</ele>
        <time>2014-09-14T08:27:59Z</time>
      </trkpt>
      <trkpt lat="47.2997" lon="0.14897">
        <ele>40</ele>
        <time>2014-09-14T08:28:00Z</time>
      </trkpt>
      <trkpt lat="47.29974" lon="0.14899">
        <ele>41</ele>
        <time>2014-09-14T08:28:01Z</time>
      </trkpt>
      <trkpt lat="47.29977" lon="0.14901">
        <ele>41</ele>
        <time>2014-09-14T08:28:02Z</time>
      </trkpt>
      <trkpt lat="47.29997" lon="0.1491">
        <ele>41</ele>
        <time>2014-09-14T08:28:08Z</time>
      </trkpt>
      <trkpt lat="47.3" lon="0.14913">
        <ele>42</ele>
        <time>2014-09-14T08:28:09Z</time>
      </trkpt>
      <trkpt lat="47.30002" lon="0.14914">
        <ele>42</ele>
        <time>2014-09-14T08:28:10Z</time>
      </trkpt>
      <trkpt lat="47.30005" lon="0.14916">
        <ele>42</ele>
        <time>2014-09-14T08:28:11Z</time>
      </trkpt>
      <trkpt lat="47.30007" lon="0.14919">
        <ele>43</ele>
        <time>2014-09-14T08:28:12Z</time>
      </trkpt>
      <trkpt lat="47.30009" lon="0.14922">
        <ele>43</ele>
        <time>2014-09-14T08:28:13Z</time>
      </trkpt>
      <trkpt lat="47.30023" lon="0.14935">
        <ele>43</ele>
        <time>2014-09-14T08:28:18Z</time>
      </trkpt>
      <trkpt lat="47.30025" lon="0.14937">
        <ele>44</ele>
        <time>2014-09-14T08:28:19Z</time>
      </trkpt>
      <trkpt lat="47.30028" lon="0.14939">
        <ele>44</ele>
        <time>2014-09-14T08:28:20Z</time>
      </trkpt>
      <trkpt lat="47.30031" lon="0.14942">
        <ele>44</ele>
        <time>2014-09-14T08:28:21Z</time>
      </trkpt>
      <trkpt lat="47.30033" lon="0.14945">
        <ele>45</ele>
        <time>2014-09-14T08:28:22Z</time>
      </trkpt>
      <trkpt lat="47.3004" lon="0.14957">
        <ele>45</ele>
        <time>2014-09-14T08:28:26Z</time>
      </trkpt>
      <trkpt lat="47.30044" lon="0.14964">
        <ele>45</ele>
        <time>2014-09-14T08:28:28Z</time>
      </trkpt>
      <trkpt lat="47.30048" lon="0.14969">
        <ele>45</ele>
        <time>2014-09-14T08:28:30Z</time>
      </trkpt>
      <trkpt lat="47.30063" lon="0.1499">
        <ele>45</ele>
        <time>2014-09-14T08:28:36Z</time>
      </trkpt>
      <trkpt lat="47.30066" lon="0.14997">
        <ele>45</ele>
        <time>2014-09-14T08:28:38Z</time>
      </trkpt>
      <trkpt lat="47.30067" lon="0.15002">
        <ele>46</ele>
        <time>2014-09-14T08:28:39Z</time>
      </trkpt>
      <trkpt lat="47.30066" lon="0.15008">
        <ele>46</ele>
        <time>2014-09-14T08:28:40Z</time>
      </trkpt>
      <trkpt lat="47.30065" lon="0.15013">
        <ele>47</ele>
        <time>2014-09-14T08:28:41Z</time>
      </trkpt>
      <trkpt lat="47.30064" lon="0.15018">
        <ele>47</ele>
        <time>2014-09-14T08:28:42Z</time>
      </trkpt>
      <trkpt lat="47.30059" lon="0.15032">
        <ele>47</ele>
        <time>2014-09-14T08:28:45Z</time>
      </trkpt>
      <trkpt lat="47.30046" lon="0.15053">
        <ele>47</ele>
        <time>2014-09-14T08:28:50Z</time>
      </trkpt>
      <trkpt lat="47.30045" lon="0.15061">
        <ele>47</ele>
        <time>2014-09-14T08:28:52Z</time>
      </trkpt>
      <trkpt lat="47.30044" lon="0.15066">
        <ele>47</ele>
        <time>2014-09-14T08:28:54Z</time>
      </trkpt>
      <trkpt lat="47.30047" lon="0.15071">
        <ele>47</ele>
        <time>2014-09-14T08:28:56Z</time>
      </trkpt>
      <trkpt lat="47.30052" lon="0.15073">
        <ele>47</ele>
        <time>2014-09-14T08:28:58Z</time>
      </trkpt>
      <trkpt lat="47.30068" lon="0.15077">
        <ele>47</ele>
        <time>2014-09-14T08:29:05Z</time>
      </trkpt>
      <trkpt lat="47.3007" lon="0.15078">
        <ele>47</ele>
        <time>2014-09-14T08:29:06Z</time>
      </trkpt>
      <trkpt lat="47.30072" lon="0.15078">
        <ele>48</ele>
        <time>2014-09-14T08:29:07Z</time>
      </trkpt>
      <trkpt lat="47.30075" lon="0.15078">
        <ele>49</ele>
        <time>2014-09-14T08:29:08Z</time>
      </trkpt>
      <trkpt lat="47.30077" lon="0.15077">
        <ele>49</ele>
        <time>2014-09-14T08:29:09Z</time>
      </trkpt>
      <trkpt lat="47.30081" lon="0.15079">
        <ele>49</ele>
        <time>2014-09-14T08:29:11Z</time>
      </trkpt>
      <trkpt lat="47.30083" lon="0.1508">
        <ele>50</ele>
        <time>2014-09-14T08:29:12Z</time>
      </trkpt>
      <trkpt lat="47.30084" lon="0.15081">
        <ele>50</ele>
        <time>2014-09-14T08:29:13Z</time>
      </trkpt>
      <trkpt lat="47.30088" lon="0.15083">
        <ele>51</ele>
        <time>2014-09-14T08:29:14Z</time>
      </trkpt>
      <trkpt lat="47.30091" lon="0.15086">
        <ele>51</ele>
        <time>2014-09-14T08:29:15Z</time>
      </trkpt>
      <trkpt lat="47.30098" lon="0.15089">
        <ele>52</ele>
        <time>2014-09-14T08:29:17Z</time>
      </trkpt>
      <trkpt lat="47.30101" lon="0.15091">
        <ele>52</ele>
        <time>2014-09-14T08:29:18Z</time>
      </trkpt>
      <trkpt lat="47.30104" lon="0.15093">
        <ele>52</ele>
        <time>2014-09-14T08:29:19Z</time>
      </trkpt>
      <trkpt lat="47.30107" lon="0.15095">
        <ele>53</ele>
        <time>2014-09-14T08:29:20Z</time>
      </trkpt>
      <trkpt lat="47.30109" lon="0.15097">
        <ele>53</ele>
        <time>2014-09-14T08:29:21Z</time>
      </trkpt>
      <trkpt lat="47.30112" lon="0.15098">
        <ele>53</ele>
        <time>2014-09-14T08:29:22Z</time>
      </trkpt>
      <trkpt lat="47.30117" lon="0.15101">
        <ele>54</ele>
        <time>2014-09-14T08:29:24Z</time>
      </trkpt>
      <trkpt lat="47.3012" lon="0.15102">
        <ele>54</ele>
        <time>2014-09-14T08:29:25Z</time>
      </trkpt>
      <trkpt lat="47.30121" lon="0.15103">
        <ele>54</ele>
        <time>2014-09-14T08:29:26Z</time>
      </trkpt>
      <trkpt lat="47.30122" lon="0.15104">
        <ele>55</ele>
        <time>2014-09-14T08:29:27Z</time>
      </trkpt>
      <trkpt lat="47.30124" lon="0.15104">
        <ele>55</ele>
        <time>2014-09-14T08:29:28Z</time>
      </trkpt>
      <trkpt lat="47.30133" lon="0.15107">
        <ele>56</ele>
        <time>2014-09-14T08:29:32Z</time>
      </trkpt>
      <trkpt lat="47.30136" lon="0.15107">
        <ele>56</ele>
        <time>2014-09-14T08:29:33Z</time>
      </trkpt>
      <trkpt lat="47.30139" lon="0.15107">
        <ele>57</ele>
        <time>2014-09-14T08:29:34Z</time>
      </trkpt>
      <trkpt lat="47.30141" lon="0.15107">
        <ele>57</ele>
        <time>2014-09-14T08:29:35Z</time>
      </trkpt>
      <trkpt lat="47.30143" lon="0.15107">
        <ele>58</ele>
        <time>2014-09-14T08:29:36Z</time>
      </trkpt>
      <trkpt lat="47.30151" lon="0.15106">
        <ele>58</ele>
        <time>2014-09-14T08:29:39Z</time>
      </trkpt>
      <trkpt lat="47.30152" lon="0.15107">
        <ele>58</ele>
        <time>2014-09-14T08:29:40Z</time>
      </trkpt>
      <trkpt lat="47.30154" lon="0.15107">
        <ele>59</ele>
        <time>2014-09-14T08:29:41Z</time>
      </trkpt>
      <trkpt lat="47.30157" lon="0.15108">
        <ele>59</ele>
        <time>2014-09-14T08:29:42Z</time>
      </trkpt>
      <trkpt lat="47.30159" lon="0.15109">
        <ele>60</ele>
        <time>2014-09-14T08:29:43Z</time>
      </trkpt>
      <trkpt lat="47.30168" lon="0.15109">
        <ele>60</ele>
        <time>2014-09-14T08:29:47Z</time>
      </trkpt>
      <trkpt lat="47.3017" lon="0.15109">
        <ele>60</ele>
        <time>2014-09-14T08:29:48Z</time>
      </trkpt>
      <trkpt lat="47.30172" lon="0.15109">
        <ele>61</ele>
        <time>2014-09-14T08:29:49Z</time>
      </trkpt>
      <trkpt lat="47.30174" lon="0.15109">
        <ele>61</ele>
        <time>2014-09-14T08:29:50Z</time>
      </trkpt>
      <trkpt lat="47.30177" lon="0.1511">
        <ele>62</ele>
        <time>2014-09-14T08:29:51Z</time>
      </trkpt>
      <trkpt lat="47.30182" lon="0.1511">
        <ele>62</ele>
        <time>2014-09-14T08:29:53Z</time>
      </trkpt>
      <trkpt lat="47.30187" lon="0.1511">
        <ele>62</ele>
        <time>2014-09-14T08:29:56Z</time>
      </trkpt>
      <trkpt lat="47.30189" lon="0.1511">
        <ele>63</ele>
        <time>2014-09-14T08:29:57Z</time>
      </trkpt>
      <trkpt lat="47.30192" lon="0.15109">
        <ele>63</ele>
        <time>2014-09-14T08:29:58Z</time>
      </trkpt>
      <trkpt lat="47.30194" lon="0.15109">
        <ele>64</ele>
        <time>2014-09-14T08:29:59Z</time>
      </trkpt>
      <trkpt lat="47.30207" lon="0.15111">
        <ele>64</ele>
        <time>2014-09-14T08:30:04Z</time>
      </trkpt>
      <trkpt lat="47.30208" lon="0.15111">
        <ele>65</ele>
        <time>2014-09-14T08:30:05Z</time>
      </trkpt>
      <trkpt lat="47.3021" lon="0.15112">
        <ele>65</ele>
        <time>2014-09-14T08:30:06Z</time>
      </trkpt>
      <trkpt lat="47.30212" lon="0.15112">
        <ele>65</ele>
        <time>2014-09-14T08:30:07Z</time>
      </trkpt>
      <trkpt lat="47.30214" lon="0.15113">
        <ele>66</ele>
        <time>2014-09-14T08:30:08Z</time>
      </trkpt>
      <trkpt lat="47.30222" lon="0.15116">
        <ele>66</ele>
        <time>2014-09-14T08:30:11Z</time>
      </trkpt>
      <trkpt lat="47.30227" lon="0.15118">
        <ele>66</ele>
        <time>2014-09-14T08:30:13Z</time>
      </trkpt>
      <trkpt lat="47.30229" lon="0.15119">
        <ele>67</ele>
        <time>2014-09-14T08:30:14Z</time>
      </trkpt>
      <trkpt lat="47.30232" lon="0.15122">
        <ele>67</ele>
        <time>2014-09-14T08:30:15Z</time>
      </trkpt>
      <trkpt lat="47.30234" lon="0.15124">
        <ele>68</ele>
        <time>2014-09-14T08:30:16Z</time>
      </trkpt>
      <trkpt lat="47.30236" lon="0.15126">
        <ele>68</ele>
        <time>2014-09-14T08:30:17Z</time>
      </trkpt>
      <trkpt lat="47.30246" lon="0.15138">
        <ele>69</ele>
        <time>2014-09-14T08:30:22Z</time>
      </trkpt>
      <trkpt lat="47.30248" lon="0.1514">
        <ele>69</ele>
        <time>2014-09-14T08:30:23Z</time>
      </trkpt>
      <trkpt lat="47.30251" lon="0.15142">
        <ele>70</ele>
        <time>2014-09-14T08:30:24Z</time>
      </trkpt>
      <trkpt lat="47.30252" lon="0.15143">
        <ele>70</ele>
        <time>2014-09-14T08:30:25Z</time>
      </trkpt>
      <trkpt lat="47.30263" lon="0.15153">
        <ele>70</ele>
        <time>2014-09-14T08:30:29Z</time>
      </trkpt>
      <trkpt lat="47.3027" lon="0.15158">
        <ele>70</ele>
        <time>2014-09-14T08:30:32Z</time>
      </trkpt>
      <trkpt lat="47.30272" lon="0.1516">
        <ele>71</ele>
        <time>2014-09-14T08:30:33Z</time>
      </trkpt>
      <trkpt lat="47.30273" lon="0.15163">
        <ele>71</ele>
        <time>2014-09-14T08:30:34Z</time>
      </trkpt>
      <trkpt lat="47.30274" lon="0.15165">
        <ele>72</ele>
        <time>2014-09-14T08:30:35Z</time>
      </trkpt>
      <trkpt lat="47.30275" lon="0.15168">
        <ele>72</ele>
        <time>2014-09-14T08:30:36Z</time>
      </trkpt>
      <trkpt lat="47.30278" lon="0.15178">
        <ele>72</ele>
        <time>2014-09-14T08:30:39Z</time>
      </trkpt>
      <trkpt lat="47.30282" lon="0.15182">
        <ele>72</ele>
        <time>2014-09-14T08:30:41Z</time>
      </trkpt>
      <trkpt lat="47.30284" lon="0.15184">
        <ele>72</ele>
        <time>2014-09-14T08:30:42Z</time>
      </trkpt>
      <trkpt lat="47.30288" lon="0.15193">
        <ele>72</ele>
        <time>2014-09-14T08:30:45Z</time>
      </trkpt>
      <trkpt lat="47.30294" lon="0.15208">
        <ele>72</ele>
        <time>2014-09-14T08:30:50Z</time>
      </trkpt>
      <trkpt lat="47.30297" lon="0.15213">
        <ele>73</ele>
        <time>2014-09-14T08:30:52Z</time>
      </trkpt>
      <trkpt lat="47.30299" lon="0.15216">
        <ele>73</ele>
        <time>2014-09-14T08:30:53Z</time>
      </trkpt>
      <trkpt lat="47.303" lon="0.15219">
        <ele>73</ele>
        <time>2014-09-14T08:30:54Z</time>
      </trkpt>
      <trkpt lat="47.30302" lon="0.15224">
        <ele>74</ele>
        <time>2014-09-14T08:30:55Z</time>
      </trkpt>
      <trkpt lat="47.30303" lon="0.15227">
        <ele>74</ele>
        <time>2014-09-14T08:30:56Z</time>
      </trkpt>
      <trkpt lat="47.30301" lon="0.15234">
        <ele>74</ele>
        <time>2014-09-14T08:30:59Z</time>
      </trkpt>
      <trkpt lat="47.303" lon="0.15243">
        <ele>74</ele>
        <time>2014-09-14T08:31:02Z</time>
      </trkpt>
      <trkpt lat="47.30299" lon="0.15246">
        <ele>74</ele>
        <time>2014-09-14T08:31:03Z</time>
      </trkpt>
      <trkpt lat="47.30298" lon="0.15259">
        <ele>74</ele>
        <time>2014-09-14T08:31:07Z</time>
      </trkpt>
      <trkpt lat="47.30291" lon="0.15265">
        <ele>74</ele>
        <time>2014-09-14T08:31:12Z</time>
      </trkpt>
      <trkpt lat="47.3029" lon="0.15269">
        <ele>74</ele>
        <time>2014-09-14T08:31:14Z</time>
      </trkpt>
      <trkpt lat="47.30286" lon="0.15274">
        <ele>74</ele>
        <time>2014-09-14T08:31:17Z</time>
      </trkpt>
      <trkpt lat="47.30284" lon="0.15275">
        <ele>74</ele>
        <time>2014-09-14T08:31:18Z</time>
      </trkpt>
      <trkpt lat="47.30282" lon="0.15277">
        <ele>74</ele>
        <time>2014-09-14T08:31:19Z</time>
      </trkpt>
      <trkpt lat="47.3028" lon="0.15279">
        <ele>74</ele>
        <time>2014-09-14T08:31:20Z</time>
      </trkpt>
      <trkpt lat="47.3028" lon="0.15282">
        <ele>73</ele>
        <time>2014-09-14T08:31:21Z</time>
      </trkpt>
      <trkpt lat="47.30281" lon="0.15284">
        <ele>73</ele>
        <time>2014-09-14T08:31:22Z</time>
      </trkpt>
      <trkpt lat="47.30282" lon="0.15285">
        <ele>73</ele>
        <time>2014-09-14T08:31:23Z</time>
      </trkpt>
      <trkpt lat="47.30282" lon="0.15286">
        <ele>72</ele>
        <time>2014-09-14T08:31:24Z</time>
      </trkpt>
      <trkpt lat="47.30281" lon="0.15299">
        <ele>72</ele>
        <time>2014-09-14T08:31:37Z</time>
      </trkpt>
      <trkpt lat="47.3028" lon="0.15302">
        <ele>72</ele>
        <time>2014-09-14T08:31:38Z</time>
      </trkpt>
      <trkpt lat="47.30281" lon="0.15313">
        <ele>72</ele>
        <time>2014-09-14T08:31:41Z</time>
      </trkpt>
      <trkpt lat="47.30284" lon="0.15324">
        <ele>72</ele>
        <time>2014-09-14T08:31:44Z</time>
      </trkpt>
      <trkpt lat="47.30285" lon="0.15346">
        <ele>72</ele>
        <time>2014-09-14T08:31:49Z</time>
      </trkpt>
      <trkpt lat="47.30289" lon="0.15362">
        <ele>72</ele>
        <time>2014-09-14T08:31:53Z</time>
      </trkpt>
      <trkpt lat="47.30296" lon="0.15374">
        <ele>72</ele>
        <time>2014-09-14T08:31:57Z</time>
      </trkpt>
      <trkpt lat="47.30298" lon="0.15376">
        <ele>72</ele>
        <time>2014-09-14T08:31:58Z</time>
      </trkpt>
      <trkpt lat="47.303" lon="0.15394">
        <ele>72</ele>
        <time>2014-09-14T08:32:02Z</time>
      </trkpt>
      <trkpt lat="47.30306" lon="0.15412">
        <ele>72</ele>
        <time>2014-09-14T08:32:06Z</time>
      </trkpt>
      <trkpt lat="47.30306" lon="0.15416">
        <ele>72</ele>
        <time>2014-09-14T08:32:07Z</time>
      </trkpt>
      <trkpt lat="47.30309" lon="0.15438">
        <ele>72</ele>
        <time>2014-09-14T08:32:12Z</time>
      </trkpt>
      <trkpt lat="47.303" lon="0.15446">
        <ele>72</ele>
        <time>2014-09-14T08:32:16Z</time>
      </trkpt>
      <trkpt lat="47.30297" lon="0.15447">
        <ele>72</ele>
        <time>2014-09-14T08:32:17Z</time>
      </trkpt>
      <trkpt lat="47.30296" lon="0.15446">
        <ele>71</ele>
        <time>2014-09-14T08:32:18Z</time>
      </trkpt>
      <trkpt lat="47.30295" lon="0.15446">
        <ele>71</ele>
        <time>2014-09-14T08:32:19Z</time>
      </trkpt>
      <trkpt lat="47.30292" lon="0.15445">
        <ele>70</ele>
        <time>2014-09-14T08:32:20Z</time>
      </trkpt>
      <trkpt lat="47.30288" lon="0.15444">
        <ele>69</ele>
        <time>2014-09-14T08:32:21Z</time>
      </trkpt>
      <trkpt lat="47.30286" lon="0.15444">
        <ele>69</ele>
        <time>2014-09-14T08:32:22Z</time>
      </trkpt>
      <trkpt lat="47.30283" lon="0.15444">
        <ele>68</ele>
        <time>2014-09-14T08:32:23Z</time>
      </trkpt>
      <trkpt lat="47.30282" lon="0.15444">
        <ele>68</ele>
        <time>2014-09-14T08:32:24Z</time>
      </trkpt>
      <trkpt lat="47.30281" lon="0.15443">
        <ele>67</ele>
        <time>2014-09-14T08:32:25Z</time>
      </trkpt>
      <trkpt lat="47.3028" lon="0.15443">
        <ele>67</ele>
        <time>2014-09-14T08:32:26Z</time>
      </trkpt>
      <trkpt lat="47.30278" lon="0.15448">
        <ele>67</ele>
        <time>2014-09-14T08:32:31Z</time>
      </trkpt>
      <trkpt lat="47.30274" lon="0.15451">
        <ele>67</ele>
        <time>2014-09-14T08:32:33Z</time>
      </trkpt>
      <trkpt lat="47.30271" lon="0.15451">
        <ele>67</ele>
        <time>2014-09-14T08:32:34Z</time>
      </trkpt>
      <trkpt lat="47.30269" lon="0.15451">
        <ele>66</ele>
        <time>2014-09-14T08:32:35Z</time>
      </trkpt>
      <trkpt lat="47.30266" lon="0.15452">
        <ele>66</ele>
        <time>2014-09-14T08:32:36Z</time>
      </trkpt>
      <trkpt lat="47.30264" lon="0.15455">
        <ele>65</ele>
        <time>2014-09-14T08:32:37Z</time>
      </trkpt>
      <trkpt lat="47.30262" lon="0.15458">
        <ele>64</ele>
        <time>2014-09-14T08:32:38Z</time>
      </trkpt>
      <trkpt lat="47.30259" lon="0.15462">
        <ele>64</ele>
        <time>2014-09-14T08:32:39Z</time>
      </trkpt>
      <trkpt lat="47.30257" lon="0.15465">
        <ele>63</ele>
        <time>2014-09-14T08:32:40Z</time>
      </trkpt>
      <trkpt lat="47.30255" lon="0.15468">
        <ele>63</ele>
        <time>2014-09-14T08:32:41Z</time>
      </trkpt>
      <trkpt lat="47.30253" lon="0.15473">
        <ele>62</ele>
        <time>2014-09-14T08:32:42Z</time>
      </trkpt>
      <trkpt lat="47.30251" lon="0.15475">
        <ele>62</ele>
        <time>2014-09-14T08:32:43Z</time>
      </trkpt>
      <trkpt lat="47.30248" lon="0.15474">
        <ele>61</ele>
        <time>2014-09-14T08:32:44Z</time>
      </trkpt>
      <trkpt lat="47.30247" lon="0.15472">
        <ele>61</ele>
        <time>2014-09-14T08:32:45Z</time>
      </trkpt>
      <trkpt lat="47.30245" lon="0.15469">
        <ele>61</ele>
        <time>2014-09-14T08:32:46Z</time>
      </trkpt>
      <trkpt lat="47.30244" lon="0.15468">
        <ele>61</ele>
        <time>2014-09-14T08:32:47Z</time>
      </trkpt>
      <trkpt lat="47.3024" lon="0.15464">
        <ele>60</ele>
        <time>2014-09-14T08:32:49Z</time>
      </trkpt>
      <trkpt lat="47.30238" lon="0.15461">
        <ele>60</ele>
        <time>2014-09-14T08:32:50Z</time>
      </trkpt>
      <trkpt lat="47.30237" lon="0.15458">
        <ele>59</ele>
        <time>2014-09-14T08:32:51Z</time>
      </trkpt>
      <trkpt lat="47.30236" lon="0.15458">
        <ele>59</ele>
        <time>2014-09-14T08:32:52Z</time>
      </trkpt>
      <trkpt lat="47.30236" lon="0.15456">
        <ele>58</ele>
        <time>2014-09-14T08:32:53Z</time>
      </trkpt>
      <trkpt lat="47.30231" lon="0.15457">
        <ele>58</ele>
        <time>2014-09-14T08:32:56Z</time>
      </trkpt>
      <trkpt lat="47.30222" lon="0.15461">
        <ele>58</ele>
        <time>2014-09-14T08:33:00Z</time>
      </trkpt>
      <trkpt lat="47.30222" lon="0.15463">
        <ele>58</ele>
        <time>2014-09-14T08:33:01Z</time>
      </trkpt>
      <trkpt lat="47.30226" lon="0.15473">
        <ele>56</ele>
        <time>2014-09-14T08:33:11Z</time>
      </trkpt>
      <trkpt lat="47.30226" lon="0.15476">
        <ele>56</ele>
        <time>2014-09-14T08:33:12Z</time>
      </trkpt>
      <trkpt lat="47.30224" lon="0.1548">
        <ele>56</ele>
        <time>2014-09-14T08:33:15Z</time>
      </trkpt>
      <trkpt lat="47.30222" lon="0.15479">
        <ele>56</ele>
        <time>2014-09-14T08:33:16Z</time>
      </trkpt>
      <trkpt lat="47.30207" lon="0.15474">
        <ele>56</ele>
        <time>2014-09-14T08:33:20Z</time>
      </trkpt>
      <trkpt lat="47.302" lon="0.15477">
        <ele>56</ele>
        <time>2014-09-14T08:33:22Z</time>
      </trkpt>
      <trkpt lat="47.30198" lon="0.15481">
        <ele>56</ele>
        <time>2014-09-14T08:33:23Z</time>
      </trkpt>
      <trkpt lat="47.30195" lon="0.15486">
        <ele>56</ele>
        <time>2014-09-14T08:33:25Z</time>
      </trkpt>
      <trkpt lat="47.30192" lon="0.15489">
        <ele>55</ele>
        <time>2014-09-14T08:33:26Z</time>
      </trkpt>
      <trkpt lat="47.30189" lon="0.15493">
        <ele>55</ele>
        <time>2014-09-14T08:33:27Z</time>
      </trkpt>
      <trkpt lat="47.30186" lon="0.15498">
        <ele>54</ele>
        <time>2014-09-14T08:33:28Z</time>
      </trkpt>
      <trkpt lat="47.3018" lon="0.15508">
        <ele>54</ele>
        <time>2014-09-14T08:33:31Z</time>
      </trkpt>
      <trkpt lat="47.30179" lon="0.15511">
        <ele>54</ele>
        <time>2014-09-14T08:33:32Z</time>
      </trkpt>
      <trkpt lat="47.30177" lon="0.15519">
        <ele>54</ele>
        <time>2014-09-14T08:33:35Z</time>
      </trkpt>
      <trkpt lat="47.3018" lon="0.15515">
        <ele>54</ele>
        <time>2014-09-14T08:33:37Z</time>
      </trkpt>
      <trkpt lat="47.30184" lon="0.15518">
        <ele>54</ele>
        <time>2014-09-14T08:33:41Z</time>
      </trkpt>
      <trkpt lat="47.30186" lon="0.1552">
        <ele>54</ele>
        <time>2014-09-14T08:33:42Z</time>
      </trkpt>
      <trkpt lat="47.30187" lon="0.15524">
        <ele>55</ele>
        <time>2014-09-14T08:33:43Z</time>
      </trkpt>
      <trkpt lat="47.30188" lon="0.15526">
        <ele>55</ele>
        <time>2014-09-14T08:33:44Z</time>
      </trkpt>
      <trkpt lat="47.30189" lon="0.15528">
        <ele>55</ele>
        <time>2014-09-14T08:33:45Z</time>
      </trkpt>
      <trkpt lat="47.30191" lon="0.15531">
        <ele>56</ele>
        <time>2014-09-14T08:33:46Z</time>
      </trkpt>
      <trkpt lat="47.30193" lon="0.15533">
        <ele>56</ele>
        <time>2014-09-14T08:33:47Z</time>
      </trkpt>
      <trkpt lat="47.30194" lon="0.15535">
        <ele>57</ele>
        <time>2014-09-14T08:33:48Z</time>
      </trkpt>
      <trkpt lat="47.30195" lon="0.15538">
        <ele>57</ele>
        <time>2014-09-14T08:33:49Z</time>
      </trkpt>
      <trkpt lat="47.30198" lon="0.1554">
        <ele>58</ele>
        <time>2014-09-14T08:33:50Z</time>
      </trkpt>
      <trkpt lat="47.302" lon="0.15542">
        <ele>58</ele>
        <time>2014-09-14T08:33:51Z</time>
      </trkpt>
      <trkpt lat="47.30208" lon="0.15543">
        <ele>59</ele>
        <time>2014-09-14T08:33:52Z</time>
      </trkpt>
      <trkpt lat="47.30216" lon="0.15551">
        <ele>59</ele>
        <time>2014-09-14T08:33:54Z</time>
      </trkpt>
      <trkpt lat="47.30234" lon="0.1557">
        <ele>59</ele>
        <time>2014-09-14T08:33:59Z</time>
      </trkpt>
      <trkpt lat="47.30241" lon="0.15579">
        <ele>59</ele>
        <time>2014-09-14T08:34:02Z</time>
      </trkpt>
      <trkpt lat="47.30244" lon="0.1558">
        <ele>60</ele>
        <time>2014-09-14T08:34:03Z</time>
      </trkpt>
      <trkpt lat="47.30246" lon="0.15581">
        <ele>60</ele>
        <time>2014-09-14T08:34:04Z</time>
      </trkpt>
      <trkpt lat="47.3025" lon="0.15582">
        <ele>60</ele>
        <time>2014-09-14T08:34:05Z</time>
      </trkpt>
      <trkpt lat="47.30252" lon="0.15583">
        <ele>61</ele>
        <time>2014-09-14T08:34:06Z</time>
      </trkpt>
      <trkpt lat="47.3026" lon="0.15586">
        <ele>61</ele>
        <time>2014-09-14T08:34:08Z</time>
      </trkpt>
      <trkpt lat="47.30264" lon="0.15586">
        <ele>61</ele>
        <time>2014-09-14T08:34:10Z</time>
      </trkpt>
      <trkpt lat="47.30266" lon="0.15587">
        <ele>62</ele>
        <time>2014-09-14T08:34:11Z</time>
      </trkpt>
      <trkpt lat="47.30269" lon="0.15589">
        <ele>62</ele>
        <time>2014-09-14T08:34:12Z</time>
      </trkpt>
      <trkpt lat="47.30271" lon="0.1559">
        <ele>63</ele>
        <time>2014-09-14T08:34:13Z</time>
      </trkpt>
      <trkpt lat="47.30272" lon="0.15592">
        <ele>63</ele>
        <time>2014-09-14T08:34:14Z</time>
      </trkpt>
      <trkpt lat="47.30274" lon="0.15595">
        <ele>64</ele>
        <time>2014-09-14T08:34:15Z</time>
      </trkpt>
      <trkpt lat="47.30276" lon="0.15598">
        <ele>64</ele>
        <time>2014-09-14T08:34:16Z</time>
      </trkpt>
      <trkpt lat="47.30277" lon="0.15601">
        <ele>65</ele>
        <time>2014-09-14T08:34:17Z</time>
      </trkpt>
      <trkpt lat="47.30279" lon="0.15604">
        <ele>65</ele>
        <time>2014-09-14T08:34:18Z</time>
      </trkpt>
      <trkpt lat="47.30282" lon="0.15608">
        <ele>65</ele>
        <time>2014-09-14T08:34:20Z</time>
      </trkpt>
      <trkpt lat="47.30284" lon="0.15614">
        <ele>66</ele>
        <time>2014-09-14T08:34:23Z</time>
      </trkpt>
      <trkpt lat="47.30285" lon="0.15616">
        <ele>66</ele>
        <time>2014-09-14T08:34:24Z</time>
      </trkpt>
      <trkpt lat="47.30285" lon="0.15617">
        <ele>67</ele>
        <time>2014-09-14T08:34:25Z</time>
      </trkpt>
      <trkpt lat="47.30286" lon="0.15619">
        <ele>67</ele>
        <time>2014-09-14T08:34:26Z</time>
      </trkpt>
      <trkpt lat="47.30287" lon="0.15622">
        <ele>68</ele>
        <time>2014-09-14T08:34:27Z</time>
      </trkpt>
      <trkpt lat="47.30289" lon="0.15624">
        <ele>68</ele>
        <time>2014-09-14T08:34:29Z</time>
      </trkpt>
      <trkpt lat="47.30292" lon="0.15626">
        <ele>68</ele>
        <time>2014-09-14T08:34:31Z</time>
      </trkpt>
      <trkpt lat="47.30294" lon="0.15626">
        <ele>68</ele>
        <time>2014-09-14T08:34:32Z</time>
      </trkpt>
      <trkpt lat="47.30295" lon="0.15627">
        <ele>69</ele>
        <time>2014-09-14T08:34:33Z</time>
      </trkpt>
      <trkpt lat="47.30297" lon="0.15627">
        <ele>69</ele>
        <time>2014-09-14T08:34:34Z</time>
      </trkpt>
      <trkpt lat="47.30298" lon="0.15627">
        <ele>70</ele>
        <time>2014-09-14T08:34:35Z</time>
      </trkpt>
      <trkpt lat="47.30299" lon="0.15627">
        <ele>70</ele>
        <time>2014-09-14T08:34:36Z</time>
      </trkpt>
      <trkpt lat="47.30306" lon="0.15635">
        <ele>70</ele>
        <time>2014-09-14T08:34:40Z</time>
      </trkpt>
      <trkpt lat="47.30307" lon="0.15638">
        <ele>71</ele>
        <time>2014-09-14T08:34:41Z</time>
      </trkpt>
      <trkpt lat="47.30309" lon="0.15639">
        <ele>71</ele>
        <time>2014-09-14T08:34:42Z</time>
      </trkpt>
      <trkpt lat="47.3031" lon="0.15641">
        <ele>72</ele>
        <time>2014-09-14T08:34:43Z</time>
      </trkpt>
      <trkpt lat="47.30313" lon="0.15646">
        <ele>72</ele>
        <time>2014-09-14T08:34:47Z</time>
      </trkpt>
      <trkpt lat="47.30317" lon="0.15648">
        <ele>72</ele>
        <time>2014-09-14T08:34:49Z</time>
      </trkpt>
      <trkpt lat="47.3032" lon="0.15653">
        <ele>72</ele>
        <time>2014-09-14T08:34:51Z</time>
      </trkpt>
      <trkpt lat="47.30322" lon="0.15654">
        <ele>73</ele>
        <time>2014-09-14T08:34:52Z</time>
      </trkpt>
      <trkpt lat="47.30323" lon="0.15655">
        <ele>73</ele>
        <time>2014-09-14T08:34:53Z</time>
      </trkpt>
      <trkpt lat="47.30325" lon="0.15655">
        <ele>74</ele>
        <time>2014-09-14T08:34:54Z</time>
      </trkpt>
      <trkpt lat="47.30325" lon="0.15654">
        <ele>74</ele>
        <time>2014-09-14T08:34:55Z</time>
      </trkpt>
      <trkpt lat="47.30326" lon="0.15653">
        <ele>74</ele>
        <time>2014-09-14T08:34:57Z</time>
      </trkpt>
      <trkpt lat="47.30329" lon="0.15649">
        <ele>74</ele>
        <time>2014-09-14T08:35:01Z</time>
      </trkpt>
      <trkpt lat="47.30334" lon="0.15653">
        <ele>76</ele>
        <time>2014-09-14T08:35:14Z</time>
      </trkpt>
      <trkpt lat="47.30335" lon="0.15656">
        <ele>76</ele>
        <time>2014-09-14T08:35:16Z</time>
      </trkpt>
      <trkpt lat="47.30345" lon="0.15666">
        <ele>76</ele>
        <time>2014-09-14T08:35:21Z</time>
      </trkpt>
      <trkpt lat="47.30352" lon="0.15671">
        <ele>76</ele>
        <time>2014-09-14T08:35:25Z</time>
      </trkpt>
      <trkpt lat="47.30353" lon="0.15673">
        <ele>76</ele>
        <time>2014-09-14T08:35:26Z</time>
      </trkpt>
      <trkpt lat="47.30355" lon="0.15676">
        <ele>77</ele>
        <time>2014-09-14T08:35:27Z</time>
      </trkpt>
      <trkpt lat="47.30357" lon="0.15678">
        <ele>77</ele>
        <time>2014-09-14T08:35:28Z</time>
      </trkpt>
      <trkpt lat="47.30358" lon="0.1568">
        <ele>78</ele>
        <time>2014-09-14T08:35:29Z</time>
      </trkpt>
      <trkpt lat="47.3036" lon="0.15681">
        <ele>78</ele>
        <time>2014-09-14T08:35:30Z</time>
      </trkpt>
      <trkpt lat="47.30365" lon="0.15685">
        <ele>78</ele>
        <time>2014-09-14T08:35:32Z</time>
      </trkpt>
      <trkpt lat="47.30376" lon="0.15693">
        <ele>78</ele>
        <time>2014-09-14T08:35:36Z</time>
      </trkpt>
      <trkpt lat="47.30379" lon="0.15695">
        <ele>79</ele>
        <time>2014-09-14T08:35:37Z</time>
      </trkpt>
      <trkpt lat="47.30381" lon="0.15698">
        <ele>79</ele>
        <time>2014-09-14T08:35:38Z</time>
      </trkpt>
      <trkpt lat="47.30383" lon="0.15701">
        <ele>80</ele>
        <time>2014-09-14T08:35:39Z</time>
      </trkpt>
      <trkpt lat="47.30384" lon="0.15704">
        <ele>80</ele>
        <time>2014-09-14T08:35:40Z</time>
      </trkpt>
      <trkpt lat="47.30385" lon="0.15712">
        <ele>80</ele>
        <time>2014-09-14T08:35:42Z</time>
      </trkpt>
      <trkpt lat="47.30379" lon="0.15721">
        <ele>80</ele>
        <time>2014-09-14T08:35:44Z</time>
      </trkpt>
      <trkpt lat="47.30359" lon="0.15745">
        <ele>80</ele>
        <time>2014-09-14T08:35:50Z</time>
      </trkpt>
      <trkpt lat="47.30354" lon="0.15766">
        <ele>80</ele>
        <time>2014-09-14T08:35:54Z</time>
      </trkpt>
      <trkpt lat="47.30353" lon="0.15789">
        <ele>80</ele>
        <time>2014-09-14T08:35:58Z</time>
      </trkpt>
      <trkpt lat="47.30352" lon="0.15795">
        <ele>80</ele>
        <time>2014-09-14T08:35:59Z</time>
      </trkpt>
      <trkpt lat="47.30348" lon="0.15815">
        <ele>80</ele>
        <time>2014-09-14T08:36:03Z</time>
      </trkpt>
      <trkpt lat="47.3034" lon="0.15845">
        <ele>80</ele>
        <time>2014-09-14T08:36:09Z</time>
      </trkpt>
      <trkpt lat="47.30333" lon="0.15873">
        <ele>80</ele>
        <time>2014-09-14T08:36:14Z</time>
      </trkpt>
      <trkpt lat="47.30332" lon="0.15884">
        <ele>80</ele>
        <time>2014-09-14T08:36:16Z</time>
      </trkpt>
      <trkpt lat="47.30331" lon="0.15889">
        <ele>81</ele>
        <time>2014-09-14T08:36:17Z</time>
      </trkpt>
      <trkpt lat="47.3033" lon="0.15894">
        <ele>81</ele>
        <time>2014-09-14T08:36:18Z</time>
      </trkpt>
      <trkpt lat="47.30328" lon="0.15899">
        <ele>82</ele>
        <time>2014-09-14T08:36:19Z</time>
      </trkpt>
      <trkpt lat="47.30325" lon="0.15903">
        <ele>82</ele>
        <time>2014-09-14T08:36:20Z</time>
      </trkpt>
      <trkpt lat="47.30308" lon="0.15926">
        <ele>82</ele>
        <time>2014-09-14T08:36:26Z</time>
      </trkpt>
      <trkpt lat="47.30302" lon="0.15934">
        <ele>82</ele>
        <time>2014-09-14T08:36:29Z</time>
      </trkpt>
      <trkpt lat="47.303" lon="0.15934">
        <ele>82</ele>
        <time>2014-09-14T08:36:30Z</time>
      </trkpt>
      <trkpt lat="47.3029" lon="0.15922">
        <ele>82</ele>
        <time>2014-09-14T08:36:35Z</time>
      </trkpt>
      <trkpt lat="47.30287" lon="0.15915">
        <ele>82</ele>
        <time>2014-09-14T08:36:38Z</time>
      </trkpt>
      <trkpt lat="47.30287" lon="0.15913">
        <ele>82</ele>
        <time>2014-09-14T08:36:39Z</time>
      </trkpt>
      <trkpt lat="47.30283" lon="0.15906">
        <ele>82</ele>
        <time>2014-09-14T08:36:45Z</time>
      </trkpt>
      <trkpt lat="47.30277" lon="0.15909">
        <ele>82</ele>
        <time>2014-09-14T08:36:48Z</time>
      </trkpt>
      <trkpt lat="47.30274" lon="0.15912">
        <ele>82</ele>
        <time>2014-09-14T08:36:49Z</time>
      </trkpt>
      <trkpt lat="47.30265" lon="0.15918">
        <ele>82</ele>
        <time>2014-09-14T08:36:53Z</time>
      </trkpt>
      <trkpt lat="47.30261" lon="0.15922">
        <ele>82</ele>
        <time>2014-09-14T08:36:56Z</time>
      </trkpt>
      <trkpt lat="47.3026" lon="0.15922">
        <ele>82</ele>
        <time>2014-09-14T08:36:57Z</time>
      </trkpt>
      <trkpt lat="47.30253" lon="0.15929">
        <ele>82</ele>
        <time>2014-09-14T08:37:01Z</time>
      </trkpt>
      <trkpt lat="47.30252" lon="0.15932">
        <ele>82</ele>
        <time>2014-09-14T08:37:02Z</time>
      </trkpt>
      <trkpt lat="47.30252" lon="0.15934">
        <ele>82</ele>
        <time>2014-09-14T08:37:04Z</time>
      </trkpt>
      <trkpt lat="47.30252" lon="0.15937">
        <ele>82</ele>
        <time>2014-09-14T08:37:11Z</time>
      </trkpt>
      <trkpt lat="47.30251" lon="0.15939">
        <ele>82</ele>
        <time>2014-09-14T08:37:12Z</time>
      </trkpt>
      <trkpt lat="47.3025" lon="0.15943">
        <ele>82</ele>
        <time>2014-09-14T08:37:16Z</time>
      </trkpt>
      <trkpt lat="47.30244" lon="0.15947">
        <ele>82</ele>
        <time>2014-09-14T08:37:26Z</time>
      </trkpt>
      <trkpt lat="47.30242" lon="0.15946">
        <ele>82</ele>
        <time>2014-09-14T08:37:27Z</time>
      </trkpt>
      <trkpt lat="47.30235" lon="0.15952">
        <ele>82</ele>
        <time>2014-09-14T08:37:31Z</time>
      </trkpt>
      <trkpt lat="47.30228" lon="0.15954">
        <ele>82</ele>
        <time>2014-09-14T08:37:35Z</time>
      </trkpt>
      <trkpt lat="47.30223" lon="0.1595">
        <ele>82</ele>
        <time>2014-09-14T08:37:39Z</time>
      </trkpt>
      <trkpt lat="47.30223" lon="0.1595">
        <ele>82</ele>
        <time>2014-09-14T08:37:40Z</time>
      </trkpt>
      <trkpt lat="47.30222" lon="0.15949">
        <ele>82</ele>
        <time>2014-09-14T08:37:41Z</time>
      </trkpt>
      <trkpt lat="47.30222" lon="0.15944">
        <ele>82</ele>
        <time>2014-09-14T08:37:43Z</time>
      </trkpt>
      <trkpt lat="47.30218" lon="0.1594">
        <ele>82</ele>
        <time>2014-09-14T08:37:45Z</time>
      </trkpt>
      <trkpt lat="47.30212" lon="0.15941">
        <ele>82</ele>
        <time>2014-09-14T08:37:48Z</time>
      </trkpt>
      <trkpt lat="47.30205" lon="0.15943">
        <ele>82</ele>
        <time>2014-09-14T08:37:51Z</time>
      </trkpt>
      <trkpt lat="47.30205" lon="0.15943">
        <ele>82</ele>
        <time>2014-09-14T08:37:52Z</time>
      </trkpt>
      <trkpt lat="47.30201" lon="0.15941">
        <ele>82</ele>
        <time>2014-09-14T08:37:54Z</time>
      </trkpt>
      <trkpt lat="47.30194" lon="0.15935">
        <ele>82</ele>
        <time>2014-09-14T08:37:57Z</time>
      </trkpt>
      <trkpt lat="47.30191" lon="0.15933">
        <ele>82</ele>
        <time>2014-09-14T08:37:58Z</time>
      </trkpt>
      <trkpt lat="47.30188" lon="0.15927">
        <ele>82</ele>
        <time>2014-09-14T08:38:00Z</time>
      </trkpt>
      <trkpt lat="47.30186" lon="0.15918">
        <ele>82</ele>
        <time>2014-09-14T08:38:02Z</time>
      </trkpt>
      <trkpt lat="47.30178" lon="0.15908">
        <ele>82</ele>
        <time>2014-09-14T08:38:05Z</time>
      </trkpt>
      <trkpt lat="47.30172" lon="0.15905">
        <ele>82</ele>
        <time>2014-09-14T08:38:07Z</time>
      </trkpt>
      <trkpt lat="47.3017" lon="0.15909">
        <ele>81</ele>
        <time>2014-09-14T08:38:08Z</time>
      </trkpt>
      <trkpt lat="47.30169" lon="0.15912">
        <ele>81</ele>
        <time>2014-09-14T08:38:09Z</time>
      </trkpt>
      <trkpt lat="47.30167" lon="0.15914">
        <ele>80</ele>
        <time>2014-09-14T08:38:10Z</time>
      </trkpt>
      <trkpt lat="47.30164" lon="0.15914">
        <ele>80</ele>
        <time>2014-09-14T08:38:11Z</time>
      </trkpt>
      <trkpt lat="47.30161" lon="0.15915">
        <ele>80</ele>
        <time>2014-09-14T08:38:12Z</time>
      </trkpt>
      <trkpt lat="47.30158" lon="0.15916">
        <ele>80</ele>
        <time>2014-09-14T08:38:13Z</time>
      </trkpt>
      <trkpt lat="47.30141" lon="0.15929">
        <ele>80</ele>
        <time>2014-09-14T08:38:19Z</time>
      </trkpt>
      <trkpt lat="47.30138" lon="0.15935">
        <ele>80</ele>
        <time>2014-09-14T08:38:21Z</time>
      </trkpt>
      <trkpt lat="47.30138" lon="0.15943">
        <ele>80</ele>
        <time>2014-09-14T08:38:23Z</time>
      </trkpt>
      <trkpt lat="47.30135" lon="0.15945">
        <ele>80</ele>
        <time>2014-09-14T08:38:27Z</time>
      </trkpt>
      <trkpt lat="47.30133" lon="0.15943">
        <ele>80</ele>
        <time>2014-09-14T08:38:31Z</time>
      </trkpt>
      <trkpt lat="47.30133" lon="0.15943">
        <ele>80</ele>
        <time>2014-09-14T08:38:32Z</time>
      </trkpt>
      <trkpt lat="47.30131" lon="0.15945">
        <ele>80</ele>
        <time>2014-09-14T08:38:36Z</time>
      </trkpt>
      <trkpt lat="47.30126" lon="0.15947">
        <ele>80</ele>
        <time>2014-09-14T08:38:39Z</time>
      </trkpt>
      <trkpt lat="47.30123" lon="0.15949">
        <ele>80</ele>
        <time>2014-09-14T08:38:40Z</time>
      </trkpt>
      <trkpt lat="47.30117" lon="0.15951">
        <ele>80</ele>
        <time>2014-09-14T08:38:43Z</time>
      </trkpt>
      <trkpt lat="47.30104" lon="0.15948">
        <ele>80</ele>
        <time>2014-09-14T08:38:48Z</time>
      </trkpt>
      <trkpt lat="47.30097" lon="0.15944">
        <ele>80</ele>
        <time>2014-09-14T08:38:51Z</time>
      </trkpt>
      <trkpt lat="47.30097" lon="0.15943">
        <ele>80</ele>
        <time>2014-09-14T08:38:52Z</time>
      </trkpt>
      <trkpt lat="47.30096" lon="0.15939">
        <ele>80</ele>
        <time>2014-09-14T08:38:55Z</time>
      </trkpt>
      <trkpt lat="47.30094" lon="0.15934">
        <ele>80</ele>
        <time>2014-09-14T08:38:59Z</time>
      </trkpt>
      <trkpt lat="47.30091" lon="0.1593">
        <ele>80</ele>
        <time>2014-09-14T08:39:01Z</time>
      </trkpt>
      <trkpt lat="47.30088" lon="0.15931">
        <ele>80</ele>
        <time>2014-09-14T08:39:02Z</time>
      </trkpt>
      <trkpt lat="47.3008" lon="0.15933">
        <ele>80</ele>
        <time>2014-09-14T08:39:05Z</time>
      </trkpt>
      <trkpt lat="47.30072" lon="0.1593">
        <ele>80</ele>
        <time>2014-09-14T08:39:08Z</time>
      </trkpt>
      <trkpt lat="47.30068" lon="0.15924">
        <ele>80</ele>
        <time>2014-09-14T08:39:10Z</time>
      </trkpt>
      <trkpt lat="47.30059" lon="0.15919">
        <ele>80</ele>
        <time>2014-09-14T08:39:15Z</time>
      </trkpt>
      <trkpt lat="47.30055" lon="0.15918">
        <ele>79</ele>
        <time>2014-09-14T08:39:16Z</time>
      </trkpt>
      <trkpt lat="47.30052" lon="0.15918">
        <ele>79</ele>
        <time>2014-09-14T08:39:17Z</time>
      </trkpt>
      <trkpt lat="47.30048" lon="0.15917">
        <ele>78</ele>
        <time>2014-09-14T08:39:18Z</time>
      </trkpt>
      <trkpt lat="47.30044" lon="0.15917">
        <ele>78</ele>
        <time>2014-09-14T08:39:19Z</time>
      </trkpt>
      <trkpt lat="47.30036" lon="0.15918">
        <ele>78</ele>
        <time>2014-09-14T08:39:22Z</time>
      </trkpt>
      <trkpt lat="47.30033" lon="0.1592">
        <ele>77</ele>
        <time>2014-09-14T08:39:23Z</time>
      </trkpt>
      <trkpt lat="47.30029" lon="0.1592">
        <ele>77</ele>
        <time>2014-09-14T08:39:24Z</time>
      </trkpt>
      <trkpt lat="47.30025" lon="0.15921">
        <ele>77</ele>
        <time>2014-09-14T08:39:25Z</time>
      </trkpt>
      <trkpt lat="47.30021" lon="0.15917">
        <ele>76</ele>
        <time>2014-09-14T08:39:26Z</time>
      </trkpt>
      <trkpt lat="47.30018" lon="0.15915">
        <ele>76</ele>
        <time>2014-09-14T08:39:27Z</time>
      </trkpt>
      <trkpt lat="47.30002" lon="0.15905">
        <ele>76</ele>
        <time>2014-09-14T08:39:31Z</time>
      </trkpt>
      <trkpt lat="47.2999" lon="0.1589">
        <ele>76</ele>
        <time>2014-09-14T08:39:36Z</time>
      </trkpt>
      <trkpt lat="47.29994" lon="0.15885">
        <ele>76</ele>
        <time>2014-09-14T08:39:40Z</time>
      </trkpt>
      <trkpt lat="47.29996" lon="0.15882">
        <ele>76</ele>
        <time>2014-09-14T08:39:41Z</time>
      </trkpt>
      <trkpt lat="47.29998" lon="0.1587">
        <ele>76</ele>
        <time>2014-09-14T08:39:44Z</time>
      </trkpt>
      <trkpt lat="47.29998" lon="0.15863">
        <ele>76</ele>
        <time>2014-09-14T08:39:46Z</time>
      </trkpt>
      <trkpt lat="47.29993" lon="0.15856">
        <ele>76</ele>
        <time>2014-09-14T08:39:48Z</time>
      </trkpt>
      <trkpt lat="47.29984" lon="0.15847">
        <ele>75</ele>
        <time>2014-09-14T08:39:51Z</time>
      </trkpt>
      <trkpt lat="47.29983" lon="0.15843">
        <ele>75</ele>
        <time>2014-09-14T08:39:52Z</time>
      </trkpt>
      <trkpt lat="47.2998" lon="0.15838">
        <ele>75</ele>
        <time>2014-09-14T08:39:53Z</time>
      </trkpt>
      <trkpt lat="47.29976" lon="0.15834">
        <ele>74</ele>
        <time>2014-09-14T08:39:54Z</time>
      </trkpt>
      <trkpt lat="47.29973" lon="0.15832">
        <ele>74</ele>
        <time>2014-09-14T08:39:55Z</time>
      </trkpt>
      <trkpt lat="47.29971" lon="0.15829">
        <ele>73</ele>
        <time>2014-09-14T08:39:56Z</time>
      </trkpt>
      <trkpt lat="47.29969" lon="0.15827">
        <ele>72</ele>
        <time>2014-09-14T08:39:57Z</time>
      </trkpt>
      <trkpt lat="47.29968" lon="0.15824">
        <ele>72</ele>
        <time>2014-09-14T08:39:58Z</time>
      </trkpt>
      <trkpt lat="47.29968" lon="0.15821">
        <ele>71</ele>
        <time>2014-09-14T08:39:59Z</time>
      </trkpt>
      <trkpt lat="47.29972" lon="0.15811">
        <ele>71</ele>
        <time>2014-09-14T08:40:02Z</time>
      </trkpt>
      <trkpt lat="47.29974" lon="0.15791">
        <ele>71</ele>
        <time>2014-09-14T08:40:06Z</time>
      </trkpt>
      <trkpt lat="47.29972" lon="0.15775">
        <ele>71</ele>
        <time>2014-09-14T08:40:10Z</time>
      </trkpt>
      <trkpt lat="47.29971" lon="0.15771">
        <ele>70</ele>
        <time>2014-09-14T08:40:11Z</time>
      </trkpt>
      <trkpt lat="47.29971" lon="0.15767">
        <ele>70</ele>
        <time>2014-09-14T08:40:12Z</time>
      </trkpt>
      <trkpt lat="47.29972" lon="0.15763">
        <ele>69</ele>
        <time>2014-09-14T08:40:13Z</time>
      </trkpt>
      <trkpt lat="47.29973" lon="0.1576">
        <ele>69</ele>
        <time>2014-09-14T08:40:14Z</time>
      </trkpt>
      <trkpt lat="47.29974" lon="0.15755">
        <ele>68</ele>
        <time>2014-09-14T08:40:15Z</time>
      </trkpt>
      <trkpt lat="47.29975" lon="0.1575">
        <ele>68</ele>
        <time>2014-09-14T08:40:16Z</time>
      </trkpt>
      <trkpt lat="47.29975" lon="0.15747">
        <ele>67</ele>
        <time>2014-09-14T08:40:17Z</time>
      </trkpt>
      <trkpt lat="47.29976" lon="0.15744">
        <ele>67</ele>
        <time>2014-09-14T08:40:18Z</time>
      </trkpt>
      <trkpt lat="47.29976" lon="0.15743">
        <ele>66</ele>
        <time>2014-09-14T08:40:19Z</time>
      </trkpt>
      <trkpt lat="47.29976" lon="0.15742">
        <ele>65</ele>
        <time>2014-09-14T08:40:20Z</time>
      </trkpt>
      <trkpt lat="47.29978" lon="0.1574">
        <ele>65</ele>
        <time>2014-09-14T08:40:21Z</time>
      </trkpt>
      <trkpt lat="47.29979" lon="0.15738">
        <ele>64</ele>
        <time>2014-09-14T08:40:22Z</time>
      </trkpt>
      <trkpt lat="47.29978" lon="0.15736">
        <ele>64</ele>
        <time>2014-09-14T08:40:23Z</time>
      </trkpt>
      <trkpt lat="47.29979" lon="0.15734">
        <ele>64</ele>
        <time>2014-09-14T08:40:24Z</time>
      </trkpt>
      <trkpt lat="47.29982" lon="0.15729">
        <ele>64</ele>
        <time>2014-09-14T08:40:29Z</time>
      </trkpt>
      <trkpt lat="47.29981" lon="0.15728">
        <ele>64</ele>
        <time>2014-09-14T08:40:30Z</time>
      </trkpt>
      <trkpt lat="47.29979" lon="0.15727">
        <ele>64</ele>
        <time>2014-09-14T08:40:32Z</time>
      </trkpt>
      <trkpt lat="47.29979" lon="0.15727">
        <ele>64</ele>
        <time>2014-09-14T08:40:33Z</time>
      </trkpt>
      <trkpt lat="47.29976" lon="0.15725">
        <ele>64</ele>
        <time>2014-09-14T08:40:35Z</time>
      </trkpt>
      <trkpt lat="47.29972" lon="0.15724">
        <ele>64</ele>
        <time>2014-09-14T08:40:36Z</time>
      </trkpt>
      <trkpt lat="47.29958" lon="0.1572">
        <ele>64</ele>
        <time>2014-09-14T08:40:39Z</time>
      </trkpt>
      <trkpt lat="47.29954" lon="0.15721">
        <ele>64</ele>
        <time>2014-09-14T08:40:40Z</time>
      </trkpt>
      <trkpt lat="47.29945" lon="0.15723">
        <ele>64</ele>
        <time>2014-09-14T08:40:42Z</time>
      </trkpt>
      <trkpt lat="47.29942" lon="0.15725">
        <ele>63</ele>
        <time>2014-09-14T08:40:43Z</time>
      </trkpt>
      <trkpt lat="47.2994" lon="0.15726">
        <ele>63</ele>
        <time>2014-09-14T08:40:44Z</time>
      </trkpt>
      <trkpt lat="47.29939" lon="0.15728">
        <ele>62</ele>
        <time>2014-09-14T08:40:45Z</time>
      </trkpt>
      <trkpt lat="47.29937" lon="0.15731">
        <ele>62</ele>
        <time>2014-09-14T08:40:46Z</time>
      </trkpt>
      <trkpt lat="47.29936" lon="0.15734">
        <ele>62</ele>
        <time>2014-09-14T08:40:47Z</time>
      </trkpt>
      <trkpt lat="47.29934" lon="0.15738">
        <ele>61</ele>
        <time>2014-09-14T08:40:48Z</time>
      </trkpt>
      <trkpt lat="47.29933" lon="0.15741">
        <ele>61</ele>
        <time>2014-09-14T08:40:49Z</time>
      </trkpt>
      <trkpt lat="47.29933" lon="0.15745">
        <ele>60</ele>
        <time>2014-09-14T08:40:50Z</time>
      </trkpt>
      <trkpt lat="47.29933" lon="0.15751">
        <ele>59</ele>
        <time>2014-09-14T08:40:51Z</time>
      </trkpt>
      <trkpt lat="47.29933" lon="0.15758">
        <ele>58</ele>
        <time>2014-09-14T08:40:52Z</time>
      </trkpt>
      <trkpt lat="47.29933" lon="0.15764">
        <ele>57</ele>
        <time>2014-09-14T08:40:53Z</time>
      </trkpt>
      <trkpt lat="47.29932" lon="0.15772">
        <ele>57</ele>
        <time>2014-09-14T08:40:54Z</time>
      </trkpt>
      <trkpt lat="47.2993" lon="0.15785">
        <ele>56</ele>
        <time>2014-09-14T08:40:56Z</time>
      </trkpt>
      <trkpt lat="47.29929" lon="0.1579">
        <ele>56</ele>
        <time>2014-09-14T08:40:57Z</time>
      </trkpt>
      <trkpt lat="47.29929" lon="0.15796">
        <ele>55</ele>
        <time>2014-09-14T08:40:58Z</time>
      </trkpt>
      <trkpt lat="47.29928" lon="0.15803">
        <ele>55</ele>
        <time>2014-09-14T08:40:59Z</time>
      </trkpt>
      <trkpt lat="47.29927" lon="0.15807">
        <ele>55</ele>
        <time>2014-09-14T08:41:00Z</time>
      </trkpt>
      <trkpt lat="47.29925" lon="0.1582">
        <ele>55</ele>
        <time>2014-09-14T08:41:02Z</time>
      </trkpt>
      <trkpt lat="47.29919" lon="0.15849">
        <ele>55</ele>
        <time>2014-09-14T08:41:07Z</time>
      </trkpt>
      <trkpt lat="47.29917" lon="0.15871">
        <ele>55</ele>
        <time>2014-09-14T08:41:10Z</time>
      </trkpt>
      <trkpt lat="47.2992" lon="0.15887">
        <ele>55</ele>
        <time>2014-09-14T08:41:12Z</time>
      </trkpt>
      <trkpt lat="47.29922" lon="0.15901">
        <ele>55</ele>
        <time>2014-09-14T08:41:14Z</time>
      </trkpt>
      <trkpt lat="47.29923" lon="0.15914">
        <ele>54</ele>
        <time>2014-09-14T08:41:16Z</time>
      </trkpt>
      <trkpt lat="47.29923" lon="0.15918">
        <ele>54</ele>
        <time>2014-09-14T08:41:17Z</time>
      </trkpt>
      <trkpt lat="47.29922" lon="0.15921">
        <ele>53</ele>
        <time>2014-09-14T08:41:18Z</time>
      </trkpt>
      <trkpt lat="47.29921" lon="0.15924">
        <ele>53</ele>
        <time>2014-09-14T08:41:19Z</time>
      </trkpt>
      <trkpt lat="47.2992" lon="0.15927">
        <ele>52</ele>
        <time>2014-09-14T08:41:20Z</time>
      </trkpt>
      <trkpt lat="47.29911" lon="0.15932">
        <ele>52</ele>
        <time>2014-09-14T08:41:24Z</time>
      </trkpt>
      <trkpt lat="47.29907" lon="0.15932">
        <ele>52</ele>
        <time>2014-09-14T08:41:25Z</time>
      </trkpt>
      <trkpt lat="47.29894" lon="0.15939">
        <ele>52</ele>
        <time>2014-09-14T08:41:28Z</time>
      </trkpt>
      <trkpt lat="47.29889" lon="0.15942">
        <ele>52</ele>
        <time>2014-09-14T08:41:29Z</time>
      </trkpt>
      <trkpt lat="47.2988" lon="0.15942">
        <ele>52</ele>
        <time>2014-09-14T08:41:32Z</time>
      </trkpt>
      <trkpt lat="47.29874" lon="0.15938">
        <ele>52</ele>
        <time>2014-09-14T08:41:34Z</time>
      </trkpt>
      <trkpt lat="47.29873" lon="0.15935">
        <ele>52</ele>
        <time>2014-09-14T08:41:35Z</time>
      </trkpt>
      <trkpt lat="47.29872" lon="0.15929">
        <ele>51</ele>
        <time>2014-09-14T08:41:36Z</time>
      </trkpt>
      <trkpt lat="47.29871" lon="0.15925">
        <ele>51</ele>
        <time>2014-09-14T08:41:37Z</time>
      </trkpt>
      <trkpt lat="47.29868" lon="0.1592">
        <ele>50</ele>
        <time>2014-09-14T08:41:38Z</time>
      </trkpt>
      <trkpt lat="47.29865" lon="0.15908">
        <ele>50</ele>
        <time>2014-09-14T08:41:40Z</time>
      </trkpt>
      <trkpt lat="47.29856" lon="0.15905">
        <ele>50</ele>
        <time>2014-09-14T08:41:43Z</time>
      </trkpt>
      <trkpt lat="47.29842" lon="0.15919">
        <ele>50</ele>
        <time>2014-09-14T08:41:46Z</time>
      </trkpt>
      <trkpt lat="47.29828" lon="0.15923">
        <ele>50</ele>
        <time>2014-09-14T08:41:48Z</time>
      </trkpt>
      <trkpt lat="47.29822" lon="0.15924">
        <ele>50</ele>
        <time>2014-09-14T08:41:49Z</time>
      </trkpt>
      <trkpt lat="47.29815" lon="0.15924">
        <ele>49</ele>
        <time>2014-09-14T08:41:50Z</time>
      </trkpt>
      <trkpt lat="47.2981" lon="0.15924">
        <ele>49</ele>
        <time>2014-09-14T08:41:51Z</time>
      </trkpt>
      <trkpt lat="47.29804" lon="0.15924">
        <ele>48</ele>
        <time>2014-09-14T08:41:52Z</time>
      </trkpt>
      <trkpt lat="47.298" lon="0.15925">
        <ele>48</ele>
        <time>2014-09-14T08:41:53Z</time>
      </trkpt>
      <trkpt lat="47.29797" lon="0.15927">
        <ele>47</ele>
        <time>2014-09-14T08:41:54Z</time>
      </trkpt>
      <trkpt lat="47.29796" lon="0.15931">
        <ele>47</ele>
        <time>2014-09-14T08:41:55Z</time>
      </trkpt>
      <trkpt lat="47.29796" lon="0.15937">
        <ele>46</ele>
        <time>2014-09-14T08:41:56Z</time>
      </trkpt>
      <trkpt lat="47.29797" lon="0.15944">
        <ele>46</ele>
        <time>2014-09-14T08:41:57Z</time>
      </trkpt>
      <trkpt lat="47.29802" lon="0.15967">
        <ele>46</ele>
        <time>2014-09-14T08:42:00Z</time>
      </trkpt>
      <trkpt lat="47.29805" lon="0.15975">
        <ele>46</ele>
        <time>2014-09-14T08:42:01Z</time>
      </trkpt>
      <trkpt lat="47.29818" lon="0.16006">
        <ele>46</ele>
        <time>2014-09-14T08:42:05Z</time>
      </trkpt>
      <trkpt lat="47.2982" lon="0.16013">
        <ele>46</ele>
        <time>2014-09-14T08:42:06Z</time>
      </trkpt>
      <trkpt lat="47.29831" lon="0.16042">
        <ele>46</ele>
        <time>2014-09-14T08:42:10Z</time>
      </trkpt>
      <trkpt lat="47.29832" lon="0.1605">
        <ele>46</ele>
        <time>2014-09-14T08:42:11Z</time>
      </trkpt>
      <trkpt lat="47.2983" lon="0.16073">
        <ele>46</ele>
        <time>2014-09-14T08:42:14Z</time>
      </trkpt>
      <trkpt lat="47.29829" lon="0.16082">
        <ele>46</ele>
        <time>2014-09-14T08:42:15Z</time>
      </trkpt>
      <trkpt lat="47.29826" lon="0.1613">
        <ele>46</ele>
        <time>2014-09-14T08:42:20Z</time>
      </trkpt>
      <trkpt lat="47.29829" lon="0.16163">
        <ele>46</ele>
        <time>2014-09-14T08:42:25Z</time>
      </trkpt>
      <trkpt lat="47.29836" lon="0.16165">
        <ele>46</ele>
        <time>2014-09-14T08:42:28Z</time>
      </trkpt>
      <trkpt lat="47.2984" lon="0.16177">
        <ele>46</ele>
        <time>2014-09-14T08:42:31Z</time>
      </trkpt>
      <trkpt lat="47.29844" lon="0.16192">
        <ele>46</ele>
        <time>2014-09-14T08:42:34Z</time>
      </trkpt>
      <trkpt lat="47.29846" lon="0.16206">
        <ele>46</ele>
        <time>2014-09-14T08:42:37Z</time>
      </trkpt>
      <trkpt lat="47.29846" lon="0.16217">
        <ele>46</ele>
        <time>2014-09-14T08:42:39Z</time>
      </trkpt>
      <trkpt lat="47.29847" lon="0.16222">
        <ele>47</ele>
        <time>2014-09-14T08:42:40Z</time>
      </trkpt>
      <trkpt lat="47.29847" lon="0.16227">
        <ele>47</ele>
        <time>2014-09-14T08:42:41Z</time>
      </trkpt>
      <trkpt lat="47.29847" lon="0.16232">
        <ele>48</ele>
        <time>2014-09-14T08:42:42Z</time>
      </trkpt>
      <trkpt lat="47.29848" lon="0.16238">
        <ele>48</ele>
        <time>2014-09-14T08:42:43Z</time>
      </trkpt>
      <trkpt lat="47.29848" lon="0.16243">
        <ele>48</ele>
        <time>2014-09-14T08:42:44Z</time>
      </trkpt>
      <trkpt lat="47.29853" lon="0.16269">
        <ele>48</ele>
        <time>2014-09-14T08:42:50Z</time>
      </trkpt>
      <trkpt lat="47.29855" lon="0.16272">
        <ele>48</ele>
        <time>2014-09-14T08:42:51Z</time>
      </trkpt>
      <trkpt lat="47.29856" lon="0.16274">
        <ele>49</ele>
        <time>2014-09-14T08:42:52Z</time>
      </trkpt>
      <trkpt lat="47.29858" lon="0.16276">
        <ele>49</ele>
        <time>2014-09-14T08:42:53Z</time>
      </trkpt>
      <trkpt lat="47.2986" lon="0.16277">
        <ele>50</ele>
        <time>2014-09-14T08:42:54Z</time>
      </trkpt>
      <trkpt lat="47.29862" lon="0.16278">
        <ele>50</ele>
        <time>2014-09-14T08:42:55Z</time>
      </trkpt>
      <trkpt lat="47.29864" lon="0.1628">
        <ele>51</ele>
        <time>2014-09-14T08:42:56Z</time>
      </trkpt>
      <trkpt lat="47.29866" lon="0.16282">
        <ele>51</ele>
        <time>2014-09-14T08:42:57Z</time>
      </trkpt>
      <trkpt lat="47.29869" lon="0.16284">
        <ele>51</ele>
        <time>2014-09-14T08:42:58Z</time>
      </trkpt>
      <trkpt lat="47.29871" lon="0.16286">
        <ele>52</ele>
        <time>2014-09-14T08:42:59Z</time>
      </trkpt>
      <trkpt lat="47.29872" lon="0.16287">
        <ele>52</ele>
        <time>2014-09-14T08:43:00Z</time>
      </trkpt>
      <trkpt lat="47.29876" lon="0.16291">
        <ele>52</ele>
        <time>2014-09-14T08:43:02Z</time>
      </trkpt>
      <trkpt lat="47.29883" lon="0.163">
        <ele>53</ele>
        <time>2014-09-14T08:43:06Z</time>
      </trkpt>
      <trkpt lat="47.29885" lon="0.16303">
        <ele>53</ele>
        <time>2014-09-14T08:43:07Z</time>
      </trkpt>
      <trkpt lat="47.29886" lon="0.16305">
        <ele>53</ele>
        <time>2014-09-14T08:43:08Z</time>
      </trkpt>
      <trkpt lat="47.29888" lon="0.16308">
        <ele>54</ele>
        <time>2014-09-14T08:43:09Z</time>
      </trkpt>
      <trkpt lat="47.29889" lon="0.16311">
        <ele>54</ele>
        <time>2014-09-14T08:43:10Z</time>
      </trkpt>
      <trkpt lat="47.29894" lon="0.1632">
        <ele>54</ele>
        <time>2014-09-14T08:43:14Z</time>
      </trkpt>
      <trkpt lat="47.29898" lon="0.16325">
        <ele>55</ele>
        <time>2014-09-14T08:43:17Z</time>
      </trkpt>
      <trkpt lat="47.299" lon="0.16327">
        <ele>55</ele>
        <time>2014-09-14T08:43:18Z</time>
      </trkpt>
      <trkpt lat="47.29901" lon="0.16329">
        <ele>56</ele>
        <time>2014-09-14T08:43:19Z</time>
      </trkpt>
      <trkpt lat="47.29902" lon="0.16331">
        <ele>56</ele>
        <time>2014-09-14T08:43:20Z</time>
      </trkpt>
      <trkpt lat="47.29904" lon="0.16333">
        <ele>56</ele>
        <time>2014-09-14T08:43:21Z</time>
      </trkpt>
      <trkpt lat="47.2991" lon="0.16342">
        <ele>57</ele>
        <time>2014-09-14T08:43:26Z</time>
      </trkpt>
      <trkpt lat="47.29911" lon="0.16344">
        <ele>57</ele>
        <time>2014-09-14T08:43:27Z</time>
      </trkpt>
      <trkpt lat="47.29912" lon="0.16346">
        <ele>58</ele>
        <time>2014-09-14T08:43:28Z</time>
      </trkpt>
      <trkpt lat="47.29914" lon="0.16348">
        <ele>58</ele>
        <time>2014-09-14T08:43:29Z</time>
      </trkpt>
      <trkpt lat="47.29915" lon="0.1635">
        <ele>58</ele>
        <time>2014-09-14T08:43:30Z</time>
      </trkpt>
      <trkpt lat="47.29923" lon="0.16359">
        <ele>59</ele>
        <time>2014-09-14T08:43:36Z</time>
      </trkpt>
      <trkpt lat="47.29924" lon="0.16361">
        <ele>59</ele>
        <time>2014-09-14T08:43:37Z</time>
      </trkpt>
      <trkpt lat="47.29925" lon="0.16363">
        <ele>60</ele>
        <time>2014-09-14T08:43:38Z</time>
      </trkpt>
      <trkpt lat="47.29926" lon="0.16364">
        <ele>60</ele>
        <time>2014-09-14T08:43:39Z</time>
      </trkpt>
      <trkpt lat="47.29927" lon="0.16366">
        <ele>61</ele>
        <time>2014-09-14T08:43:40Z</time>
      </trkpt>
      <trkpt lat="47.2993" lon="0.16371">
        <ele>61</ele>
        <time>2014-09-14T08:43:43Z</time>
      </trkpt>
      <trkpt lat="47.29931" lon="0.16372">
        <ele>62</ele>
        <time>2014-09-14T08:43:44Z</time>
      </trkpt>
      <trkpt lat="47.29933" lon="0.16374">
        <ele>62</ele>
        <time>2014-09-14T08:43:45Z</time>
      </trkpt>
      <trkpt lat="47.29933" lon="0.16375">
        <ele>62</ele>
        <time>2014-09-14T08:43:46Z</time>
      </trkpt>
      <trkpt lat="47.29934" lon="0.16377">
        <ele>63</ele>
        <time>2014-09-14T08:43:47Z</time>
      </trkpt>
      <trkpt lat="47.29936" lon="0.16381">
        <ele>63</ele>
        <time>2014-09-14T08:43:49Z</time>
      </trkpt>
      <trkpt lat="47.29937" lon="0.16382">
        <ele>64</ele>
        <time>2014-09-14T08:43:50Z</time>
      </trkpt>
      <trkpt lat="47.29938" lon="0.16385">
        <ele>64</ele>
        <time>2014-09-14T08:43:51Z</time>
      </trkpt>
      <trkpt lat="47.29938" lon="0.16387">
        <ele>64</ele>
        <time>2014-09-14T08:43:52Z</time>
      </trkpt>
      <trkpt lat="47.2994" lon="0.16389">
        <ele>65</ele>
        <time>2014-09-14T08:43:53Z</time>
      </trkpt>
      <trkpt lat="47.29942" lon="0.16393">
        <ele>65</ele>
        <time>2014-09-14T08:43:55Z</time>
      </trkpt>
      <trkpt lat="47.29945" lon="0.16395">
        <ele>65</ele>
        <time>2014-09-14T08:43:57Z</time>
      </trkpt>
      <trkpt lat="47.29947" lon="0.16396">
        <ele>66</ele>
        <time>2014-09-14T08:43:58Z</time>
      </trkpt>
      <trkpt lat="47.29948" lon="0.16397">
        <ele>66</ele>
        <time>2014-09-14T08:43:59Z</time>
      </trkpt>
      <trkpt lat="47.2995" lon="0.16398">
        <ele>67</ele>
        <time>2014-09-14T08:44:00Z</time>
      </trkpt>
      <trkpt lat="47.29952" lon="0.16398">
        <ele>67</ele>
        <time>2014-09-14T08:44:01Z</time>
      </trkpt>
      <trkpt lat="47.29959" lon="0.16407">
        <ele>67</ele>
        <time>2014-09-14T08:44:05Z</time>
      </trkpt>
      <trkpt lat="47.2996" lon="0.1641">
        <ele>67</ele>
        <time>2014-09-14T08:44:06Z</time>
      </trkpt>
      <trkpt lat="47.29961" lon="0.16413">
        <ele>68</ele>
        <time>2014-09-14T08:44:07Z</time>
      </trkpt>
      <trkpt lat="47.29961" lon="0.16418">
        <ele>68</ele>
        <time>2014-09-14T08:44:08Z</time>
      </trkpt>
      <trkpt lat="47.29961" lon="0.16423">
        <ele>69</ele>
        <time>2014-09-14T08:44:09Z</time>
      </trkpt>
      <trkpt lat="47.29961" lon="0.16427">
        <ele>69</ele>
        <time>2014-09-14T08:44:10Z</time>
      </trkpt>
      <trkpt lat="47.29962" lon="0.16432">
        <ele>69</ele>
        <time>2014-09-14T08:44:11Z</time>
      </trkpt>
      <trkpt lat="47.29964" lon="0.16464">
        <ele>69</ele>
        <time>2014-09-14T08:44:17Z</time>
      </trkpt>
      <trkpt lat="47.29966" lon="0.16494">
        <ele>69</ele>
        <time>2014-09-14T08:44:22Z</time>
      </trkpt>
      <trkpt lat="47.29967" lon="0.16508">
        <ele>69</ele>
        <time>2014-09-14T08:44:24Z</time>
      </trkpt>
      <trkpt lat="47.29974" lon="0.16518">
        <ele>69</ele>
        <time>2014-09-14T08:44:28Z</time>
      </trkpt>
      <trkpt lat="47.29977" lon="0.16518">
        <ele>68</ele>
        <time>2014-09-14T08:44:29Z</time>
      </trkpt>
      <trkpt lat="47.29979" lon="0.16517">
        <ele>68</ele>
        <time>2014-09-14T08:44:30Z</time>
      </trkpt>
      <trkpt lat="47.29981" lon="0.16517">
        <ele>68</ele>
        <time>2014-09-14T08:44:31Z</time>
      </trkpt>
      <trkpt lat="47.29984" lon="0.16516">
        <ele>67</ele>
        <time>2014-09-14T08:44:32Z</time>
      </trkpt>
      <trkpt lat="47.29984" lon="0.16516">
        <ele>67</ele>
        <time>2014-09-14T08:44:32Z</time>
      </trkpt>
      <trkpt lat="47.30003" lon="0.16513">
        <ele>67</ele>
        <time>2014-09-14T08:44:37Z</time>
      </trkpt>
      <trkpt lat="47.30007" lon="0.16513">
        <ele>68</ele>
        <time>2014-09-14T08:44:38Z</time>
      </trkpt>
      <trkpt lat="47.30011" lon="0.16512">
        <ele>68</ele>
        <time>2014-09-14T08:44:39Z</time>
      </trkpt>
      <trkpt lat="47.30013" lon="0.16511">
        <ele>68</ele>
        <time>2014-09-14T08:44:40Z</time>
      </trkpt>
      <trkpt lat="47.30017" lon="0.16511">
        <ele>69</ele>
        <time>2014-09-14T08:44:41Z</time>
      </trkpt>
      <trkpt lat="47.30021" lon="0.16511">
        <ele>69</ele>
        <time>2014-09-14T08:44:42Z</time>
      </trkpt>
      <trkpt lat="47.30024" lon="0.1651">
        <ele>69</ele>
        <time>2014-09-14T08:44:43Z</time>
      </trkpt>
      <trkpt lat="47.30038" lon="0.16505">
        <ele>70</ele>
        <time>2014-09-14T08:44:47Z</time>
      </trkpt>
      <trkpt lat="47.3004" lon="0.16501">
        <ele>70</ele>
        <time>2014-09-14T08:44:48Z</time>
      </trkpt>
      <trkpt lat="47.30042" lon="0.16496">
        <ele>71</ele>
        <time>2014-09-14T08:44:49Z</time>
      </trkpt>
      <trkpt lat="47.30043" lon="0.16492">
        <ele>71</ele>
        <time>2014-09-14T08:44:50Z</time>
      </trkpt>
      <trkpt lat="47.30042" lon="0.16486">
        <ele>72</ele>
        <time>2014-09-14T08:44:51Z</time>
      </trkpt>
      <trkpt lat="47.30042" lon="0.16481">
        <ele>72</ele>
        <time>2014-09-14T08:44:52Z</time>
      </trkpt>
      <trkpt lat="47.30041" lon="0.16475">
        <ele>72</ele>
        <time>2014-09-14T08:44:53Z</time>
      </trkpt>
      <trkpt lat="47.30039" lon="0.16463">
        <ele>72</ele>
        <time>2014-09-14T08:44:55Z</time>
      </trkpt>
      <trkpt lat="47.30038" lon="0.16458">
        <ele>72</ele>
        <time>2014-09-14T08:44:56Z</time>
      </trkpt>
      <trkpt lat="47.30037" lon="0.16453">
        <ele>73</ele>
        <time>2014-09-14T08:44:57Z</time>
      </trkpt>
      <trkpt lat="47.30037" lon="0.16449">
        <ele>74</ele>
        <time>2014-09-14T08:44:58Z</time>
      </trkpt>
      <trkpt lat="47.30035" lon="0.16438">
        <ele>74</ele>
        <time>2014-09-14T08:45:00Z</time>
      </trkpt>
      <trkpt lat="47.30031" lon="0.16421">
        <ele>74</ele>
        <time>2014-09-14T08:45:03Z</time>
      </trkpt>
      <trkpt lat="47.3003" lon="0.16416">
        <ele>74</ele>
        <time>2014-09-14T08:45:04Z</time>
      </trkpt>
      <trkpt lat="47.3003" lon="0.1641">
        <ele>75</ele>
        <time>2014-09-14T08:45:05Z</time>
      </trkpt>
      <trkpt lat="47.30029" lon="0.16404">
        <ele>75</ele>
        <time>2014-09-14T08:45:06Z</time>
      </trkpt>
      <trkpt lat="47.30029" lon="0.16398">
        <ele>76</ele>
        <time>2014-09-14T08:45:07Z</time>
      </trkpt>
      <trkpt lat="47.30029" lon="0.16391">
        <ele>76</ele>
        <time>2014-09-14T08:45:08Z</time>
      </trkpt>
      <trkpt lat="47.30031" lon="0.16378">
        <ele>76</ele>
        <time>2014-09-14T08:45:10Z</time>
      </trkpt>
      <trkpt lat="47.30037" lon="0.16333">
        <ele>76</ele>
        <time>2014-09-14T08:45:17Z</time>
      </trkpt>
      <trkpt lat="47.30045" lon="0.16303">
        <ele>76</ele>
        <time>2014-09-14T08:45:22Z</time>
      </trkpt>
      <trkpt lat="47.30047" lon="0.16297">
        <ele>76</ele>
        <time>2014-09-14T08:45:23Z</time>
      </trkpt>
      <trkpt lat="47.30057" lon="0.16278">
        <ele>76</ele>
        <time>2014-09-14T08:45:28Z</time>
      </trkpt>
      <trkpt lat="47.30061" lon="0.16271">
        <ele>76</ele>
        <time>2014-09-14T08:45:30Z</time>
      </trkpt>
      <trkpt lat="47.30064" lon="0.16266">
        <ele>77</ele>
        <time>2014-09-14T08:45:31Z</time>
      </trkpt>
      <trkpt lat="47.30067" lon="0.16262">
        <ele>77</ele>
        <time>2014-09-14T08:45:32Z</time>
      </trkpt>
      <trkpt lat="47.30069" lon="0.16257">
        <ele>77</ele>
        <time>2014-09-14T08:45:33Z</time>
      </trkpt>
      <trkpt lat="47.30071" lon="0.16254">
        <ele>78</ele>
        <time>2014-09-14T08:45:34Z</time>
      </trkpt>
      <trkpt lat="47.30076" lon="0.16245">
        <ele>78</ele>
        <time>2014-09-14T08:45:37Z</time>
      </trkpt>
      <trkpt lat="47.3008" lon="0.16238">
        <ele>78</ele>
        <time>2014-09-14T08:45:39Z</time>
      </trkpt>
      <trkpt lat="47.30093" lon="0.16219">
        <ele>78</ele>
        <time>2014-09-14T08:45:45Z</time>
      </trkpt>
      <trkpt lat="47.30097" lon="0.16202">
        <ele>78</ele>
        <time>2014-09-14T08:45:49Z</time>
      </trkpt>
      <trkpt lat="47.30092" lon="0.16178">
        <ele>78</ele>
        <time>2014-09-14T08:45:54Z</time>
      </trkpt>
      <trkpt lat="47.30082" lon="0.16162">
        <ele>78</ele>
        <time>2014-09-14T08:45:57Z</time>
      </trkpt>
      <trkpt lat="47.30078" lon="0.16155">
        <ele>78</ele>
        <time>2014-09-14T08:45:58Z</time>
      </trkpt>
      <trkpt lat="47.30065" lon="0.16116">
        <ele>78</ele>
        <time>2014-09-14T08:46:03Z</time>
      </trkpt>
      <trkpt lat="47.30059" lon="0.16094">
        <ele>78</ele>
        <time>2014-09-14T08:46:06Z</time>
      </trkpt>
      <trkpt lat="47.30056" lon="0.16079">
        <ele>78</ele>
        <time>2014-09-14T08:46:08Z</time>
      </trkpt>
      <trkpt lat="47.30054" lon="0.16072">
        <ele>78</ele>
        <time>2014-09-14T08:46:09Z</time>
      </trkpt>
      <trkpt lat="47.3005" lon="0.16051">
        <ele>78</ele>
        <time>2014-09-14T08:46:12Z</time>
      </trkpt>
      <trkpt lat="47.30046" lon="0.16038">
        <ele>78</ele>
        <time>2014-09-14T08:46:14Z</time>
      </trkpt>
      <trkpt lat="47.30043" lon="0.16025">
        <ele>78</ele>
        <time>2014-09-14T08:46:16Z</time>
      </trkpt>
      <trkpt lat="47.30037" lon="0.16004">
        <ele>78</ele>
        <time>2014-09-14T08:46:19Z</time>
      </trkpt>
      <trkpt lat="47.30038" lon="0.15994">
        <ele>78</ele>
        <time>2014-09-14T08:46:22Z</time>
      </trkpt>
      <trkpt lat="47.30045" lon="0.15991">
        <ele>78</ele>
        <time>2014-09-14T08:46:25Z</time>
      </trkpt>
      <trkpt lat="47.30048" lon="0.15987">
        <ele>78</ele>
        <time>2014-09-14T08:46:28Z</time>
      </trkpt>
      <trkpt lat="47.3005" lon="0.15987">
        <ele>78</ele>
        <time>2014-09-14T08:46:29Z</time>
      </trkpt>
      <trkpt lat="47.30061" lon="0.15986">
        <ele>78</ele>
        <time>2014-09-14T08:46:33Z</time>
      </trkpt>
      <trkpt lat="47.30065" lon="0.15987">
        <ele>78</ele>
        <time>2014-09-14T08:46:35Z</time>
      </trkpt>
      <trkpt lat="47.30071" lon="0.15989">
        <ele>78</ele>
        <time>2014-09-14T08:46:38Z</time>
      </trkpt>
      <trkpt lat="47.30074" lon="0.15989">
        <ele>78</ele>
        <time>2014-09-14T08:46:39Z</time>
      </trkpt>
      <trkpt lat="47.30089" lon="0.1599">
        <ele>78</ele>
        <time>2014-09-14T08:46:44Z</time>
      </trkpt>
      <trkpt lat="47.30092" lon="0.1599">
        <ele>79</ele>
        <time>2014-09-14T08:46:45Z</time>
      </trkpt>
      <trkpt lat="47.30096" lon="0.1599">
        <ele>79</ele>
        <time>2014-09-14T08:46:46Z</time>
      </trkpt>
      <trkpt lat="47.30099" lon="0.1599">
        <ele>80</ele>
        <time>2014-09-14T08:46:47Z</time>
      </trkpt>
      <trkpt lat="47.30103" lon="0.1599">
        <ele>80</ele>
        <time>2014-09-14T08:46:48Z</time>
      </trkpt>
      <trkpt lat="47.3011" lon="0.1599">
        <ele>80</ele>
        <time>2014-09-14T08:46:50Z</time>
      </trkpt>
      <trkpt lat="47.30124" lon="0.15989">
        <ele>80</ele>
        <time>2014-09-14T08:46:54Z</time>
      </trkpt>
      <trkpt lat="47.30128" lon="0.15988">
        <ele>81</ele>
        <time>2014-09-14T08:46:55Z</time>
      </trkpt>
      <trkpt lat="47.30134" lon="0.15987">
        <ele>81</ele>
        <time>2014-09-14T08:46:56Z</time>
      </trkpt>
      <trkpt lat="47.30138" lon="0.15987">
        <ele>82</ele>
        <time>2014-09-14T08:46:57Z</time>
      </trkpt>
      <trkpt lat="47.30142" lon="0.15987">
        <ele>82</ele>
        <time>2014-09-14T08:46:58Z</time>
      </trkpt>
      <trkpt lat="47.30163" lon="0.15986">
        <ele>82</ele>
        <time>2014-09-14T08:47:04Z</time>
      </trkpt>
      <trkpt lat="47.30183" lon="0.15987">
        <ele>82</ele>
        <time>2014-09-14T08:47:09Z</time>
      </trkpt>
      <trkpt lat="47.30213" lon="0.15986">
        <ele>82</ele>
        <time>2014-09-14T08:47:15Z</time>
      </trkpt>
      <trkpt lat="47.30241" lon="0.15983">
        <ele>82</ele>
        <time>2014-09-14T08:47:21Z</time>
      </trkpt>
      <trkpt lat="47.30266" lon="0.15984">
        <ele>82</ele>
        <time>2014-09-14T08:47:27Z</time>
      </trkpt>
      <trkpt lat="47.30285" lon="0.15984">
        <ele>82</ele>
        <time>2014-09-14T08:47:32Z</time>
      </trkpt>
      <trkpt lat="47.30289" lon="0.15985">
        <ele>82</ele>
        <time>2014-09-14T08:47:33Z</time>
      </trkpt>
      <trkpt lat="47.30294" lon="0.15986">
        <ele>83</ele>
        <time>2014-09-14T08:47:34Z</time>
      </trkpt>
      <trkpt lat="47.30298" lon="0.15985">
        <ele>83</ele>
        <time>2014-09-14T08:47:35Z</time>
      </trkpt>
      <trkpt lat="47.30302" lon="0.15986">
        <ele>84</ele>
        <time>2014-09-14T08:47:36Z</time>
      </trkpt>
      <trkpt lat="47.30306" lon="0.15987">
        <ele>84</ele>
        <time>2014-09-14T08:47:37Z</time>
      </trkpt>
      <trkpt lat="47.30314" lon="0.1599">
        <ele>84</ele>
        <time>2014-09-14T08:47:39Z</time>
      </trkpt>
      <trkpt lat="47.30344" lon="0.15999">
        <ele>84</ele>
        <time>2014-09-14T08:47:47Z</time>
      </trkpt>
      <trkpt lat="47.3037" lon="0.16007">
        <ele>84</ele>
        <time>2014-09-14T08:47:53Z</time>
      </trkpt>
      <trkpt lat="47.30383" lon="0.16011">
        <ele>84</ele>
        <time>2014-09-14T08:47:56Z</time>
      </trkpt>
      <trkpt lat="47.30396" lon="0.16017">
        <ele>84</ele>
        <time>2014-09-14T08:47:59Z</time>
      </trkpt>
      <trkpt lat="47.30424" lon="0.16028">
        <ele>84</ele>
        <time>2014-09-14T08:48:06Z</time>
      </trkpt>
      <trkpt lat="47.30449" lon="0.16035">
        <ele>84</ele>
        <time>2014-09-14T08:48:11Z</time>
      </trkpt>
      <trkpt lat="47.30458" lon="0.1604">
        <ele>84</ele>
        <time>2014-09-14T08:48:13Z</time>
      </trkpt>
      <trkpt lat="47.30473" lon="0.16052">
        <ele>84</ele>
        <time>2014-09-14T08:48:17Z</time>
      </trkpt>
      <trkpt lat="47.30477" lon="0.16051">
        <ele>84</ele>
        <time>2014-09-14T08:48:18Z</time>
      </trkpt>
      <trkpt lat="47.30488" lon="0.16035">
        <ele>84</ele>
        <time>2014-09-14T08:48:22Z</time>
      </trkpt>
      <trkpt lat="47.30501" lon="0.16024">
        <ele>84</ele>
        <time>2014-09-14T08:48:26Z</time>
      </trkpt>
      <trkpt lat="47.30506" lon="0.16024">
        <ele>83</ele>
        <time>2014-09-14T08:48:27Z</time>
      </trkpt>
      <trkpt lat="47.30511" lon="0.16026">
        <ele>83</ele>
        <time>2014-09-14T08:48:28Z</time>
      </trkpt>
      <trkpt lat="47.30516" lon="0.16026">
        <ele>82</ele>
        <time>2014-09-14T08:48:29Z</time>
      </trkpt>
      <trkpt lat="47.3052" lon="0.16027">
        <ele>82</ele>
        <time>2014-09-14T08:48:30Z</time>
      </trkpt>
      <trkpt lat="47.30525" lon="0.16025">
        <ele>82</ele>
        <time>2014-09-14T08:48:31Z</time>
      </trkpt>
      <trkpt lat="47.30531" lon="0.16009">
        <ele>82</ele>
        <time>2014-09-14T08:48:34Z</time>
      </trkpt>
      <trkpt lat="47.30537" lon="0.15997">
        <ele>82</ele>
        <time>2014-09-14T08:48:36Z</time>
      </trkpt>
      <trkpt lat="47.30545" lon="0.15978">
        <ele>82</ele>
        <time>2014-09-14T08:48:39Z</time>
      </trkpt>
      <trkpt lat="47.30547" lon="0.15971">
        <ele>82</ele>
        <time>2014-09-14T08:48:40Z</time>
      </trkpt>
      <trkpt lat="47.30553" lon="0.15943">
        <ele>82</ele>
        <time>2014-09-14T08:48:44Z</time>
      </trkpt>
      <trkpt lat="47.30565" lon="0.15893">
        <ele>82</ele>
        <time>2014-09-14T08:48:51Z</time>
      </trkpt>
      <trkpt lat="47.30573" lon="0.15867">
        <ele>82</ele>
        <time>2014-09-14T08:48:55Z</time>
      </trkpt>
      <trkpt lat="47.30576" lon="0.15861">
        <ele>82</ele>
        <time>2014-09-14T08:48:56Z</time>
      </trkpt>
      <trkpt lat="47.30581" lon="0.15846">
        <ele>82</ele>
        <time>2014-09-14T08:48:58Z</time>
      </trkpt>
      <trkpt lat="47.30579" lon="0.1583">
        <ele>82</ele>
        <time>2014-09-14T08:49:00Z</time>
      </trkpt>
      <trkpt lat="47.30579" lon="0.15822">
        <ele>82</ele>
        <time>2014-09-14T08:49:01Z</time>
      </trkpt>
      <trkpt lat="47.30581" lon="0.15799">
        <ele>82</ele>
        <time>2014-09-14T08:49:04Z</time>
      </trkpt>
      <trkpt lat="47.30587" lon="0.15763">
        <ele>82</ele>
        <time>2014-09-14T08:49:09Z</time>
      </trkpt>
      <trkpt lat="47.30588" lon="0.15742">
        <ele>82</ele>
        <time>2014-09-14T08:49:13Z</time>
      </trkpt>
      <trkpt lat="47.3059" lon="0.15724">
        <ele>82</ele>
        <time>2014-09-14T08:49:16Z</time>
      </trkpt>
      <trkpt lat="47.30591" lon="0.15711">
        <ele>82</ele>
        <time>2014-09-14T08:49:18Z</time>
      </trkpt>
      <trkpt lat="47.30592" lon="0.15688">
        <ele>82</ele>
        <time>2014-09-14T08:49:21Z</time>
      </trkpt>
      <trkpt lat="47.30594" lon="0.15676">
        <ele>82</ele>
        <time>2014-09-14T08:49:23Z</time>
      </trkpt>
      <trkpt lat="47.30595" lon="0.15637">
        <ele>82</ele>
        <time>2014-09-14T08:49:29Z</time>
      </trkpt>
      <trkpt lat="47.30595" lon="0.15628">
        <ele>82</ele>
        <time>2014-09-14T08:49:30Z</time>
      </trkpt>
      <trkpt lat="47.30597" lon="0.15614">
        <ele>82</ele>
        <time>2014-09-14T08:49:32Z</time>
      </trkpt>
      <trkpt lat="47.30601" lon="0.15602">
        <ele>82</ele>
        <time>2014-09-14T08:49:34Z</time>
      </trkpt>
      <trkpt lat="47.30602" lon="0.15597">
        <ele>82</ele>
        <time>2014-09-14T08:49:35Z</time>
      </trkpt>
      <trkpt lat="47.30609" lon="0.15568">
        <ele>82</ele>
        <time>2014-09-14T08:49:40Z</time>
      </trkpt>
      <trkpt lat="47.30618" lon="0.1553">
        <ele>82</ele>
        <time>2014-09-14T08:49:45Z</time>
      </trkpt>
      <trkpt lat="47.3062" lon="0.15521">
        <ele>82</ele>
        <time>2014-09-14T08:49:46Z</time>
      </trkpt>
      <trkpt lat="47.30623" lon="0.15492">
        <ele>82</ele>
        <time>2014-09-14T08:49:49Z</time>
      </trkpt>
      <trkpt lat="47.30622" lon="0.15483">
        <ele>82</ele>
        <time>2014-09-14T08:49:50Z</time>
      </trkpt>
      <trkpt lat="47.3062" lon="0.15466">
        <ele>82</ele>
        <time>2014-09-14T08:49:52Z</time>
      </trkpt>
      <trkpt lat="47.3062" lon="0.15456">
        <ele>82</ele>
        <time>2014-09-14T08:49:53Z</time>
      </trkpt>
      <trkpt lat="47.30621" lon="0.15448">
        <ele>81</ele>
        <time>2014-09-14T08:49:54Z</time>
      </trkpt>
      <trkpt lat="47.30622" lon="0.15442">
        <ele>81</ele>
        <time>2014-09-14T08:49:55Z</time>
      </trkpt>
      <trkpt lat="47.30625" lon="0.15437">
        <ele>80</ele>
        <time>2014-09-14T08:49:56Z</time>
      </trkpt>
      <trkpt lat="47.30627" lon="0.15434">
        <ele>80</ele>
        <time>2014-09-14T08:49:57Z</time>
      </trkpt>
      <trkpt lat="47.30631" lon="0.15434">
        <ele>80</ele>
        <time>2014-09-14T08:49:58Z</time>
      </trkpt>
      <trkpt lat="47.30638" lon="0.15428">
        <ele>80</ele>
        <time>2014-09-14T08:50:00Z</time>
      </trkpt>
      <trkpt lat="47.30663" lon="0.15412">
        <ele>80</ele>
        <time>2014-09-14T08:50:05Z</time>
      </trkpt>
      <trkpt lat="47.30681" lon="0.15401">
        <ele>80</ele>
        <time>2014-09-14T08:50:08Z</time>
      </trkpt>
      <trkpt lat="47.30692" lon="0.15395">
        <ele>79</ele>
        <time>2014-09-14T08:50:09Z</time>
      </trkpt>
      <trkpt lat="47.307" lon="0.15391">
        <ele>79</ele>
        <time>2014-09-14T08:50:10Z</time>
      </trkpt>
      <trkpt lat="47.30707" lon="0.15387">
        <ele>78</ele>
        <time>2014-09-14T08:50:11Z</time>
      </trkpt>
      <trkpt lat="47.30714" lon="0.15383">
        <ele>78</ele>
        <time>2014-09-14T08:50:12Z</time>
      </trkpt>
      <trkpt lat="47.3075" lon="0.15365">
        <ele>78</ele>
        <time>2014-09-14T08:50:17Z</time>
      </trkpt>
      <trkpt lat="47.30756" lon="0.15361">
        <ele>78</ele>
        <time>2014-09-14T08:50:18Z</time>
      </trkpt>
      <trkpt lat="47.30762" lon="0.15358">
        <ele>78</ele>
        <time>2014-09-14T08:50:19Z</time>
      </trkpt>
      <trkpt lat="47.30791" lon="0.15342">
        <ele>78</ele>
        <time>2014-09-14T08:50:24Z</time>
      </trkpt>
      <trkpt lat="47.3082" lon="0.15324">
        <ele>78</ele>
        <time>2014-09-14T08:50:30Z</time>
      </trkpt>
      <trkpt lat="47.30823" lon="0.15321">
        <ele>78</ele>
        <time>2014-09-14T08:50:31Z</time>
      </trkpt>
      <trkpt lat="47.30824" lon="0.15316">
        <ele>78</ele>
        <time>2014-09-14T08:50:32Z</time>
      </trkpt>
      <trkpt lat="47.30825" lon="0.15312">
        <ele>77</ele>
        <time>2014-09-14T08:50:33Z</time>
      </trkpt>
      <trkpt lat="47.30825" lon="0.15309">
        <ele>77</ele>
        <time>2014-09-14T08:50:34Z</time>
      </trkpt>
      <trkpt lat="47.30826" lon="0.15306">
        <ele>76</ele>
        <time>2014-09-14T08:50:35Z</time>
      </trkpt>
      <trkpt lat="47.30826" lon="0.15303">
        <ele>76</ele>
        <time>2014-09-14T08:50:36Z</time>
      </trkpt>
      <trkpt lat="47.30827" lon="0.15301">
        <ele>75</ele>
        <time>2014-09-14T08:50:37Z</time>
      </trkpt>
      <trkpt lat="47.30827" lon="0.15299">
        <ele>75</ele>
        <time>2014-09-14T08:50:38Z</time>
      </trkpt>
      <trkpt lat="47.30828" lon="0.15296">
        <ele>74</ele>
        <time>2014-09-14T08:50:39Z</time>
      </trkpt>
      <trkpt lat="47.30829" lon="0.15294">
        <ele>74</ele>
        <time>2014-09-14T08:50:40Z</time>
      </trkpt>
      <trkpt lat="47.30829" lon="0.1529">
        <ele>73</ele>
        <time>2014-09-14T08:50:41Z</time>
      </trkpt>
      <trkpt lat="47.3083" lon="0.15286">
        <ele>73</ele>
        <time>2014-09-14T08:50:42Z</time>
      </trkpt>
      <trkpt lat="47.30831" lon="0.15282">
        <ele>72</ele>
        <time>2014-09-14T08:50:43Z</time>
      </trkpt>
      <trkpt lat="47.30832" lon="0.15277">
        <ele>72</ele>
        <time>2014-09-14T08:50:44Z</time>
      </trkpt>
      <trkpt lat="47.30832" lon="0.15273">
        <ele>71</ele>
        <time>2014-09-14T08:50:45Z</time>
      </trkpt>
      <trkpt lat="47.30832" lon="0.15269">
        <ele>70</ele>
        <time>2014-09-14T08:50:46Z</time>
      </trkpt>
      <trkpt lat="47.30832" lon="0.15266">
        <ele>70</ele>
        <time>2014-09-14T08:50:47Z</time>
      </trkpt>
      <trkpt lat="47.30832" lon="0.15263">
        <ele>69</ele>
        <time>2014-09-14T08:50:48Z</time>
      </trkpt>
      <trkpt lat="47.30833" lon="0.1526">
        <ele>68</ele>
        <time>2014-09-14T08:50:49Z</time>
      </trkpt>
      <trkpt lat="47.30834" lon="0.15256">
        <ele>68</ele>
        <time>2014-09-14T08:50:50Z</time>
      </trkpt>
      <trkpt lat="47.30836" lon="0.15253">
        <ele>67</ele>
        <time>2014-09-14T08:50:51Z</time>
      </trkpt>
      <trkpt lat="47.30837" lon="0.1525">
        <ele>66</ele>
        <time>2014-09-14T08:50:52Z</time>
      </trkpt>
      <trkpt lat="47.30839" lon="0.15248">
        <ele>66</ele>
        <time>2014-09-14T08:50:53Z</time>
      </trkpt>
      <trkpt lat="47.30841" lon="0.15245">
        <ele>65</ele>
        <time>2014-09-14T08:50:54Z</time>
      </trkpt>
      <trkpt lat="47.30843" lon="0.1524">
        <ele>65</ele>
        <time>2014-09-14T08:50:55Z</time>
      </trkpt>
      <trkpt lat="47.30847" lon="0.15232">
        <ele>65</ele>
        <time>2014-09-14T08:50:57Z</time>
      </trkpt>
      <trkpt lat="47.30855" lon="0.15213">
        <ele>64</ele>
        <time>2014-09-14T08:51:01Z</time>
      </trkpt>
      <trkpt lat="47.30856" lon="0.15209">
        <ele>64</ele>
        <time>2014-09-14T08:51:02Z</time>
      </trkpt>
      <trkpt lat="47.30857" lon="0.15205">
        <ele>63</ele>
        <time>2014-09-14T08:51:03Z</time>
      </trkpt>
      <trkpt lat="47.30857" lon="0.15201">
        <ele>63</ele>
        <time>2014-09-14T08:51:04Z</time>
      </trkpt>
      <trkpt lat="47.30857" lon="0.15197">
        <ele>62</ele>
        <time>2014-09-14T08:51:05Z</time>
      </trkpt>
      <trkpt lat="47.30864" lon="0.15174">
        <ele>62</ele>
        <time>2014-09-14T08:51:11Z</time>
      </trkpt>
      <trkpt lat="47.30872" lon="0.15155">
        <ele>62</ele>
        <time>2014-09-14T08:51:15Z</time>
      </trkpt>
      <trkpt lat="47.30874" lon="0.15149">
        <ele>62</ele>
        <time>2014-09-14T08:51:16Z</time>
      </trkpt>
      <trkpt lat="47.3088" lon="0.15132">
        <ele>62</ele>
        <time>2014-09-14T08:51:20Z</time>
      </trkpt>
      <trkpt lat="47.30883" lon="0.15126">
        <ele>62</ele>
        <time>2014-09-14T08:51:22Z</time>
      </trkpt>
      <trkpt lat="47.30886" lon="0.1511">
        <ele>62</ele>
        <time>2014-09-14T08:51:26Z</time>
      </trkpt>
      <trkpt lat="47.30882" lon="0.15085">
        <ele>62</ele>
        <time>2014-09-14T08:51:30Z</time>
      </trkpt>
      <trkpt lat="47.30874" lon="0.15046">
        <ele>62</ele>
        <time>2014-09-14T08:51:35Z</time>
      </trkpt>
      <trkpt lat="47.30875" lon="0.15016">
        <ele>62</ele>
        <time>2014-09-14T08:51:40Z</time>
      </trkpt>
      <trkpt lat="47.30875" lon="0.1501">
        <ele>63</ele>
        <time>2014-09-14T08:51:41Z</time>
      </trkpt>
      <trkpt lat="47.30875" lon="0.15004">
        <ele>63</ele>
        <time>2014-09-14T08:51:42Z</time>
      </trkpt>
      <trkpt lat="47.30874" lon="0.14999">
        <ele>64</ele>
        <time>2014-09-14T08:51:43Z</time>
      </trkpt>
      <trkpt lat="47.30874" lon="0.14992">
        <ele>64</ele>
        <time>2014-09-14T08:51:44Z</time>
      </trkpt>
      <trkpt lat="47.30874" lon="0.14986">
        <ele>64</ele>
        <time>2014-09-14T08:51:45Z</time>
      </trkpt>
      <trkpt lat="47.30873" lon="0.14971">
        <ele>65</ele>
        <time>2014-09-14T08:51:48Z</time>
      </trkpt>
      <trkpt lat="47.30872" lon="0.14967">
        <ele>65</ele>
        <time>2014-09-14T08:51:49Z</time>
      </trkpt>
      <trkpt lat="47.3087" lon="0.14963">
        <ele>66</ele>
        <time>2014-09-14T08:51:50Z</time>
      </trkpt>
      <trkpt lat="47.3087" lon="0.14959">
        <ele>66</ele>
        <time>2014-09-14T08:51:51Z</time>
      </trkpt>
      <trkpt lat="47.3087" lon="0.14954">
        <ele>66</ele>
        <time>2014-09-14T08:51:52Z</time>
      </trkpt>
      <trkpt lat="47.30871" lon="0.14944">
        <ele>67</ele>
        <time>2014-09-14T08:51:54Z</time>
      </trkpt>
      <trkpt lat="47.30871" lon="0.14939">
        <ele>67</ele>
        <time>2014-09-14T08:51:55Z</time>
      </trkpt>
      <trkpt lat="47.30872" lon="0.14934">
        <ele>68</ele>
        <time>2014-09-14T08:51:56Z</time>
      </trkpt>
      <trkpt lat="47.30873" lon="0.14929">
        <ele>69</ele>
        <time>2014-09-14T08:51:57Z</time>
      </trkpt>
      <trkpt lat="47.30874" lon="0.14919">
        <ele>69</ele>
        <time>2014-09-14T08:51:59Z</time>
      </trkpt>
      <trkpt lat="47.30877" lon="0.14896">
        <ele>69</ele>
        <time>2014-09-14T08:52:04Z</time>
      </trkpt>
      <trkpt lat="47.30877" lon="0.14891">
        <ele>70</ele>
        <time>2014-09-14T08:52:05Z</time>
      </trkpt>
      <trkpt lat="47.30877" lon="0.14886">
        <ele>70</ele>
        <time>2014-09-14T08:52:06Z</time>
      </trkpt>
      <trkpt lat="47.30878" lon="0.14881">
        <ele>70</ele>
        <time>2014-09-14T08:52:07Z</time>
      </trkpt>
      <trkpt lat="47.30879" lon="0.14877">
        <ele>71</ele>
        <time>2014-09-14T08:52:08Z</time>
      </trkpt>
      <trkpt lat="47.30879" lon="0.14867">
        <ele>71</ele>
        <time>2014-09-14T08:52:10Z</time>
      </trkpt>
      <trkpt lat="47.30879" lon="0.14848">
        <ele>71</ele>
        <time>2014-09-14T08:52:14Z</time>
      </trkpt>
      <trkpt lat="47.30879" lon="0.14844">
        <ele>72</ele>
        <time>2014-09-14T08:52:15Z</time>
      </trkpt>
      <trkpt lat="47.30879" lon="0.1484">
        <ele>72</ele>
        <time>2014-09-14T08:52:16Z</time>
      </trkpt>
      <trkpt lat="47.30879" lon="0.14836">
        <ele>73</ele>
        <time>2014-09-14T08:52:17Z</time>
      </trkpt>
      <trkpt lat="47.3088" lon="0.14831">
        <ele>73</ele>
        <time>2014-09-14T08:52:18Z</time>
      </trkpt>
      <trkpt lat="47.30881" lon="0.14809">
        <ele>73</ele>
        <time>2014-09-14T08:52:23Z</time>
      </trkpt>
      <trkpt lat="47.30879" lon="0.14797">
        <ele>74</ele>
        <time>2014-09-14T08:52:26Z</time>
      </trkpt>
      <trkpt lat="47.3088" lon="0.14794">
        <ele>74</ele>
        <time>2014-09-14T08:52:27Z</time>
      </trkpt>
      <trkpt lat="47.3088" lon="0.1479">
        <ele>74</ele>
        <time>2014-09-14T08:52:28Z</time>
      </trkpt>
      <trkpt lat="47.3088" lon="0.14786">
        <ele>75</ele>
        <time>2014-09-14T08:52:29Z</time>
      </trkpt>
      <trkpt lat="47.30879" lon="0.14783">
        <ele>75</ele>
        <time>2014-09-14T08:52:30Z</time>
      </trkpt>
      <trkpt lat="47.30877" lon="0.14776">
        <ele>75</ele>
        <time>2014-09-14T08:52:32Z</time>
      </trkpt>
      <trkpt lat="47.30875" lon="0.14769">
        <ele>75</ele>
        <time>2014-09-14T08:52:34Z</time>
      </trkpt>
      <trkpt lat="47.30877" lon="0.14761">
        <ele>75</ele>
        <time>2014-09-14T08:52:36Z</time>
      </trkpt>
      <trkpt lat="47.30877" lon="0.14741">
        <ele>76</ele>
        <time>2014-09-14T08:52:41Z</time>
      </trkpt>
      <trkpt lat="47.30876" lon="0.14738">
        <ele>76</ele>
        <time>2014-09-14T08:52:42Z</time>
      </trkpt>
      <trkpt lat="47.30874" lon="0.14735">
        <ele>76</ele>
        <time>2014-09-14T08:52:43Z</time>
      </trkpt>
      <trkpt lat="47.30873" lon="0.14731">
        <ele>77</ele>
        <time>2014-09-14T08:52:44Z</time>
      </trkpt>
      <trkpt lat="47.30873" lon="0.14727">
        <ele>77</ele>
        <time>2014-09-14T08:52:45Z</time>
      </trkpt>
      <trkpt lat="47.30875" lon="0.14723">
        <ele>77</ele>
        <time>2014-09-14T08:52:46Z</time>
      </trkpt>
      <trkpt lat="47.30884" lon="0.14718">
        <ele>77</ele>
        <time>2014-09-14T08:52:49Z</time>
      </trkpt>
      <trkpt lat="47.30894" lon="0.14709">
        <ele>77</ele>
        <time>2014-09-14T08:52:52Z</time>
      </trkpt>
      <trkpt lat="47.30897" lon="0.1469">
        <ele>77</ele>
        <time>2014-09-14T08:52:56Z</time>
      </trkpt>
      <trkpt lat="47.30901" lon="0.14667">
        <ele>77</ele>
        <time>2014-09-14T08:53:01Z</time>
      </trkpt>
      <trkpt lat="47.30911" lon="0.14648">
        <ele>77</ele>
        <time>2014-09-14T08:53:06Z</time>
      </trkpt>
      <trkpt lat="47.30913" lon="0.14643">
        <ele>77</ele>
        <time>2014-09-14T08:53:07Z</time>
      </trkpt>
      <trkpt lat="47.30916" lon="0.14639">
        <ele>76</ele>
        <time>2014-09-14T08:53:08Z</time>
      </trkpt>
      <trkpt lat="47.30918" lon="0.14636">
        <ele>76</ele>
        <time>2014-09-14T08:53:09Z</time>
      </trkpt>
      <trkpt lat="47.30921" lon="0.14631">
        <ele>75</ele>
        <time>2014-09-14T08:53:10Z</time>
      </trkpt>
      <trkpt lat="47.30929" lon="0.14618">
        <ele>76</ele>
        <time>2014-09-14T08:53:13Z</time>
      </trkpt>
      <trkpt lat="47.30931" lon="0.14613">
        <ele>76</ele>
        <time>2014-09-14T08:53:14Z</time>
      </trkpt>
      <trkpt lat="47.30933" lon="0.14608">
        <ele>76</ele>
        <time>2014-09-14T08:53:15Z</time>
      </trkpt>
      <trkpt lat="47.30935" lon="0.14604">
        <ele>77</ele>
        <time>2014-09-14T08:53:16Z</time>
      </trkpt>
      <trkpt lat="47.30937" lon="0.14599">
        <ele>77</ele>
        <time>2014-09-14T08:53:17Z</time>
      </trkpt>
      <trkpt lat="47.30944" lon="0.14585">
        <ele>78</ele>
        <time>2014-09-14T08:53:20Z</time>
      </trkpt>
      <trkpt lat="47.30945" lon="0.1458">
        <ele>78</ele>
        <time>2014-09-14T08:53:21Z</time>
      </trkpt>
      <trkpt lat="47.30947" lon="0.14574">
        <ele>79</ele>
        <time>2014-09-14T08:53:22Z</time>
      </trkpt>
      <trkpt lat="47.30949" lon="0.14569">
        <ele>79</ele>
        <time>2014-09-14T08:53:23Z</time>
      </trkpt>
      <trkpt lat="47.30951" lon="0.14563">
        <ele>80</ele>
        <time>2014-09-14T08:53:24Z</time>
      </trkpt>
      <trkpt lat="47.30954" lon="0.14552">
        <ele>80</ele>
        <time>2014-09-14T08:53:26Z</time>
      </trkpt>
      <trkpt lat="47.30966" lon="0.14522">
        <ele>80</ele>
        <time>2014-09-14T08:53:32Z</time>
      </trkpt>
      <trkpt lat="47.30968" lon="0.14517">
        <ele>80</ele>
        <time>2014-09-14T08:53:33Z</time>
      </trkpt>
      <trkpt lat="47.30971" lon="0.14513">
        <ele>81</ele>
        <time>2014-09-14T08:53:34Z</time>
      </trkpt>
      <trkpt lat="47.30973" lon="0.1451">
        <ele>82</ele>
        <time>2014-09-14T08:53:35Z</time>
      </trkpt>
      <trkpt lat="47.30975" lon="0.14508">
        <ele>82</ele>
        <time>2014-09-14T08:53:36Z</time>
      </trkpt>
      <trkpt lat="47.3098" lon="0.14515">
        <ele>82</ele>
        <time>2014-09-14T08:53:39Z</time>
      </trkpt>
      <trkpt lat="47.30988" lon="0.14526">
        <ele>82</ele>
        <time>2014-09-14T08:53:43Z</time>
      </trkpt>
      <trkpt lat="47.30999" lon="0.14541">
        <ele>82</ele>
        <time>2014-09-14T08:53:48Z</time>
      </trkpt>
      <trkpt lat="47.3102" lon="0.14572">
        <ele>82</ele>
        <time>2014-09-14T08:53:54Z</time>
      </trkpt>
      <trkpt lat="47.31034" lon="0.14596">
        <ele>82</ele>
        <time>2014-09-14T08:53:59Z</time>
      </trkpt>
      <trkpt lat="47.31056" lon="0.14622">
        <ele>82</ele>
        <time>2014-09-14T08:54:05Z</time>
      </trkpt>
      <trkpt lat="47.31073" lon="0.14642">
        <ele>82</ele>
        <time>2014-09-14T08:54:10Z</time>
      </trkpt>
      <trkpt lat="47.31083" lon="0.14654">
        <ele>82</ele>
        <time>2014-09-14T08:54:14Z</time>
      </trkpt>
      <trkpt lat="47.31089" lon="0.14663">
        <ele>82</ele>
        <time>2014-09-14T08:54:16Z</time>
      </trkpt>
      <trkpt lat="47.31096" lon="0.14671">
        <ele>82</ele>
        <time>2014-09-14T08:54:18Z</time>
      </trkpt>
      <trkpt lat="47.31115" lon="0.14694">
        <ele>82</ele>
        <time>2014-09-14T08:54:24Z</time>
      </trkpt>
      <trkpt lat="47.31122" lon="0.14704">
        <ele>82</ele>
        <time>2014-09-14T08:54:26Z</time>
      </trkpt>
      <trkpt lat="47.3113" lon="0.14719">
        <ele>82</ele>
        <time>2014-09-14T08:54:29Z</time>
      </trkpt>
      <trkpt lat="47.3115" lon="0.14754">
        <ele>82</ele>
        <time>2014-09-14T08:54:36Z</time>
      </trkpt>
      <trkpt lat="47.31163" lon="0.14779">
        <ele>82</ele>
        <time>2014-09-14T08:54:41Z</time>
      </trkpt>
      <trkpt lat="47.31179" lon="0.14803">
        <ele>82</ele>
        <time>2014-09-14T08:54:46Z</time>
      </trkpt>
      <trkpt lat="47.31198" lon="0.14832">
        <ele>82</ele>
        <time>2014-09-14T08:54:53Z</time>
      </trkpt>
      <trkpt lat="47.31249" lon="0.14785">
        <ele>108.242188</ele>
        <time>2014-01-05T10:05:01Z</time>
      </trkpt>
      <trkpt lat="47.31272" lon="0.14791">
        <ele>107.433594</ele>
        <time>2014-01-05T10:05:01Z</time>
      </trkpt>
      <trkpt lat="47.31317" lon="0.14692">
        <ele>106.773438</ele>
        <time>2014-01-05T10:05:01Z</time>
      </trkpt>
      <trkpt lat="47.31267" lon="0.14632">
        <ele>109.59375</ele>
        <time>2014-01-05T10:05:01Z</time>
      </trkpt>
      <trkpt lat="47.31344" lon="0.14495">
        <ele>106.707031</ele>
        <time>2014-01-05T10:05:01Z</time>
      </trkpt>
      <trkpt lat="47.3133" lon="0.14451">
        <ele>107</ele>
        <time>2014-01-05T10:05:01Z</time>
      </trkpt>
      <trkpt lat="47.31479" lon="0.13985">
        <ele>92.992188</ele>
        <time>2014-01-05T10:05:01Z</time>
      </trkpt>
      <trkpt lat="47.31483" lon="0.13985">
        <ele>92.828125</ele>
        <time>2014-01-05T10:05:01Z</time>
      </trkpt>
      <trkpt lat="47.31604" lon="0.13639">
        <ele>101.691406</ele>
        <time>2014-01-05T10:05:01Z</time>
      </trkpt>
      <trkpt lat="47.31609" lon="0.13639">
        <ele>101.691406</ele>
        <time>2014-01-05T10:05:01Z</time>
      </trkpt>
      <trkpt lat="47.31663" lon="0.1342">
        <ele>101.503906</ele>
        <time>2014-01-05T10:05:01Z</time>
      </trkpt>
      <trkpt lat="47.31667" lon="0.1342">
        <ele>101.273438</ele>
        <time>2014-01-05T10:05:01Z</time>
      </trkpt>
      <trkpt lat="47.31636" lon="0.13376">
        <ele>102.328125</ele>
        <time>2014-01-05T10:05:01Z</time>
      </trkpt>
      <trkpt lat="47.31591" lon="0.13305">
        <ele>102.960938</ele>
        <time>2014-01-05T10:05:01Z</time>
      </trkpt>
      <trkpt lat="47.31591" lon="0.13261">
        <ele>102</ele>
        <time>2014-01-05T10:05:01Z</time>
      </trkpt>
      <trkpt lat="47.31595" lon="0.13261">
        <ele>102</ele>
        <time>2014-01-05T10:05:01Z</time>
      </trkpt>
      <trkpt lat="47.316" lon="0.13222">
        <ele>102</ele>
        <time>2014-01-05T10:05:01Z</time>
      </trkpt>
      <trkpt lat="47.31636" lon="0.13136">
        <ele>102</ele>
        <time>2014-01-05T10:05:01Z</time>
      </trkpt>
      <trkpt lat="47.3164" lon="0.13081">
        <ele>102.96875</ele>
        <time>2014-01-05T10:05:01Z</time>
      </trkpt>
      <trkpt lat="47.3164" lon="0.13075">
        <ele>103</ele>
        <time>2014-01-05T10:05:01Z</time>
      </trkpt>
      <trkpt lat="47.31605" lon="0.12949">
        <ele>105</ele>
        <time>2014-01-05T10:05:01Z</time>
      </trkpt>
      <trkpt lat="47.31564" lon="0.12867">
        <ele>105</ele>
        <time>2014-01-05T10:05:01Z</time>
      </trkpt>
      <trkpt lat="47.31519" lon="0.12812">
        <ele>105.230469</ele>
        <time>2014-01-05T10:05:01Z</time>
      </trkpt>
      <trkpt lat="47.31528" lon="0.12801">
        <ele>105.699219</ele>
        <time>2014-01-05T10:05:01Z</time>
      </trkpt>
      <trkpt lat="47.31456" lon="0.12752">
        <ele>105.136719</ele>
        <time>2014-01-05T10:05:01Z</time>
      </trkpt>
      <trkpt lat="47.31465" lon="0.12686">
        <ele>106.011719</ele>
        <time>2014-01-05T10:05:01Z</time>
      </trkpt>
      <trkpt lat="47.31465" lon="0.12681">
        <ele>106.105469</ele>
        <time>2014-01-05T10:05:01Z</time>
      </trkpt>
      <trkpt lat="47.31492" lon="0.12598">
        <ele>107</ele>
        <time>2014-01-05T10:05:01Z</time>
      </trkpt>
      <trkpt lat="47.31501" lon="0.1256">
        <ele>107</ele>
        <time>2014-01-05T10:05:01Z</time>
      </trkpt>
      <trkpt lat="47.31506" lon="0.12533">
        <ele>107</ele>
        <time>2014-01-05T10:05:01Z</time>
      </trkpt>
      <trkpt lat="47.31483" lon="0.125">
        <ele>107</ele>
        <time>2014-01-05T10:05:01Z</time>
      </trkpt>
      <trkpt lat="47.31483" lon="0.12494">
        <ele>107</ele>
        <time>2014-01-05T10:05:01Z</time>
      </trkpt>
      <trkpt lat="47.31506" lon="0.12456">
        <ele>108</ele>
        <time>2014-01-05T10:05:01Z</time>
      </trkpt>
      <trkpt lat="47.31506" lon="0.12461">
        <ele>108</ele>
        <time>2014-01-05T10:05:01Z</time>
      </trkpt>
      <trkpt lat="47.31573" lon="0.12516">
        <ele>107</ele>
        <time>2014-01-05T10:05:01Z</time>
      </trkpt>
      <trkpt lat="47.3164" lon="0.12341">
        <ele>105.53125</ele>
        <time>2014-01-05T10:05:01Z</time>
      </trkpt>
      <trkpt lat="47.3164" lon="0.123">
        <ele>104.066406</ele>
        <time>2014-01-05T10:05:01Z</time>
      </trkpt>
      <trkpt lat="47.31709" lon="0.12261">
        <ele>105.007812</ele>
        <time>2014-01-05T10:05:01Z</time>
      </trkpt>
      <trkpt lat="47.31848" lon="0.12154">
        <ele>106</ele>
        <time>2014-01-05T10:05:01Z</time>
      </trkpt>
      <trkpt lat="47.31804" lon="0.12093">
        <ele>105.324219</ele>
        <time>2014-01-05T10:05:01Z</time>
      </trkpt>
      <trkpt lat="47.31772" lon="0.11993">
        <ele>97.78125</ele>
        <time>2014-01-05T10:05:01Z</time>
      </trkpt>
      <trkpt lat="47.31772" lon="0.11977">
        <ele>96.675781</ele>
        <time>2014-01-05T10:05:01Z</time>
      </trkpt>
      <trkpt lat="47.31771" lon="0.11967">
        <ele>84.25</ele>
        <time>2014-01-05T10:05:01Z</time>
      </trkpt>
      <trkpt lat="47.3177" lon="0.11962">
        <ele>83.29</ele>
        <time>2014-01-05T10:05:02Z</time>
      </trkpt>
      <trkpt lat="47.31764" lon="0.11937">
        <ele>81.85</ele>
        <time>2014-01-05T10:05:06Z</time>
      </trkpt>
      <trkpt lat="47.31762" lon="0.11923">
        <ele>80.41</ele>
        <time>2014-01-05T10:05:08Z</time>
      </trkpt>
      <trkpt lat="47.31758" lon="0.11908">
        <ele>78.48</ele>
        <time>2014-01-05T10:05:11Z</time>
      </trkpt>
      <trkpt lat="47.31757" lon="0.11904">
        <ele>77.52</ele>
        <time>2014-01-05T10:05:13Z</time>
      </trkpt>
      <trkpt lat="47.31748" lon="0.11907">
        <ele>75.6</ele>
        <time>2014-01-05T10:05:19Z</time>
      </trkpt>
      <trkpt lat="47.3174" lon="0.11913">
        <ele>75.12</ele>
        <time>2014-01-05T10:05:22Z</time>
      </trkpt>
      <trkpt lat="47.3173" lon="0.11919">
        <ele>74.16</ele>
        <time>2014-01-05T10:05:26Z</time>
      </trkpt>
      <trkpt lat="47.31727" lon="0.11922">
        <ele>73.2</ele>
        <time>2014-01-05T10:05:27Z</time>
      </trkpt>
      <trkpt lat="47.31709" lon="0.11933">
        <ele>70.79</ele>
        <time>2014-01-05T10:05:32Z</time>
      </trkpt>
      <trkpt lat="47.31696" lon="0.11934">
        <ele>71.27</ele>
        <time>2014-01-05T10:05:38Z</time>
      </trkpt>
      <trkpt lat="47.31694" lon="0.11933">
        <ele>71.27</ele>
        <time>2014-01-05T10:05:40Z</time>
      </trkpt>
      <trkpt lat="47.31689" lon="0.11929">
        <ele>72.72</ele>
        <time>2014-01-05T10:05:44Z</time>
      </trkpt>
      <trkpt lat="47.31684" lon="0.11919">
        <ele>74.64</ele>
        <time>2014-01-05T10:05:49Z</time>
      </trkpt>
      <trkpt lat="47.31677" lon="0.11915">
        <ele>76.56</ele>
        <time>2014-01-05T10:05:54Z</time>
      </trkpt>
      <trkpt lat="47.31672" lon="0.1191">
        <ele>78.48</ele>
        <time>2014-01-05T10:05:59Z</time>
      </trkpt>
      <trkpt lat="47.31668" lon="0.11898">
        <ele>79.45</ele>
        <time>2014-01-05T10:06:04Z</time>
      </trkpt>
      <trkpt lat="47.31665" lon="0.1189">
        <ele>78.48</ele>
        <time>2014-01-05T10:06:07Z</time>
      </trkpt>
      <trkpt lat="47.31662" lon="0.1188">
        <ele>79.45</ele>
        <time>2014-01-05T10:06:11Z</time>
      </trkpt>
      <trkpt lat="47.3166" lon="0.11865">
        <ele>79.93</ele>
        <time>2014-01-05T10:06:15Z</time>
      </trkpt>
      <trkpt lat="47.31654" lon="0.11853">
        <ele>79.93</ele>
        <time>2014-01-05T10:06:18Z</time>
      </trkpt>
      <trkpt lat="47.31646" lon="0.11839">
        <ele>79.93</ele>
        <time>2014-01-05T10:06:26Z</time>
      </trkpt>
      <trkpt lat="47.31636" lon="0.11822">
        <ele>81.85</ele>
        <time>2014-01-05T10:06:32Z</time>
      </trkpt>
      <trkpt lat="47.31625" lon="0.118">
        <ele>81.85</ele>
        <time>2014-01-05T10:06:39Z</time>
      </trkpt>
      <trkpt lat="47.31616" lon="0.11782">
        <ele>81.85</ele>
        <time>2014-01-05T10:06:45Z</time>
      </trkpt>
      <trkpt lat="47.31606" lon="0.11759">
        <ele>81.37</ele>
        <time>2014-01-05T10:06:52Z</time>
      </trkpt>
      <trkpt lat="47.31596" lon="0.11741">
        <ele>81.37</ele>
        <time>2014-01-05T10:06:59Z</time>
      </trkpt>
      <trkpt lat="47.31589" lon="0.11727">
        <ele>80.89</ele>
        <time>2014-01-05T10:07:05Z</time>
      </trkpt>
      <trkpt lat="47.31572" lon="0.11702">
        <ele>79.45</ele>
        <time>2014-01-05T10:07:12Z</time>
      </trkpt>
      <trkpt lat="47.31568" lon="0.11698">
        <ele>78</ele>
        <time>2014-01-05T10:07:16Z</time>
      </trkpt>
      <trkpt lat="47.31568" lon="0.11703">
        <ele>79.45</ele>
        <time>2014-01-05T10:07:27Z</time>
      </trkpt>
      <trkpt lat="47.31569" lon="0.11703">
        <ele>78.48</ele>
        <time>2014-01-05T10:07:37Z</time>
      </trkpt>
      <trkpt lat="47.31568" lon="0.11704">
        <ele>78.97</ele>
        <time>2014-01-05T10:07:41Z</time>
      </trkpt>
      <trkpt lat="47.31551" lon="0.11682">
        <ele>73.68</ele>
        <time>2014-01-05T10:09:10Z</time>
      </trkpt>
      <trkpt lat="47.31549" lon="0.11678">
        <ele>72.24</ele>
        <time>2014-01-05T10:09:11Z</time>
      </trkpt>
      <trkpt lat="47.31542" lon="0.11667">
        <ele>71.76</ele>
        <time>2014-01-05T10:09:13Z</time>
      </trkpt>
      <trkpt lat="47.31537" lon="0.11661">
        <ele>68.87</ele>
        <time>2014-01-05T10:09:15Z</time>
      </trkpt>
      <trkpt lat="47.31525" lon="0.11667">
        <ele>68.87</ele>
        <time>2014-01-05T10:09:20Z</time>
      </trkpt>
      <trkpt lat="47.31515" lon="0.11674">
        <ele>69.35</ele>
        <time>2014-01-05T10:09:24Z</time>
      </trkpt>
      <trkpt lat="47.31502" lon="0.11683">
        <ele>69.83</ele>
        <time>2014-01-05T10:09:30Z</time>
      </trkpt>
      <trkpt lat="47.31496" lon="0.11688">
        <ele>70.31</ele>
        <time>2014-01-05T10:09:33Z</time>
      </trkpt>
      <trkpt lat="47.3149" lon="0.11697">
        <ele>70.79</ele>
        <time>2014-01-05T10:09:37Z</time>
      </trkpt>
      <trkpt lat="47.31475" lon="0.11703">
        <ele>70.79</ele>
        <time>2014-01-05T10:09:44Z</time>
      </trkpt>
      <trkpt lat="47.31468" lon="0.11707">
        <ele>70.79</ele>
        <time>2014-01-05T10:09:48Z</time>
      </trkpt>
      <trkpt lat="47.31459" lon="0.11713">
        <ele>72.72</ele>
        <time>2014-01-05T10:09:54Z</time>
      </trkpt>
      <trkpt lat="47.3145" lon="0.11718">
        <ele>73.68</ele>
        <time>2014-01-05T10:09:59Z</time>
      </trkpt>
      <trkpt lat="47.31446" lon="0.11722">
        <ele>75.12</ele>
        <time>2014-01-05T10:10:02Z</time>
      </trkpt>
      <trkpt lat="47.31441" lon="0.11727">
        <ele>77.52</ele>
        <time>2014-01-05T10:10:06Z</time>
      </trkpt>
      <trkpt lat="47.31439" lon="0.11735">
        <ele>78.48</ele>
        <time>2014-01-05T10:10:13Z</time>
      </trkpt>
      <trkpt lat="47.3144" lon="0.1174">
        <ele>78.97</ele>
        <time>2014-01-05T10:10:15Z</time>
      </trkpt>
      <trkpt lat="47.31448" lon="0.11754">
        <ele>80.89</ele>
        <time>2014-01-05T10:10:22Z</time>
      </trkpt>
      <trkpt lat="47.31451" lon="0.11761">
        <ele>81.85</ele>
        <time>2014-01-05T10:10:26Z</time>
      </trkpt>
      <trkpt lat="47.31455" lon="0.11768">
        <ele>83.77</ele>
        <time>2014-01-05T10:10:31Z</time>
      </trkpt>
      <trkpt lat="47.31456" lon="0.1177">
        <ele>84.25</ele>
        <time>2014-01-05T10:10:39Z</time>
      </trkpt>
      <trkpt lat="47.31457" lon="0.11771">
        <ele>84.73</ele>
        <time>2014-01-05T10:10:51Z</time>
      </trkpt>
      <trkpt lat="47.31457" lon="0.11773">
        <ele>85.21</ele>
        <time>2014-01-05T10:11:18Z</time>
      </trkpt>
      <trkpt lat="47.31461" lon="0.11781">
        <ele>86.66</ele>
        <time>2014-01-05T10:11:25Z</time>
      </trkpt>
      <trkpt lat="47.31462" lon="0.11784">
        <ele>86.66</ele>
        <time>2014-01-05T10:11:28Z</time>
      </trkpt>
      <trkpt lat="47.31465" lon="0.11792">
        <ele>88.58</ele>
        <time>2014-01-05T10:11:34Z</time>
      </trkpt>
      <trkpt lat="47.31467" lon="0.11796">
        <ele>88.58</ele>
        <time>2014-01-05T10:11:35Z</time>
      </trkpt>
      <trkpt lat="47.31469" lon="0.11812">
        <ele>90.02</ele>
        <time>2014-01-05T10:11:41Z</time>
      </trkpt>
      <trkpt lat="47.31472" lon="0.11822">
        <ele>90.5</ele>
        <time>2014-01-05T10:11:46Z</time>
      </trkpt>
      <trkpt lat="47.31472" lon="0.11824">
        <ele>91.94</ele>
        <time>2014-01-05T10:11:47Z</time>
      </trkpt>
      <trkpt lat="47.31472" lon="0.11839">
        <ele>92.42</ele>
        <time>2014-01-05T10:11:53Z</time>
      </trkpt>
      <trkpt lat="47.31467" lon="0.11851">
        <ele>92.9</ele>
        <time>2014-01-05T10:11:58Z</time>
      </trkpt>
      <trkpt lat="47.31464" lon="0.11855">
        <ele>93.87</ele>
        <time>2014-01-05T10:12:00Z</time>
      </trkpt>
      <trkpt lat="47.31449" lon="0.11869">
        <ele>93.87</ele>
        <time>2014-01-05T10:12:08Z</time>
      </trkpt>
      <trkpt lat="47.31444" lon="0.11872">
        <ele>93.39</ele>
        <time>2014-01-05T10:12:10Z</time>
      </trkpt>
      <trkpt lat="47.31442" lon="0.11879">
        <ele>95.31</ele>
        <time>2014-01-05T10:12:13Z</time>
      </trkpt>
      <trkpt lat="47.31438" lon="0.11882">
        <ele>95.31</ele>
        <time>2014-01-05T10:12:17Z</time>
      </trkpt>
      <trkpt lat="47.31424" lon="0.11904">
        <ele>96.27</ele>
        <time>2014-01-05T10:12:24Z</time>
      </trkpt>
      <trkpt lat="47.31412" lon="0.11929">
        <ele>96.75</ele>
        <time>2014-01-05T10:12:31Z</time>
      </trkpt>
      <trkpt lat="47.31401" lon="0.11943">
        <ele>96.27</ele>
        <time>2014-01-05T10:12:36Z</time>
      </trkpt>
      <trkpt lat="47.31384" lon="0.11965">
        <ele>98.19</ele>
        <time>2014-01-05T10:12:44Z</time>
      </trkpt>
      <trkpt lat="47.3137" lon="0.1199">
        <ele>98.19</ele>
        <time>2014-01-05T10:12:50Z</time>
      </trkpt>
      <trkpt lat="47.31357" lon="0.12014">
        <ele>98.19</ele>
        <time>2014-01-05T10:12:56Z</time>
      </trkpt>
      <trkpt lat="47.31344" lon="0.12037">
        <ele>97.71</ele>
        <time>2014-01-05T10:13:02Z</time>
      </trkpt>
      <trkpt lat="47.31335" lon="0.12059">
        <ele>98.19</ele>
        <time>2014-01-05T10:13:07Z</time>
      </trkpt>
      <trkpt lat="47.31333" lon="0.12064">
        <ele>98.19</ele>
        <time>2014-01-05T10:13:08Z</time>
      </trkpt>
      <trkpt lat="47.31339" lon="0.12091">
        <ele>98.19</ele>
        <time>2014-01-05T10:13:14Z</time>
      </trkpt>
      <trkpt lat="47.31351" lon="0.12107">
        <ele>97.71</ele>
        <time>2014-01-05T10:13:19Z</time>
      </trkpt>
      <trkpt lat="47.31369" lon="0.12124">
        <ele>98.19</ele>
        <time>2014-01-05T10:13:26Z</time>
      </trkpt>
      <trkpt lat="47.3138" lon="0.12142">
        <ele>98.19</ele>
        <time>2014-01-05T10:13:31Z</time>
      </trkpt>
      <trkpt lat="47.31388" lon="0.12166">
        <ele>97.23</ele>
        <time>2014-01-05T10:13:36Z</time>
      </trkpt>
      <trkpt lat="47.31397" lon="0.12191">
        <ele>96.75</ele>
        <time>2014-01-05T10:13:41Z</time>
      </trkpt>
      <trkpt lat="47.31397" lon="0.12199">
        <ele>96.75</ele>
        <time>2014-01-05T10:13:43Z</time>
      </trkpt>
      <trkpt lat="47.31395" lon="0.12218">
        <ele>96.75</ele>
        <time>2014-01-05T10:13:49Z</time>
      </trkpt>
      <trkpt lat="47.31394" lon="0.12219">
        <ele>97.23</ele>
        <time>2014-01-05T10:14:03Z</time>
      </trkpt>
      <trkpt lat="47.31395" lon="0.12219">
        <ele>96.75</ele>
        <time>2014-01-05T10:14:33Z</time>
      </trkpt>
      <trkpt lat="47.31383" lon="0.12225">
        <ele>98.19</ele>
        <time>2014-01-05T10:22:43Z</time>
      </trkpt>
      <trkpt lat="47.31374" lon="0.12222">
        <ele>98.67</ele>
        <time>2014-01-05T10:22:45Z</time>
      </trkpt>
      <trkpt lat="47.31362" lon="0.12218">
        <ele>99.15</ele>
        <time>2014-01-05T10:22:48Z</time>
      </trkpt>
      <trkpt lat="47.31359" lon="0.12215">
        <ele>98.67</ele>
        <time>2014-01-05T10:22:49Z</time>
      </trkpt>
      <trkpt lat="47.31342" lon="0.12206">
        <ele>99.15</ele>
        <time>2014-01-05T10:22:54Z</time>
      </trkpt>
      <trkpt lat="47.31318" lon="0.12195">
        <ele>98.67</ele>
        <time>2014-01-05T10:22:59Z</time>
      </trkpt>
      <trkpt lat="47.31313" lon="0.12192">
        <ele>99.15</ele>
        <time>2014-01-05T10:23:00Z</time>
      </trkpt>
      <trkpt lat="47.31309" lon="0.12189">
        <ele>99.15</ele>
        <time>2014-01-05T10:23:01Z</time>
      </trkpt>
      <trkpt lat="47.31304" lon="0.12187">
        <ele>98.67</ele>
        <time>2014-01-05T10:23:02Z</time>
      </trkpt>
      <trkpt lat="47.313" lon="0.12185">
        <ele>99.15</ele>
        <time>2014-01-05T10:23:03Z</time>
      </trkpt>
      <trkpt lat="47.31296" lon="0.12183">
        <ele>99.15</ele>
        <time>2014-01-05T10:23:04Z</time>
      </trkpt>
      <trkpt lat="47.31292" lon="0.12182">
        <ele>99.15</ele>
        <time>2014-01-05T10:23:05Z</time>
      </trkpt>
      <trkpt lat="47.31287" lon="0.12179">
        <ele>98.67</ele>
        <time>2014-01-05T10:23:06Z</time>
      </trkpt>
      <trkpt lat="47.31283" lon="0.12175">
        <ele>99.15</ele>
        <time>2014-01-05T10:23:07Z</time>
      </trkpt>
      <trkpt lat="47.31259" lon="0.1215">
        <ele>98.19</ele>
        <time>2014-01-05T10:23:14Z</time>
      </trkpt>
      <trkpt lat="47.31249" lon="0.12141">
        <ele>99.15</ele>
        <time>2014-01-05T10:23:19Z</time>
      </trkpt>
      <trkpt lat="47.31247" lon="0.12139">
        <ele>98.67</ele>
        <time>2014-01-05T10:23:20Z</time>
      </trkpt>
      <trkpt lat="47.31246" lon="0.12137">
        <ele>98.67</ele>
        <time>2014-01-05T10:23:26Z</time>
      </trkpt>
      <trkpt lat="47.31238" lon="0.1213">
        <ele>99.15</ele>
        <time>2014-01-05T10:23:45Z</time>
      </trkpt>
      <trkpt lat="47.31215" lon="0.12108">
        <ele>99.15</ele>
        <time>2014-01-05T10:23:52Z</time>
      </trkpt>
      <trkpt lat="47.31192" lon="0.12087">
        <ele>99.63</ele>
        <time>2014-01-05T10:23:58Z</time>
      </trkpt>
      <trkpt lat="47.31172" lon="0.1207">
        <ele>99.63</ele>
        <time>2014-01-05T10:24:03Z</time>
      </trkpt>
      <trkpt lat="47.31168" lon="0.12066">
        <ele>99.63</ele>
        <time>2014-01-05T10:24:04Z</time>
      </trkpt>
      <trkpt lat="47.31164" lon="0.12063">
        <ele>99.63</ele>
        <time>2014-01-05T10:24:05Z</time>
      </trkpt>
      <trkpt lat="47.3116" lon="0.12059">
        <ele>99.63</ele>
        <time>2014-01-05T10:24:06Z</time>
      </trkpt>
      <trkpt lat="47.31156" lon="0.12055">
        <ele>99.63</ele>
        <time>2014-01-05T10:24:07Z</time>
      </trkpt>
      <trkpt lat="47.31152" lon="0.12051">
        <ele>100.6</ele>
        <time>2014-01-05T10:24:08Z</time>
      </trkpt>
      <trkpt lat="47.31148" lon="0.12047">
        <ele>100.11</ele>
        <time>2014-01-05T10:24:09Z</time>
      </trkpt>
      <trkpt lat="47.31143" lon="0.12043">
        <ele>99.63</ele>
        <time>2014-01-05T10:24:10Z</time>
      </trkpt>
      <trkpt lat="47.31126" lon="0.12028">
        <ele>99.63</ele>
        <time>2014-01-05T10:24:14Z</time>
      </trkpt>
      <trkpt lat="47.31098" lon="0.12005">
        <ele>99.63</ele>
        <time>2014-01-05T10:24:21Z</time>
      </trkpt>
      <trkpt lat="47.31071" lon="0.11979">
        <ele>100.11</ele>
        <time>2014-01-05T10:24:28Z</time>
      </trkpt>
      <trkpt lat="47.31069" lon="0.11974">
        <ele>99.63</ele>
        <time>2014-01-05T10:24:29Z</time>
      </trkpt>
      <trkpt lat="47.31068" lon="0.11969">
        <ele>99.63</ele>
        <time>2014-01-05T10:24:30Z</time>
      </trkpt>
      <trkpt lat="47.31068" lon="0.11963">
        <ele>99.63</ele>
        <time>2014-01-05T10:24:31Z</time>
      </trkpt>
      <trkpt lat="47.31069" lon="0.11959">
        <ele>99.63</ele>
        <time>2014-01-05T10:24:32Z</time>
      </trkpt>
      <trkpt lat="47.3107" lon="0.11955">
        <ele>99.63</ele>
        <time>2014-01-05T10:24:33Z</time>
      </trkpt>
      <trkpt lat="47.3107" lon="0.11951">
        <ele>98.67</ele>
        <time>2014-01-05T10:24:34Z</time>
      </trkpt>
      <trkpt lat="47.31072" lon="0.11948">
        <ele>98.67</ele>
        <time>2014-01-05T10:24:35Z</time>
      </trkpt>
      <trkpt lat="47.31074" lon="0.11944">
        <ele>98.67</ele>
        <time>2014-01-05T10:24:36Z</time>
      </trkpt>
      <trkpt lat="47.31075" lon="0.11939">
        <ele>98.67</ele>
        <time>2014-01-05T10:24:37Z</time>
      </trkpt>
      <trkpt lat="47.31086" lon="0.11914">
        <ele>99.15</ele>
        <time>2014-01-05T10:24:42Z</time>
      </trkpt>
      <trkpt lat="47.31094" lon="0.11888">
        <ele>99.63</ele>
        <time>2014-01-05T10:24:47Z</time>
      </trkpt>
      <trkpt lat="47.31101" lon="0.11861">
        <ele>98.67</ele>
        <time>2014-01-05T10:24:53Z</time>
      </trkpt>
      <trkpt lat="47.31102" lon="0.11857">
        <ele>98.67</ele>
        <time>2014-01-05T10:24:54Z</time>
      </trkpt>
      <trkpt lat="47.31103" lon="0.11852">
        <ele>98.67</ele>
        <time>2014-01-05T10:24:55Z</time>
      </trkpt>
      <trkpt lat="47.31104" lon="0.11848">
        <ele>99.15</ele>
        <time>2014-01-05T10:24:56Z</time>
      </trkpt>
      <trkpt lat="47.31107" lon="0.11821">
        <ele>99.63</ele>
        <time>2014-01-05T10:25:02Z</time>
      </trkpt>
      <trkpt lat="47.31101" lon="0.1179">
        <ele>99.63</ele>
        <time>2014-01-05T10:25:08Z</time>
      </trkpt>
      <trkpt lat="47.31123" lon="0.11755">
        <ele>110.910156</ele>
        <time>2012-08-15T08:57:20Z</time>
      </trkpt>
      <trkpt lat="47.31142" lon="0.11739">
        <ele>111</ele>
        <time>2012-08-15T08:57:20Z</time>
      </trkpt>
      <trkpt lat="47.31166" lon="0.11722">
        <ele>109.492188</ele>
        <time>2012-08-15T08:57:20Z</time>
      </trkpt>
      <trkpt lat="47.31171" lon="0.11722">
        <ele>109.105469</ele>
        <time>2012-08-15T08:57:20Z</time>
      </trkpt>
      <trkpt lat="47.3119" lon="0.11706">
        <ele>107.617188</ele>
        <time>2012-08-15T08:57:20Z</time>
      </trkpt>
      <trkpt lat="47.31223" lon="0.11653">
        <ele>104.972656</ele>
        <time>2012-08-15T08:57:20Z</time>
      </trkpt>
      <trkpt lat="47.31233" lon="0.11623">
        <ele>103.699219</ele>
        <time>2012-08-15T08:57:20Z</time>
      </trkpt>
      <trkpt lat="47.31236" lon="0.11617">
        <ele>103.460938</ele>
        <time>2012-08-15T08:57:20Z</time>
      </trkpt>
      <trkpt lat="47.3125" lon="0.11541">
        <ele>97.96875</ele>
        <time>2012-08-15T08:57:20Z</time>
      </trkpt>
      <trkpt lat="47.31263" lon="0.11462">
        <ele>92.53125</ele>
        <time>2012-08-15T08:57:20Z</time>
      </trkpt>
      <trkpt lat="47.31274" lon="0.11387">
        <ele>87.941406</ele>
        <time>2012-08-15T08:57:20Z</time>
      </trkpt>
      <trkpt lat="47.3129" lon="0.11304">
        <ele>82.84375</ele>
        <time>2012-08-15T08:57:20Z</time>
      </trkpt>
      <trkpt lat="47.3129" lon="0.11294">
        <ele>82.132812</ele>
        <time>2012-08-15T08:57:20Z</time>
      </trkpt>
      <trkpt lat="47.31295" lon="0.11192">
        <ele>77.101562</ele>
        <time>2012-08-15T08:57:20Z</time>
      </trkpt>
      <trkpt lat="47.3128" lon="0.11142">
        <ele>60.22</ele>
        <time>2012-08-15T08:57:20Z</time>
      </trkpt>
      <trkpt lat="47.31277" lon="0.11115">
        <ele>59.26</ele>
        <time>2012-08-15T08:57:14Z</time>
      </trkpt>
      <trkpt lat="47.31277" lon="0.11103">
        <ele>57.82</ele>
        <time>2012-08-15T08:57:10Z</time>
      </trkpt>
      <trkpt lat="47.31277" lon="0.11102">
        <ele>57.34</ele>
        <time>2012-08-15T08:57:09Z</time>
      </trkpt>
      <trkpt lat="47.31279" lon="0.11085">
        <ele>56.37</ele>
        <time>2012-08-15T08:57:03Z</time>
      </trkpt>
      <trkpt lat="47.3128" lon="0.11078">
        <ele>57.34</ele>
        <time>2012-08-15T08:57:00Z</time>
      </trkpt>
      <trkpt lat="47.31289" lon="0.11054">
        <ele>55.41</ele>
        <time>2012-08-15T08:56:54Z</time>
      </trkpt>
      <trkpt lat="47.31292" lon="0.11043">
        <ele>53.97</ele>
        <time>2012-08-15T08:56:51Z</time>
      </trkpt>
      <trkpt lat="47.31302" lon="0.11019">
        <ele>54.45</ele>
        <time>2012-08-15T08:56:45Z</time>
      </trkpt>
      <trkpt lat="47.31311" lon="0.10993">
        <ele>52.05</ele>
        <time>2012-08-15T08:56:38Z</time>
      </trkpt>
      <trkpt lat="47.31316" lon="0.10983">
        <ele>52.05</ele>
        <time>2012-08-15T08:56:35Z</time>
      </trkpt>
      <trkpt lat="47.31321" lon="0.10975">
        <ele>52.05</ele>
        <time>2012-08-15T08:56:31Z</time>
      </trkpt>
      <trkpt lat="47.31323" lon="0.1097">
        <ele>51.57</ele>
        <time>2012-08-15T08:56:29Z</time>
      </trkpt>
      <trkpt lat="47.31329" lon="0.10955">
        <ele>51.09</ele>
        <time>2012-08-15T08:56:24Z</time>
      </trkpt>
      <trkpt lat="47.31338" lon="0.10933">
        <ele>50.61</ele>
        <time>2012-08-15T08:56:17Z</time>
      </trkpt>
      <trkpt lat="47.31342" lon="0.10927">
        <ele>50.13</ele>
        <time>2012-08-15T08:56:14Z</time>
      </trkpt>
      <trkpt lat="47.31348" lon="0.10918">
        <ele>49.65</ele>
        <time>2012-08-15T08:56:09Z</time>
      </trkpt>
      <trkpt lat="47.31355" lon="0.10902">
        <ele>49.16</ele>
        <time>2012-08-15T08:56:03Z</time>
      </trkpt>
      <trkpt lat="47.31362" lon="0.10877">
        <ele>49.16</ele>
        <time>2012-08-15T08:55:56Z</time>
      </trkpt>
      <trkpt lat="47.31364" lon="0.10861">
        <ele>48.68</ele>
        <time>2012-08-15T08:55:52Z</time>
      </trkpt>
      <trkpt lat="47.31371" lon="0.1084">
        <ele>48.68</ele>
        <time>2012-08-15T08:55:47Z</time>
      </trkpt>
      <trkpt lat="47.31374" lon="0.10818">
        <ele>47.72</ele>
        <time>2012-08-15T08:55:41Z</time>
      </trkpt>
      <trkpt lat="47.31379" lon="0.10801">
        <ele>47.72</ele>
        <time>2012-08-15T08:55:36Z</time>
      </trkpt>
      <trkpt lat="47.31383" lon="0.10782">
        <ele>47.24</ele>
        <time>2012-08-15T08:55:30Z</time>
      </trkpt>
      <trkpt lat="47.31387" lon="0.10757">
        <ele>44.84</ele>
        <time>2012-08-15T08:55:22Z</time>
      </trkpt>
      <trkpt lat="47.31399" lon="0.10729">
        <ele>43.88</ele>
        <time>2012-08-15T08:55:12Z</time>
      </trkpt>
      <trkpt lat="47.31412" lon="0.10707">
        <ele>42.92</ele>
        <time>2012-08-15T08:55:04Z</time>
      </trkpt>
      <trkpt lat="47.31424" lon="0.1069">
        <ele>42.44</ele>
        <time>2012-08-15T08:54:57Z</time>
      </trkpt>
      <trkpt lat="47.3144" lon="0.1067">
        <ele>41.47</ele>
        <time>2012-08-15T08:54:48Z</time>
      </trkpt>
      <trkpt lat="47.31452" lon="0.10648">
        <ele>40.99</ele>
        <time>2012-08-15T08:54:40Z</time>
      </trkpt>
      <trkpt lat="47.3147" lon="0.10617">
        <ele>40.03</ele>
        <time>2012-08-15T08:54:30Z</time>
      </trkpt>
      <trkpt lat="47.31482" lon="0.10591">
        <ele>39.55</ele>
        <time>2012-08-15T08:54:23Z</time>
      </trkpt>
      <trkpt lat="47.31484" lon="0.10588">
        <ele>39.07</ele>
        <time>2012-08-15T08:54:22Z</time>
      </trkpt>
      <trkpt lat="47.31485" lon="0.10585">
        <ele>39.55</ele>
        <time>2012-08-15T08:54:21Z</time>
      </trkpt>
      <trkpt lat="47.31487" lon="0.10582">
        <ele>39.55</ele>
        <time>2012-08-15T08:54:20Z</time>
      </trkpt>
      <trkpt lat="47.31488" lon="0.10579">
        <ele>39.55</ele>
        <time>2012-08-15T08:54:19Z</time>
      </trkpt>
      <trkpt lat="47.31488" lon="0.10576">
        <ele>38.59</ele>
        <time>2012-08-15T08:54:18Z</time>
      </trkpt>
      <trkpt lat="47.31475" lon="0.10559">
        <ele>39.07</ele>
        <time>2012-08-15T08:54:12Z</time>
      </trkpt>
      <trkpt lat="47.31473" lon="0.10557">
        <ele>38.59</ele>
        <time>2012-08-15T08:54:11Z</time>
      </trkpt>
      <trkpt lat="47.31471" lon="0.10554">
        <ele>38.59</ele>
        <time>2012-08-15T08:54:10Z</time>
      </trkpt>
      <trkpt lat="47.31469" lon="0.10551">
        <ele>39.07</ele>
        <time>2012-08-15T08:54:09Z</time>
      </trkpt>
      <trkpt lat="47.31468" lon="0.10547">
        <ele>39.07</ele>
        <time>2012-08-15T08:54:08Z</time>
      </trkpt>
      <trkpt lat="47.31468" lon="0.10544">
        <ele>38.11</ele>
        <time>2012-08-15T08:54:07Z</time>
      </trkpt>
      <trkpt lat="47.31468" lon="0.10541">
        <ele>38.11</ele>
        <time>2012-08-15T08:54:06Z</time>
      </trkpt>
      <trkpt lat="47.31469" lon="0.10537">
        <ele>38.11</ele>
        <time>2012-08-15T08:54:05Z</time>
      </trkpt>
      <trkpt lat="47.31491" lon="0.10502">
        <ele>39.55</ele>
        <time>2012-08-15T08:54:00Z</time>
      </trkpt>
      <trkpt lat="47.31509" lon="0.10471">
        <ele>40.99</ele>
        <time>2012-08-15T08:53:57Z</time>
      </trkpt>
      <trkpt lat="47.31536" lon="0.10418">
        <ele>43.88</ele>
        <time>2012-08-15T08:53:52Z</time>
      </trkpt>
      <trkpt lat="47.31542" lon="0.1041">
        <ele>44.36</ele>
        <time>2012-08-15T08:53:51Z</time>
      </trkpt>
      <trkpt lat="47.31547" lon="0.10402">
        <ele>44.84</ele>
        <time>2012-08-15T08:53:50Z</time>
      </trkpt>
      <trkpt lat="47.31572" lon="0.10377">
        <ele>46.76</ele>
        <time>2012-08-15T08:53:45Z</time>
      </trkpt>
      <trkpt lat="47.31576" lon="0.10374">
        <ele>47.24</ele>
        <time>2012-08-15T08:53:44Z</time>
      </trkpt>
      <trkpt lat="47.31588" lon="0.10362">
        <ele>48.68</ele>
        <time>2012-08-15T08:53:41Z</time>
      </trkpt>
      <trkpt lat="47.31616" lon="0.10322">
        <ele>50.61</ele>
        <time>2012-08-15T08:53:33Z</time>
      </trkpt>
      <trkpt lat="47.31624" lon="0.10312">
        <ele>52.05</ele>
        <time>2012-08-15T08:53:30Z</time>
      </trkpt>
      <trkpt lat="47.31633" lon="0.10304">
        <ele>52.05</ele>
        <time>2012-08-15T08:53:25Z</time>
      </trkpt>
      <trkpt lat="47.31634" lon="0.10304">
        <ele>51.57</ele>
        <time>2012-08-15T08:52:07Z</time>
      </trkpt>
      <trkpt lat="47.31635" lon="0.10302">
        <ele>51.57</ele>
        <time>2012-08-15T08:52:00Z</time>
      </trkpt>
      <trkpt lat="47.31636" lon="0.10302">
        <ele>52.05</ele>
        <time>2012-08-15T08:51:24Z</time>
      </trkpt>
      <trkpt lat="47.31636" lon="0.10302">
        <ele>52.05</ele>
        <time>2012-08-15T08:51:06Z</time>
      </trkpt>
      <trkpt lat="47.31645" lon="0.10282">
        <ele>65.617188</ele>
        <time>2008-10-12T07:59:31Z</time>
      </trkpt>
      <trkpt lat="47.3167" lon="0.10231">
        <ele>69.742188</ele>
        <time>2008-10-12T07:59:31Z</time>
      </trkpt>
      <trkpt lat="47.31688" lon="0.10207">
        <ele>72.402344</ele>
        <time>2008-10-12T07:59:31Z</time>
      </trkpt>
      <trkpt lat="47.31715" lon="0.10196">
        <ele>75.253906</ele>
        <time>2008-10-12T07:59:31Z</time>
      </trkpt>
      <trkpt lat="47.3174" lon="0.10196">
        <ele>78.269531</ele>
        <time>2008-10-12T07:59:31Z</time>
      </trkpt>
      <trkpt lat="47.31765" lon="0.10187">
        <ele>82.03125</ele>
        <time>2008-10-12T07:59:31Z</time>
      </trkpt>
      <trkpt lat="47.31781" lon="0.10177">
        <ele>84.570312</ele>
        <time>2008-10-12T07:59:31Z</time>
      </trkpt>
      <trkpt lat="47.31788" lon="0.1017">
        <ele>85.984375</ele>
        <time>2008-10-12T07:59:31Z</time>
      </trkpt>
      <trkpt lat="47.31792" lon="0.10163">
        <ele>86.976562</ele>
        <time>2008-10-12T07:59:31Z</time>
      </trkpt>
      <trkpt lat="47.3181" lon="0.10152">
        <ele>90.648438</ele>
        <time>2008-10-12T07:59:31Z</time>
      </trkpt>
      <trkpt lat="47.31831" lon="0.1015">
        <ele>93.722656</ele>
        <time>2008-10-12T07:59:31Z</time>
      </trkpt>
      <trkpt lat="47.31853" lon="0.10152">
        <ele>96.425781</ele>
        <time>2008-10-12T07:59:31Z</time>
      </trkpt>
      <trkpt lat="47.31882" lon="0.10152">
        <ele>99.886719</ele>
        <time>2008-10-12T07:59:31Z</time>
      </trkpt>
      <trkpt lat="47.31916" lon="0.10133">
        <ele>103.523438</ele>
        <time>2008-10-12T07:59:31Z</time>
      </trkpt>
      <trkpt lat="47.31928" lon="0.10122">
        <ele>104.085938</ele>
        <time>2008-10-12T07:59:31Z</time>
      </trkpt>
      <trkpt lat="47.31945" lon="0.101">
        <ele>104.984375</ele>
        <time>2008-10-12T07:59:31Z</time>
      </trkpt>
      <trkpt lat="47.31948" lon="0.10084">
        <ele>105.667969</ele>
        <time>2008-10-12T07:59:31Z</time>
      </trkpt>
      <trkpt lat="47.31948" lon="0.10082">
        <ele>105.746094</ele>
        <time>2008-10-12T07:59:31Z</time>
      </trkpt>
      <trkpt lat="47.31954" lon="0.10069">
        <ele>106</ele>
        <time>2008-10-12T07:59:31Z</time>
      </trkpt>
      <trkpt lat="47.31972" lon="0.10034">
        <ele>106.558594</ele>
        <time>2008-10-12T07:59:31Z</time>
      </trkpt>
      <trkpt lat="47.31981" lon="0.09997">
        <ele>107.726562</ele>
        <time>2008-10-12T07:59:31Z</time>
      </trkpt>
      <trkpt lat="47.31991" lon="0.09966">
        <ele>107.523438</ele>
        <time>2008-10-12T07:59:31Z</time>
      </trkpt>
      <trkpt lat="47.32013" lon="0.09937">
        <ele>107.777344</ele>
        <time>2008-10-12T07:59:31Z</time>
      </trkpt>
      <trkpt lat="47.32038" lon="0.099">
        <ele>108.152344</ele>
        <time>2008-10-12T07:59:31Z</time>
      </trkpt>
      <trkpt lat="47.32056" lon="0.09876">
        <ele>107.578125</ele>
        <time>2008-10-12T07:59:31Z</time>
      </trkpt>
      <trkpt lat="47.32078" lon="0.09834">
        <ele>108.308594</ele>
        <time>2008-10-12T07:59:31Z</time>
      </trkpt>
      <trkpt lat="47.32108" lon="0.09812">
        <ele>108</ele>
        <time>2008-10-12T07:59:31Z</time>
      </trkpt>
      <trkpt lat="47.32137" lon="0.09773">
        <ele>107.277344</ele>
        <time>2008-10-12T07:59:31Z</time>
      </trkpt>
      <trkpt lat="47.32157" lon="0.09738">
        <ele>105.34375</ele>
        <time>2008-10-12T07:59:31Z</time>
      </trkpt>
      <trkpt lat="47.32194" lon="0.09751">
        <ele>104.457031</ele>
        <time>2008-10-12T07:59:31Z</time>
      </trkpt>
      <trkpt lat="47.32223" lon="0.0976">
        <ele>104.566406</ele>
        <time>2008-10-12T07:59:31Z</time>
      </trkpt>
      <trkpt lat="47.32246" lon="0.09729">
        <ele>102.613281</ele>
        <time>2008-10-12T07:59:31Z</time>
      </trkpt>
      <trkpt lat="47.32261" lon="0.09698">
        <ele>100.457031</ele>
        <time>2008-10-12T07:59:31Z</time>
      </trkpt>
      <trkpt lat="47.32272" lon="0.09674">
        <ele>98.613281</ele>
        <time>2008-10-12T07:59:31Z</time>
      </trkpt>
      <trkpt lat="47.32286" lon="0.09637">
        <ele>95.953125</ele>
        <time>2008-10-12T07:59:31Z</time>
      </trkpt>
      <trkpt lat="47.32288" lon="0.09608">
        <ele>93.914062</ele>
        <time>2008-10-12T07:59:31Z</time>
      </trkpt>
      <trkpt lat="47.3229" lon="0.09584">
        <ele>91.460938</ele>
        <time>2008-10-12T07:59:31Z</time>
      </trkpt>
      <trkpt lat="47.32297" lon="0.09562">
        <ele>89.710938</ele>
        <time>2008-10-12T07:59:31Z</time>
      </trkpt>
      <trkpt lat="47.32293" lon="0.09521">
        <ele>86.828125</ele>
        <time>2008-10-12T07:59:31Z</time>
      </trkpt>
      <trkpt lat="47.32291" lon="0.09431">
        <ele>80.429688</ele>
        <time>2008-10-12T07:59:31Z</time>
      </trkpt>
      <trkpt lat="47.3229" lon="0.09328">
        <ele>78.777344</ele>
        <time>2008-10-12T07:59:31Z</time>
      </trkpt>
      <trkpt lat="47.32281" lon="0.0922">
        <ele>78.398438</ele>
        <time>2008-10-12T07:59:31Z</time>
      </trkpt>
      <trkpt lat="47.32277" lon="0.09097">
        <ele>76.789062</ele>
        <time>2008-10-12T07:59:31Z</time>
      </trkpt>
      <trkpt lat="47.32273" lon="0.0904">
        <ele>74.96875</ele>
        <time>2008-10-12T07:59:31Z</time>
      </trkpt>
      <trkpt lat="47.32263" lon="0.08872">
        <ele>73.558594</ele>
        <time>2008-10-12T07:59:31Z</time>
      </trkpt>
      <trkpt lat="47.32261" lon="0.08808">
        <ele>73.246094</ele>
        <time>2008-10-12T07:59:31Z</time>
      </trkpt>
      <trkpt lat="47.32252" lon="0.08766">
        <ele>73.234375</ele>
        <time>2008-10-12T07:59:31Z</time>
      </trkpt>
      <trkpt lat="47.32219" lon="0.08665">
        <ele>71.492188</ele>
        <time>2008-10-12T07:59:31Z</time>
      </trkpt>
      <trkpt lat="47.32196" lon="0.08611">
        <ele>69.789062</ele>
        <time>2008-10-12T07:59:31Z</time>
      </trkpt>
      <trkpt lat="47.32254" lon="0.08568">
        <ele>66</ele>
        <time>2008-10-12T07:59:31Z</time>
      </trkpt>
      <trkpt lat="47.32286" lon="0.08529">
        <ele>65.246094</ele>
        <time>2008-10-12T07:59:31Z</time>
      </trkpt>
      <trkpt lat="47.32405" lon="0.08414">
        <ele>69.769531</ele>
        <time>2008-10-12T07:59:31Z</time>
      </trkpt>
      <trkpt lat="47.32889" lon="0.07931">
        <ele>104.148438</ele>
        <time>2008-10-12T07:59:31Z</time>
      </trkpt>
      <trkpt lat="47.3287" lon="0.07554">
        <ele>100.25</ele>
        <time>2008-10-12T07:59:31Z</time>
      </trkpt>
      <trkpt lat="47.32851" lon="0.07163">
        <ele>74.503906</ele>
        <time>2008-10-12T07:59:31Z</time>
      </trkpt>
      <trkpt lat="47.32865" lon="0.07163">
        <ele>74.988281</ele>
        <time>2008-10-12T07:59:31Z</time>
      </trkpt>
      <trkpt lat="47.32867" lon="0.07165">
        <ele>75.089844</ele>
        <time>2008-10-12T07:59:31Z</time>
      </trkpt>
      <trkpt lat="47.32885" lon="0.07163">
        <ele>75.699219</ele>
        <time>2008-10-12T07:59:31Z</time>
      </trkpt>
      <trkpt lat="47.3289" lon="0.07162">
        <ele>75.855469</ele>
        <time>2008-10-12T07:59:31Z</time>
      </trkpt>
      <trkpt lat="47.329" lon="0.07072">
        <ele>80.1875</ele>
        <time>2008-10-12T07:59:31Z</time>
      </trkpt>
      <trkpt lat="47.32911" lon="0.06958">
        <ele>84.71875</ele>
        <time>2008-10-12T07:59:31Z</time>
      </trkpt>
      <trkpt lat="47.32916" lon="0.06874">
        <ele>87.113281</ele>
        <time>2008-10-12T07:59:31Z</time>
      </trkpt>
      <trkpt lat="47.32917" lon="0.06805">
        <ele>89.359375</ele>
        <time>2008-10-12T07:59:31Z</time>
      </trkpt>
      <trkpt lat="47.32925" lon="0.06665">
        <ele>95.859375</ele>
        <time>2008-10-12T07:59:31Z</time>
      </trkpt>
      <trkpt lat="47.32925" lon="0.06575">
        <ele>100.433594</ele>
        <time>2008-10-12T07:59:31Z</time>
      </trkpt>
      <trkpt lat="47.3293" lon="0.06526">
        <ele>102.90625</ele>
        <time>2008-10-12T07:59:31Z</time>
      </trkpt>
      <trkpt lat="47.32926" lon="0.06495">
        <ele>103.054688</ele>
        <time>2008-10-12T07:59:31Z</time>
      </trkpt>
      <trkpt lat="47.32932" lon="0.06479">
        <ele>103.605469</ele>
        <time>2008-10-12T07:59:31Z</time>
      </trkpt>
      <trkpt lat="47.32965" lon="0.06435">
        <ele>105</ele>
        <time>2008-10-12T07:59:31Z</time>
      </trkpt>
      <trkpt lat="47.32988" lon="0.06407">
        <ele>105.511719</ele>
        <time>2008-10-12T07:59:31Z</time>
      </trkpt>
      <trkpt lat="47.33006" lon="0.06382">
        <ele>106</ele>
        <time>2008-10-12T07:59:31Z</time>
      </trkpt>
      <trkpt lat="47.33018" lon="0.06356">
        <ele>106</ele>
        <time>2008-10-12T07:59:31Z</time>
      </trkpt>
      <trkpt lat="47.33029" lon="0.06325">
        <ele>105.847656</ele>
        <time>2008-10-12T07:59:31Z</time>
      </trkpt>
      <trkpt lat="47.33026" lon="0.06296">
        <ele>105.210938</ele>
        <time>2008-10-12T07:59:31Z</time>
      </trkpt>
      <trkpt lat="47.33004" lon="0.06145">
        <ele>104</ele>
        <time>2008-10-12T07:59:31Z</time>
      </trkpt>
      <trkpt lat="47.32986" lon="0.06018">
        <ele>102.6875</ele>
        <time>2008-10-12T07:59:31Z</time>
      </trkpt>
      <trkpt lat="47.32968" lon="0.05937">
        <ele>103.039062</ele>
        <time>2008-10-12T07:59:31Z</time>
      </trkpt>
      <trkpt lat="47.32951" lon="0.05866">
        <ele>103.949219</ele>
        <time>2008-10-12T07:59:31Z</time>
      </trkpt>
      <trkpt lat="47.32941" lon="0.0582">
        <ele>104.242188</ele>
        <time>2008-10-12T07:59:31Z</time>
      </trkpt>
      <trkpt lat="47.32936" lon="0.05766">
        <ele>105</ele>
        <time>2008-10-12T07:59:31Z</time>
      </trkpt>
      <trkpt lat="47.32929" lon="0.05748">
        <ele>105</ele>
        <time>2008-10-12T07:59:31Z</time>
      </trkpt>
      <trkpt lat="47.3292" lon="0.05689">
        <ele>105.082031</ele>
        <time>2008-10-12T07:59:31Z</time>
      </trkpt>
      <trkpt lat="47.32911" lon="0.05609">
        <ele>105.988281</ele>
        <time>2008-10-12T07:59:31Z</time>
      </trkpt>
      <trkpt lat="47.32904" lon="0.05564">
        <ele>106</ele>
        <time>2008-10-12T07:59:31Z</time>
      </trkpt>
      <trkpt lat="47.32894" lon="0.05499">
        <ele>106</ele>
        <time>2008-10-12T07:59:31Z</time>
      </trkpt>
      <trkpt lat="47.32879" lon="0.05422">
        <ele>105</ele>
        <time>2008-10-12T07:59:31Z</time>
      </trkpt>
      <trkpt lat="47.32872" lon="0.05372">
        <ele>105</ele>
        <time>2008-10-12T07:59:31Z</time>
      </trkpt>
      <trkpt lat="47.32866" lon="0.05338">
        <ele>105.726562</ele>
        <time>2008-10-12T07:59:31Z</time>
      </trkpt>
      <trkpt lat="47.32867" lon="0.05327">
        <ele>115</ele>
        <time>2008-10-12T07:59:31Z</time>
      </trkpt>
      <trkpt lat="47.32874" lon="0.05321">
        <ele>115</ele>
        <time>2008-10-12T07:59:29Z</time>
      </trkpt>
      <trkpt lat="47.32883" lon="0.05313">
        <ele>115</ele>
        <time>2008-10-12T07:59:27Z</time>
      </trkpt>
      <trkpt lat="47.32895" lon="0.05304">
        <ele>115</ele>
        <time>2008-10-12T07:59:24Z</time>
      </trkpt>
      <trkpt lat="47.32903" lon="0.05296">
        <ele>115</ele>
        <time>2008-10-12T07:59:22Z</time>
      </trkpt>
      <trkpt lat="47.3291" lon="0.0529">
        <ele>115</ele>
        <time>2008-10-12T07:59:20Z</time>
      </trkpt>
      <trkpt lat="47.32922" lon="0.0528">
        <ele>115</ele>
        <time>2008-10-12T07:59:17Z</time>
      </trkpt>
      <trkpt lat="47.3293" lon="0.05274">
        <ele>115</ele>
        <time>2008-10-12T07:59:15Z</time>
      </trkpt>
      <trkpt lat="47.32938" lon="0.05268">
        <ele>115</ele>
        <time>2008-10-12T07:59:13Z</time>
      </trkpt>
      <trkpt lat="47.32946" lon="0.05261">
        <ele>115</ele>
        <time>2008-10-12T07:59:11Z</time>
      </trkpt>
      <trkpt lat="47.32956" lon="0.05253">
        <ele>115</ele>
        <time>2008-10-12T07:59:08Z</time>
      </trkpt>
      <trkpt lat="47.32967" lon="0.05246">
        <ele>115</ele>
        <time>2008-10-12T07:59:05Z</time>
      </trkpt>
      <trkpt lat="47.32977" lon="0.05238">
        <ele>115</ele>
        <time>2008-10-12T07:59:02Z</time>
      </trkpt>
      <trkpt lat="47.32989" lon="0.05231">
        <ele>110</ele>
        <time>2008-10-12T07:58:59Z</time>
      </trkpt>
      <trkpt lat="47.32998" lon="0.05225">
        <ele>110</ele>
        <time>2008-10-12T07:58:56Z</time>
      </trkpt>
      <trkpt lat="47.3301" lon="0.05219">
        <ele>110</ele>
        <time>2008-10-12T07:58:53Z</time>
      </trkpt>
      <trkpt lat="47.33021" lon="0.0521">
        <ele>110</ele>
        <time>2008-10-12T07:58:50Z</time>
      </trkpt>
      <trkpt lat="47.33032" lon="0.05203">
        <ele>110</ele>
        <time>2008-10-12T07:58:47Z</time>
      </trkpt>
      <trkpt lat="47.33044" lon="0.05199">
        <ele>110</ele>
        <time>2008-10-12T07:58:44Z</time>
      </trkpt>
      <trkpt lat="47.33055" lon="0.0519">
        <ele>110</ele>
        <time>2008-10-12T07:58:41Z</time>
      </trkpt>
      <trkpt lat="47.33065" lon="0.0518">
        <ele>110</ele>
        <time>2008-10-12T07:58:38Z</time>
      </trkpt>
      <trkpt lat="47.33077" lon="0.05172">
        <ele>110</ele>
        <time>2008-10-12T07:58:35Z</time>
      </trkpt>
      <trkpt lat="47.33086" lon="0.05162">
        <ele>110</ele>
        <time>2008-10-12T07:58:32Z</time>
      </trkpt>
      <trkpt lat="47.33097" lon="0.05153">
        <ele>110</ele>
        <time>2008-10-12T07:58:29Z</time>
      </trkpt>
      <trkpt lat="47.33104" lon="0.05144">
        <ele>110</ele>
        <time>2008-10-12T07:58:27Z</time>
      </trkpt>
      <trkpt lat="47.33113" lon="0.05133">
        <ele>110</ele>
        <time>2008-10-12T07:58:24Z</time>
      </trkpt>
      <trkpt lat="47.33124" lon="0.05123">
        <ele>110</ele>
        <time>2008-10-12T07:58:21Z</time>
      </trkpt>
      <trkpt lat="47.33135" lon="0.05111">
        <ele>110</ele>
        <time>2008-10-12T07:58:18Z</time>
      </trkpt>
      <trkpt lat="47.33144" lon="0.05102">
        <ele>110</ele>
        <time>2008-10-12T07:58:15Z</time>
      </trkpt>
      <trkpt lat="47.33155" lon="0.05092">
        <ele>110</ele>
        <time>2008-10-12T07:58:12Z</time>
      </trkpt>
      <trkpt lat="47.33162" lon="0.05084">
        <ele>110</ele>
        <time>2008-10-12T07:58:10Z</time>
      </trkpt>
      <trkpt lat="47.33173" lon="0.05073">
        <ele>110</ele>
        <time>2008-10-12T07:58:07Z</time>
      </trkpt>
      <trkpt lat="47.3318" lon="0.05064">
        <ele>110</ele>
        <time>2008-10-12T07:58:05Z</time>
      </trkpt>
      <trkpt lat="47.33186" lon="0.05053">
        <ele>110</ele>
        <time>2008-10-12T07:58:03Z</time>
      </trkpt>
      <trkpt lat="47.33191" lon="0.05041">
        <ele>110</ele>
        <time>2008-10-12T07:58:01Z</time>
      </trkpt>
      <trkpt lat="47.33199" lon="0.05028">
        <ele>110</ele>
        <time>2008-10-12T07:57:58Z</time>
      </trkpt>
      <trkpt lat="47.33208" lon="0.05014">
        <ele>110</ele>
        <time>2008-10-12T07:57:55Z</time>
      </trkpt>
      <trkpt lat="47.33216" lon="0.05001">
        <ele>110</ele>
        <time>2008-10-12T07:57:52Z</time>
      </trkpt>
      <trkpt lat="47.33223" lon="0.04988">
        <ele>110</ele>
        <time>2008-10-12T07:57:49Z</time>
      </trkpt>
      <trkpt lat="47.3323" lon="0.04978">
        <ele>110</ele>
        <time>2008-10-12T07:57:46Z</time>
      </trkpt>
      <trkpt lat="47.33236" lon="0.04967">
        <ele>104</ele>
        <time>2008-10-12T07:57:42Z</time>
      </trkpt>
      <trkpt lat="47.33245" lon="0.04957">
        <ele>104</ele>
        <time>2008-10-12T07:57:38Z</time>
      </trkpt>
      <trkpt lat="47.33254" lon="0.04946">
        <ele>104</ele>
        <time>2008-10-12T07:57:34Z</time>
      </trkpt>
      <trkpt lat="47.33264" lon="0.04937">
        <ele>97</ele>
        <time>2008-10-12T07:57:30Z</time>
      </trkpt>
      <trkpt lat="47.33274" lon="0.04929">
        <ele>97</ele>
        <time>2008-10-12T07:57:27Z</time>
      </trkpt>
      <trkpt lat="47.33284" lon="0.04921">
        <ele>97</ele>
        <time>2008-10-12T07:57:24Z</time>
      </trkpt>
      <trkpt lat="47.33295" lon="0.04913">
        <ele>97</ele>
        <time>2008-10-12T07:57:21Z</time>
      </trkpt>
      <trkpt lat="47.33306" lon="0.04903">
        <ele>97</ele>
        <time>2008-10-12T07:57:17Z</time>
      </trkpt>
      <trkpt lat="47.33314" lon="0.04897">
        <ele>91</ele>
        <time>2008-10-12T07:57:13Z</time>
      </trkpt>
      <trkpt lat="47.33322" lon="0.04889">
        <ele>91</ele>
        <time>2008-10-12T07:57:09Z</time>
      </trkpt>
      <trkpt lat="47.33332" lon="0.04882">
        <ele>91</ele>
        <time>2008-10-12T07:57:04Z</time>
      </trkpt>
      <trkpt lat="47.3334" lon="0.04878">
        <ele>91</ele>
        <time>2008-10-12T07:57:00Z</time>
      </trkpt>
      <trkpt lat="47.3335" lon="0.04875">
        <ele>91</ele>
        <time>2008-10-12T07:56:56Z</time>
      </trkpt>
      <trkpt lat="47.33359" lon="0.04871">
        <ele>91</ele>
        <time>2008-10-12T07:56:52Z</time>
      </trkpt>
      <trkpt lat="47.3337" lon="0.04867">
        <ele>91</ele>
        <time>2008-10-12T07:56:47Z</time>
      </trkpt>
      <trkpt lat="47.3338" lon="0.04861">
        <ele>91</ele>
        <time>2008-10-12T07:56:43Z</time>
      </trkpt>
      <trkpt lat="47.3339" lon="0.04854">
        <ele>91</ele>
        <time>2008-10-12T07:56:38Z</time>
      </trkpt>
      <trkpt lat="47.334" lon="0.04848">
        <ele>91</ele>
        <time>2008-10-12T07:56:34Z</time>
      </trkpt>
      <trkpt lat="47.33408" lon="0.04841">
        <ele>91</ele>
        <time>2008-10-12T07:56:30Z</time>
      </trkpt>
      <trkpt lat="47.33416" lon="0.04833">
        <ele>91</ele>
        <time>2008-10-12T07:56:26Z</time>
      </trkpt>
      <trkpt lat="47.33423" lon="0.04824">
        <ele>91</ele>
        <time>2008-10-12T07:56:22Z</time>
      </trkpt>
      <trkpt lat="47.3343" lon="0.04811">
        <ele>91</ele>
        <time>2008-10-12T07:56:18Z</time>
      </trkpt>
      <trkpt lat="47.33435" lon="0.04797">
        <ele>85</ele>
        <time>2008-10-12T07:56:14Z</time>
      </trkpt>
      <trkpt lat="47.33442" lon="0.04786">
        <ele>85</ele>
        <time>2008-10-12T07:56:10Z</time>
      </trkpt>
      <trkpt lat="47.33447" lon="0.04774">
        <ele>85</ele>
        <time>2008-10-12T07:56:07Z</time>
      </trkpt>
      <trkpt lat="47.33452" lon="0.04759">
        <ele>79</ele>
        <time>2008-10-12T07:56:03Z</time>
      </trkpt>
      <trkpt lat="47.33455" lon="0.04747">
        <ele>79</ele>
        <time>2008-10-12T07:56:00Z</time>
      </trkpt>
      <trkpt lat="47.33459" lon="0.04735">
        <ele>79</ele>
        <time>2008-10-12T07:55:57Z</time>
      </trkpt>
      <trkpt lat="47.33466" lon="0.04725">
        <ele>79</ele>
        <time>2008-10-12T07:55:54Z</time>
      </trkpt>
      <trkpt lat="47.33471" lon="0.04711">
        <ele>79</ele>
        <time>2008-10-12T07:55:50Z</time>
      </trkpt>
      <trkpt lat="47.33477" lon="0.04697">
        <ele>79</ele>
        <time>2008-10-12T07:55:46Z</time>
      </trkpt>
      <trkpt lat="47.33483" lon="0.04683">
        <ele>79</ele>
        <time>2008-10-12T07:55:42Z</time>
      </trkpt>
      <trkpt lat="47.3349" lon="0.04669">
        <ele>79</ele>
        <time>2008-10-12T07:55:38Z</time>
      </trkpt>
      <trkpt lat="47.33496" lon="0.04657">
        <ele>79</ele>
        <time>2008-10-12T07:55:35Z</time>
      </trkpt>
      <trkpt lat="47.33503" lon="0.04643">
        <ele>73</ele>
        <time>2008-10-12T07:55:31Z</time>
      </trkpt>
      <trkpt lat="47.33509" lon="0.0463">
        <ele>73</ele>
        <time>2008-10-12T07:55:27Z</time>
      </trkpt>
      <trkpt lat="47.33514" lon="0.04617">
        <ele>73</ele>
        <time>2008-10-12T07:55:23Z</time>
      </trkpt>
      <trkpt lat="47.3352" lon="0.04605">
        <ele>73</ele>
        <time>2008-10-12T07:55:19Z</time>
      </trkpt>
      <trkpt lat="47.33527" lon="0.0459">
        <ele>73</ele>
        <time>2008-10-12T07:55:15Z</time>
      </trkpt>
      <trkpt lat="47.33533" lon="0.0458">
        <ele>68</ele>
        <time>2008-10-12T07:55:12Z</time>
      </trkpt>
      <trkpt lat="47.3354" lon="0.04569">
        <ele>68</ele>
        <time>2008-10-12T07:55:09Z</time>
      </trkpt>
      <trkpt lat="47.33547" lon="0.04558">
        <ele>68</ele>
        <time>2008-10-12T07:55:06Z</time>
      </trkpt>
      <trkpt lat="47.33554" lon="0.04547">
        <ele>68</ele>
        <time>2008-10-12T07:55:03Z</time>
      </trkpt>
      <trkpt lat="47.33561" lon="0.04537">
        <ele>68</ele>
        <time>2008-10-12T07:55:00Z</time>
      </trkpt>
      <trkpt lat="47.33568" lon="0.04528">
        <ele>68</ele>
        <time>2008-10-12T07:54:57Z</time>
      </trkpt>
      <trkpt lat="47.33576" lon="0.04518">
        <ele>68</ele>
        <time>2008-10-12T07:54:54Z</time>
      </trkpt>
      <trkpt lat="47.33584" lon="0.04509">
        <ele>68</ele>
        <time>2008-10-12T07:54:51Z</time>
      </trkpt>
      <trkpt lat="47.33592" lon="0.045">
        <ele>68</ele>
        <time>2008-10-12T07:54:48Z</time>
      </trkpt>
      <trkpt lat="47.336" lon="0.04491">
        <ele>68</ele>
        <time>2008-10-12T07:54:45Z</time>
      </trkpt>
      <trkpt lat="47.33609" lon="0.04481">
        <ele>68</ele>
        <time>2008-10-12T07:54:42Z</time>
      </trkpt>
      <trkpt lat="47.33616" lon="0.04471">
        <ele>68</ele>
        <time>2008-10-12T07:54:39Z</time>
      </trkpt>
      <trkpt lat="47.33625" lon="0.0446">
        <ele>68</ele>
        <time>2008-10-12T07:54:36Z</time>
      </trkpt>
      <trkpt lat="47.33634" lon="0.0445">
        <ele>68</ele>
        <time>2008-10-12T07:54:33Z</time>
      </trkpt>
      <trkpt lat="47.33643" lon="0.0444">
        <ele>68</ele>
        <time>2008-10-12T07:54:30Z</time>
      </trkpt>
      <trkpt lat="47.33652" lon="0.04429">
        <ele>62</ele>
        <time>2008-10-12T07:54:27Z</time>
      </trkpt>
      <trkpt lat="47.33661" lon="0.04421">
        <ele>62</ele>
        <time>2008-10-12T07:54:24Z</time>
      </trkpt>
      <trkpt lat="47.33671" lon="0.04412">
        <ele>62</ele>
        <time>2008-10-12T07:54:21Z</time>
      </trkpt>
      <trkpt lat="47.33679" lon="0.04398">
        <ele>62</ele>
        <time>2008-10-12T07:54:18Z</time>
      </trkpt>
      <trkpt lat="47.33685" lon="0.04387">
        <ele>62</ele>
        <time>2008-10-12T07:54:16Z</time>
      </trkpt>
      <trkpt lat="47.3369" lon="0.04377">
        <ele>62</ele>
        <time>2008-10-12T07:54:14Z</time>
      </trkpt>
      <trkpt lat="47.33697" lon="0.04366">
        <ele>62</ele>
        <time>2008-10-12T07:54:12Z</time>
      </trkpt>
      <trkpt lat="47.33704" lon="0.04357">
        <ele>62</ele>
        <time>2008-10-12T07:54:10Z</time>
      </trkpt>
      <trkpt lat="47.33712" lon="0.04342">
        <ele>62</ele>
        <time>2008-10-12T07:54:07Z</time>
      </trkpt>
      <trkpt lat="47.33717" lon="0.04332">
        <ele>62</ele>
        <time>2008-10-12T07:54:05Z</time>
      </trkpt>
      <trkpt lat="47.33723" lon="0.04319">
        <ele>62</ele>
        <time>2008-10-12T07:54:03Z</time>
      </trkpt>
      <trkpt lat="47.33728" lon="0.04306">
        <ele>62</ele>
        <time>2008-10-12T07:54:01Z</time>
      </trkpt>
      <trkpt lat="47.33733" lon="0.04292">
        <ele>62</ele>
        <time>2008-10-12T07:53:59Z</time>
      </trkpt>
      <trkpt lat="47.33737" lon="0.04279">
        <ele>62</ele>
        <time>2008-10-12T07:53:57Z</time>
      </trkpt>
      <trkpt lat="47.33742" lon="0.04266">
        <ele>62</ele>
        <time>2008-10-12T07:53:55Z</time>
      </trkpt>
      <trkpt lat="47.33746" lon="0.04253">
        <ele>62</ele>
        <time>2008-10-12T07:53:53Z</time>
      </trkpt>
      <trkpt lat="47.3375" lon="0.04241">
        <ele>62</ele>
        <time>2008-10-12T07:53:51Z</time>
      </trkpt>
      <trkpt lat="47.33754" lon="0.04229">
        <ele>62</ele>
        <time>2008-10-12T07:53:49Z</time>
      </trkpt>
      <trkpt lat="47.33758" lon="0.04216">
        <ele>62</ele>
        <time>2008-10-12T07:53:47Z</time>
      </trkpt>
      <trkpt lat="47.33761" lon="0.04203">
        <ele>62</ele>
        <time>2008-10-12T07:53:45Z</time>
      </trkpt>
      <trkpt lat="47.33765" lon="0.04191">
        <ele>62</ele>
        <time>2008-10-12T07:53:43Z</time>
      </trkpt>
      <trkpt lat="47.3377" lon="0.0418">
        <ele>62</ele>
        <time>2008-10-12T07:53:41Z</time>
      </trkpt>
      <trkpt lat="47.33775" lon="0.04169">
        <ele>62</ele>
        <time>2008-10-12T07:53:39Z</time>
      </trkpt>
      <trkpt lat="47.33781" lon="0.04159">
        <ele>62</ele>
        <time>2008-10-12T07:53:37Z</time>
      </trkpt>
      <trkpt lat="47.33787" lon="0.04142">
        <ele>62</ele>
        <time>2008-10-12T07:53:34Z</time>
      </trkpt>
      <trkpt lat="47.33792" lon="0.04131">
        <ele>62</ele>
        <time>2008-10-12T07:53:32Z</time>
      </trkpt>
      <trkpt lat="47.33797" lon="0.04119">
        <ele>62</ele>
        <time>2008-10-12T07:53:30Z</time>
      </trkpt>
      <trkpt lat="47.33801" lon="0.04107">
        <ele>56</ele>
        <time>2008-10-12T07:53:28Z</time>
      </trkpt>
      <trkpt lat="47.33806" lon="0.04095">
        <ele>56</ele>
        <time>2008-10-12T07:53:26Z</time>
      </trkpt>
      <trkpt lat="47.3381" lon="0.04083">
        <ele>56</ele>
        <time>2008-10-12T07:53:24Z</time>
      </trkpt>
      <trkpt lat="47.33816" lon="0.04066">
        <ele>56</ele>
        <time>2008-10-12T07:53:21Z</time>
      </trkpt>
      <trkpt lat="47.3382" lon="0.04053">
        <ele>56</ele>
        <time>2008-10-12T07:53:19Z</time>
      </trkpt>
      <trkpt lat="47.33827" lon="0.04037">
        <ele>56</ele>
        <time>2008-10-12T07:53:16Z</time>
      </trkpt>
      <trkpt lat="47.33835" lon="0.04022">
        <ele>56</ele>
        <time>2008-10-12T07:53:13Z</time>
      </trkpt>
      <trkpt lat="47.33839" lon="0.04006">
        <ele>56</ele>
        <time>2008-10-12T07:53:10Z</time>
      </trkpt>
      <trkpt lat="47.33845" lon="0.03991">
        <ele>56</ele>
        <time>2008-10-12T07:53:07Z</time>
      </trkpt>
      <trkpt lat="47.33852" lon="0.03976">
        <ele>56</ele>
        <time>2008-10-12T07:53:04Z</time>
      </trkpt>
      <trkpt lat="47.33858" lon="0.0396">
        <ele>56</ele>
        <time>2008-10-12T07:53:01Z</time>
      </trkpt>
      <trkpt lat="47.33865" lon="0.03944">
        <ele>56</ele>
        <time>2008-10-12T07:52:58Z</time>
      </trkpt>
      <trkpt lat="47.3387" lon="0.03932">
        <ele>56</ele>
        <time>2008-10-12T07:52:56Z</time>
      </trkpt>
      <trkpt lat="47.33877" lon="0.03916">
        <ele>56</ele>
        <time>2008-10-12T07:52:53Z</time>
      </trkpt>
      <trkpt lat="47.33881" lon="0.03903">
        <ele>56</ele>
        <time>2008-10-12T07:52:51Z</time>
      </trkpt>
      <trkpt lat="47.33888" lon="0.03887">
        <ele>56</ele>
        <time>2008-10-12T07:52:48Z</time>
      </trkpt>
      <trkpt lat="47.33894" lon="0.03875">
        <ele>56</ele>
        <time>2008-10-12T07:52:46Z</time>
      </trkpt>
      <trkpt lat="47.33901" lon="0.03859">
        <ele>56</ele>
        <time>2008-10-12T07:52:43Z</time>
      </trkpt>
      <trkpt lat="47.33906" lon="0.03848">
        <ele>56</ele>
        <time>2008-10-12T07:52:41Z</time>
      </trkpt>
      <trkpt lat="47.33913" lon="0.03832">
        <ele>56</ele>
        <time>2008-10-12T07:52:38Z</time>
      </trkpt>
      <trkpt lat="47.33919" lon="0.0382">
        <ele>56</ele>
        <time>2008-10-12T07:52:35Z</time>
      </trkpt>
      <trkpt lat="47.33928" lon="0.03821">
        <ele>56</ele>
        <time>2008-10-12T07:52:32Z</time>
      </trkpt>
      <trkpt lat="47.33934" lon="0.03833">
        <ele>56</ele>
        <time>2008-10-12T07:52:30Z</time>
      </trkpt>
      <trkpt lat="47.33939" lon="0.03848">
        <ele>56</ele>
        <time>2008-10-12T07:52:28Z</time>
      </trkpt>
      <trkpt lat="47.33945" lon="0.03865">
        <ele>61</ele>
        <time>2008-10-12T07:52:26Z</time>
      </trkpt>
      <trkpt lat="47.33951" lon="0.03882">
        <ele>61</ele>
        <time>2008-10-12T07:52:24Z</time>
      </trkpt>
      <trkpt lat="47.33958" lon="0.03899">
        <ele>61</ele>
        <time>2008-10-12T07:52:22Z</time>
      </trkpt>
      <trkpt lat="47.33963" lon="0.03917">
        <ele>61</ele>
        <time>2008-10-12T07:52:20Z</time>
      </trkpt>
      <trkpt lat="47.33971" lon="0.03935">
        <ele>61</ele>
        <time>2008-10-12T07:52:18Z</time>
      </trkpt>
      <trkpt lat="47.33979" lon="0.03952">
        <ele>61</ele>
        <time>2008-10-12T07:52:16Z</time>
      </trkpt>
      <trkpt lat="47.33989" lon="0.03969">
        <ele>67</ele>
        <time>2008-10-12T07:52:14Z</time>
      </trkpt>
      <trkpt lat="47.33999" lon="0.03985">
        <ele>67</ele>
        <time>2008-10-12T07:52:12Z</time>
      </trkpt>
      <trkpt lat="47.34009" lon="0.04001">
        <ele>67</ele>
        <time>2008-10-12T07:52:10Z</time>
      </trkpt>
      <trkpt lat="47.3402" lon="0.04016">
        <ele>67</ele>
        <time>2008-10-12T07:52:08Z</time>
      </trkpt>
      <trkpt lat="47.34031" lon="0.04028">
        <ele>67</ele>
        <time>2008-10-12T07:52:06Z</time>
      </trkpt>
      <trkpt lat="47.34042" lon="0.0404">
        <ele>73</ele>
        <time>2008-10-12T07:52:04Z</time>
      </trkpt>
      <trkpt lat="47.34053" lon="0.04049">
        <ele>73</ele>
        <time>2008-10-12T07:52:02Z</time>
      </trkpt>
      <trkpt lat="47.34062" lon="0.04057">
        <ele>73</ele>
        <time>2008-10-12T07:52:00Z</time>
      </trkpt>
      <trkpt lat="47.34071" lon="0.04064">
        <ele>73</ele>
        <time>2008-10-12T07:51:58Z</time>
      </trkpt>
      <trkpt lat="47.34081" lon="0.04077">
        <ele>73</ele>
        <time>2008-10-12T07:51:55Z</time>
      </trkpt>
      <trkpt lat="47.34088" lon="0.04089">
        <ele>73</ele>
        <time>2008-10-12T07:51:52Z</time>
      </trkpt>
      <trkpt lat="47.34095" lon="0.04103">
        <ele>73</ele>
        <time>2008-10-12T07:51:48Z</time>
      </trkpt>
      <trkpt lat="47.34101" lon="0.04114">
        <ele>73</ele>
        <time>2008-10-12T07:51:06Z</time>
      </trkpt>
      <trkpt lat="47.34109" lon="0.04121">
        <ele>73</ele>
        <time>2008-10-12T07:51:04Z</time>
      </trkpt>
      <trkpt lat="47.34123" lon="0.04131">
        <ele>79</ele>
        <time>2008-10-12T07:51:02Z</time>
      </trkpt>
      <trkpt lat="47.34131" lon="0.04137">
        <ele>79</ele>
        <time>2008-10-12T07:51:01Z</time>
      </trkpt>
      <trkpt lat="47.34145" lon="0.04149">
        <ele>79</ele>
        <time>2008-10-12T07:50:59Z</time>
      </trkpt>
      <trkpt lat="47.34158" lon="0.04162">
        <ele>79</ele>
        <time>2008-10-12T07:50:57Z</time>
      </trkpt>
      <trkpt lat="47.34171" lon="0.04173">
        <ele>79</ele>
        <time>2008-10-12T07:50:55Z</time>
      </trkpt>
      <trkpt lat="47.34185" lon="0.04182">
        <ele>79</ele>
        <time>2008-10-12T07:50:53Z</time>
      </trkpt>
      <trkpt lat="47.34199" lon="0.04187">
        <ele>79</ele>
        <time>2008-10-12T07:50:51Z</time>
      </trkpt>
      <trkpt lat="47.34212" lon="0.0418">
        <ele>79</ele>
        <time>2008-10-12T07:50:49Z</time>
      </trkpt>
      <trkpt lat="47.34224" lon="0.04166">
        <ele>79</ele>
        <time>2008-10-12T07:50:47Z</time>
      </trkpt>
      <trkpt lat="47.34236" lon="0.0415">
        <ele>79</ele>
        <time>2008-10-12T07:50:45Z</time>
      </trkpt>
      <trkpt lat="47.34247" lon="0.04135">
        <ele>85</ele>
        <time>2008-10-12T07:50:43Z</time>
      </trkpt>
      <trkpt lat="47.34258" lon="0.04121">
        <ele>85</ele>
        <time>2008-10-12T07:50:41Z</time>
      </trkpt>
      <trkpt lat="47.34269" lon="0.04109">
        <ele>85</ele>
        <time>2008-10-12T07:50:39Z</time>
      </trkpt>
      <trkpt lat="47.34281" lon="0.04101">
        <ele>91</ele>
        <time>2008-10-12T07:50:37Z</time>
      </trkpt>
      <trkpt lat="47.34292" lon="0.04095">
        <ele>91</ele>
        <time>2008-10-12T07:50:35Z</time>
      </trkpt>
      <trkpt lat="47.34304" lon="0.04088">
        <ele>99</ele>
        <time>2008-10-12T07:50:33Z</time>
      </trkpt>
      <trkpt lat="47.34314" lon="0.04078">
        <ele>99</ele>
        <time>2008-10-12T07:50:31Z</time>
      </trkpt>
      <trkpt lat="47.34324" lon="0.0407">
        <ele>99</ele>
        <time>2008-10-12T07:50:29Z</time>
      </trkpt>
      <trkpt lat="47.34336" lon="0.04067">
        <ele>99</ele>
        <time>2008-10-12T07:50:26Z</time>
      </trkpt>
      <trkpt lat="47.34346" lon="0.04068">
        <ele>99</ele>
        <time>2008-10-12T07:50:23Z</time>
      </trkpt>
      <trkpt lat="47.34355" lon="0.04069">
        <ele>107</ele>
        <time>2008-10-12T07:50:19Z</time>
      </trkpt>
      <trkpt lat="47.34367" lon="0.04071">
        <ele>107</ele>
        <time>2008-10-12T07:50:16Z</time>
      </trkpt>
      <trkpt lat="47.34378" lon="0.04072">
        <ele>114</ele>
        <time>2008-10-12T07:50:14Z</time>
      </trkpt>
      <trkpt lat="47.34393" lon="0.04076">
        <ele>114</ele>
        <time>2008-10-12T07:50:12Z</time>
      </trkpt>
      <trkpt lat="47.34407" lon="0.0408">
        <ele>114</ele>
        <time>2008-10-12T07:50:10Z</time>
      </trkpt>
      <trkpt lat="47.34419" lon="0.04085">
        <ele>114</ele>
        <time>2008-10-12T07:50:08Z</time>
      </trkpt>
      <trkpt lat="47.34433" lon="0.04088">
        <ele>114</ele>
        <time>2008-10-12T07:50:06Z</time>
      </trkpt>
      <trkpt lat="47.34446" lon="0.04094">
        <ele>114</ele>
        <time>2008-10-12T07:50:04Z</time>
      </trkpt>
      <trkpt lat="47.34457" lon="0.04097">
        <ele>114</ele>
        <time>2008-10-12T07:50:02Z</time>
      </trkpt>
      <trkpt lat="47.34469" lon="0.04096">
        <ele>109</ele>
        <time>2008-10-12T07:50:00Z</time>
      </trkpt>
      <trkpt lat="47.34481" lon="0.0409">
        <ele>109</ele>
        <time>2008-10-12T07:49:58Z</time>
      </trkpt>
      <trkpt lat="47.34491" lon="0.04079">
        <ele>109</ele>
        <time>2008-10-12T07:49:56Z</time>
      </trkpt>
      <trkpt lat="47.34497" lon="0.04068">
        <ele>109</ele>
        <time>2008-10-12T07:49:54Z</time>
      </trkpt>
      <trkpt lat="47.34503" lon="0.04056">
        <ele>109</ele>
        <time>2008-10-12T07:49:52Z</time>
      </trkpt>
      <trkpt lat="47.34509" lon="0.04046">
        <ele>109</ele>
        <time>2008-10-12T07:49:50Z</time>
      </trkpt>
      <trkpt lat="47.34512" lon="0.04033">
        <ele>109</ele>
        <time>2008-10-12T07:49:48Z</time>
      </trkpt>
      <trkpt lat="47.34515" lon="0.0402">
        <ele>109</ele>
        <time>2008-10-12T07:49:46Z</time>
      </trkpt>
      <trkpt lat="47.34521" lon="0.04001">
        <ele>109</ele>
        <time>2008-10-12T07:49:43Z</time>
      </trkpt>
      <trkpt lat="47.34524" lon="0.03989">
        <ele>109</ele>
        <time>2008-10-12T07:49:41Z</time>
      </trkpt>
      <trkpt lat="47.34526" lon="0.03973">
        <ele>109</ele>
        <time>2008-10-12T07:49:39Z</time>
      </trkpt>
      <trkpt lat="47.34526" lon="0.03957">
        <ele>109</ele>
        <time>2008-10-12T07:49:37Z</time>
      </trkpt>
      <trkpt lat="47.34529" lon="0.03939">
        <ele>109</ele>
        <time>2008-10-12T07:49:34Z</time>
      </trkpt>
      <trkpt lat="47.34531" lon="0.03925">
        <ele>109</ele>
        <time>2008-10-12T07:49:32Z</time>
      </trkpt>
      <trkpt lat="47.34532" lon="0.0391">
        <ele>109</ele>
        <time>2008-10-12T07:49:30Z</time>
      </trkpt>
      <trkpt lat="47.34531" lon="0.03894">
        <ele>109</ele>
        <time>2008-10-12T07:49:28Z</time>
      </trkpt>
      <trkpt lat="47.34529" lon="0.03881">
        <ele>109</ele>
        <time>2008-10-12T07:49:26Z</time>
      </trkpt>
      <trkpt lat="47.34523" lon="0.03864">
        <ele>109</ele>
        <time>2008-10-12T07:49:23Z</time>
      </trkpt>
      <trkpt lat="47.34518" lon="0.03848">
        <ele>115</ele>
        <time>2008-10-12T07:49:20Z</time>
      </trkpt>
      <trkpt lat="47.34512" lon="0.0383">
        <ele>115</ele>
        <time>2008-10-12T07:49:17Z</time>
      </trkpt>
      <trkpt lat="47.34509" lon="0.03818">
        <ele>115</ele>
        <time>2008-10-12T07:49:15Z</time>
      </trkpt>
      <trkpt lat="47.34506" lon="0.03802">
        <ele>115</ele>
        <time>2008-10-12T07:49:12Z</time>
      </trkpt>
      <trkpt lat="47.34502" lon="0.03785">
        <ele>115</ele>
        <time>2008-10-12T07:49:09Z</time>
      </trkpt>
      <trkpt lat="47.34502" lon="0.03771">
        <ele>115</ele>
        <time>2008-10-12T07:49:07Z</time>
      </trkpt>
      <trkpt lat="47.34502" lon="0.03758">
        <ele>115</ele>
        <time>2008-10-12T07:49:05Z</time>
      </trkpt>
      <trkpt lat="47.34505" lon="0.03743">
        <ele>115</ele>
        <time>2008-10-12T07:49:03Z</time>
      </trkpt>
      <trkpt lat="47.34509" lon="0.03732">
        <ele>115</ele>
        <time>2008-10-12T07:49:01Z</time>
      </trkpt>
      <trkpt lat="47.34514" lon="0.03719">
        <ele>115</ele>
        <time>2008-10-12T07:48:59Z</time>
      </trkpt>
      <trkpt lat="47.3452" lon="0.03706">
        <ele>115</ele>
        <time>2008-10-12T07:48:57Z</time>
      </trkpt>
      <trkpt lat="47.34525" lon="0.03692">
        <ele>115</ele>
        <time>2008-10-12T07:48:55Z</time>
      </trkpt>
      <trkpt lat="47.34529" lon="0.03678">
        <ele>115</ele>
        <time>2008-10-12T07:48:53Z</time>
      </trkpt>
      <trkpt lat="47.34531" lon="0.03664">
        <ele>115</ele>
        <time>2008-10-12T07:48:51Z</time>
      </trkpt>
      <trkpt lat="47.34535" lon="0.03652">
        <ele>115</ele>
        <time>2008-10-12T07:48:49Z</time>
      </trkpt>
      <trkpt lat="47.34539" lon="0.03638">
        <ele>115</ele>
        <time>2008-10-12T07:48:47Z</time>
      </trkpt>
      <trkpt lat="47.34543" lon="0.03626">
        <ele>115</ele>
        <time>2008-10-12T07:48:45Z</time>
      </trkpt>
      <trkpt lat="47.34548" lon="0.03613">
        <ele>115</ele>
        <time>2008-10-12T07:48:43Z</time>
      </trkpt>
      <trkpt lat="47.34554" lon="0.03601">
        <ele>115</ele>
        <time>2008-10-12T07:48:41Z</time>
      </trkpt>
      <trkpt lat="47.3456" lon="0.03591">
        <ele>115</ele>
        <time>2008-10-12T07:48:39Z</time>
      </trkpt>
      <trkpt lat="47.34565" lon="0.03577">
        <ele>115</ele>
        <time>2008-10-12T07:48:37Z</time>
      </trkpt>
      <trkpt lat="47.34568" lon="0.0356">
        <ele>115</ele>
        <time>2008-10-12T07:48:35Z</time>
      </trkpt>
      <trkpt lat="47.34569" lon="0.0354">
        <ele>115</ele>
        <time>2008-10-12T07:48:32Z</time>
      </trkpt>
      <trkpt lat="47.34562" lon="0.03526">
        <ele>115</ele>
        <time>2008-10-12T07:48:30Z</time>
      </trkpt>
      <trkpt lat="47.34554" lon="0.03514">
        <ele>115</ele>
        <time>2008-10-12T07:48:27Z</time>
      </trkpt>
      <trkpt lat="47.34545" lon="0.03505">
        <ele>115</ele>
        <time>2008-10-12T07:48:24Z</time>
      </trkpt>
      <trkpt lat="47.34533" lon="0.035">
        <ele>109</ele>
        <time>2008-10-12T07:48:21Z</time>
      </trkpt>
      <trkpt lat="47.34521" lon="0.03496">
        <ele>109</ele>
        <time>2008-10-12T07:48:18Z</time>
      </trkpt>
      <trkpt lat="47.34512" lon="0.03494">
        <ele>109</ele>
        <time>2008-10-12T07:48:16Z</time>
      </trkpt>
      <trkpt lat="47.345" lon="0.03492">
        <ele>109</ele>
        <time>2008-10-12T07:48:13Z</time>
      </trkpt>
      <trkpt lat="47.34491" lon="0.03487">
        <ele>109</ele>
        <time>2008-10-12T07:48:10Z</time>
      </trkpt>
      <trkpt lat="47.34487" lon="0.03472">
        <ele>109</ele>
        <time>2008-10-12T07:48:03Z</time>
      </trkpt>
      <trkpt lat="47.34496" lon="0.03469">
        <ele>109</ele>
        <time>2008-10-12T07:48:00Z</time>
      </trkpt>
      <trkpt lat="47.34507" lon="0.03467">
        <ele>109</ele>
        <time>2008-10-12T07:47:58Z</time>
      </trkpt>
      <trkpt lat="47.34518" lon="0.0346">
        <ele>109</ele>
        <time>2008-10-12T07:47:56Z</time>
      </trkpt>
      <trkpt lat="47.34526" lon="0.03448">
        <ele>109</ele>
        <time>2008-10-12T07:47:54Z</time>
      </trkpt>
      <trkpt lat="47.34534" lon="0.03435">
        <ele>109</ele>
        <time>2008-10-12T07:47:52Z</time>
      </trkpt>
      <trkpt lat="47.34541" lon="0.03423">
        <ele>109</ele>
        <time>2008-10-12T07:47:50Z</time>
      </trkpt>
      <trkpt lat="47.34548" lon="0.03414">
        <ele>109</ele>
        <time>2008-10-12T07:47:48Z</time>
      </trkpt>
      <trkpt lat="47.34554" lon="0.03401">
        <ele>109</ele>
        <time>2008-10-12T07:47:46Z</time>
      </trkpt>
      <trkpt lat="47.34559" lon="0.03387">
        <ele>109</ele>
        <time>2008-10-12T07:47:44Z</time>
      </trkpt>
      <trkpt lat="47.34565" lon="0.03375">
        <ele>109</ele>
        <time>2008-10-12T07:47:42Z</time>
      </trkpt>
      <trkpt lat="47.34573" lon="0.03358">
        <ele>109</ele>
        <time>2008-10-12T07:47:39Z</time>
      </trkpt>
      <trkpt lat="47.34581" lon="0.03346">
        <ele>109</ele>
        <time>2008-10-12T07:47:36Z</time>
      </trkpt>
      <trkpt lat="47.34587" lon="0.03333">
        <ele>109</ele>
        <time>2008-10-12T07:47:33Z</time>
      </trkpt>
      <trkpt lat="47.34593" lon="0.03317">
        <ele>109</ele>
        <time>2008-10-12T07:47:30Z</time>
      </trkpt>
      <trkpt lat="47.346" lon="0.03301">
        <ele>109</ele>
        <time>2008-10-12T07:47:27Z</time>
      </trkpt>
      <trkpt lat="47.34605" lon="0.03283">
        <ele>109</ele>
        <time>2008-10-12T07:47:24Z</time>
      </trkpt>
      <trkpt lat="47.34606" lon="0.03266">
        <ele>117</ele>
        <time>2008-10-12T07:44:21Z</time>
      </trkpt>
      <trkpt lat="47.34601" lon="0.03278">
        <ele>109</ele>
        <time>2008-10-12T07:40:00Z</time>
      </trkpt>
      <trkpt lat="47.34606" lon="0.03266">
        <ele>109</ele>
        <time>2008-10-12T07:39:37Z</time>
      </trkpt>
      <trkpt lat="47.34614" lon="0.0325">
        <ele>109</ele>
        <time>2008-10-12T07:39:34Z</time>
      </trkpt>
      <trkpt lat="47.34618" lon="0.03238">
        <ele>109</ele>
        <time>2008-10-12T07:39:32Z</time>
      </trkpt>
      <trkpt lat="47.34625" lon="0.03227">
        <ele>109</ele>
        <time>2008-10-12T07:39:30Z</time>
      </trkpt>
      <trkpt lat="47.34631" lon="0.03216">
        <ele>109</ele>
        <time>2008-10-12T07:39:28Z</time>
      </trkpt>
      <trkpt lat="47.34636" lon="0.03202">
        <ele>109</ele>
        <time>2008-10-12T07:39:26Z</time>
      </trkpt>
      <trkpt lat="47.34639" lon="0.03188">
        <ele>109</ele>
        <time>2008-10-12T07:39:24Z</time>
      </trkpt>
      <trkpt lat="47.34644" lon="0.03175">
        <ele>109</ele>
        <time>2008-10-12T07:39:22Z</time>
      </trkpt>
      <trkpt lat="47.3465" lon="0.03162">
        <ele>109</ele>
        <time>2008-10-12T07:39:20Z</time>
      </trkpt>
      <trkpt lat="47.34658" lon="0.03148">
        <ele>109</ele>
        <time>2008-10-12T07:39:18Z</time>
      </trkpt>
      <trkpt lat="47.34666" lon="0.03134">
        <ele>109</ele>
        <time>2008-10-12T07:39:16Z</time>
      </trkpt>
      <trkpt lat="47.34672" lon="0.03121">
        <ele>109</ele>
        <time>2008-10-12T07:39:14Z</time>
      </trkpt>
      <trkpt lat="47.34677" lon="0.03106">
        <ele>109</ele>
        <time>2008-10-12T07:39:12Z</time>
      </trkpt>
      <trkpt lat="47.34681" lon="0.0309">
        <ele>109</ele>
        <time>2008-10-12T07:39:10Z</time>
      </trkpt>
      <trkpt lat="47.34686" lon="0.03076">
        <ele>115</ele>
        <time>2008-10-12T07:39:08Z</time>
      </trkpt>
      <trkpt lat="47.3469" lon="0.03061">
        <ele>115</ele>
        <time>2008-10-12T07:39:06Z</time>
      </trkpt>
      <trkpt lat="47.34692" lon="0.03047">
        <ele>115</ele>
        <time>2008-10-12T07:39:04Z</time>
      </trkpt>
      <trkpt lat="47.34695" lon="0.03034">
        <ele>115</ele>
        <time>2008-10-12T07:39:02Z</time>
      </trkpt>
      <trkpt lat="47.347" lon="0.03016">
        <ele>115</ele>
        <time>2008-10-12T07:38:59Z</time>
      </trkpt>
      <trkpt lat="47.34705" lon="0.02999">
        <ele>115</ele>
        <time>2008-10-12T07:38:56Z</time>
      </trkpt>
      <trkpt lat="47.3471" lon="0.02986">
        <ele>115</ele>
        <time>2008-10-12T07:38:53Z</time>
      </trkpt>
      <trkpt lat="47.3472" lon="0.02975">
        <ele>115</ele>
        <time>2008-10-12T07:38:50Z</time>
      </trkpt>
      <trkpt lat="47.3473" lon="0.02963">
        <ele>115</ele>
        <time>2008-10-12T07:38:47Z</time>
      </trkpt>
      <trkpt lat="47.34736" lon="0.02954">
        <ele>115</ele>
        <time>2008-10-12T07:38:45Z</time>
      </trkpt>
      <trkpt lat="47.34741" lon="0.02937">
        <ele>115</ele>
        <time>2008-10-12T07:38:42Z</time>
      </trkpt>
      <trkpt lat="47.34743" lon="0.02923">
        <ele>109</ele>
        <time>2008-10-12T07:38:40Z</time>
      </trkpt>
      <trkpt lat="47.34748" lon="0.02905">
        <ele>109</ele>
        <time>2008-10-12T07:38:37Z</time>
      </trkpt>
      <trkpt lat="47.34753" lon="0.02888">
        <ele>109</ele>
        <time>2008-10-12T07:38:34Z</time>
      </trkpt>
      <trkpt lat="47.34759" lon="0.02872">
        <ele>109</ele>
        <time>2008-10-12T07:38:31Z</time>
      </trkpt>
      <trkpt lat="47.34764" lon="0.02857">
        <ele>109</ele>
        <time>2008-10-12T07:38:28Z</time>
      </trkpt>
      <trkpt lat="47.34767" lon="0.02842">
        <ele>109</ele>
        <time>2008-10-12T07:38:25Z</time>
      </trkpt>
      <trkpt lat="47.34772" lon="0.02827">
        <ele>109</ele>
        <time>2008-10-12T07:38:22Z</time>
      </trkpt>
      <trkpt lat="47.34781" lon="0.02815">
        <ele>114</ele>
        <time>2008-10-12T07:38:19Z</time>
      </trkpt>
      <trkpt lat="47.34792" lon="0.0281">
        <ele>114</ele>
        <time>2008-10-12T07:38:16Z</time>
      </trkpt>
      <trkpt lat="47.34802" lon="0.02801">
        <ele>114</ele>
        <time>2008-10-12T07:38:13Z</time>
      </trkpt>
      <trkpt lat="47.34813" lon="0.02792">
        <ele>114</ele>
        <time>2008-10-12T07:38:10Z</time>
      </trkpt>
      <trkpt lat="47.34825" lon="0.02795">
        <ele>114</ele>
        <time>2008-10-12T07:38:07Z</time>
      </trkpt>
      <trkpt lat="47.34837" lon="0.02802">
        <ele>114</ele>
        <time>2008-10-12T07:38:04Z</time>
      </trkpt>
      <trkpt lat="47.34846" lon="0.02806">
        <ele>114</ele>
        <time>2008-10-12T07:38:02Z</time>
      </trkpt>
      <trkpt lat="47.34855" lon="0.02811">
        <ele>121</ele>
        <time>2008-10-12T07:38:00Z</time>
      </trkpt>
      <trkpt lat="47.34867" lon="0.02819">
        <ele>121</ele>
        <time>2008-10-12T07:37:57Z</time>
      </trkpt>
      <trkpt lat="47.34876" lon="0.02823">
        <ele>121</ele>
        <time>2008-10-12T07:37:55Z</time>
      </trkpt>
      <trkpt lat="47.34887" lon="0.0283">
        <ele>116</ele>
        <time>2008-10-12T07:37:51Z</time>
      </trkpt>
      <trkpt lat="47.34899" lon="0.02829">
        <ele>110</ele>
        <time>2008-10-12T07:37:48Z</time>
      </trkpt>
      <trkpt lat="47.34908" lon="0.02818">
        <ele>110</ele>
        <time>2008-10-12T07:37:45Z</time>
      </trkpt>
      <trkpt lat="47.34917" lon="0.02807">
        <ele>104</ele>
        <time>2008-10-12T07:37:42Z</time>
      </trkpt>
      <trkpt lat="47.34923" lon="0.02796">
        <ele>104</ele>
        <time>2008-10-12T07:37:39Z</time>
      </trkpt>
      <trkpt lat="47.3493" lon="0.02787">
        <ele>104</ele>
        <time>2008-10-12T07:37:36Z</time>
      </trkpt>
      <trkpt lat="47.34941" lon="0.02785">
        <ele>109</ele>
        <time>2008-10-12T07:37:32Z</time>
      </trkpt>
      <trkpt lat="47.3495" lon="0.02789">
        <ele>109</ele>
        <time>2008-10-12T07:37:29Z</time>
      </trkpt>
      <trkpt lat="47.34959" lon="0.02794">
        <ele>109</ele>
        <time>2008-10-12T07:37:26Z</time>
      </trkpt>
      <trkpt lat="47.34968" lon="0.02799">
        <ele>109</ele>
        <time>2008-10-12T07:37:23Z</time>
      </trkpt>
      <trkpt lat="47.34977" lon="0.02805">
        <ele>109</ele>
        <time>2008-10-12T07:37:20Z</time>
      </trkpt>
      <trkpt lat="47.34986" lon="0.02811">
        <ele>109</ele>
        <time>2008-10-12T07:37:17Z</time>
      </trkpt>
      <trkpt lat="47.34997" lon="0.02816">
        <ele>109</ele>
        <time>2008-10-12T07:37:14Z</time>
      </trkpt>
      <trkpt lat="47.35007" lon="0.0282">
        <ele>109</ele>
        <time>2008-10-12T07:37:11Z</time>
      </trkpt>
      <trkpt lat="47.35018" lon="0.02822">
        <ele>109</ele>
        <time>2008-10-12T07:37:08Z</time>
      </trkpt>
      <trkpt lat="47.35029" lon="0.02823">
        <ele>109</ele>
        <time>2008-10-12T07:37:05Z</time>
      </trkpt>
      <trkpt lat="47.3504" lon="0.02826">
        <ele>109</ele>
        <time>2008-10-12T07:37:02Z</time>
      </trkpt>
      <trkpt lat="47.35049" lon="0.02828">
        <ele>109</ele>
        <time>2008-10-12T07:36:59Z</time>
      </trkpt>
      <trkpt lat="47.35059" lon="0.02831">
        <ele>109</ele>
        <time>2008-10-12T07:36:56Z</time>
      </trkpt>
      <trkpt lat="47.35069" lon="0.02835">
        <ele>109</ele>
        <time>2008-10-12T07:36:53Z</time>
      </trkpt>
      <trkpt lat="47.35081" lon="0.02841">
        <ele>109</ele>
        <time>2008-10-12T07:36:50Z</time>
      </trkpt>
      <trkpt lat="47.35093" lon="0.02842">
        <ele>109</ele>
        <time>2008-10-12T07:36:47Z</time>
      </trkpt>
      <trkpt lat="47.35105" lon="0.02842">
        <ele>109</ele>
        <time>2008-10-12T07:36:44Z</time>
      </trkpt>
      <trkpt lat="47.35116" lon="0.02844">
        <ele>109</ele>
        <time>2008-10-12T07:36:41Z</time>
      </trkpt>
      <trkpt lat="47.35127" lon="0.02849">
        <ele>109</ele>
        <time>2008-10-12T07:36:38Z</time>
      </trkpt>
      <trkpt lat="47.35137" lon="0.02854">
        <ele>109</ele>
        <time>2008-10-12T07:36:35Z</time>
      </trkpt>
      <trkpt lat="47.35147" lon="0.02861">
        <ele>109</ele>
        <time>2008-10-12T07:36:32Z</time>
      </trkpt>
      <trkpt lat="47.35159" lon="0.02869">
        <ele>109</ele>
        <time>2008-10-12T07:36:29Z</time>
      </trkpt>
      <trkpt lat="47.35167" lon="0.02876">
        <ele>109</ele>
        <time>2008-10-12T07:36:27Z</time>
      </trkpt>
      <trkpt lat="47.35176" lon="0.02881">
        <ele>117</ele>
        <time>2008-10-12T07:36:25Z</time>
      </trkpt>
      <trkpt lat="47.35184" lon="0.02885">
        <ele>117</ele>
        <time>2008-10-12T07:36:23Z</time>
      </trkpt>
      <trkpt lat="47.35192" lon="0.02892">
        <ele>123</ele>
        <time>2008-10-12T07:36:20Z</time>
      </trkpt>
      <trkpt lat="47.35202" lon="0.02902">
        <ele>123</ele>
        <time>2008-10-12T07:36:16Z</time>
      </trkpt>
      <trkpt lat="47.35211" lon="0.02911">
        <ele>112</ele>
        <time>2008-10-12T07:36:11Z</time>
      </trkpt>
      <trkpt lat="47.35221" lon="0.02919">
        <ele>112</ele>
        <time>2008-10-12T07:36:07Z</time>
      </trkpt>
      <trkpt lat="47.35231" lon="0.02915">
        <ele>112</ele>
        <time>2008-10-12T07:36:04Z</time>
      </trkpt>
      <trkpt lat="47.35241" lon="0.02905">
        <ele>112</ele>
        <time>2008-10-12T07:36:01Z</time>
      </trkpt>
      <trkpt lat="47.35247" lon="0.0289">
        <ele>112</ele>
        <time>2008-10-12T07:35:58Z</time>
      </trkpt>
      <trkpt lat="47.35252" lon="0.02874">
        <ele>112</ele>
        <time>2008-10-12T07:35:55Z</time>
      </trkpt>
      <trkpt lat="47.35255" lon="0.02857">
        <ele>112</ele>
        <time>2008-10-12T07:35:52Z</time>
      </trkpt>
      <trkpt lat="47.35259" lon="0.02841">
        <ele>112</ele>
        <time>2008-10-12T07:35:49Z</time>
      </trkpt>
      <trkpt lat="47.35263" lon="0.02828">
        <ele>112</ele>
        <time>2008-10-12T07:35:46Z</time>
      </trkpt>
      <trkpt lat="47.35267" lon="0.02815">
        <ele>112</ele>
        <time>2008-10-12T07:35:43Z</time>
      </trkpt>
      <trkpt lat="47.35271" lon="0.02802">
        <ele>112</ele>
        <time>2008-10-12T07:35:40Z</time>
      </trkpt>
      <trkpt lat="47.35277" lon="0.02789">
        <ele>112</ele>
        <time>2008-10-12T07:35:37Z</time>
      </trkpt>
      <trkpt lat="47.35283" lon="0.02776">
        <ele>112</ele>
        <time>2008-10-12T07:35:34Z</time>
      </trkpt>
      <trkpt lat="47.35288" lon="0.02763">
        <ele>112</ele>
        <time>2008-10-12T07:35:31Z</time>
      </trkpt>
      <trkpt lat="47.35293" lon="0.02752">
        <ele>112</ele>
        <time>2008-10-12T07:35:28Z</time>
      </trkpt>
      <trkpt lat="47.35297" lon="0.0274">
        <ele>112</ele>
        <time>2008-10-12T07:35:25Z</time>
      </trkpt>
      <trkpt lat="47.35303" lon="0.02729">
        <ele>112</ele>
        <time>2008-10-12T07:35:22Z</time>
      </trkpt>
      <trkpt lat="47.3531" lon="0.0272">
        <ele>112</ele>
        <time>2008-10-12T07:35:19Z</time>
      </trkpt>
      <trkpt lat="47.35317" lon="0.02712">
        <ele>112</ele>
        <time>2008-10-12T07:35:16Z</time>
      </trkpt>
      <trkpt lat="47.35325" lon="0.02706">
        <ele>112</ele>
        <time>2008-10-12T07:35:13Z</time>
      </trkpt>
      <trkpt lat="47.35334" lon="0.02699">
        <ele>112</ele>
        <time>2008-10-12T07:35:09Z</time>
      </trkpt>
      <trkpt lat="47.35343" lon="0.02688">
        <ele>112</ele>
        <time>2008-10-12T07:35:05Z</time>
      </trkpt>
      <trkpt lat="47.3535" lon="0.02675">
        <ele>106</ele>
        <time>2008-10-12T07:35:02Z</time>
      </trkpt>
      <trkpt lat="47.35356" lon="0.0266">
        <ele>106</ele>
        <time>2008-10-12T07:34:59Z</time>
      </trkpt>
      <trkpt lat="47.35362" lon="0.02646">
        <ele>106</ele>
        <time>2008-10-12T07:34:56Z</time>
      </trkpt>
      <trkpt lat="47.35366" lon="0.0263">
        <ele>106</ele>
        <time>2008-10-12T07:34:52Z</time>
      </trkpt>
      <trkpt lat="47.3537" lon="0.02616">
        <ele>106</ele>
        <time>2008-10-12T07:34:48Z</time>
      </trkpt>
      <trkpt lat="47.35376" lon="0.02605">
        <ele>106</ele>
        <time>2008-10-12T07:34:44Z</time>
      </trkpt>
      <trkpt lat="47.3538" lon="0.02592">
        <ele>106</ele>
        <time>2008-10-12T07:34:40Z</time>
      </trkpt>
      <trkpt lat="47.35386" lon="0.02579">
        <ele>106</ele>
        <time>2008-10-12T07:34:36Z</time>
      </trkpt>
      <trkpt lat="47.3539" lon="0.02567">
        <ele>106</ele>
        <time>2008-10-12T07:34:33Z</time>
      </trkpt>
      <trkpt lat="47.35394" lon="0.02553">
        <ele>106</ele>
        <time>2008-10-12T07:34:29Z</time>
      </trkpt>
      <trkpt lat="47.35401" lon="0.02539">
        <ele>106</ele>
        <time>2008-10-12T07:34:24Z</time>
      </trkpt>
      <trkpt lat="47.35405" lon="0.02528">
        <ele>106</ele>
        <time>2008-10-12T07:34:20Z</time>
      </trkpt>
      <trkpt lat="47.35411" lon="0.02514">
        <ele>106</ele>
        <time>2008-10-12T07:34:16Z</time>
      </trkpt>
      <trkpt lat="47.35415" lon="0.025">
        <ele>106</ele>
        <time>2008-10-12T07:34:12Z</time>
      </trkpt>
      <trkpt lat="47.35419" lon="0.02487">
        <ele>106</ele>
        <time>2008-10-12T07:34:08Z</time>
      </trkpt>
      <trkpt lat="47.35426" lon="0.02477">
        <ele>106</ele>
        <time>2008-10-12T07:34:05Z</time>
      </trkpt>
      <trkpt lat="47.35431" lon="0.02464">
        <ele>100</ele>
        <time>2008-10-12T07:34:01Z</time>
      </trkpt>
      <trkpt lat="47.35434" lon="0.02451">
        <ele>100</ele>
        <time>2008-10-12T07:33:57Z</time>
      </trkpt>
      <trkpt lat="47.35437" lon="0.02437">
        <ele>100</ele>
        <time>2008-10-12T07:33:53Z</time>
      </trkpt>
      <trkpt lat="47.35442" lon="0.02425">
        <ele>100</ele>
        <time>2008-10-12T07:33:49Z</time>
      </trkpt>
      <trkpt lat="47.35447" lon="0.02411">
        <ele>100</ele>
        <time>2008-10-12T07:33:45Z</time>
      </trkpt>
      <trkpt lat="47.35452" lon="0.02398">
        <ele>100</ele>
        <time>2008-10-12T07:33:41Z</time>
      </trkpt>
      <trkpt lat="47.35456" lon="0.02386">
        <ele>91</ele>
        <time>2008-10-12T07:33:37Z</time>
      </trkpt>
      <trkpt lat="47.35458" lon="0.02371">
        <ele>91</ele>
        <time>2008-10-12T07:33:33Z</time>
      </trkpt>
      <trkpt lat="47.35465" lon="0.02358">
        <ele>91</ele>
        <time>2008-10-12T07:33:29Z</time>
      </trkpt>
      <trkpt lat="47.35469" lon="0.02345">
        <ele>85</ele>
        <time>2008-10-12T07:33:25Z</time>
      </trkpt>
      <trkpt lat="47.35473" lon="0.02331">
        <ele>85</ele>
        <time>2008-10-12T07:33:21Z</time>
      </trkpt>
      <trkpt lat="47.35479" lon="0.02317">
        <ele>85</ele>
        <time>2008-10-12T07:33:17Z</time>
      </trkpt>
      <trkpt lat="47.35485" lon="0.02305">
        <ele>85</ele>
        <time>2008-10-12T07:33:14Z</time>
      </trkpt>
      <trkpt lat="47.3549" lon="0.02292">
        <ele>85</ele>
        <time>2008-10-12T07:33:11Z</time>
      </trkpt>
      <trkpt lat="47.35496" lon="0.02279">
        <ele>85</ele>
        <time>2008-10-12T07:33:08Z</time>
      </trkpt>
      <trkpt lat="47.35501" lon="0.02267">
        <ele>85</ele>
        <time>2008-10-12T07:33:05Z</time>
      </trkpt>
      <trkpt lat="47.35507" lon="0.02255">
        <ele>85</ele>
        <time>2008-10-12T07:33:02Z</time>
      </trkpt>
      <trkpt lat="47.35513" lon="0.02245">
        <ele>85</ele>
        <time>2008-10-12T07:32:59Z</time>
      </trkpt>
      <trkpt lat="47.35519" lon="0.02234">
        <ele>85</ele>
        <time>2008-10-12T07:32:54Z</time>
      </trkpt>
      <trkpt lat="47.35519" lon="0.0222">
        <ele>85</ele>
        <time>2008-10-12T07:32:49Z</time>
      </trkpt>
      <trkpt lat="47.3552" lon="0.02205">
        <ele>78</ele>
        <time>2008-10-12T07:32:46Z</time>
      </trkpt>
      <trkpt lat="47.35519" lon="0.02189">
        <ele>78</ele>
        <time>2008-10-12T07:32:43Z</time>
      </trkpt>
      <trkpt lat="47.35518" lon="0.02171">
        <ele>78</ele>
        <time>2008-10-12T07:32:40Z</time>
      </trkpt>
      <trkpt lat="47.35518" lon="0.02154">
        <ele>78</ele>
        <time>2008-10-12T07:32:37Z</time>
      </trkpt>
      <trkpt lat="47.35519" lon="0.02139">
        <ele>78</ele>
        <time>2008-10-12T07:32:34Z</time>
      </trkpt>
      <trkpt lat="47.35518" lon="0.02122">
        <ele>78</ele>
        <time>2008-10-12T07:32:31Z</time>
      </trkpt>
      <trkpt lat="47.35517" lon="0.02104">
        <ele>78</ele>
        <time>2008-10-12T07:32:28Z</time>
      </trkpt>
      <trkpt lat="47.35513" lon="0.02086">
        <ele>78</ele>
        <time>2008-10-12T07:32:25Z</time>
      </trkpt>
      <trkpt lat="47.3551" lon="0.02068">
        <ele>78</ele>
        <time>2008-10-12T07:32:22Z</time>
      </trkpt>
      <trkpt lat="47.35508" lon="0.02054">
        <ele>78</ele>
        <time>2008-10-12T07:32:20Z</time>
      </trkpt>
      <trkpt lat="47.35505" lon="0.02042">
        <ele>78</ele>
        <time>2008-10-12T07:32:18Z</time>
      </trkpt>
      <trkpt lat="47.355" lon="0.02024">
        <ele>78</ele>
        <time>2008-10-12T07:32:15Z</time>
      </trkpt>
      <trkpt lat="47.35498" lon="0.0201">
        <ele>78</ele>
        <time>2008-10-12T07:32:13Z</time>
      </trkpt>
      <trkpt lat="47.35495" lon="0.01998">
        <ele>78</ele>
        <time>2008-10-12T07:32:11Z</time>
      </trkpt>
      <trkpt lat="47.35535" lon="0.01972">
        <ele>79.148438</ele>
        <time>2008-10-12T07:13:23Z</time>
      </trkpt>
      <trkpt lat="47.35531" lon="0.01972">
        <ele>78.984375</ele>
        <time>2008-10-12T07:13:23Z</time>
      </trkpt>
      <trkpt lat="47.35607" lon="0.01955">
        <ele>81.160156</ele>
        <time>2008-10-12T07:13:23Z</time>
      </trkpt>
      <trkpt lat="47.35652" lon="0.01911">
        <ele>83.410156</ele>
        <time>2008-10-12T07:13:23Z</time>
      </trkpt>
      <trkpt lat="47.35715" lon="0.01791">
        <ele>88.855469</ele>
        <time>2008-10-12T07:13:23Z</time>
      </trkpt>
      <trkpt lat="47.35791" lon="0.01659">
        <ele>95.019531</ele>
        <time>2008-10-12T07:13:23Z</time>
      </trkpt>
      <trkpt lat="47.35895" lon="0.01462">
        <ele>95.742188</ele>
        <time>2008-10-12T07:13:23Z</time>
      </trkpt>
      <trkpt lat="47.35989" lon="0.01325">
        <ele>96.488281</ele>
        <time>2008-10-12T07:13:23Z</time>
      </trkpt>
      <trkpt lat="47.36034" lon="0.01253">
        <ele>98.105469</ele>
        <time>2008-10-12T07:13:23Z</time>
      </trkpt>
      <trkpt lat="47.36046" lon="0.01223">
        <ele>98.527344</ele>
        <time>2008-10-12T07:13:23Z</time>
      </trkpt>
      <trkpt lat="47.36075" lon="0.01157">
        <ele>98.261719</ele>
        <time>2008-10-12T07:13:23Z</time>
      </trkpt>
      <trkpt lat="47.36097" lon="0.01111">
        <ele>98.003906</ele>
        <time>2008-10-12T07:13:23Z</time>
      </trkpt>
      <trkpt lat="47.36121" lon="0.01068">
        <ele>98.113281</ele>
        <time>2008-10-12T07:13:23Z</time>
      </trkpt>
      <trkpt lat="47.3614" lon="0.01025">
        <ele>97.996094</ele>
        <time>2008-10-12T07:13:23Z</time>
      </trkpt>
      <trkpt lat="47.36143" lon="0.00986">
        <ele>97.515625</ele>
        <time>2008-10-12T07:13:23Z</time>
      </trkpt>
      <trkpt lat="47.36164" lon="0.0094">
        <ele>97.796875</ele>
        <time>2008-10-12T07:13:23Z</time>
      </trkpt>
      <trkpt lat="47.36172" lon="0.00884">
        <ele>98</ele>
        <time>2008-10-12T07:13:23Z</time>
      </trkpt>
      <trkpt lat="47.36194" lon="0.00828">
        <ele>97.867188</ele>
        <time>2008-10-12T07:13:23Z</time>
      </trkpt>
      <trkpt lat="47.36194" lon="0.00788">
        <ele>97.867188</ele>
        <time>2008-10-12T07:13:23Z</time>
      </trkpt>
      <trkpt lat="47.36226" lon="0.00713">
        <ele>99.011719</ele>
        <time>2008-10-12T07:13:23Z</time>
      </trkpt>
      <trkpt lat="47.36256" lon="0.00722">
        <ele>99.097656</ele>
        <time>2008-10-12T07:13:23Z</time>
      </trkpt>
      <trkpt lat="47.36296" lon="0.00722">
        <ele>99.433594</ele>
        <time>2008-10-12T07:13:23Z</time>
      </trkpt>
      <trkpt lat="47.36323" lon="0.0067">
        <ele>99.34375</ele>
        <time>2008-10-12T07:13:23Z</time>
      </trkpt>
      <trkpt lat="47.36337" lon="0.00607">
        <ele>99.976562</ele>
        <time>2008-10-12T07:13:23Z</time>
      </trkpt>
      <trkpt lat="47.36339" lon="0.00551">
        <ele>100.921875</ele>
        <time>2008-10-12T07:13:23Z</time>
      </trkpt>
      <trkpt lat="47.36366" lon="0.00486">
        <ele>102.859375</ele>
        <time>2008-10-12T07:13:23Z</time>
      </trkpt>
      <trkpt lat="47.36388" lon="0.0042">
        <ele>104.917969</ele>
        <time>2008-10-12T07:13:23Z</time>
      </trkpt>
      <trkpt lat="47.36415" lon="0.00351">
        <ele>105.648438</ele>
        <time>2008-10-12T07:13:23Z</time>
      </trkpt>
      <trkpt lat="47.36436" lon="0.00305">
        <ele>106.398438</ele>
        <time>2008-10-12T07:13:23Z</time>
      </trkpt>
      <trkpt lat="47.36447" lon="0.00255">
        <ele>106.8125</ele>
        <time>2008-10-12T07:13:23Z</time>
      </trkpt>
      <trkpt lat="47.36469" lon="0.00216">
        <ele>106.230469</ele>
        <time>2008-10-12T07:13:23Z</time>
      </trkpt>
      <trkpt lat="47.36471" lon="0.00216">
        <ele>106.132812</ele>
        <time>2008-10-12T07:13:23Z</time>
      </trkpt>
      <trkpt lat="47.36477" lon="0.00183">
        <ele>105.964844</ele>
        <time>2008-10-12T07:13:23Z</time>
      </trkpt>
      <trkpt lat="47.36442" lon="0.00117">
        <ele>107.203125</ele>
        <time>2008-10-12T07:13:23Z</time>
      </trkpt>
      <trkpt lat="47.36404" lon="0.00041">
        <ele>106.5625</ele>
        <time>2008-10-12T07:13:23Z</time>
      </trkpt>
      <trkpt lat="47.36377" lon="-0.00047">
        <ele>106.734375</ele>
        <time>2008-10-12T07:13:23Z</time>
      </trkpt>
      <trkpt lat="47.36348" lon="-0.00146">
        <ele>107.441406</ele>
        <time>2008-10-12T07:13:23Z</time>
      </trkpt>
      <trkpt lat="47.36331" lon="-0.00268">
        <ele>104.824219</ele>
        <time>2008-10-12T07:13:23Z</time>
      </trkpt>
      <trkpt lat="47.3631" lon="-0.00327">
        <ele>102.433594</ele>
        <time>2008-10-12T07:13:23Z</time>
      </trkpt>
      <trkpt lat="47.36291" lon="-0.00376">
        <ele>100.242188</ele>
        <time>2008-10-12T07:13:23Z</time>
      </trkpt>
      <trkpt lat="47.36269" lon="-0.00422">
        <ele>98.78125</ele>
        <time>2008-10-12T07:13:23Z</time>
      </trkpt>
      <trkpt lat="47.36229" lon="-0.00501">
        <ele>97.808594</ele>
        <time>2008-10-12T07:13:23Z</time>
      </trkpt>
      <trkpt lat="47.36164" lon="-0.0058">
        <ele>99.402344</ele>
        <time>2008-10-12T07:13:23Z</time>
      </trkpt>
      <trkpt lat="47.36108" lon="-0.00656">
        <ele>102.761719</ele>
        <time>2008-10-12T07:13:23Z</time>
      </trkpt>
      <trkpt lat="47.36065" lon="-0.00712">
        <ele>104.28125</ele>
        <time>2008-10-12T07:13:23Z</time>
      </trkpt>
      <trkpt lat="47.36024" lon="-0.00824">
        <ele>101.574219</ele>
        <time>2008-10-12T07:13:23Z</time>
      </trkpt>
      <trkpt lat="47.35997" lon="-0.00949">
        <ele>101</ele>
        <time>2008-10-12T07:13:23Z</time>
      </trkpt>
      <trkpt lat="47.35962" lon="-0.01031">
        <ele>100.414062</ele>
        <time>2008-10-12T07:13:23Z</time>
      </trkpt>
      <trkpt lat="47.35927" lon="-0.01159">
        <ele>98.804688</ele>
        <time>2008-10-12T07:13:23Z</time>
      </trkpt>
      <trkpt lat="47.35892" lon="-0.01261">
        <ele>98.570312</ele>
        <time>2008-10-12T07:13:23Z</time>
      </trkpt>
      <trkpt lat="47.35868" lon="-0.0139">
        <ele>98.878906</ele>
        <time>2008-10-12T07:13:23Z</time>
      </trkpt>
      <trkpt lat="47.35844" lon="-0.01534">
        <ele>102.507812</ele>
        <time>2008-10-12T07:13:23Z</time>
      </trkpt>
      <trkpt lat="47.3583" lon="-0.01607">
        <ele>103.476562</ele>
        <time>2008-10-12T07:13:23Z</time>
      </trkpt>
      <trkpt lat="47.35807" lon="-0.01663">
        <ele>104.183594</ele>
        <time>2008-10-12T07:13:23Z</time>
      </trkpt>
      <trkpt lat="47.35783" lon="-0.01681">
        <ele>104.929688</ele>
        <time>2008-10-12T07:13:23Z</time>
      </trkpt>
      <trkpt lat="47.3576" lon="-0.01706">
        <ele>106.164062</ele>
        <time>2008-10-12T07:13:23Z</time>
      </trkpt>
      <trkpt lat="47.35751" lon="-0.01754">
        <ele>106.09375</ele>
        <time>2008-10-12T07:13:23Z</time>
      </trkpt>
      <trkpt lat="47.35751" lon="-0.01755">
        <ele>106.09375</ele>
        <time>2008-10-12T07:13:23Z</time>
      </trkpt>
      <trkpt lat="47.35736" lon="-0.01785">
        <ele>106.628906</ele>
        <time>2008-10-12T07:13:23Z</time>
      </trkpt>
      <trkpt lat="47.35721" lon="-0.01839">
        <ele>107</ele>
        <time>2008-10-12T07:13:23Z</time>
      </trkpt>
      <trkpt lat="47.35701" lon="-0.01887">
        <ele>107</ele>
        <time>2008-10-12T07:13:23Z</time>
      </trkpt>
      <trkpt lat="47.35682" lon="-0.01928">
        <ele>107.570312</ele>
        <time>2008-10-12T07:13:23Z</time>
      </trkpt>
      <trkpt lat="47.35658" lon="-0.01973">
        <ele>108</ele>
        <time>2008-10-12T07:13:23Z</time>
      </trkpt>
      <trkpt lat="47.35648" lon="-0.01986">
        <ele>108</ele>
        <time>2008-10-12T07:13:23Z</time>
      </trkpt>
      <trkpt lat="47.35648" lon="-0.01985">
        <ele>108</ele>
        <time>2008-10-12T07:13:23Z</time>
      </trkpt>
      <trkpt lat="47.35645" lon="-0.01991">
        <ele>108</ele>
        <time>2008-10-12T07:13:23Z</time>
      </trkpt>
      <trkpt lat="47.35643" lon="-0.01994">
        <ele>108</ele>
        <time>2008-10-12T07:13:23Z</time>
      </trkpt>
      <trkpt lat="47.35638" lon="-0.02004">
        <ele>108</ele>
        <time>2008-10-12T07:13:23Z</time>
      </trkpt>
      <trkpt lat="47.35641" lon="-0.02017">
        <ele>108</ele>
        <time>2008-10-12T07:13:23Z</time>
      </trkpt>
      <trkpt lat="47.35634" lon="-0.01963">
        <ele>109</ele>
        <time>2008-10-12T07:14:56Z</time>
      </trkpt>
      <trkpt lat="47.3563" lon="-0.01949">
        <ele>109</ele>
        <time>2008-10-12T07:14:58Z</time>
      </trkpt>
      <trkpt lat="47.35626" lon="-0.01935">
        <ele>109</ele>
        <time>2008-10-12T07:15:00Z</time>
      </trkpt>
      <trkpt lat="47.35622" lon="-0.01922">
        <ele>109</ele>
        <time>2008-10-12T07:15:02Z</time>
      </trkpt>
      <trkpt lat="47.35617" lon="-0.01908">
        <ele>109</ele>
        <time>2008-10-12T07:15:04Z</time>
      </trkpt>
      <trkpt lat="47.35614" lon="-0.01895">
        <ele>109</ele>
        <time>2008-10-12T07:15:06Z</time>
      </trkpt>
      <trkpt lat="47.35609" lon="-0.01881">
        <ele>109</ele>
        <time>2008-10-12T07:15:08Z</time>
      </trkpt>
      <trkpt lat="47.35606" lon="-0.01866">
        <ele>109</ele>
        <time>2008-10-12T07:15:10Z</time>
      </trkpt>
      <trkpt lat="47.35603" lon="-0.01851">
        <ele>109</ele>
        <time>2008-10-12T07:15:12Z</time>
      </trkpt>
      <trkpt lat="47.35599" lon="-0.01837">
        <ele>109</ele>
        <time>2008-10-12T07:15:14Z</time>
      </trkpt>
      <trkpt lat="47.35595" lon="-0.01823">
        <ele>109</ele>
        <time>2008-10-12T07:15:16Z</time>
      </trkpt>
      <trkpt lat="47.35592" lon="-0.01809">
        <ele>109</ele>
        <time>2008-10-12T07:15:18Z</time>
      </trkpt>
      <trkpt lat="47.35588" lon="-0.01796">
        <ele>109</ele>
        <time>2008-10-12T07:15:20Z</time>
      </trkpt>
      <trkpt lat="47.35585" lon="-0.01782">
        <ele>109</ele>
        <time>2008-10-12T07:15:23Z</time>
      </trkpt>
      <trkpt lat="47.35583" lon="-0.01769">
        <ele>114</ele>
        <time>2008-10-12T07:15:28Z</time>
      </trkpt>
      <trkpt lat="47.35574" lon="-0.01748">
        <ele>125</ele>
        <time>2008-10-12T07:19:29Z</time>
      </trkpt>
      <trkpt lat="47.35573" lon="-0.01735">
        <ele>120</ele>
        <time>2008-10-12T07:19:32Z</time>
      </trkpt>
      <trkpt lat="47.3557" lon="-0.01722">
        <ele>120</ele>
        <time>2008-10-12T07:19:35Z</time>
      </trkpt>
      <trkpt lat="47.35565" lon="-0.01707">
        <ele>120</ele>
        <time>2008-10-12T07:19:38Z</time>
      </trkpt>
      <trkpt lat="47.35561" lon="-0.0169">
        <ele>112</ele>
        <time>2008-10-12T07:19:41Z</time>
      </trkpt>
      <trkpt lat="47.35557" lon="-0.01673">
        <ele>112</ele>
        <time>2008-10-12T07:19:44Z</time>
      </trkpt>
      <trkpt lat="47.35553" lon="-0.01656">
        <ele>112</ele>
        <time>2008-10-12T07:19:47Z</time>
      </trkpt>
      <trkpt lat="47.35548" lon="-0.01638">
        <ele>112</ele>
        <time>2008-10-12T07:19:50Z</time>
      </trkpt>
      <trkpt lat="47.35545" lon="-0.01625">
        <ele>112</ele>
        <time>2008-10-12T07:19:52Z</time>
      </trkpt>
      <trkpt lat="47.35541" lon="-0.01607">
        <ele>112</ele>
        <time>2008-10-12T07:19:55Z</time>
      </trkpt>
      <trkpt lat="47.35537" lon="-0.01594">
        <ele>112</ele>
        <time>2008-10-12T07:19:57Z</time>
      </trkpt>
      <trkpt lat="47.35534" lon="-0.01582">
        <ele>112</ele>
        <time>2008-10-12T07:19:59Z</time>
      </trkpt>
      <trkpt lat="47.35531" lon="-0.01569">
        <ele>112</ele>
        <time>2008-10-12T07:20:01Z</time>
      </trkpt>
      <trkpt lat="47.35527" lon="-0.01555">
        <ele>112</ele>
        <time>2008-10-12T07:20:04Z</time>
      </trkpt>
      <trkpt lat="47.35518" lon="-0.01548">
        <ele>112</ele>
        <time>2008-10-12T07:20:07Z</time>
      </trkpt>
      <trkpt lat="47.35509" lon="-0.01548">
        <ele>112</ele>
        <time>2008-10-12T07:20:11Z</time>
      </trkpt>
      <trkpt lat="47.355" lon="-0.01543">
        <ele>112</ele>
        <time>2008-10-12T07:21:01Z</time>
      </trkpt>
      <trkpt lat="47.35491" lon="-0.01541">
        <ele>112</ele>
        <time>2008-10-12T07:21:04Z</time>
      </trkpt>
      <trkpt lat="47.35481" lon="-0.01538">
        <ele>112</ele>
        <time>2008-10-12T07:21:07Z</time>
      </trkpt>
      <trkpt lat="47.35468" lon="-0.01533">
        <ele>112</ele>
        <time>2008-10-12T07:21:10Z</time>
      </trkpt>
      <trkpt lat="47.35457" lon="-0.01531">
        <ele>112</ele>
        <time>2008-10-12T07:21:13Z</time>
      </trkpt>
      <trkpt lat="47.35445" lon="-0.01528">
        <ele>112</ele>
        <time>2008-10-12T07:21:16Z</time>
      </trkpt>
      <trkpt lat="47.35434" lon="-0.01524">
        <ele>112</ele>
        <time>2008-10-12T07:21:19Z</time>
      </trkpt>
      <trkpt lat="47.35422" lon="-0.01521">
        <ele>112</ele>
        <time>2008-10-12T07:21:22Z</time>
      </trkpt>
      <trkpt lat="47.35413" lon="-0.01517">
        <ele>112</ele>
        <time>2008-10-12T07:21:24Z</time>
      </trkpt>
      <trkpt lat="47.35402" lon="-0.01512">
        <ele>112</ele>
        <time>2008-10-12T07:21:27Z</time>
      </trkpt>
      <trkpt lat="47.35394" lon="-0.01507">
        <ele>112</ele>
        <time>2008-10-12T07:21:29Z</time>
      </trkpt>
      <trkpt lat="47.35381" lon="-0.01503">
        <ele>112</ele>
        <time>2008-10-12T07:21:32Z</time>
      </trkpt>
      <trkpt lat="47.35372" lon="-0.01498">
        <ele>112</ele>
        <time>2008-10-12T07:21:34Z</time>
      </trkpt>
      <trkpt lat="47.35364" lon="-0.01489">
        <ele>112</ele>
        <time>2008-10-12T07:21:36Z</time>
      </trkpt>
      <trkpt lat="47.35355" lon="-0.01477">
        <ele>112</ele>
        <time>2008-10-12T07:21:38Z</time>
      </trkpt>
      <trkpt lat="47.35344" lon="-0.01465">
        <ele>112</ele>
        <time>2008-10-12T07:21:40Z</time>
      </trkpt>
      <trkpt lat="47.35332" lon="-0.01457">
        <ele>112</ele>
        <time>2008-10-12T07:21:42Z</time>
      </trkpt>
      <trkpt lat="47.35319" lon="-0.0145">
        <ele>112</ele>
        <time>2008-10-12T07:21:44Z</time>
      </trkpt>
      <trkpt lat="47.35307" lon="-0.01441">
        <ele>112</ele>
        <time>2008-10-12T07:21:46Z</time>
      </trkpt>
      <trkpt lat="47.35294" lon="-0.01429">
        <ele>112</ele>
        <time>2008-10-12T07:21:48Z</time>
      </trkpt>
      <trkpt lat="47.35281" lon="-0.01416">
        <ele>112</ele>
        <time>2008-10-12T07:21:50Z</time>
      </trkpt>
      <trkpt lat="47.35274" lon="-0.01408">
        <ele>112</ele>
        <time>2008-10-12T07:21:51Z</time>
      </trkpt>
      <trkpt lat="47.3526" lon="-0.01391">
        <ele>112</ele>
        <time>2008-10-12T07:21:53Z</time>
      </trkpt>
      <trkpt lat="47.35245" lon="-0.01375">
        <ele>112</ele>
        <time>2008-10-12T07:21:55Z</time>
      </trkpt>
      <trkpt lat="47.35237" lon="-0.01366">
        <ele>106</ele>
        <time>2008-10-12T07:21:56Z</time>
      </trkpt>
      <trkpt lat="47.35228" lon="-0.01358">
        <ele>106</ele>
        <time>2008-10-12T07:21:57Z</time>
      </trkpt>
      <trkpt lat="47.35221" lon="-0.0135">
        <ele>106</ele>
        <time>2008-10-12T07:21:58Z</time>
      </trkpt>
      <trkpt lat="47.35213" lon="-0.01342">
        <ele>106</ele>
        <time>2008-10-12T07:21:59Z</time>
      </trkpt>
      <trkpt lat="47.35205" lon="-0.01334">
        <ele>106</ele>
        <time>2008-10-12T07:22:00Z</time>
      </trkpt>
      <trkpt lat="47.35197" lon="-0.01326">
        <ele>101</ele>
        <time>2008-10-12T07:22:01Z</time>
      </trkpt>
      <trkpt lat="47.35188" lon="-0.0132">
        <ele>101</ele>
        <time>2008-10-12T07:22:02Z</time>
      </trkpt>
      <trkpt lat="47.35178" lon="-0.01312">
        <ele>101</ele>
        <time>2008-10-12T07:22:03Z</time>
      </trkpt>
      <trkpt lat="47.3517" lon="-0.01305">
        <ele>101</ele>
        <time>2008-10-12T07:22:04Z</time>
      </trkpt>
      <trkpt lat="47.35162" lon="-0.01297">
        <ele>101</ele>
        <time>2008-10-12T07:22:05Z</time>
      </trkpt>
      <trkpt lat="47.35154" lon="-0.0129">
        <ele>101</ele>
        <time>2008-10-12T07:22:06Z</time>
      </trkpt>
      <trkpt lat="47.35142" lon="-0.01278">
        <ele>101</ele>
        <time>2008-10-12T07:22:08Z</time>
      </trkpt>
      <trkpt lat="47.35134" lon="-0.01274">
        <ele>92</ele>
        <time>2008-10-12T07:22:09Z</time>
      </trkpt>
      <trkpt lat="47.3512" lon="-0.0126">
        <ele>86</ele>
        <time>2008-10-12T07:22:11Z</time>
      </trkpt>
      <trkpt lat="47.35107" lon="-0.01246">
        <ele>86</ele>
        <time>2008-10-12T07:22:13Z</time>
      </trkpt>
      <trkpt lat="47.35095" lon="-0.01233">
        <ele>86</ele>
        <time>2008-10-12T07:22:15Z</time>
      </trkpt>
      <trkpt lat="47.35084" lon="-0.01223">
        <ele>78</ele>
        <time>2008-10-12T07:22:17Z</time>
      </trkpt>
      <trkpt lat="47.35078" lon="-0.01214">
        <ele>78</ele>
        <time>2008-10-12T07:22:20Z</time>
      </trkpt>
      <trkpt lat="47.35081" lon="-0.01193">
        <ele>70.503906</ele>
        <time>2011-03-20T10:02:59Z</time>
      </trkpt>
      <trkpt lat="47.35094" lon="-0.01157">
        <ele>70.164062</ele>
        <time>2011-03-20T10:02:59Z</time>
      </trkpt>
      <trkpt lat="47.3512" lon="-0.01106">
        <ele>70.316406</ele>
        <time>2011-03-20T10:02:59Z</time>
      </trkpt>
      <trkpt lat="47.35141" lon="-0.01046">
        <ele>70.898438</ele>
        <time>2011-03-20T10:02:59Z</time>
      </trkpt>
      <trkpt lat="47.35167" lon="-0.00989">
        <ele>72.742188</ele>
        <time>2011-03-20T10:02:59Z</time>
      </trkpt>
      <trkpt lat="47.35199" lon="-0.00907">
        <ele>71.691406</ele>
        <time>2011-03-20T10:02:59Z</time>
      </trkpt>
      <trkpt lat="47.35237" lon="-0.008">
        <ele>70.078125</ele>
        <time>2011-03-20T10:02:59Z</time>
      </trkpt>
      <trkpt lat="47.35209" lon="-0.00763">
        <ele>66.875</ele>
        <time>2011-03-20T10:02:59Z</time>
      </trkpt>
      <trkpt lat="47.35184" lon="-0.00731">
        <ele>64.816406</ele>
        <time>2011-03-20T10:02:59Z</time>
      </trkpt>
      <trkpt lat="47.35156" lon="-0.00693">
        <ele>63.484375</ele>
        <time>2011-03-20T10:02:59Z</time>
      </trkpt>
      <trkpt lat="47.35151" lon="-0.00688">
        <ele>63.289062</ele>
        <time>2011-03-20T10:02:59Z</time>
      </trkpt>
      <trkpt lat="47.3512" lon="-0.00665">
        <ele>62.171875</ele>
        <time>2011-03-20T10:02:59Z</time>
      </trkpt>
      <trkpt lat="47.35118" lon="-0.00665">
        <ele>62.125</ele>
        <time>2011-03-20T10:02:59Z</time>
      </trkpt>
      <trkpt lat="47.35086" lon="-0.00643">
        <ele>61</ele>
        <time>2011-03-20T10:02:59Z</time>
      </trkpt>
      <trkpt lat="47.35047" lon="-0.00614">
        <ele>60.058594</ele>
        <time>2011-03-20T10:02:59Z</time>
      </trkpt>
    </trkseg>
  </trk>
</gpx>